
<gpx xmlns="http://www.topografix.com/GPX/1/1" xmlns:gpxx="http://www.garmin.com/xmlschemas/GpxExtensions/v3" xmlns:xsi="http://www.w3.org/2001/XMLSchema-instance" version="1.1" creator="Adze - https://getadze.com/" xsi:schemaLocation="http://www.topografix.com/GPX/1/1 http://www.topografix.com/GPX/1/1/gpx.xsd http://www.garmin.com/xmlschemas/GpxExtensions/v3 http://www.garmin.com/xmlschemas/GpxExtensionsv3.xsd">
    <metadata>
        <name>Untitled Document</name>
        <link href="http://e-ivanov.ru/projects/strava-export-gpx/"></link>
        <time>2018-10-30T00:07:33.083Z</time>
    </metadata>
    <wpt lon="101.205815" lat="14.341297">
        <name>Rabiangprai resort</name>
    </wpt>
    <trk>
        <name>October 2018 - Saturday</name>
        <extensions>
            <gpxx:TrackExtension>
                <gpxx:DisplayColor>DarkMagenta</gpxx:DisplayColor>
            </gpxx:TrackExtension>
        </extensions>
        <trkseg>
            <trkpt lon="101.203998" lat="14.340200">
                <ele>96.000000</ele>
                <time>2018-10-20T06:07:00Z</time>
            </trkpt>
            <trkpt lon="101.203765" lat="14.340261">
                <ele>96.400000</ele>
                <time>2018-10-20T06:07:06Z</time>
            </trkpt>
            <trkpt lon="101.203416" lat="14.340335">
                <ele>96.800000</ele>
                <time>2018-10-20T06:07:14Z</time>
            </trkpt>
            <trkpt lon="101.203115" lat="14.340397">
                <ele>97.300000</ele>
                <time>2018-10-20T06:07:21Z</time>
            </trkpt>
            <trkpt lon="101.202904" lat="14.340456">
                <ele>98.500000</ele>
                <time>2018-10-20T06:07:27Z</time>
            </trkpt>
            <trkpt lon="101.202841" lat="14.340485">
                <ele>99.100000</ele>
                <time>2018-10-20T06:07:30Z</time>
            </trkpt>
            <trkpt lon="101.202770" lat="14.340490">
                <ele>99.800000</ele>
                <time>2018-10-20T06:07:33Z</time>
            </trkpt>
            <trkpt lon="101.202751" lat="14.340486">
                <ele>99.900000</ele>
                <time>2018-10-20T06:07:34Z</time>
            </trkpt>
            <trkpt lon="101.202713" lat="14.340449">
                <ele>100.400000</ele>
                <time>2018-10-20T06:07:37Z</time>
            </trkpt>
            <trkpt lon="101.202709" lat="14.340429">
                <ele>100.600000</ele>
                <time>2018-10-20T06:07:38Z</time>
            </trkpt>
            <trkpt lon="101.202689" lat="14.340385">
                <ele>101.000000</ele>
                <time>2018-10-20T06:07:40Z</time>
            </trkpt>
            <trkpt lon="101.202680" lat="14.340361">
                <ele>101.300000</ele>
                <time>2018-10-20T06:07:41Z</time>
            </trkpt>
            <trkpt lon="101.202676" lat="14.340268">
                <ele>102.200000</ele>
                <time>2018-10-20T06:07:45Z</time>
            </trkpt>
            <trkpt lon="101.202679" lat="14.340224">
                <ele>102.600000</ele>
                <time>2018-10-20T06:07:47Z</time>
            </trkpt>
            <trkpt lon="101.202668" lat="14.340149">
                <ele>103.100000</ele>
                <time>2018-10-20T06:07:51Z</time>
            </trkpt>
            <trkpt lon="101.202667" lat="14.340025">
                <ele>103.500000</ele>
                <time>2018-10-20T06:07:57Z</time>
            </trkpt>
            <trkpt lon="101.202673" lat="14.339839">
                <ele>103.200000</ele>
                <time>2018-10-20T06:08:05Z</time>
            </trkpt>
            <trkpt lon="101.202680" lat="14.339815">
                <ele>103.100000</ele>
                <time>2018-10-20T06:08:06Z</time>
            </trkpt>
            <trkpt lon="101.202711" lat="14.339634">
                <ele>101.700000</ele>
                <time>2018-10-20T06:08:11Z</time>
            </trkpt>
            <trkpt lon="101.202746" lat="14.339408">
                <ele>99.600000</ele>
                <time>2018-10-20T06:08:15Z</time>
            </trkpt>
            <trkpt lon="101.202754" lat="14.339336">
                <ele>99.200000</ele>
                <time>2018-10-20T06:08:16Z</time>
            </trkpt>
            <trkpt lon="101.202763" lat="14.339253">
                <ele>98.800000</ele>
                <time>2018-10-20T06:08:17Z</time>
            </trkpt>
            <trkpt lon="101.202779" lat="14.339085">
                <ele>98.200000</ele>
                <time>2018-10-20T06:08:19Z</time>
            </trkpt>
            <trkpt lon="101.202782" lat="14.339002">
                <ele>97.900000</ele>
                <time>2018-10-20T06:08:20Z</time>
            </trkpt>
            <trkpt lon="101.202788" lat="14.338919">
                <ele>97.700000</ele>
                <time>2018-10-20T06:08:21Z</time>
            </trkpt>
            <trkpt lon="101.202805" lat="14.338782">
                <ele>97.400000</ele>
                <time>2018-10-20T06:08:23Z</time>
            </trkpt>
            <trkpt lon="101.202802" lat="14.338665">
                <ele>97.000000</ele>
                <time>2018-10-20T06:08:25Z</time>
            </trkpt>
            <trkpt lon="101.202820" lat="14.338519">
                <ele>96.600000</ele>
                <time>2018-10-20T06:08:28Z</time>
            </trkpt>
            <trkpt lon="101.202828" lat="14.338473">
                <ele>96.400000</ele>
                <time>2018-10-20T06:08:29Z</time>
            </trkpt>
            <trkpt lon="101.202849" lat="14.338290">
                <ele>95.200000</ele>
                <time>2018-10-20T06:08:33Z</time>
            </trkpt>
            <trkpt lon="101.202852" lat="14.338238">
                <ele>94.900000</ele>
                <time>2018-10-20T06:08:34Z</time>
            </trkpt>
            <trkpt lon="101.202860" lat="14.338122">
                <ele>94.300000</ele>
                <time>2018-10-20T06:08:36Z</time>
            </trkpt>
            <trkpt lon="101.202870" lat="14.337959">
                <ele>93.700000</ele>
                <time>2018-10-20T06:08:39Z</time>
            </trkpt>
            <trkpt lon="101.202870" lat="14.337898">
                <ele>93.600000</ele>
                <time>2018-10-20T06:08:40Z</time>
            </trkpt>
            <trkpt lon="101.202872" lat="14.337836">
                <ele>93.500000</ele>
                <time>2018-10-20T06:08:41Z</time>
            </trkpt>
            <trkpt lon="101.202870" lat="14.337686">
                <ele>93.600000</ele>
                <time>2018-10-20T06:08:43Z</time>
            </trkpt>
            <trkpt lon="101.202866" lat="14.337611">
                <ele>93.800000</ele>
                <time>2018-10-20T06:08:44Z</time>
            </trkpt>
            <trkpt lon="101.202848" lat="14.337488">
                <ele>94.300000</ele>
                <time>2018-10-20T06:08:46Z</time>
            </trkpt>
            <trkpt lon="101.202844" lat="14.337394">
                <ele>94.900000</ele>
                <time>2018-10-20T06:08:48Z</time>
            </trkpt>
            <trkpt lon="101.202844" lat="14.337314">
                <ele>95.300000</ele>
                <time>2018-10-20T06:08:51Z</time>
            </trkpt>
            <trkpt lon="101.202831" lat="14.337231">
                <ele>95.500000</ele>
                <time>2018-10-20T06:08:55Z</time>
            </trkpt>
            <trkpt lon="101.202830" lat="14.337169">
                <ele>95.600000</ele>
                <time>2018-10-20T06:08:57Z</time>
            </trkpt>
            <trkpt lon="101.202836" lat="14.337100">
                <ele>95.700000</ele>
                <time>2018-10-20T06:08:59Z</time>
            </trkpt>
            <trkpt lon="101.202838" lat="14.336951">
                <ele>95.800000</ele>
                <time>2018-10-20T06:09:03Z</time>
            </trkpt>
            <trkpt lon="101.202855" lat="14.336732">
                <ele>96.000000</ele>
                <time>2018-10-20T06:09:10Z</time>
            </trkpt>
            <trkpt lon="101.202899" lat="14.336494">
                <ele>95.800000</ele>
                <time>2018-10-20T06:09:17Z</time>
            </trkpt>
            <trkpt lon="101.202913" lat="14.336280">
                <ele>95.600000</ele>
                <time>2018-10-20T06:09:22Z</time>
            </trkpt>
            <trkpt lon="101.202911" lat="14.336231">
                <ele>95.500000</ele>
                <time>2018-10-20T06:09:23Z</time>
            </trkpt>
            <trkpt lon="101.202936" lat="14.336110">
                <ele>95.200000</ele>
                <time>2018-10-20T06:09:25Z</time>
            </trkpt>
            <trkpt lon="101.202977" lat="14.335996">
                <ele>95.000000</ele>
                <time>2018-10-20T06:09:27Z</time>
            </trkpt>
            <trkpt lon="101.202986" lat="14.335937">
                <ele>94.900000</ele>
                <time>2018-10-20T06:09:28Z</time>
            </trkpt>
            <trkpt lon="101.203000" lat="14.335806">
                <ele>94.700000</ele>
                <time>2018-10-20T06:09:30Z</time>
            </trkpt>
            <trkpt lon="101.203027" lat="14.335679">
                <ele>94.600000</ele>
                <time>2018-10-20T06:09:32Z</time>
            </trkpt>
            <trkpt lon="101.203031" lat="14.335477">
                <ele>94.600000</ele>
                <time>2018-10-20T06:09:35Z</time>
            </trkpt>
            <trkpt lon="101.203018" lat="14.335360">
                <ele>94.600000</ele>
                <time>2018-10-20T06:09:37Z</time>
            </trkpt>
            <trkpt lon="101.202992" lat="14.335138">
                <ele>94.700000</ele>
                <time>2018-10-20T06:09:41Z</time>
            </trkpt>
            <trkpt lon="101.202970" lat="14.335033">
                <ele>94.700000</ele>
                <time>2018-10-20T06:09:43Z</time>
            </trkpt>
            <trkpt lon="101.202948" lat="14.334811">
                <ele>94.600000</ele>
                <time>2018-10-20T06:09:48Z</time>
            </trkpt>
            <trkpt lon="101.202927" lat="14.334776">
                <ele>94.600000</ele>
                <time>2018-10-20T06:09:49Z</time>
            </trkpt>
            <trkpt lon="101.202820" lat="14.334730">
                <ele>94.500000</ele>
                <time>2018-10-20T06:09:52Z</time>
            </trkpt>
            <trkpt lon="101.202782" lat="14.334721">
                <ele>94.500000</ele>
                <time>2018-10-20T06:09:53Z</time>
            </trkpt>
            <trkpt lon="101.202582" lat="14.334651">
                <ele>91.800000</ele>
                <time>2018-10-20T06:09:59Z</time>
            </trkpt>
            <trkpt lon="101.202539" lat="14.334650">
                <ele>91.100000</ele>
                <time>2018-10-20T06:10:00Z</time>
            </trkpt>
            <trkpt lon="101.202442" lat="14.334675">
                <ele>89.500000</ele>
                <time>2018-10-20T06:10:03Z</time>
            </trkpt>
            <trkpt lon="101.202415" lat="14.334683">
                <ele>89.000000</ele>
                <time>2018-10-20T06:10:04Z</time>
            </trkpt>
            <trkpt lon="101.202366" lat="14.334695">
                <ele>88.000000</ele>
                <time>2018-10-20T06:10:07Z</time>
            </trkpt>
            <trkpt lon="101.202346" lat="14.334697">
                <ele>87.700000</ele>
                <time>2018-10-20T06:10:08Z</time>
            </trkpt>
            <trkpt lon="101.202214" lat="14.334667">
                <ele>85.700000</ele>
                <time>2018-10-20T06:10:14Z</time>
            </trkpt>
            <trkpt lon="101.202077" lat="14.334622">
                <ele>84.500000</ele>
                <time>2018-10-20T06:10:18Z</time>
            </trkpt>
            <trkpt lon="101.202026" lat="14.334602">
                <ele>84.100000</ele>
                <time>2018-10-20T06:10:19Z</time>
            </trkpt>
            <trkpt lon="101.201981" lat="14.334604">
                <ele>83.800000</ele>
                <time>2018-10-20T06:10:20Z</time>
            </trkpt>
            <trkpt lon="101.201922" lat="14.334589">
                <ele>83.200000</ele>
                <time>2018-10-20T06:10:21Z</time>
            </trkpt>
            <trkpt lon="101.201795" lat="14.334554">
                <ele>82.000000</ele>
                <time>2018-10-20T06:10:23Z</time>
            </trkpt>
            <trkpt lon="101.201677" lat="14.334528">
                <ele>80.900000</ele>
                <time>2018-10-20T06:10:25Z</time>
            </trkpt>
            <trkpt lon="101.201614" lat="14.334507">
                <ele>80.400000</ele>
                <time>2018-10-20T06:10:26Z</time>
            </trkpt>
            <trkpt lon="101.201553" lat="14.334484">
                <ele>80.100000</ele>
                <time>2018-10-20T06:10:27Z</time>
            </trkpt>
            <trkpt lon="101.201421" lat="14.334424">
                <ele>79.400000</ele>
                <time>2018-10-20T06:10:29Z</time>
            </trkpt>
            <trkpt lon="101.201287" lat="14.334375">
                <ele>78.900000</ele>
                <time>2018-10-20T06:10:31Z</time>
            </trkpt>
            <trkpt lon="101.201154" lat="14.334327">
                <ele>78.400000</ele>
                <time>2018-10-20T06:10:33Z</time>
            </trkpt>
            <trkpt lon="101.201011" lat="14.334277">
                <ele>78.100000</ele>
                <time>2018-10-20T06:10:35Z</time>
            </trkpt>
            <trkpt lon="101.200782" lat="14.334212">
                <ele>77.700000</ele>
                <time>2018-10-20T06:10:38Z</time>
            </trkpt>
            <trkpt lon="101.200707" lat="14.334190">
                <ele>77.600000</ele>
                <time>2018-10-20T06:10:39Z</time>
            </trkpt>
            <trkpt lon="101.200560" lat="14.334150">
                <ele>77.300000</ele>
                <time>2018-10-20T06:10:41Z</time>
            </trkpt>
            <trkpt lon="101.200309" lat="14.334100">
                <ele>76.400000</ele>
                <time>2018-10-20T06:10:45Z</time>
            </trkpt>
            <trkpt lon="101.200205" lat="14.334080">
                <ele>75.800000</ele>
                <time>2018-10-20T06:10:47Z</time>
            </trkpt>
            <trkpt lon="101.200007" lat="14.334071">
                <ele>74.600000</ele>
                <time>2018-10-20T06:10:51Z</time>
            </trkpt>
            <trkpt lon="101.199866" lat="14.334061">
                <ele>74.000000</ele>
                <time>2018-10-20T06:10:54Z</time>
            </trkpt>
            <trkpt lon="101.199816" lat="14.334047">
                <ele>73.900000</ele>
                <time>2018-10-20T06:10:55Z</time>
            </trkpt>
            <trkpt lon="101.199773" lat="14.334040">
                <ele>73.800000</ele>
                <time>2018-10-20T06:10:56Z</time>
            </trkpt>
            <trkpt lon="101.199684" lat="14.334017">
                <ele>73.500000</ele>
                <time>2018-10-20T06:10:58Z</time>
            </trkpt>
            <trkpt lon="101.199518" lat="14.333996">
                <ele>72.800000</ele>
                <time>2018-10-20T06:11:01Z</time>
            </trkpt>
            <trkpt lon="101.199329" lat="14.333998">
                <ele>71.500000</ele>
                <time>2018-10-20T06:11:04Z</time>
            </trkpt>
            <trkpt lon="101.198994" lat="14.333982">
                <ele>69.700000</ele>
                <time>2018-10-20T06:11:09Z</time>
            </trkpt>
            <trkpt lon="101.198867" lat="14.333970">
                <ele>69.400000</ele>
                <time>2018-10-20T06:11:11Z</time>
            </trkpt>
            <trkpt lon="101.198619" lat="14.333983">
                <ele>68.900000</ele>
                <time>2018-10-20T06:11:14Z</time>
            </trkpt>
            <trkpt lon="101.198342" lat="14.333965">
                <ele>68.000000</ele>
                <time>2018-10-20T06:11:18Z</time>
            </trkpt>
            <trkpt lon="101.198150" lat="14.333958">
                <ele>66.700000</ele>
                <time>2018-10-20T06:11:21Z</time>
            </trkpt>
            <trkpt lon="101.198077" lat="14.333960">
                <ele>66.300000</ele>
                <time>2018-10-20T06:11:22Z</time>
            </trkpt>
            <trkpt lon="101.197847" lat="14.333988">
                <ele>65.100000</ele>
                <time>2018-10-20T06:11:25Z</time>
            </trkpt>
            <trkpt lon="101.197685" lat="14.334011">
                <ele>64.500000</ele>
                <time>2018-10-20T06:11:27Z</time>
            </trkpt>
            <trkpt lon="101.197613" lat="14.334021">
                <ele>64.300000</ele>
                <time>2018-10-20T06:11:28Z</time>
            </trkpt>
            <trkpt lon="101.197430" lat="14.334054">
                <ele>63.900000</ele>
                <time>2018-10-20T06:11:31Z</time>
            </trkpt>
            <trkpt lon="101.197382" lat="14.334061">
                <ele>63.800000</ele>
                <time>2018-10-20T06:11:32Z</time>
            </trkpt>
            <trkpt lon="101.197280" lat="14.334078">
                <ele>63.700000</ele>
                <time>2018-10-20T06:11:35Z</time>
            </trkpt>
            <trkpt lon="101.197120" lat="14.334096">
                <ele>63.700000</ele>
                <time>2018-10-20T06:11:42Z</time>
            </trkpt>
            <trkpt lon="101.197065" lat="14.334134">
                <ele>64.100000</ele>
                <time>2018-10-20T06:11:46Z</time>
            </trkpt>
            <trkpt lon="101.197066" lat="14.334144">
                <ele>64.100000</ele>
                <time>2018-10-20T06:11:47Z</time>
            </trkpt>
            <trkpt lon="101.197064" lat="14.334148">
                <ele>64.100000</ele>
                <time>2018-10-20T06:11:59Z</time>
            </trkpt>
            <trkpt lon="101.197068" lat="14.334194">
                <ele>64.200000</ele>
                <time>2018-10-20T06:12:08Z</time>
            </trkpt>
            <trkpt lon="101.197076" lat="14.334218">
                <ele>64.300000</ele>
                <time>2018-10-20T06:12:09Z</time>
            </trkpt>
            <trkpt lon="101.197089" lat="14.334323">
                <ele>64.800000</ele>
                <time>2018-10-20T06:12:13Z</time>
            </trkpt>
            <trkpt lon="101.197084" lat="14.334373">
                <ele>65.200000</ele>
                <time>2018-10-20T06:12:15Z</time>
            </trkpt>
            <trkpt lon="101.197084" lat="14.334470">
                <ele>65.800000</ele>
                <time>2018-10-20T06:12:21Z</time>
            </trkpt>
            <trkpt lon="101.197095" lat="14.334518">
                <ele>65.800000</ele>
                <time>2018-10-20T06:12:26Z</time>
            </trkpt>
            <trkpt lon="101.197099" lat="14.334532">
                <ele>65.700000</ele>
                <time>2018-10-20T06:12:27Z</time>
            </trkpt>
            <trkpt lon="101.197100" lat="14.334619">
                <ele>65.300000</ele>
                <time>2018-10-20T06:12:34Z</time>
            </trkpt>
            <trkpt lon="101.197062" lat="14.334651">
                <ele>65.100000</ele>
                <time>2018-10-20T06:12:38Z</time>
            </trkpt>
            <trkpt lon="101.197051" lat="14.334665">
                <ele>65.000000</ele>
                <time>2018-10-20T06:12:39Z</time>
            </trkpt>
            <trkpt lon="101.196987" lat="14.334731">
                <ele>64.800000</ele>
                <time>2018-10-20T06:12:46Z</time>
            </trkpt>
            <trkpt lon="101.196981" lat="14.334740">
                <ele>64.800000</ele>
                <time>2018-10-20T06:12:47Z</time>
            </trkpt>
            <trkpt lon="101.196967" lat="14.334775">
                <ele>64.700000</ele>
                <time>2018-10-20T06:12:50Z</time>
            </trkpt>
            <trkpt lon="101.196948" lat="14.334799">
                <ele>64.500000</ele>
                <time>2018-10-20T06:12:52Z</time>
            </trkpt>
            <trkpt lon="101.196943" lat="14.334803">
                <ele>64.500000</ele>
                <time>2018-10-20T06:12:57Z</time>
            </trkpt>
            <trkpt lon="101.196943" lat="14.334803">
                <ele>64.500000</ele>
                <time>2018-10-20T06:13:07Z</time>
            </trkpt>
            <trkpt lon="101.196943" lat="14.334803">
                <ele>64.500000</ele>
                <time>2018-10-20T06:13:14Z</time>
            </trkpt>
            <trkpt lon="101.196912" lat="14.334809">
                <ele>64.300000</ele>
                <time>2018-10-20T06:13:25Z</time>
            </trkpt>
            <trkpt lon="101.196899" lat="14.334809">
                <ele>64.300000</ele>
                <time>2018-10-20T06:13:26Z</time>
            </trkpt>
            <trkpt lon="101.196875" lat="14.334821">
                <ele>64.100000</ele>
                <time>2018-10-20T06:13:28Z</time>
            </trkpt>
            <trkpt lon="101.196841" lat="14.334845">
                <ele>63.900000</ele>
                <time>2018-10-20T06:13:30Z</time>
            </trkpt>
            <trkpt lon="101.196763" lat="14.334876">
                <ele>63.300000</ele>
                <time>2018-10-20T06:13:35Z</time>
            </trkpt>
            <trkpt lon="101.196644" lat="14.334899">
                <ele>62.400000</ele>
                <time>2018-10-20T06:13:40Z</time>
            </trkpt>
            <trkpt lon="101.196555" lat="14.334968">
                <ele>61.800000</ele>
                <time>2018-10-20T06:13:44Z</time>
            </trkpt>
            <trkpt lon="101.196539" lat="14.334982">
                <ele>61.700000</ele>
                <time>2018-10-20T06:13:45Z</time>
            </trkpt>
            <trkpt lon="101.196482" lat="14.335055">
                <ele>61.200000</ele>
                <time>2018-10-20T06:13:50Z</time>
            </trkpt>
            <trkpt lon="101.196476" lat="14.335073">
                <ele>61.100000</ele>
                <time>2018-10-20T06:13:51Z</time>
            </trkpt>
            <trkpt lon="101.196415" lat="14.335195">
                <ele>61.000000</ele>
                <time>2018-10-20T06:13:56Z</time>
            </trkpt>
            <trkpt lon="101.196347" lat="14.335341">
                <ele>60.800000</ele>
                <time>2018-10-20T06:14:02Z</time>
            </trkpt>
            <trkpt lon="101.196263" lat="14.335489">
                <ele>60.300000</ele>
                <time>2018-10-20T06:14:08Z</time>
            </trkpt>
            <trkpt lon="101.196204" lat="14.335594">
                <ele>60.300000</ele>
                <time>2018-10-20T06:14:13Z</time>
            </trkpt>
            <trkpt lon="101.196130" lat="14.335689">
                <ele>60.600000</ele>
                <time>2018-10-20T06:14:17Z</time>
            </trkpt>
            <trkpt lon="101.195977" lat="14.335819">
                <ele>61.200000</ele>
                <time>2018-10-20T06:14:22Z</time>
            </trkpt>
            <trkpt lon="101.195872" lat="14.335901">
                <ele>61.900000</ele>
                <time>2018-10-20T06:14:27Z</time>
            </trkpt>
            <trkpt lon="101.195849" lat="14.335911">
                <ele>62.000000</ele>
                <time>2018-10-20T06:14:28Z</time>
            </trkpt>
            <trkpt lon="101.195768" lat="14.335928">
                <ele>62.500000</ele>
                <time>2018-10-20T06:14:32Z</time>
            </trkpt>
            <trkpt lon="101.195704" lat="14.335956">
                <ele>63.100000</ele>
                <time>2018-10-20T06:14:36Z</time>
            </trkpt>
            <trkpt lon="101.195672" lat="14.335980">
                <ele>63.600000</ele>
                <time>2018-10-20T06:14:38Z</time>
            </trkpt>
            <trkpt lon="101.195606" lat="14.336041">
                <ele>64.900000</ele>
                <time>2018-10-20T06:14:43Z</time>
            </trkpt>
            <trkpt lon="101.195596" lat="14.336071">
                <ele>65.400000</ele>
                <time>2018-10-20T06:14:45Z</time>
            </trkpt>
            <trkpt lon="101.195586" lat="14.336162">
                <ele>66.700000</ele>
                <time>2018-10-20T06:14:50Z</time>
            </trkpt>
            <trkpt lon="101.195508" lat="14.336245">
                <ele>67.600000</ele>
                <time>2018-10-20T06:14:57Z</time>
            </trkpt>
            <trkpt lon="101.195454" lat="14.336314">
                <ele>68.000000</ele>
                <time>2018-10-20T06:15:02Z</time>
            </trkpt>
            <trkpt lon="101.195423" lat="14.336341">
                <ele>68.100000</ele>
                <time>2018-10-20T06:15:04Z</time>
            </trkpt>
            <trkpt lon="101.195315" lat="14.336422">
                <ele>68.100000</ele>
                <time>2018-10-20T06:15:11Z</time>
            </trkpt>
            <trkpt lon="101.195298" lat="14.336434">
                <ele>68.000000</ele>
                <time>2018-10-20T06:15:12Z</time>
            </trkpt>
            <trkpt lon="101.195181" lat="14.336469">
                <ele>67.100000</ele>
                <time>2018-10-20T06:15:18Z</time>
            </trkpt>
            <trkpt lon="101.195160" lat="14.336471">
                <ele>66.900000</ele>
                <time>2018-10-20T06:15:19Z</time>
            </trkpt>
            <trkpt lon="101.195140" lat="14.336470">
                <ele>66.600000</ele>
                <time>2018-10-20T06:15:20Z</time>
            </trkpt>
            <trkpt lon="101.195053" lat="14.336459">
                <ele>65.600000</ele>
                <time>2018-10-20T06:15:24Z</time>
            </trkpt>
            <trkpt lon="101.195030" lat="14.336463">
                <ele>65.500000</ele>
                <time>2018-10-20T06:15:25Z</time>
            </trkpt>
            <trkpt lon="101.194967" lat="14.336486">
                <ele>65.100000</ele>
                <time>2018-10-20T06:15:29Z</time>
            </trkpt>
            <trkpt lon="101.194954" lat="14.336498">
                <ele>65.000000</ele>
                <time>2018-10-20T06:15:30Z</time>
            </trkpt>
            <trkpt lon="101.194922" lat="14.336549">
                <ele>64.600000</ele>
                <time>2018-10-20T06:15:33Z</time>
            </trkpt>
            <trkpt lon="101.194903" lat="14.336581">
                <ele>64.400000</ele>
                <time>2018-10-20T06:15:35Z</time>
            </trkpt>
            <trkpt lon="101.194875" lat="14.336678">
                <ele>64.900000</ele>
                <time>2018-10-20T06:15:40Z</time>
            </trkpt>
            <trkpt lon="101.194860" lat="14.336813">
                <ele>65.600000</ele>
                <time>2018-10-20T06:15:47Z</time>
            </trkpt>
            <trkpt lon="101.194867" lat="14.336909">
                <ele>66.000000</ele>
                <time>2018-10-20T06:15:52Z</time>
            </trkpt>
            <trkpt lon="101.194876" lat="14.336947">
                <ele>66.300000</ele>
                <time>2018-10-20T06:15:54Z</time>
            </trkpt>
            <trkpt lon="101.194907" lat="14.337090">
                <ele>67.100000</ele>
                <time>2018-10-20T06:16:01Z</time>
            </trkpt>
            <trkpt lon="101.194912" lat="14.337112">
                <ele>67.200000</ele>
                <time>2018-10-20T06:16:02Z</time>
            </trkpt>
            <trkpt lon="101.194902" lat="14.337220">
                <ele>67.300000</ele>
                <time>2018-10-20T06:16:08Z</time>
            </trkpt>
            <trkpt lon="101.194882" lat="14.337282">
                <ele>67.200000</ele>
                <time>2018-10-20T06:16:12Z</time>
            </trkpt>
            <trkpt lon="101.194878" lat="14.337330">
                <ele>67.300000</ele>
                <time>2018-10-20T06:16:15Z</time>
            </trkpt>
            <trkpt lon="101.194893" lat="14.337436">
                <ele>67.800000</ele>
                <time>2018-10-20T06:16:21Z</time>
            </trkpt>
            <trkpt lon="101.194903" lat="14.337451">
                <ele>67.900000</ele>
                <time>2018-10-20T06:16:22Z</time>
            </trkpt>
            <trkpt lon="101.194968" lat="14.337533">
                <ele>68.400000</ele>
                <time>2018-10-20T06:16:29Z</time>
            </trkpt>
            <trkpt lon="101.194994" lat="14.337553">
                <ele>68.600000</ele>
                <time>2018-10-20T06:16:31Z</time>
            </trkpt>
            <trkpt lon="101.195020" lat="14.337580">
                <ele>68.800000</ele>
                <time>2018-10-20T06:16:34Z</time>
            </trkpt>
            <trkpt lon="101.195115" lat="14.337645">
                <ele>70.900000</ele>
                <time>2018-10-20T06:16:40Z</time>
            </trkpt>
            <trkpt lon="101.195129" lat="14.337654">
                <ele>71.200000</ele>
                <time>2018-10-20T06:16:41Z</time>
            </trkpt>
            <trkpt lon="101.195233" lat="14.337673">
                <ele>72.800000</ele>
                <time>2018-10-20T06:16:47Z</time>
            </trkpt>
            <trkpt lon="101.195354" lat="14.337647">
                <ele>73.700000</ele>
                <time>2018-10-20T06:16:52Z</time>
            </trkpt>
            <trkpt lon="101.195476" lat="14.337606">
                <ele>73.600000</ele>
                <time>2018-10-20T06:16:58Z</time>
            </trkpt>
            <trkpt lon="101.195576" lat="14.337553">
                <ele>73.400000</ele>
                <time>2018-10-20T06:17:02Z</time>
            </trkpt>
            <trkpt lon="101.195709" lat="14.337463">
                <ele>73.000000</ele>
                <time>2018-10-20T06:17:07Z</time>
            </trkpt>
            <trkpt lon="101.195855" lat="14.337324">
                <ele>72.100000</ele>
                <time>2018-10-20T06:17:13Z</time>
            </trkpt>
            <trkpt lon="101.195974" lat="14.337251">
                <ele>71.700000</ele>
                <time>2018-10-20T06:17:18Z</time>
            </trkpt>
            <trkpt lon="101.196065" lat="14.337214">
                <ele>71.000000</ele>
                <time>2018-10-20T06:17:23Z</time>
            </trkpt>
            <trkpt lon="101.196095" lat="14.337225">
                <ele>71.000000</ele>
                <time>2018-10-20T06:17:25Z</time>
            </trkpt>
            <trkpt lon="101.196150" lat="14.337243">
                <ele>70.800000</ele>
                <time>2018-10-20T06:17:28Z</time>
            </trkpt>
            <trkpt lon="101.196266" lat="14.337274">
                <ele>70.000000</ele>
                <time>2018-10-20T06:17:33Z</time>
            </trkpt>
            <trkpt lon="101.196407" lat="14.337323">
                <ele>69.100000</ele>
                <time>2018-10-20T06:17:40Z</time>
            </trkpt>
            <trkpt lon="101.196443" lat="14.337325">
                <ele>69.000000</ele>
                <time>2018-10-20T06:17:42Z</time>
            </trkpt>
            <trkpt lon="101.196509" lat="14.337331">
                <ele>69.000000</ele>
                <time>2018-10-20T06:17:46Z</time>
            </trkpt>
            <trkpt lon="101.196615" lat="14.337324">
                <ele>69.800000</ele>
                <time>2018-10-20T06:17:52Z</time>
            </trkpt>
            <trkpt lon="101.196647" lat="14.337327">
                <ele>69.800000</ele>
                <time>2018-10-20T06:17:54Z</time>
            </trkpt>
            <trkpt lon="101.196740" lat="14.337319">
                <ele>70.500000</ele>
                <time>2018-10-20T06:17:59Z</time>
            </trkpt>
            <trkpt lon="101.196782" lat="14.337320">
                <ele>71.000000</ele>
                <time>2018-10-20T06:18:06Z</time>
            </trkpt>
            <trkpt lon="101.196782" lat="14.337320">
                <ele>71.000000</ele>
                <time>2018-10-20T06:18:18Z</time>
            </trkpt>
            <trkpt lon="101.196810" lat="14.337267">
                <ele>71.400000</ele>
                <time>2018-10-20T06:18:24Z</time>
            </trkpt>
            <trkpt lon="101.196813" lat="14.337260">
                <ele>71.400000</ele>
                <time>2018-10-20T06:18:32Z</time>
            </trkpt>
            <trkpt lon="101.196819" lat="14.337225">
                <ele>71.400000</ele>
                <time>2018-10-20T06:18:37Z</time>
            </trkpt>
            <trkpt lon="101.196819" lat="14.337225">
                <ele>71.400000</ele>
                <time>2018-10-20T06:18:46Z</time>
            </trkpt>
            <trkpt lon="101.196819" lat="14.337225">
                <ele>71.400000</ele>
                <time>2018-10-20T06:18:58Z</time>
            </trkpt>
            <trkpt lon="101.196826" lat="14.337203">
                <ele>71.400000</ele>
                <time>2018-10-20T06:19:06Z</time>
            </trkpt>
            <trkpt lon="101.196826" lat="14.337203">
                <ele>71.400000</ele>
                <time>2018-10-20T06:19:22Z</time>
            </trkpt>
            <trkpt lon="101.196843" lat="14.337171">
                <ele>71.900000</ele>
                <time>2018-10-20T06:19:28Z</time>
            </trkpt>
            <trkpt lon="101.196875" lat="14.337148">
                <ele>72.200000</ele>
                <time>2018-10-20T06:19:38Z</time>
            </trkpt>
            <trkpt lon="101.196878" lat="14.337138">
                <ele>72.200000</ele>
                <time>2018-10-20T06:19:45Z</time>
            </trkpt>
            <trkpt lon="101.196878" lat="14.337138">
                <ele>72.200000</ele>
                <time>2018-10-20T06:19:55Z</time>
            </trkpt>
            <trkpt lon="101.196894" lat="14.337112">
                <ele>71.900000</ele>
                <time>2018-10-20T06:20:03Z</time>
            </trkpt>
            <trkpt lon="101.196901" lat="14.337102">
                <ele>71.900000</ele>
                <time>2018-10-20T06:20:12Z</time>
            </trkpt>
            <trkpt lon="101.196901" lat="14.337102">
                <ele>71.900000</ele>
                <time>2018-10-20T06:20:15Z</time>
            </trkpt>
            <trkpt lon="101.196901" lat="14.337102">
                <ele>71.900000</ele>
                <time>2018-10-20T06:20:25Z</time>
            </trkpt>
            <trkpt lon="101.196901" lat="14.337102">
                <ele>71.900000</ele>
                <time>2018-10-20T06:20:32Z</time>
            </trkpt>
            <trkpt lon="101.196901" lat="14.337102">
                <ele>71.900000</ele>
                <time>2018-10-20T06:20:39Z</time>
            </trkpt>
            <trkpt lon="101.196907" lat="14.337101">
                <ele>71.900000</ele>
                <time>2018-10-20T06:20:47Z</time>
            </trkpt>
            <trkpt lon="101.196928" lat="14.337088">
                <ele>72.300000</ele>
                <time>2018-10-20T06:20:54Z</time>
            </trkpt>
            <trkpt lon="101.196940" lat="14.337075">
                <ele>72.300000</ele>
                <time>2018-10-20T06:21:00Z</time>
            </trkpt>
            <trkpt lon="101.196967" lat="14.337073">
                <ele>72.300000</ele>
                <time>2018-10-20T06:21:06Z</time>
            </trkpt>
            <trkpt lon="101.196967" lat="14.337073">
                <ele>72.300000</ele>
                <time>2018-10-20T06:21:09Z</time>
            </trkpt>
            <trkpt lon="101.196967" lat="14.337073">
                <ele>72.300000</ele>
                <time>2018-10-20T06:21:20Z</time>
            </trkpt>
            <trkpt lon="101.196967" lat="14.337073">
                <ele>72.200000</ele>
                <time>2018-10-20T06:21:38Z</time>
            </trkpt>
            <trkpt lon="101.196969" lat="14.337071">
                <ele>72.200000</ele>
                <time>2018-10-20T06:21:53Z</time>
            </trkpt>
            <trkpt lon="101.196969" lat="14.337071">
                <ele>72.200000</ele>
                <time>2018-10-20T06:22:18Z</time>
            </trkpt>
            <trkpt lon="101.196971" lat="14.337072">
                <ele>72.200000</ele>
                <time>2018-10-20T06:22:38Z</time>
            </trkpt>
            <trkpt lon="101.196971" lat="14.337072">
                <ele>72.200000</ele>
                <time>2018-10-20T06:22:54Z</time>
            </trkpt>
            <trkpt lon="101.196971" lat="14.337072">
                <ele>72.200000</ele>
                <time>2018-10-20T06:23:13Z</time>
            </trkpt>
            <trkpt lon="101.196971" lat="14.337072">
                <ele>72.200000</ele>
                <time>2018-10-20T06:23:34Z</time>
            </trkpt>
            <trkpt lon="101.196998" lat="14.337076">
                <ele>72.600000</ele>
                <time>2018-10-20T06:23:45Z</time>
            </trkpt>
            <trkpt lon="101.197006" lat="14.337077">
                <ele>73.000000</ele>
                <time>2018-10-20T06:23:54Z</time>
            </trkpt>
            <trkpt lon="101.197006" lat="14.337077">
                <ele>73.000000</ele>
                <time>2018-10-20T06:24:02Z</time>
            </trkpt>
            <trkpt lon="101.197006" lat="14.337077">
                <ele>73.000000</ele>
                <time>2018-10-20T06:24:03Z</time>
            </trkpt>
            <trkpt lon="101.197022" lat="14.337097">
                <ele>73.000000</ele>
                <time>2018-10-20T06:24:10Z</time>
            </trkpt>
            <trkpt lon="101.197064" lat="14.337170">
                <ele>74.400000</ele>
                <time>2018-10-20T06:24:17Z</time>
            </trkpt>
            <trkpt lon="101.197088" lat="14.337204">
                <ele>75.100000</ele>
                <time>2018-10-20T06:24:19Z</time>
            </trkpt>
            <trkpt lon="101.197102" lat="14.337253">
                <ele>75.300000</ele>
                <time>2018-10-20T06:24:23Z</time>
            </trkpt>
            <trkpt lon="101.197113" lat="14.337346">
                <ele>75.700000</ele>
                <time>2018-10-20T06:24:29Z</time>
            </trkpt>
            <trkpt lon="101.197123" lat="14.337379">
                <ele>75.700000</ele>
                <time>2018-10-20T06:24:31Z</time>
            </trkpt>
            <trkpt lon="101.197153" lat="14.337445">
                <ele>76.700000</ele>
                <time>2018-10-20T06:24:36Z</time>
            </trkpt>
            <trkpt lon="101.197179" lat="14.337491">
                <ele>77.700000</ele>
                <time>2018-10-20T06:24:39Z</time>
            </trkpt>
            <trkpt lon="101.197198" lat="14.337564">
                <ele>77.700000</ele>
                <time>2018-10-20T06:24:44Z</time>
            </trkpt>
            <trkpt lon="101.197203" lat="14.337592">
                <ele>77.700000</ele>
                <time>2018-10-20T06:24:46Z</time>
            </trkpt>
            <trkpt lon="101.197170" lat="14.337673">
                <ele>76.700000</ele>
                <time>2018-10-20T06:24:51Z</time>
            </trkpt>
            <trkpt lon="101.197157" lat="14.337710">
                <ele>76.700000</ele>
                <time>2018-10-20T06:24:53Z</time>
            </trkpt>
            <trkpt lon="101.197097" lat="14.337799">
                <ele>75.700000</ele>
                <time>2018-10-20T06:24:57Z</time>
            </trkpt>
            <trkpt lon="101.196959" lat="14.337873">
                <ele>74.300000</ele>
                <time>2018-10-20T06:25:02Z</time>
            </trkpt>
            <trkpt lon="101.196918" lat="14.337888">
                <ele>74.000000</ele>
                <time>2018-10-20T06:25:04Z</time>
            </trkpt>
            <trkpt lon="101.196745" lat="14.337929">
                <ele>73.500000</ele>
                <time>2018-10-20T06:25:10Z</time>
            </trkpt>
            <trkpt lon="101.196586" lat="14.337948">
                <ele>73.100000</ele>
                <time>2018-10-20T06:25:16Z</time>
            </trkpt>
            <trkpt lon="101.196518" lat="14.337971">
                <ele>72.800000</ele>
                <time>2018-10-20T06:25:19Z</time>
            </trkpt>
            <trkpt lon="101.196496" lat="14.338004">
                <ele>73.000000</ele>
                <time>2018-10-20T06:25:21Z</time>
            </trkpt>
            <trkpt lon="101.196424" lat="14.338088">
                <ele>73.200000</ele>
                <time>2018-10-20T06:25:27Z</time>
            </trkpt>
            <trkpt lon="101.196412" lat="14.338161">
                <ele>73.500000</ele>
                <time>2018-10-20T06:25:31Z</time>
            </trkpt>
            <trkpt lon="101.196415" lat="14.338235">
                <ele>74.000000</ele>
                <time>2018-10-20T06:25:35Z</time>
            </trkpt>
            <trkpt lon="101.196435" lat="14.338339">
                <ele>75.500000</ele>
                <time>2018-10-20T06:25:41Z</time>
            </trkpt>
            <trkpt lon="101.196442" lat="14.338360">
                <ele>75.800000</ele>
                <time>2018-10-20T06:25:42Z</time>
            </trkpt>
            <trkpt lon="101.196490" lat="14.338473">
                <ele>77.500000</ele>
                <time>2018-10-20T06:25:49Z</time>
            </trkpt>
            <trkpt lon="101.196508" lat="14.338576">
                <ele>79.600000</ele>
                <time>2018-10-20T06:25:55Z</time>
            </trkpt>
            <trkpt lon="101.196513" lat="14.338591">
                <ele>79.600000</ele>
                <time>2018-10-20T06:25:56Z</time>
            </trkpt>
            <trkpt lon="101.196527" lat="14.338686">
                <ele>80.900000</ele>
                <time>2018-10-20T06:26:02Z</time>
            </trkpt>
            <trkpt lon="101.196534" lat="14.338716">
                <ele>81.200000</ele>
                <time>2018-10-20T06:26:04Z</time>
            </trkpt>
            <trkpt lon="101.196552" lat="14.338763">
                <ele>81.500000</ele>
                <time>2018-10-20T06:26:07Z</time>
            </trkpt>
            <trkpt lon="101.196588" lat="14.338807">
                <ele>82.000000</ele>
                <time>2018-10-20T06:26:11Z</time>
            </trkpt>
            <trkpt lon="101.196619" lat="14.338841">
                <ele>82.600000</ele>
                <time>2018-10-20T06:26:14Z</time>
            </trkpt>
            <trkpt lon="101.196668" lat="14.338914">
                <ele>83.500000</ele>
                <time>2018-10-20T06:26:20Z</time>
            </trkpt>
            <trkpt lon="101.196672" lat="14.338933">
                <ele>83.500000</ele>
                <time>2018-10-20T06:26:22Z</time>
            </trkpt>
            <trkpt lon="101.196708" lat="14.339010">
                <ele>84.100000</ele>
                <time>2018-10-20T06:26:28Z</time>
            </trkpt>
            <trkpt lon="101.196709" lat="14.339021">
                <ele>84.100000</ele>
                <time>2018-10-20T06:26:29Z</time>
            </trkpt>
            <trkpt lon="101.196738" lat="14.339081">
                <ele>84.600000</ele>
                <time>2018-10-20T06:26:34Z</time>
            </trkpt>
            <trkpt lon="101.196757" lat="14.339107">
                <ele>84.600000</ele>
                <time>2018-10-20T06:26:37Z</time>
            </trkpt>
            <trkpt lon="101.196771" lat="14.339138">
                <ele>84.800000</ele>
                <time>2018-10-20T06:26:40Z</time>
            </trkpt>
            <trkpt lon="101.196790" lat="14.339195">
                <ele>85.600000</ele>
                <time>2018-10-20T06:26:46Z</time>
            </trkpt>
            <trkpt lon="101.196792" lat="14.339201">
                <ele>86.500000</ele>
                <time>2018-10-20T06:26:47Z</time>
            </trkpt>
            <trkpt lon="101.196814" lat="14.339272">
                <ele>87.400000</ele>
                <time>2018-10-20T06:26:55Z</time>
            </trkpt>
            <trkpt lon="101.196816" lat="14.339277">
                <ele>87.400000</ele>
                <time>2018-10-20T06:26:56Z</time>
            </trkpt>
            <trkpt lon="101.196805" lat="14.339323">
                <ele>89.300000</ele>
                <time>2018-10-20T06:27:04Z</time>
            </trkpt>
            <trkpt lon="101.196798" lat="14.339349">
                <ele>89.300000</ele>
                <time>2018-10-20T06:27:12Z</time>
            </trkpt>
            <trkpt lon="101.196814" lat="14.339364">
                <ele>90.200000</ele>
                <time>2018-10-20T06:27:21Z</time>
            </trkpt>
            <trkpt lon="101.196793" lat="14.339385">
                <ele>90.200000</ele>
                <time>2018-10-20T06:27:29Z</time>
            </trkpt>
            <trkpt lon="101.196772" lat="14.339422">
                <ele>90.700000</ele>
                <time>2018-10-20T06:27:39Z</time>
            </trkpt>
            <trkpt lon="101.196771" lat="14.339441">
                <ele>90.700000</ele>
                <time>2018-10-20T06:27:46Z</time>
            </trkpt>
            <trkpt lon="101.196771" lat="14.339441">
                <ele>90.700000</ele>
                <time>2018-10-20T06:27:50Z</time>
            </trkpt>
            <trkpt lon="101.196780" lat="14.339437">
                <ele>90.700000</ele>
                <time>2018-10-20T06:27:54Z</time>
            </trkpt>
            <trkpt lon="101.196773" lat="14.339420">
                <ele>90.700000</ele>
                <time>2018-10-20T06:28:00Z</time>
            </trkpt>
            <trkpt lon="101.196779" lat="14.339380">
                <ele>89.800000</ele>
                <time>2018-10-20T06:28:03Z</time>
            </trkpt>
            <trkpt lon="101.196792" lat="14.339352">
                <ele>89.200000</ele>
                <time>2018-10-20T06:28:05Z</time>
            </trkpt>
            <trkpt lon="101.196811" lat="14.339294">
                <ele>88.300000</ele>
                <time>2018-10-20T06:28:09Z</time>
            </trkpt>
            <trkpt lon="101.196814" lat="14.339276">
                <ele>87.400000</ele>
                <time>2018-10-20T06:28:10Z</time>
            </trkpt>
            <trkpt lon="101.196800" lat="14.339185">
                <ele>85.600000</ele>
                <time>2018-10-20T06:28:16Z</time>
            </trkpt>
            <trkpt lon="101.196802" lat="14.339177">
                <ele>85.600000</ele>
                <time>2018-10-20T06:28:22Z</time>
            </trkpt>
            <trkpt lon="101.196781" lat="14.339148">
                <ele>84.800000</ele>
                <time>2018-10-20T06:28:28Z</time>
            </trkpt>
            <trkpt lon="101.196752" lat="14.339100">
                <ele>84.500000</ele>
                <time>2018-10-20T06:28:32Z</time>
            </trkpt>
            <trkpt lon="101.196752" lat="14.339100">
                <ele>84.500000</ele>
                <time>2018-10-20T06:28:33Z</time>
            </trkpt>
            <trkpt lon="101.196737" lat="14.339060">
                <ele>84.300000</ele>
                <time>2018-10-20T06:28:44Z</time>
            </trkpt>
            <trkpt lon="101.196668" lat="14.338921">
                <ele>83.500000</ele>
                <time>2018-10-20T06:28:49Z</time>
            </trkpt>
            <trkpt lon="101.196623" lat="14.338863">
                <ele>82.800000</ele>
                <time>2018-10-20T06:28:51Z</time>
            </trkpt>
            <trkpt lon="101.196539" lat="14.338806">
                <ele>81.700000</ele>
                <time>2018-10-20T06:28:54Z</time>
            </trkpt>
            <trkpt lon="101.196471" lat="14.338779">
                <ele>81.200000</ele>
                <time>2018-10-20T06:28:59Z</time>
            </trkpt>
            <trkpt lon="101.196454" lat="14.338792">
                <ele>81.600000</ele>
                <time>2018-10-20T06:29:01Z</time>
            </trkpt>
            <trkpt lon="101.196400" lat="14.338815">
                <ele>81.500000</ele>
                <time>2018-10-20T06:29:05Z</time>
            </trkpt>
            <trkpt lon="101.196362" lat="14.338880">
                <ele>81.800000</ele>
                <time>2018-10-20T06:29:10Z</time>
            </trkpt>
            <trkpt lon="101.196354" lat="14.338899">
                <ele>81.900000</ele>
                <time>2018-10-20T06:29:11Z</time>
            </trkpt>
            <trkpt lon="101.196315" lat="14.338997">
                <ele>82.400000</ele>
                <time>2018-10-20T06:29:17Z</time>
            </trkpt>
            <trkpt lon="101.196290" lat="14.339036">
                <ele>82.700000</ele>
                <time>2018-10-20T06:29:20Z</time>
            </trkpt>
            <trkpt lon="101.196279" lat="14.339084">
                <ele>83.300000</ele>
                <time>2018-10-20T06:29:22Z</time>
            </trkpt>
            <trkpt lon="101.196262" lat="14.339198">
                <ele>84.900000</ele>
                <time>2018-10-20T06:29:29Z</time>
            </trkpt>
            <trkpt lon="101.196237" lat="14.339260">
                <ele>85.400000</ele>
                <time>2018-10-20T06:29:35Z</time>
            </trkpt>
            <trkpt lon="101.196191" lat="14.339372">
                <ele>86.300000</ele>
                <time>2018-10-20T06:29:43Z</time>
            </trkpt>
            <trkpt lon="101.196168" lat="14.339436">
                <ele>86.800000</ele>
                <time>2018-10-20T06:29:47Z</time>
            </trkpt>
            <trkpt lon="101.196149" lat="14.339467">
                <ele>87.000000</ele>
                <time>2018-10-20T06:29:50Z</time>
            </trkpt>
            <trkpt lon="101.196141" lat="14.339473">
                <ele>87.000000</ele>
                <time>2018-10-20T06:29:54Z</time>
            </trkpt>
            <trkpt lon="101.196141" lat="14.339473">
                <ele>87.000000</ele>
                <time>2018-10-20T06:29:57Z</time>
            </trkpt>
            <trkpt lon="101.196141" lat="14.339473">
                <ele>87.000000</ele>
                <time>2018-10-20T06:29:58Z</time>
            </trkpt>
            <trkpt lon="101.196141" lat="14.339473">
                <ele>87.000000</ele>
                <time>2018-10-20T06:30:03Z</time>
            </trkpt>
            <trkpt lon="101.196120" lat="14.339501">
                <ele>87.200000</ele>
                <time>2018-10-20T06:30:07Z</time>
            </trkpt>
            <trkpt lon="101.196099" lat="14.339527">
                <ele>88.000000</ele>
                <time>2018-10-20T06:30:10Z</time>
            </trkpt>
            <trkpt lon="101.196079" lat="14.339542">
                <ele>88.600000</ele>
                <time>2018-10-20T06:30:13Z</time>
            </trkpt>
            <trkpt lon="101.196068" lat="14.339562">
                <ele>88.700000</ele>
                <time>2018-10-20T06:30:16Z</time>
            </trkpt>
            <trkpt lon="101.196048" lat="14.339570">
                <ele>88.900000</ele>
                <time>2018-10-20T06:30:19Z</time>
            </trkpt>
            <trkpt lon="101.196001" lat="14.339575">
                <ele>89.600000</ele>
                <time>2018-10-20T06:30:25Z</time>
            </trkpt>
            <trkpt lon="101.196000" lat="14.339575">
                <ele>89.600000</ele>
                <time>2018-10-20T06:30:26Z</time>
            </trkpt>
            <trkpt lon="101.195963" lat="14.339538">
                <ele>90.000000</ele>
                <time>2018-10-20T06:30:35Z</time>
            </trkpt>
            <trkpt lon="101.195928" lat="14.339506">
                <ele>90.000000</ele>
                <time>2018-10-20T06:30:41Z</time>
            </trkpt>
            <trkpt lon="101.195912" lat="14.339483">
                <ele>89.600000</ele>
                <time>2018-10-20T06:30:46Z</time>
            </trkpt>
            <trkpt lon="101.195886" lat="14.339427">
                <ele>89.100000</ele>
                <time>2018-10-20T06:30:53Z</time>
            </trkpt>
            <trkpt lon="101.195856" lat="14.339396">
                <ele>89.000000</ele>
                <time>2018-10-20T06:31:02Z</time>
            </trkpt>
            <trkpt lon="101.195823" lat="14.339321">
                <ele>88.200000</ele>
                <time>2018-10-20T06:31:09Z</time>
            </trkpt>
            <trkpt lon="101.195755" lat="14.339243">
                <ele>87.000000</ele>
                <time>2018-10-20T06:31:14Z</time>
            </trkpt>
            <trkpt lon="101.195656" lat="14.339131">
                <ele>85.000000</ele>
                <time>2018-10-20T06:31:20Z</time>
            </trkpt>
            <trkpt lon="101.195528" lat="14.339050">
                <ele>82.800000</ele>
                <time>2018-10-20T06:31:25Z</time>
            </trkpt>
            <trkpt lon="101.195382" lat="14.338922">
                <ele>81.200000</ele>
                <time>2018-10-20T06:31:31Z</time>
            </trkpt>
            <trkpt lon="101.195247" lat="14.338813">
                <ele>80.800000</ele>
                <time>2018-10-20T06:31:37Z</time>
            </trkpt>
            <trkpt lon="101.195073" lat="14.338664">
                <ele>78.900000</ele>
                <time>2018-10-20T06:31:44Z</time>
            </trkpt>
            <trkpt lon="101.194967" lat="14.338547">
                <ele>77.800000</ele>
                <time>2018-10-20T06:31:50Z</time>
            </trkpt>
            <trkpt lon="101.194874" lat="14.338378">
                <ele>77.100000</ele>
                <time>2018-10-20T06:31:57Z</time>
            </trkpt>
            <trkpt lon="101.194833" lat="14.338237">
                <ele>75.200000</ele>
                <time>2018-10-20T06:32:03Z</time>
            </trkpt>
            <trkpt lon="101.194756" lat="14.338136">
                <ele>73.600000</ele>
                <time>2018-10-20T06:32:09Z</time>
            </trkpt>
            <trkpt lon="101.194721" lat="14.338117">
                <ele>73.200000</ele>
                <time>2018-10-20T06:32:11Z</time>
            </trkpt>
            <trkpt lon="101.194652" lat="14.338072">
                <ele>73.100000</ele>
                <time>2018-10-20T06:32:14Z</time>
            </trkpt>
            <trkpt lon="101.194629" lat="14.338056">
                <ele>73.100000</ele>
                <time>2018-10-20T06:32:15Z</time>
            </trkpt>
            <trkpt lon="101.194466" lat="14.338004">
                <ele>73.800000</ele>
                <time>2018-10-20T06:32:21Z</time>
            </trkpt>
            <trkpt lon="101.194422" lat="14.337982">
                <ele>73.900000</ele>
                <time>2018-10-20T06:32:23Z</time>
            </trkpt>
            <trkpt lon="101.194310" lat="14.337948">
                <ele>73.800000</ele>
                <time>2018-10-20T06:32:28Z</time>
            </trkpt>
            <trkpt lon="101.194236" lat="14.337899">
                <ele>72.900000</ele>
                <time>2018-10-20T06:32:33Z</time>
            </trkpt>
            <trkpt lon="101.194173" lat="14.337834">
                <ele>72.000000</ele>
                <time>2018-10-20T06:32:38Z</time>
            </trkpt>
            <trkpt lon="101.194152" lat="14.337817">
                <ele>71.800000</ele>
                <time>2018-10-20T06:32:39Z</time>
            </trkpt>
            <trkpt lon="101.194071" lat="14.337791">
                <ele>70.900000</ele>
                <time>2018-10-20T06:32:43Z</time>
            </trkpt>
            <trkpt lon="101.193973" lat="14.337731">
                <ele>70.200000</ele>
                <time>2018-10-20T06:32:47Z</time>
            </trkpt>
            <trkpt lon="101.193826" lat="14.337632">
                <ele>70.100000</ele>
                <time>2018-10-20T06:32:53Z</time>
            </trkpt>
            <trkpt lon="101.193646" lat="14.337479">
                <ele>69.000000</ele>
                <time>2018-10-20T06:32:59Z</time>
            </trkpt>
            <trkpt lon="101.193449" lat="14.337357">
                <ele>66.400000</ele>
                <time>2018-10-20T06:33:05Z</time>
            </trkpt>
            <trkpt lon="101.193268" lat="14.337260">
                <ele>64.800000</ele>
                <time>2018-10-20T06:33:10Z</time>
            </trkpt>
            <trkpt lon="101.193070" lat="14.337216">
                <ele>63.100000</ele>
                <time>2018-10-20T06:33:16Z</time>
            </trkpt>
            <trkpt lon="101.192857" lat="14.337147">
                <ele>60.500000</ele>
                <time>2018-10-20T06:33:20Z</time>
            </trkpt>
            <trkpt lon="101.192781" lat="14.337121">
                <ele>60.000000</ele>
                <time>2018-10-20T06:33:23Z</time>
            </trkpt>
            <trkpt lon="101.192751" lat="14.337126">
                <ele>60.000000</ele>
                <time>2018-10-20T06:33:25Z</time>
            </trkpt>
            <trkpt lon="101.192690" lat="14.337118">
                <ele>60.000000</ele>
                <time>2018-10-20T06:33:29Z</time>
            </trkpt>
            <trkpt lon="101.192570" lat="14.337108">
                <ele>60.100000</ele>
                <time>2018-10-20T06:33:35Z</time>
            </trkpt>
            <trkpt lon="101.192478" lat="14.337133">
                <ele>60.100000</ele>
                <time>2018-10-20T06:33:41Z</time>
            </trkpt>
            <trkpt lon="101.192465" lat="14.337127">
                <ele>60.100000</ele>
                <time>2018-10-20T06:33:42Z</time>
            </trkpt>
            <trkpt lon="101.192387" lat="14.337091">
                <ele>60.300000</ele>
                <time>2018-10-20T06:33:46Z</time>
            </trkpt>
            <trkpt lon="101.192372" lat="14.337081">
                <ele>60.300000</ele>
                <time>2018-10-20T06:33:47Z</time>
            </trkpt>
            <trkpt lon="101.192328" lat="14.337063">
                <ele>60.500000</ele>
                <time>2018-10-20T06:33:50Z</time>
            </trkpt>
            <trkpt lon="101.192308" lat="14.337065">
                <ele>60.800000</ele>
                <time>2018-10-20T06:33:51Z</time>
            </trkpt>
            <trkpt lon="101.192284" lat="14.337079">
                <ele>60.700000</ele>
                <time>2018-10-20T06:33:54Z</time>
            </trkpt>
            <trkpt lon="101.192270" lat="14.337089">
                <ele>61.000000</ele>
                <time>2018-10-20T06:33:55Z</time>
            </trkpt>
            <trkpt lon="101.192239" lat="14.337124">
                <ele>61.000000</ele>
                <time>2018-10-20T06:33:58Z</time>
            </trkpt>
            <trkpt lon="101.192215" lat="14.337182">
                <ele>61.100000</ele>
                <time>2018-10-20T06:34:02Z</time>
            </trkpt>
            <trkpt lon="101.192202" lat="14.337319">
                <ele>61.100000</ele>
                <time>2018-10-20T06:34:09Z</time>
            </trkpt>
            <trkpt lon="101.192157" lat="14.337406">
                <ele>60.600000</ele>
                <time>2018-10-20T06:34:14Z</time>
            </trkpt>
            <trkpt lon="101.192103" lat="14.337506">
                <ele>59.100000</ele>
                <time>2018-10-20T06:34:20Z</time>
            </trkpt>
            <trkpt lon="101.192049" lat="14.337551">
                <ele>58.700000</ele>
                <time>2018-10-20T06:34:23Z</time>
            </trkpt>
            <trkpt lon="101.191978" lat="14.337617">
                <ele>58.300000</ele>
                <time>2018-10-20T06:34:27Z</time>
            </trkpt>
            <trkpt lon="101.191873" lat="14.337738">
                <ele>58.100000</ele>
                <time>2018-10-20T06:34:34Z</time>
            </trkpt>
            <trkpt lon="101.191792" lat="14.337847">
                <ele>58.700000</ele>
                <time>2018-10-20T06:34:40Z</time>
            </trkpt>
            <trkpt lon="101.191703" lat="14.337938">
                <ele>59.200000</ele>
                <time>2018-10-20T06:34:45Z</time>
            </trkpt>
            <trkpt lon="101.191687" lat="14.337923">
                <ele>59.200000</ele>
                <time>2018-10-20T06:34:47Z</time>
            </trkpt>
            <trkpt lon="101.191713" lat="14.337894">
                <ele>59.200000</ele>
                <time>2018-10-20T06:34:50Z</time>
            </trkpt>
            <trkpt lon="101.191755" lat="14.337860">
                <ele>59.000000</ele>
                <time>2018-10-20T06:34:52Z</time>
            </trkpt>
            <trkpt lon="101.191882" lat="14.337725">
                <ele>58.100000</ele>
                <time>2018-10-20T06:34:58Z</time>
            </trkpt>
            <trkpt lon="101.192028" lat="14.337562">
                <ele>58.700000</ele>
                <time>2018-10-20T06:35:04Z</time>
            </trkpt>
            <trkpt lon="101.192108" lat="14.337410">
                <ele>60.100000</ele>
                <time>2018-10-20T06:35:09Z</time>
            </trkpt>
            <trkpt lon="101.192133" lat="14.337240">
                <ele>61.000000</ele>
                <time>2018-10-20T06:35:14Z</time>
            </trkpt>
            <trkpt lon="101.192160" lat="14.337154">
                <ele>61.100000</ele>
                <time>2018-10-20T06:35:19Z</time>
            </trkpt>
            <trkpt lon="101.192158" lat="14.337152">
                <ele>61.100000</ele>
                <time>2018-10-20T06:35:24Z</time>
            </trkpt>
            <trkpt lon="101.192159" lat="14.337136">
                <ele>61.100000</ele>
                <time>2018-10-20T06:35:32Z</time>
            </trkpt>
            <trkpt lon="101.192174" lat="14.337110">
                <ele>61.200000</ele>
                <time>2018-10-20T06:35:39Z</time>
            </trkpt>
            <trkpt lon="101.192177" lat="14.337115">
                <ele>61.200000</ele>
                <time>2018-10-20T06:35:48Z</time>
            </trkpt>
            <trkpt lon="101.192174" lat="14.337111">
                <ele>61.200000</ele>
                <time>2018-10-20T06:35:49Z</time>
            </trkpt>
            <trkpt lon="101.192169" lat="14.337135">
                <ele>61.100000</ele>
                <time>2018-10-20T06:35:55Z</time>
            </trkpt>
            <trkpt lon="101.192159" lat="14.337149">
                <ele>61.100000</ele>
                <time>2018-10-20T06:35:56Z</time>
            </trkpt>
            <trkpt lon="101.192147" lat="14.337183">
                <ele>61.000000</ele>
                <time>2018-10-20T06:35:58Z</time>
            </trkpt>
            <trkpt lon="101.192149" lat="14.337231">
                <ele>61.000000</ele>
                <time>2018-10-20T06:36:00Z</time>
            </trkpt>
            <trkpt lon="101.192161" lat="14.337316">
                <ele>61.000000</ele>
                <time>2018-10-20T06:36:04Z</time>
            </trkpt>
            <trkpt lon="101.192148" lat="14.337377">
                <ele>60.500000</ele>
                <time>2018-10-20T06:36:06Z</time>
            </trkpt>
            <trkpt lon="101.192060" lat="14.337540">
                <ele>58.700000</ele>
                <time>2018-10-20T06:36:12Z</time>
            </trkpt>
            <trkpt lon="101.191912" lat="14.337716">
                <ele>58.000000</ele>
                <time>2018-10-20T06:36:19Z</time>
            </trkpt>
            <trkpt lon="101.191835" lat="14.337807">
                <ele>58.300000</ele>
                <time>2018-10-20T06:36:24Z</time>
            </trkpt>
            <trkpt lon="101.191698" lat="14.337944">
                <ele>59.200000</ele>
                <time>2018-10-20T06:36:30Z</time>
            </trkpt>
            <trkpt lon="101.191529" lat="14.338101">
                <ele>60.700000</ele>
                <time>2018-10-20T06:36:36Z</time>
            </trkpt>
            <trkpt lon="101.191371" lat="14.338285">
                <ele>62.800000</ele>
                <time>2018-10-20T06:36:43Z</time>
            </trkpt>
            <trkpt lon="101.191252" lat="14.338430">
                <ele>63.400000</ele>
                <time>2018-10-20T06:36:49Z</time>
            </trkpt>
            <trkpt lon="101.191154" lat="14.338599">
                <ele>63.800000</ele>
                <time>2018-10-20T06:36:55Z</time>
            </trkpt>
            <trkpt lon="101.191099" lat="14.338741">
                <ele>63.300000</ele>
                <time>2018-10-20T06:37:00Z</time>
            </trkpt>
            <trkpt lon="101.190964" lat="14.338923">
                <ele>63.400000</ele>
                <time>2018-10-20T06:37:07Z</time>
            </trkpt>
            <trkpt lon="101.190803" lat="14.339030">
                <ele>63.200000</ele>
                <time>2018-10-20T06:37:13Z</time>
            </trkpt>
            <trkpt lon="101.190644" lat="14.339097">
                <ele>63.200000</ele>
                <time>2018-10-20T06:37:19Z</time>
            </trkpt>
            <trkpt lon="101.190610" lat="14.339120">
                <ele>63.400000</ele>
                <time>2018-10-20T06:37:21Z</time>
            </trkpt>
            <trkpt lon="101.190545" lat="14.339156">
                <ele>63.900000</ele>
                <time>2018-10-20T06:37:24Z</time>
            </trkpt>
            <trkpt lon="101.190380" lat="14.339252">
                <ele>65.600000</ele>
                <time>2018-10-20T06:37:30Z</time>
            </trkpt>
            <trkpt lon="101.190202" lat="14.339436">
                <ele>66.500000</ele>
                <time>2018-10-20T06:37:37Z</time>
            </trkpt>
            <trkpt lon="101.190111" lat="14.339601">
                <ele>66.100000</ele>
                <time>2018-10-20T06:37:42Z</time>
            </trkpt>
            <trkpt lon="101.189981" lat="14.339766">
                <ele>64.600000</ele>
                <time>2018-10-20T06:37:49Z</time>
            </trkpt>
            <trkpt lon="101.189885" lat="14.339852">
                <ele>64.400000</ele>
                <time>2018-10-20T06:37:55Z</time>
            </trkpt>
            <trkpt lon="101.189726" lat="14.339957">
                <ele>64.100000</ele>
                <time>2018-10-20T06:38:02Z</time>
            </trkpt>
            <trkpt lon="101.189522" lat="14.340068">
                <ele>66.600000</ele>
                <time>2018-10-20T06:38:09Z</time>
            </trkpt>
            <trkpt lon="101.189239" lat="14.340194">
                <ele>67.100000</ele>
                <time>2018-10-20T06:38:17Z</time>
            </trkpt>
            <trkpt lon="101.189071" lat="14.340324">
                <ele>67.700000</ele>
                <time>2018-10-20T06:38:23Z</time>
            </trkpt>
            <trkpt lon="101.188993" lat="14.340481">
                <ele>68.300000</ele>
                <time>2018-10-20T06:38:28Z</time>
            </trkpt>
            <trkpt lon="101.188915" lat="14.340728">
                <ele>69.200000</ele>
                <time>2018-10-20T06:38:36Z</time>
            </trkpt>
            <trkpt lon="101.188873" lat="14.340969">
                <ele>69.400000</ele>
                <time>2018-10-20T06:38:43Z</time>
            </trkpt>
            <trkpt lon="101.188758" lat="14.341189">
                <ele>69.300000</ele>
                <time>2018-10-20T06:38:50Z</time>
            </trkpt>
            <trkpt lon="101.188538" lat="14.341403">
                <ele>68.400000</ele>
                <time>2018-10-20T06:38:58Z</time>
            </trkpt>
            <trkpt lon="101.188343" lat="14.341576">
                <ele>69.700000</ele>
                <time>2018-10-20T06:39:06Z</time>
            </trkpt>
            <trkpt lon="101.188176" lat="14.341739">
                <ele>70.200000</ele>
                <time>2018-10-20T06:39:14Z</time>
            </trkpt>
            <trkpt lon="101.188138" lat="14.341814">
                <ele>70.400000</ele>
                <time>2018-10-20T06:39:17Z</time>
            </trkpt>
            <trkpt lon="101.188120" lat="14.341864">
                <ele>70.500000</ele>
                <time>2018-10-20T06:39:19Z</time>
            </trkpt>
            <trkpt lon="101.188081" lat="14.341957">
                <ele>70.500000</ele>
                <time>2018-10-20T06:39:24Z</time>
            </trkpt>
            <trkpt lon="101.188053" lat="14.342071">
                <ele>70.900000</ele>
                <time>2018-10-20T06:39:30Z</time>
            </trkpt>
            <trkpt lon="101.187998" lat="14.342200">
                <ele>71.500000</ele>
                <time>2018-10-20T06:39:38Z</time>
            </trkpt>
            <trkpt lon="101.188006" lat="14.342275">
                <ele>71.800000</ele>
                <time>2018-10-20T06:39:43Z</time>
            </trkpt>
            <trkpt lon="101.188024" lat="14.342393">
                <ele>71.800000</ele>
                <time>2018-10-20T06:39:50Z</time>
            </trkpt>
            <trkpt lon="101.187972" lat="14.342502">
                <ele>72.100000</ele>
                <time>2018-10-20T06:39:57Z</time>
            </trkpt>
            <trkpt lon="101.187894" lat="14.342606">
                <ele>72.600000</ele>
                <time>2018-10-20T06:40:04Z</time>
            </trkpt>
            <trkpt lon="101.187785" lat="14.342700">
                <ele>73.000000</ele>
                <time>2018-10-20T06:40:12Z</time>
            </trkpt>
            <trkpt lon="101.187750" lat="14.342759">
                <ele>73.300000</ele>
                <time>2018-10-20T06:40:17Z</time>
            </trkpt>
            <trkpt lon="101.187743" lat="14.342775">
                <ele>73.300000</ele>
                <time>2018-10-20T06:40:18Z</time>
            </trkpt>
            <trkpt lon="101.187698" lat="14.342797">
                <ele>73.500000</ele>
                <time>2018-10-20T06:40:22Z</time>
            </trkpt>
            <trkpt lon="101.187682" lat="14.342799">
                <ele>73.800000</ele>
                <time>2018-10-20T06:40:23Z</time>
            </trkpt>
            <trkpt lon="101.187604" lat="14.342790">
                <ele>74.000000</ele>
                <time>2018-10-20T06:40:29Z</time>
            </trkpt>
            <trkpt lon="101.187604" lat="14.342789">
                <ele>74.000000</ele>
                <time>2018-10-20T06:40:37Z</time>
            </trkpt>
            <trkpt lon="101.187604" lat="14.342789">
                <ele>74.000000</ele>
                <time>2018-10-20T06:40:52Z</time>
            </trkpt>
            <trkpt lon="101.187604" lat="14.342789">
                <ele>74.000000</ele>
                <time>2018-10-20T06:41:11Z</time>
            </trkpt>
            <trkpt lon="101.187603" lat="14.342794">
                <ele>74.000000</ele>
                <time>2018-10-20T06:41:23Z</time>
            </trkpt>
            <trkpt lon="101.187590" lat="14.342796">
                <ele>74.100000</ele>
                <time>2018-10-20T06:41:24Z</time>
            </trkpt>
            <trkpt lon="101.187559" lat="14.342807">
                <ele>74.100000</ele>
                <time>2018-10-20T06:41:30Z</time>
            </trkpt>
            <trkpt lon="101.187528" lat="14.342831">
                <ele>74.200000</ele>
                <time>2018-10-20T06:41:37Z</time>
            </trkpt>
            <trkpt lon="101.187522" lat="14.342831">
                <ele>74.200000</ele>
                <time>2018-10-20T06:41:47Z</time>
            </trkpt>
            <trkpt lon="101.187501" lat="14.342834">
                <ele>74.200000</ele>
                <time>2018-10-20T06:41:56Z</time>
            </trkpt>
            <trkpt lon="101.187478" lat="14.342857">
                <ele>74.500000</ele>
                <time>2018-10-20T06:42:03Z</time>
            </trkpt>
            <trkpt lon="101.187437" lat="14.342905">
                <ele>74.700000</ele>
                <time>2018-10-20T06:42:06Z</time>
            </trkpt>
            <trkpt lon="101.187411" lat="14.342931">
                <ele>74.700000</ele>
                <time>2018-10-20T06:42:09Z</time>
            </trkpt>
            <trkpt lon="101.187410" lat="14.342941">
                <ele>74.900000</ele>
                <time>2018-10-20T06:42:15Z</time>
            </trkpt>
            <trkpt lon="101.187415" lat="14.342959">
                <ele>74.900000</ele>
                <time>2018-10-20T06:42:16Z</time>
            </trkpt>
            <trkpt lon="101.187417" lat="14.343029">
                <ele>74.900000</ele>
                <time>2018-10-20T06:42:20Z</time>
            </trkpt>
            <trkpt lon="101.187420" lat="14.343048">
                <ele>74.900000</ele>
                <time>2018-10-20T06:42:21Z</time>
            </trkpt>
            <trkpt lon="101.187374" lat="14.343157">
                <ele>74.700000</ele>
                <time>2018-10-20T06:42:27Z</time>
            </trkpt>
            <trkpt lon="101.187325" lat="14.343256">
                <ele>74.800000</ele>
                <time>2018-10-20T06:42:34Z</time>
            </trkpt>
            <trkpt lon="101.187292" lat="14.343297">
                <ele>74.900000</ele>
                <time>2018-10-20T06:42:38Z</time>
            </trkpt>
            <trkpt lon="101.187256" lat="14.343328">
                <ele>75.200000</ele>
                <time>2018-10-20T06:42:41Z</time>
            </trkpt>
            <trkpt lon="101.187234" lat="14.343350">
                <ele>75.100000</ele>
                <time>2018-10-20T06:42:46Z</time>
            </trkpt>
            <trkpt lon="101.187234" lat="14.343350">
                <ele>75.100000</ele>
                <time>2018-10-20T06:42:56Z</time>
            </trkpt>
            <trkpt lon="101.187212" lat="14.343360">
                <ele>75.500000</ele>
                <time>2018-10-20T06:43:02Z</time>
            </trkpt>
            <trkpt lon="101.187111" lat="14.343411">
                <ele>76.100000</ele>
                <time>2018-10-20T06:43:08Z</time>
            </trkpt>
            <trkpt lon="101.186998" lat="14.343486">
                <ele>77.200000</ele>
                <time>2018-10-20T06:43:14Z</time>
            </trkpt>
            <trkpt lon="101.186967" lat="14.343495">
                <ele>77.200000</ele>
                <time>2018-10-20T06:43:16Z</time>
            </trkpt>
            <trkpt lon="101.186903" lat="14.343515">
                <ele>77.100000</ele>
                <time>2018-10-20T06:43:20Z</time>
            </trkpt>
            <trkpt lon="101.186842" lat="14.343592">
                <ele>77.900000</ele>
                <time>2018-10-20T06:43:27Z</time>
            </trkpt>
            <trkpt lon="101.186798" lat="14.343637">
                <ele>78.100000</ele>
                <time>2018-10-20T06:43:31Z</time>
            </trkpt>
            <trkpt lon="101.186789" lat="14.343650">
                <ele>78.600000</ele>
                <time>2018-10-20T06:43:32Z</time>
            </trkpt>
            <trkpt lon="101.186779" lat="14.343662">
                <ele>78.300000</ele>
                <time>2018-10-20T06:43:33Z</time>
            </trkpt>
            <trkpt lon="101.186713" lat="14.343711">
                <ele>78.700000</ele>
                <time>2018-10-20T06:43:38Z</time>
            </trkpt>
            <trkpt lon="101.186692" lat="14.343725">
                <ele>78.700000</ele>
                <time>2018-10-20T06:43:40Z</time>
            </trkpt>
            <trkpt lon="101.186586" lat="14.343757">
                <ele>79.100000</ele>
                <time>2018-10-20T06:43:47Z</time>
            </trkpt>
            <trkpt lon="101.186461" lat="14.343797">
                <ele>80.200000</ele>
                <time>2018-10-20T06:43:55Z</time>
            </trkpt>
            <trkpt lon="101.186361" lat="14.343825">
                <ele>80.900000</ele>
                <time>2018-10-20T06:44:01Z</time>
            </trkpt>
            <trkpt lon="101.186247" lat="14.343871">
                <ele>81.200000</ele>
                <time>2018-10-20T06:44:08Z</time>
            </trkpt>
            <trkpt lon="101.186172" lat="14.343910">
                <ele>81.300000</ele>
                <time>2018-10-20T06:44:14Z</time>
            </trkpt>
            <trkpt lon="101.186100" lat="14.343944">
                <ele>81.200000</ele>
                <time>2018-10-20T06:44:20Z</time>
            </trkpt>
            <trkpt lon="101.186024" lat="14.343968">
                <ele>80.800000</ele>
                <time>2018-10-20T06:44:27Z</time>
            </trkpt>
            <trkpt lon="101.185952" lat="14.343992">
                <ele>80.500000</ele>
                <time>2018-10-20T06:44:34Z</time>
            </trkpt>
            <trkpt lon="101.185952" lat="14.343992">
                <ele>80.500000</ele>
                <time>2018-10-20T06:44:40Z</time>
            </trkpt>
            <trkpt lon="101.185952" lat="14.343992">
                <ele>80.500000</ele>
                <time>2018-10-20T06:44:48Z</time>
            </trkpt>
            <trkpt lon="101.185952" lat="14.343992">
                <ele>80.500000</ele>
                <time>2018-10-20T06:44:55Z</time>
            </trkpt>
            <trkpt lon="101.185952" lat="14.343992">
                <ele>80.500000</ele>
                <time>2018-10-20T06:45:02Z</time>
            </trkpt>
            <trkpt lon="101.185952" lat="14.343992">
                <ele>80.500000</ele>
                <time>2018-10-20T06:45:09Z</time>
            </trkpt>
            <trkpt lon="101.185951" lat="14.343992">
                <ele>80.500000</ele>
                <time>2018-10-20T06:45:18Z</time>
            </trkpt>
            <trkpt lon="101.185947" lat="14.343998">
                <ele>80.500000</ele>
                <time>2018-10-20T06:45:22Z</time>
            </trkpt>
            <trkpt lon="101.185917" lat="14.344012">
                <ele>80.200000</ele>
                <time>2018-10-20T06:45:24Z</time>
            </trkpt>
            <trkpt lon="101.185867" lat="14.344023">
                <ele>80.600000</ele>
                <time>2018-10-20T06:45:31Z</time>
            </trkpt>
            <trkpt lon="101.185812" lat="14.344052">
                <ele>80.700000</ele>
                <time>2018-10-20T06:45:37Z</time>
            </trkpt>
            <trkpt lon="101.185764" lat="14.344085">
                <ele>81.200000</ele>
                <time>2018-10-20T06:45:45Z</time>
            </trkpt>
            <trkpt lon="101.185764" lat="14.344085">
                <ele>81.200000</ele>
                <time>2018-10-20T06:45:52Z</time>
            </trkpt>
            <trkpt lon="101.185764" lat="14.344085">
                <ele>81.200000</ele>
                <time>2018-10-20T06:45:59Z</time>
            </trkpt>
            <trkpt lon="101.185764" lat="14.344085">
                <ele>81.200000</ele>
                <time>2018-10-20T06:46:08Z</time>
            </trkpt>
            <trkpt lon="101.185764" lat="14.344085">
                <ele>81.200000</ele>
                <time>2018-10-20T06:46:14Z</time>
            </trkpt>
            <trkpt lon="101.185621" lat="14.344081">
                <ele>82.300000</ele>
                <time>2018-10-20T06:46:21Z</time>
            </trkpt>
            <trkpt lon="101.185528" lat="14.344067">
                <ele>83.000000</ele>
                <time>2018-10-20T06:46:29Z</time>
            </trkpt>
            <trkpt lon="101.185468" lat="14.344049">
                <ele>82.600000</ele>
                <time>2018-10-20T06:46:35Z</time>
            </trkpt>
            <trkpt lon="101.185422" lat="14.344023">
                <ele>82.800000</ele>
                <time>2018-10-20T06:46:40Z</time>
            </trkpt>
            <trkpt lon="101.185409" lat="14.344017">
                <ele>82.600000</ele>
                <time>2018-10-20T06:46:41Z</time>
            </trkpt>
            <trkpt lon="101.185374" lat="14.343998">
                <ele>82.600000</ele>
                <time>2018-10-20T06:46:46Z</time>
            </trkpt>
            <trkpt lon="101.185374" lat="14.343998">
                <ele>82.600000</ele>
                <time>2018-10-20T06:47:02Z</time>
            </trkpt>
            <trkpt lon="101.185345" lat="14.343957">
                <ele>82.600000</ele>
                <time>2018-10-20T06:47:07Z</time>
            </trkpt>
            <trkpt lon="101.185344" lat="14.343958">
                <ele>82.600000</ele>
                <time>2018-10-20T06:47:08Z</time>
            </trkpt>
            <trkpt lon="101.185344" lat="14.343958">
                <ele>82.600000</ele>
                <time>2018-10-20T06:47:09Z</time>
            </trkpt>
            <trkpt lon="101.185329" lat="14.343910">
                <ele>82.300000</ele>
                <time>2018-10-20T06:47:15Z</time>
            </trkpt>
            <trkpt lon="101.185321" lat="14.343888">
                <ele>82.300000</ele>
                <time>2018-10-20T06:47:16Z</time>
            </trkpt>
            <trkpt lon="101.185270" lat="14.343814">
                <ele>82.300000</ele>
                <time>2018-10-20T06:47:21Z</time>
            </trkpt>
            <trkpt lon="101.185252" lat="14.343782">
                <ele>82.000000</ele>
                <time>2018-10-20T06:47:27Z</time>
            </trkpt>
            <trkpt lon="101.185226" lat="14.343767">
                <ele>82.000000</ele>
                <time>2018-10-20T06:47:34Z</time>
            </trkpt>
            <trkpt lon="101.185153" lat="14.343755">
                <ele>83.000000</ele>
                <time>2018-10-20T06:47:39Z</time>
            </trkpt>
            <trkpt lon="101.185107" lat="14.343714">
                <ele>83.400000</ele>
                <time>2018-10-20T06:47:46Z</time>
            </trkpt>
            <trkpt lon="101.185122" lat="14.343683">
                <ele>82.600000</ele>
                <time>2018-10-20T06:47:51Z</time>
            </trkpt>
            <trkpt lon="101.185126" lat="14.343647">
                <ele>82.600000</ele>
                <time>2018-10-20T06:47:53Z</time>
            </trkpt>
            <trkpt lon="101.185152" lat="14.343599">
                <ele>82.100000</ele>
                <time>2018-10-20T06:47:57Z</time>
            </trkpt>
            <trkpt lon="101.185140" lat="14.343584">
                <ele>82.100000</ele>
                <time>2018-10-20T06:48:01Z</time>
            </trkpt>
            <trkpt lon="101.185140" lat="14.343584">
                <ele>82.100000</ele>
                <time>2018-10-20T06:48:11Z</time>
            </trkpt>
            <trkpt lon="101.185140" lat="14.343584">
                <ele>82.100000</ele>
                <time>2018-10-20T06:48:12Z</time>
            </trkpt>
            <trkpt lon="101.185140" lat="14.343584">
                <ele>82.100000</ele>
                <time>2018-10-20T06:48:13Z</time>
            </trkpt>
            <trkpt lon="101.185140" lat="14.343584">
                <ele>82.100000</ele>
                <time>2018-10-20T06:48:14Z</time>
            </trkpt>
            <trkpt lon="101.185140" lat="14.343584">
                <ele>82.100000</ele>
                <time>2018-10-20T06:48:15Z</time>
            </trkpt>
            <trkpt lon="101.185140" lat="14.343584">
                <ele>82.100000</ele>
                <time>2018-10-20T06:48:16Z</time>
            </trkpt>
            <trkpt lon="101.185140" lat="14.343584">
                <ele>82.100000</ele>
                <time>2018-10-20T06:48:18Z</time>
            </trkpt>
            <trkpt lon="101.185140" lat="14.343584">
                <ele>82.100000</ele>
                <time>2018-10-20T06:48:20Z</time>
            </trkpt>
            <trkpt lon="101.185140" lat="14.343584">
                <ele>82.100000</ele>
                <time>2018-10-20T06:48:23Z</time>
            </trkpt>
            <trkpt lon="101.185140" lat="14.343584">
                <ele>82.000000</ele>
                <time>2018-10-20T06:48:24Z</time>
            </trkpt>
            <trkpt lon="101.185140" lat="14.343584">
                <ele>82.000000</ele>
                <time>2018-10-20T06:48:25Z</time>
            </trkpt>
            <trkpt lon="101.185140" lat="14.343584">
                <ele>82.000000</ele>
                <time>2018-10-20T06:48:26Z</time>
            </trkpt>
            <trkpt lon="101.185140" lat="14.343584">
                <ele>82.000000</ele>
                <time>2018-10-20T06:48:28Z</time>
            </trkpt>
            <trkpt lon="101.185140" lat="14.343584">
                <ele>82.000000</ele>
                <time>2018-10-20T06:48:33Z</time>
            </trkpt>
            <trkpt lon="101.185140" lat="14.343584">
                <ele>82.000000</ele>
                <time>2018-10-20T06:48:36Z</time>
            </trkpt>
            <trkpt lon="101.185137" lat="14.343583">
                <ele>82.000000</ele>
                <time>2018-10-20T06:48:42Z</time>
            </trkpt>
            <trkpt lon="101.185137" lat="14.343583">
                <ele>82.000000</ele>
                <time>2018-10-20T06:48:47Z</time>
            </trkpt>
            <trkpt lon="101.185148" lat="14.343560">
                <ele>81.700000</ele>
                <time>2018-10-20T06:48:53Z</time>
            </trkpt>
            <trkpt lon="101.185158" lat="14.343538">
                <ele>81.000000</ele>
                <time>2018-10-20T06:48:54Z</time>
            </trkpt>
            <trkpt lon="101.185187" lat="14.343462">
                <ele>80.600000</ele>
                <time>2018-10-20T06:48:58Z</time>
            </trkpt>
            <trkpt lon="101.185201" lat="14.343443">
                <ele>80.200000</ele>
                <time>2018-10-20T06:48:59Z</time>
            </trkpt>
            <trkpt lon="101.185204" lat="14.343417">
                <ele>80.300000</ele>
                <time>2018-10-20T06:49:00Z</time>
            </trkpt>
            <trkpt lon="101.185253" lat="14.343295">
                <ele>80.500000</ele>
                <time>2018-10-20T06:49:05Z</time>
            </trkpt>
            <trkpt lon="101.185257" lat="14.343279">
                <ele>80.500000</ele>
                <time>2018-10-20T06:49:06Z</time>
            </trkpt>
            <trkpt lon="101.185277" lat="14.343186">
                <ele>81.200000</ele>
                <time>2018-10-20T06:49:10Z</time>
            </trkpt>
            <trkpt lon="101.185288" lat="14.343173">
                <ele>81.200000</ele>
                <time>2018-10-20T06:49:11Z</time>
            </trkpt>
            <trkpt lon="101.185279" lat="14.343067">
                <ele>81.300000</ele>
                <time>2018-10-20T06:49:16Z</time>
            </trkpt>
            <trkpt lon="101.185244" lat="14.343020">
                <ele>81.300000</ele>
                <time>2018-10-20T06:49:19Z</time>
            </trkpt>
            <trkpt lon="101.185201" lat="14.342983">
                <ele>81.300000</ele>
                <time>2018-10-20T06:49:22Z</time>
            </trkpt>
            <trkpt lon="101.185184" lat="14.342971">
                <ele>81.200000</ele>
                <time>2018-10-20T06:49:23Z</time>
            </trkpt>
            <trkpt lon="101.185092" lat="14.342868">
                <ele>81.000000</ele>
                <time>2018-10-20T06:49:31Z</time>
            </trkpt>
            <trkpt lon="101.185085" lat="14.342845">
                <ele>80.900000</ele>
                <time>2018-10-20T06:49:32Z</time>
            </trkpt>
            <trkpt lon="101.185033" lat="14.342765">
                <ele>81.100000</ele>
                <time>2018-10-20T06:49:37Z</time>
            </trkpt>
            <trkpt lon="101.185019" lat="14.342750">
                <ele>81.400000</ele>
                <time>2018-10-20T06:49:38Z</time>
            </trkpt>
            <trkpt lon="101.184972" lat="14.342660">
                <ele>81.800000</ele>
                <time>2018-10-20T06:49:44Z</time>
            </trkpt>
            <trkpt lon="101.184974" lat="14.342562">
                <ele>81.700000</ele>
                <time>2018-10-20T06:49:50Z</time>
            </trkpt>
            <trkpt lon="101.184986" lat="14.342547">
                <ele>81.300000</ele>
                <time>2018-10-20T06:49:51Z</time>
            </trkpt>
            <trkpt lon="101.185047" lat="14.342441">
                <ele>81.000000</ele>
                <time>2018-10-20T06:49:58Z</time>
            </trkpt>
            <trkpt lon="101.185070" lat="14.342370">
                <ele>80.500000</ele>
                <time>2018-10-20T06:50:02Z</time>
            </trkpt>
            <trkpt lon="101.185055" lat="14.342326">
                <ele>80.400000</ele>
                <time>2018-10-20T06:50:04Z</time>
            </trkpt>
            <trkpt lon="101.185012" lat="14.342244">
                <ele>80.300000</ele>
                <time>2018-10-20T06:50:08Z</time>
            </trkpt>
            <trkpt lon="101.184990" lat="14.342210">
                <ele>80.200000</ele>
                <time>2018-10-20T06:50:10Z</time>
            </trkpt>
            <trkpt lon="101.184948" lat="14.342168">
                <ele>80.300000</ele>
                <time>2018-10-20T06:50:13Z</time>
            </trkpt>
            <trkpt lon="101.184937" lat="14.342135">
                <ele>80.200000</ele>
                <time>2018-10-20T06:50:15Z</time>
            </trkpt>
            <trkpt lon="101.184929" lat="14.342119">
                <ele>80.100000</ele>
                <time>2018-10-20T06:50:16Z</time>
            </trkpt>
            <trkpt lon="101.184873" lat="14.341998">
                <ele>80.000000</ele>
                <time>2018-10-20T06:50:22Z</time>
            </trkpt>
            <trkpt lon="101.184860" lat="14.341992">
                <ele>80.000000</ele>
                <time>2018-10-20T06:50:23Z</time>
            </trkpt>
            <trkpt lon="101.184844" lat="14.341953">
                <ele>80.100000</ele>
                <time>2018-10-20T06:50:26Z</time>
            </trkpt>
            <trkpt lon="101.184842" lat="14.341937">
                <ele>79.800000</ele>
                <time>2018-10-20T06:50:27Z</time>
            </trkpt>
            <trkpt lon="101.184846" lat="14.341808">
                <ele>79.200000</ele>
                <time>2018-10-20T06:50:34Z</time>
            </trkpt>
            <trkpt lon="101.184834" lat="14.341760">
                <ele>79.200000</ele>
                <time>2018-10-20T06:50:36Z</time>
            </trkpt>
            <trkpt lon="101.184794" lat="14.341717">
                <ele>79.400000</ele>
                <time>2018-10-20T06:50:38Z</time>
            </trkpt>
            <trkpt lon="101.184783" lat="14.341700">
                <ele>79.400000</ele>
                <time>2018-10-20T06:50:39Z</time>
            </trkpt>
            <trkpt lon="101.184769" lat="14.341683">
                <ele>79.400000</ele>
                <time>2018-10-20T06:50:40Z</time>
            </trkpt>
            <trkpt lon="101.184760" lat="14.341648">
                <ele>79.800000</ele>
                <time>2018-10-20T06:50:42Z</time>
            </trkpt>
            <trkpt lon="101.184742" lat="14.341568">
                <ele>80.000000</ele>
                <time>2018-10-20T06:50:46Z</time>
            </trkpt>
            <trkpt lon="101.184741" lat="14.341564">
                <ele>80.200000</ele>
                <time>2018-10-20T06:50:47Z</time>
            </trkpt>
            <trkpt lon="101.184737" lat="14.341521">
                <ele>80.500000</ele>
                <time>2018-10-20T06:50:51Z</time>
            </trkpt>
            <trkpt lon="101.184737" lat="14.341521">
                <ele>80.500000</ele>
                <time>2018-10-20T06:50:53Z</time>
            </trkpt>
            <trkpt lon="101.184737" lat="14.341521">
                <ele>80.500000</ele>
                <time>2018-10-20T06:50:54Z</time>
            </trkpt>
            <trkpt lon="101.184737" lat="14.341521">
                <ele>80.500000</ele>
                <time>2018-10-20T06:50:56Z</time>
            </trkpt>
            <trkpt lon="101.184737" lat="14.341521">
                <ele>80.400000</ele>
                <time>2018-10-20T06:50:58Z</time>
            </trkpt>
            <trkpt lon="101.184737" lat="14.341521">
                <ele>80.400000</ele>
                <time>2018-10-20T06:51:04Z</time>
            </trkpt>
            <trkpt lon="101.184739" lat="14.341478">
                <ele>80.700000</ele>
                <time>2018-10-20T06:51:12Z</time>
            </trkpt>
            <trkpt lon="101.184756" lat="14.341440">
                <ele>80.900000</ele>
                <time>2018-10-20T06:51:18Z</time>
            </trkpt>
            <trkpt lon="101.184776" lat="14.341425">
                <ele>80.700000</ele>
                <time>2018-10-20T06:51:25Z</time>
            </trkpt>
            <trkpt lon="101.184778" lat="14.341422">
                <ele>80.700000</ele>
                <time>2018-10-20T06:51:32Z</time>
            </trkpt>
            <trkpt lon="101.184801" lat="14.341398">
                <ele>80.900000</ele>
                <time>2018-10-20T06:51:37Z</time>
            </trkpt>
            <trkpt lon="101.184819" lat="14.341384">
                <ele>80.600000</ele>
                <time>2018-10-20T06:51:38Z</time>
            </trkpt>
            <trkpt lon="101.184930" lat="14.341305">
                <ele>80.200000</ele>
                <time>2018-10-20T06:51:44Z</time>
            </trkpt>
            <trkpt lon="101.184942" lat="14.341297">
                <ele>79.700000</ele>
                <time>2018-10-20T06:51:45Z</time>
            </trkpt>
            <trkpt lon="101.184961" lat="14.341293">
                <ele>79.700000</ele>
                <time>2018-10-20T06:51:50Z</time>
            </trkpt>
            <trkpt lon="101.184955" lat="14.341287">
                <ele>79.700000</ele>
                <time>2018-10-20T06:51:57Z</time>
            </trkpt>
            <trkpt lon="101.184918" lat="14.341300">
                <ele>80.200000</ele>
                <time>2018-10-20T06:52:05Z</time>
            </trkpt>
            <trkpt lon="101.184926" lat="14.341306">
                <ele>80.200000</ele>
                <time>2018-10-20T06:52:07Z</time>
            </trkpt>
            <trkpt lon="101.184936" lat="14.341311">
                <ele>80.200000</ele>
                <time>2018-10-20T06:52:10Z</time>
            </trkpt>
            <trkpt lon="101.184936" lat="14.341311">
                <ele>80.200000</ele>
                <time>2018-10-20T06:52:14Z</time>
            </trkpt>
            <trkpt lon="101.184959" lat="14.341311">
                <ele>79.700000</ele>
                <time>2018-10-20T06:52:17Z</time>
            </trkpt>
            <trkpt lon="101.184964" lat="14.341310">
                <ele>79.700000</ele>
                <time>2018-10-20T06:52:18Z</time>
            </trkpt>
            <trkpt lon="101.184969" lat="14.341312">
                <ele>79.700000</ele>
                <time>2018-10-20T06:52:23Z</time>
            </trkpt>
            <trkpt lon="101.184969" lat="14.341312">
                <ele>79.700000</ele>
                <time>2018-10-20T06:52:27Z</time>
            </trkpt>
            <trkpt lon="101.184969" lat="14.341312">
                <ele>79.700000</ele>
                <time>2018-10-20T06:52:29Z</time>
            </trkpt>
            <trkpt lon="101.184969" lat="14.341312">
                <ele>79.700000</ele>
                <time>2018-10-20T06:52:32Z</time>
            </trkpt>
            <trkpt lon="101.184968" lat="14.341315">
                <ele>79.600000</ele>
                <time>2018-10-20T06:52:36Z</time>
            </trkpt>
            <trkpt lon="101.184968" lat="14.341315">
                <ele>79.600000</ele>
                <time>2018-10-20T06:52:38Z</time>
            </trkpt>
            <trkpt lon="101.185003" lat="14.341306">
                <ele>79.200000</ele>
                <time>2018-10-20T06:52:45Z</time>
            </trkpt>
            <trkpt lon="101.185038" lat="14.341316">
                <ele>78.100000</ele>
                <time>2018-10-20T06:52:52Z</time>
            </trkpt>
            <trkpt lon="101.185047" lat="14.341316">
                <ele>78.100000</ele>
                <time>2018-10-20T06:52:58Z</time>
            </trkpt>
            <trkpt lon="101.185135" lat="14.341291">
                <ele>76.900000</ele>
                <time>2018-10-20T06:53:05Z</time>
            </trkpt>
            <trkpt lon="101.185153" lat="14.341284">
                <ele>76.900000</ele>
                <time>2018-10-20T06:53:06Z</time>
            </trkpt>
            <trkpt lon="101.185232" lat="14.341244">
                <ele>75.700000</ele>
                <time>2018-10-20T06:53:09Z</time>
            </trkpt>
            <trkpt lon="101.185315" lat="14.341201">
                <ele>74.700000</ele>
                <time>2018-10-20T06:53:12Z</time>
            </trkpt>
            <trkpt lon="101.185347" lat="14.341187">
                <ele>74.600000</ele>
                <time>2018-10-20T06:53:13Z</time>
            </trkpt>
            <trkpt lon="101.185425" lat="14.341160">
                <ele>73.700000</ele>
                <time>2018-10-20T06:53:16Z</time>
            </trkpt>
            <trkpt lon="101.185469" lat="14.341141">
                <ele>73.400000</ele>
                <time>2018-10-20T06:53:21Z</time>
            </trkpt>
            <trkpt lon="101.185475" lat="14.341143">
                <ele>73.400000</ele>
                <time>2018-10-20T06:53:25Z</time>
            </trkpt>
            <trkpt lon="101.185484" lat="14.341136">
                <ele>73.400000</ele>
                <time>2018-10-20T06:53:28Z</time>
            </trkpt>
            <trkpt lon="101.185474" lat="14.341103">
                <ele>73.200000</ele>
                <time>2018-10-20T06:53:33Z</time>
            </trkpt>
            <trkpt lon="101.185452" lat="14.341073">
                <ele>73.800000</ele>
                <time>2018-10-20T06:53:40Z</time>
            </trkpt>
            <trkpt lon="101.185430" lat="14.341039">
                <ele>73.600000</ele>
                <time>2018-10-20T06:53:45Z</time>
            </trkpt>
            <trkpt lon="101.185419" lat="14.341028">
                <ele>73.600000</ele>
                <time>2018-10-20T06:53:47Z</time>
            </trkpt>
            <trkpt lon="101.185389" lat="14.340949">
                <ele>74.200000</ele>
                <time>2018-10-20T06:53:57Z</time>
            </trkpt>
            <trkpt lon="101.185316" lat="14.340895">
                <ele>75.900000</ele>
                <time>2018-10-20T06:54:04Z</time>
            </trkpt>
            <trkpt lon="101.185278" lat="14.340872">
                <ele>76.700000</ele>
                <time>2018-10-20T06:54:09Z</time>
            </trkpt>
            <trkpt lon="101.185240" lat="14.340848">
                <ele>77.800000</ele>
                <time>2018-10-20T06:54:16Z</time>
            </trkpt>
            <trkpt lon="101.185230" lat="14.340826">
                <ele>77.800000</ele>
                <time>2018-10-20T06:54:19Z</time>
            </trkpt>
            <trkpt lon="101.185227" lat="14.340818">
                <ele>77.800000</ele>
                <time>2018-10-20T06:54:21Z</time>
            </trkpt>
            <trkpt lon="101.185227" lat="14.340818">
                <ele>77.800000</ele>
                <time>2018-10-20T06:54:22Z</time>
            </trkpt>
            <trkpt lon="101.185224" lat="14.340788">
                <ele>78.000000</ele>
                <time>2018-10-20T06:54:29Z</time>
            </trkpt>
            <trkpt lon="101.185218" lat="14.340772">
                <ele>78.000000</ele>
                <time>2018-10-20T06:54:32Z</time>
            </trkpt>
            <trkpt lon="101.185206" lat="14.340755">
                <ele>78.000000</ele>
                <time>2018-10-20T06:54:35Z</time>
            </trkpt>
            <trkpt lon="101.185196" lat="14.340744">
                <ele>78.900000</ele>
                <time>2018-10-20T06:54:36Z</time>
            </trkpt>
            <trkpt lon="101.185168" lat="14.340703">
                <ele>78.900000</ele>
                <time>2018-10-20T06:54:40Z</time>
            </trkpt>
            <trkpt lon="101.185147" lat="14.340662">
                <ele>79.800000</ele>
                <time>2018-10-20T06:54:45Z</time>
            </trkpt>
            <trkpt lon="101.185128" lat="14.340624">
                <ele>80.000000</ele>
                <time>2018-10-20T06:54:52Z</time>
            </trkpt>
            <trkpt lon="101.185136" lat="14.340549">
                <ele>80.500000</ele>
                <time>2018-10-20T06:54:57Z</time>
            </trkpt>
            <trkpt lon="101.185138" lat="14.340526">
                <ele>80.400000</ele>
                <time>2018-10-20T06:54:58Z</time>
            </trkpt>
            <trkpt lon="101.185150" lat="14.340442">
                <ele>80.600000</ele>
                <time>2018-10-20T06:55:03Z</time>
            </trkpt>
            <trkpt lon="101.185145" lat="14.340431">
                <ele>80.600000</ele>
                <time>2018-10-20T06:55:04Z</time>
            </trkpt>
            <trkpt lon="101.185140" lat="14.340401">
                <ele>80.600000</ele>
                <time>2018-10-20T06:55:07Z</time>
            </trkpt>
            <trkpt lon="101.185142" lat="14.340374">
                <ele>80.500000</ele>
                <time>2018-10-20T06:55:10Z</time>
            </trkpt>
            <trkpt lon="101.185155" lat="14.340261">
                <ele>78.600000</ele>
                <time>2018-10-20T06:55:17Z</time>
            </trkpt>
            <trkpt lon="101.185158" lat="14.340152">
                <ele>78.100000</ele>
                <time>2018-10-20T06:55:22Z</time>
            </trkpt>
            <trkpt lon="101.185158" lat="14.340124">
                <ele>77.700000</ele>
                <time>2018-10-20T06:55:23Z</time>
            </trkpt>
            <trkpt lon="101.185161" lat="14.340012">
                <ele>76.200000</ele>
                <time>2018-10-20T06:55:28Z</time>
            </trkpt>
            <trkpt lon="101.185192" lat="14.339859">
                <ele>73.400000</ele>
                <time>2018-10-20T06:55:34Z</time>
            </trkpt>
            <trkpt lon="101.185227" lat="14.339715">
                <ele>72.200000</ele>
                <time>2018-10-20T06:55:40Z</time>
            </trkpt>
            <trkpt lon="101.185228" lat="14.339600">
                <ele>72.800000</ele>
                <time>2018-10-20T06:55:45Z</time>
            </trkpt>
            <trkpt lon="101.185209" lat="14.339478">
                <ele>74.500000</ele>
                <time>2018-10-20T06:55:51Z</time>
            </trkpt>
            <trkpt lon="101.185197" lat="14.339472">
                <ele>74.800000</ele>
                <time>2018-10-20T06:55:52Z</time>
            </trkpt>
            <trkpt lon="101.185204" lat="14.339451">
                <ele>74.400000</ele>
                <time>2018-10-20T06:55:56Z</time>
            </trkpt>
            <trkpt lon="101.185217" lat="14.339453">
                <ele>74.400000</ele>
                <time>2018-10-20T06:55:57Z</time>
            </trkpt>
            <trkpt lon="101.185240" lat="14.339519">
                <ele>73.900000</ele>
                <time>2018-10-20T06:56:02Z</time>
            </trkpt>
            <trkpt lon="101.185248" lat="14.339564">
                <ele>73.000000</ele>
                <time>2018-10-20T06:56:04Z</time>
            </trkpt>
            <trkpt lon="101.185249" lat="14.339673">
                <ele>71.600000</ele>
                <time>2018-10-20T06:56:09Z</time>
            </trkpt>
            <trkpt lon="101.185213" lat="14.339832">
                <ele>72.600000</ele>
                <time>2018-10-20T06:56:17Z</time>
            </trkpt>
            <trkpt lon="101.185186" lat="14.339950">
                <ele>75.500000</ele>
                <time>2018-10-20T06:56:23Z</time>
            </trkpt>
            <trkpt lon="101.185185" lat="14.340092">
                <ele>77.100000</ele>
                <time>2018-10-20T06:56:30Z</time>
            </trkpt>
            <trkpt lon="101.185188" lat="14.340109">
                <ele>77.100000</ele>
                <time>2018-10-20T06:56:31Z</time>
            </trkpt>
            <trkpt lon="101.185168" lat="14.340177">
                <ele>77.900000</ele>
                <time>2018-10-20T06:56:35Z</time>
            </trkpt>
            <trkpt lon="101.185162" lat="14.340195">
                <ele>78.200000</ele>
                <time>2018-10-20T06:56:36Z</time>
            </trkpt>
            <trkpt lon="101.185173" lat="14.340265">
                <ele>78.400000</ele>
                <time>2018-10-20T06:56:40Z</time>
            </trkpt>
            <trkpt lon="101.185171" lat="14.340292">
                <ele>78.700000</ele>
                <time>2018-10-20T06:56:42Z</time>
            </trkpt>
            <trkpt lon="101.185163" lat="14.340330">
                <ele>78.900000</ele>
                <time>2018-10-20T06:56:45Z</time>
            </trkpt>
            <trkpt lon="101.185133" lat="14.340447">
                <ele>80.600000</ele>
                <time>2018-10-20T06:56:51Z</time>
            </trkpt>
            <trkpt lon="101.185129" lat="14.340464">
                <ele>80.600000</ele>
                <time>2018-10-20T06:56:52Z</time>
            </trkpt>
            <trkpt lon="101.185133" lat="14.340547">
                <ele>80.200000</ele>
                <time>2018-10-20T06:56:56Z</time>
            </trkpt>
            <trkpt lon="101.185132" lat="14.340617">
                <ele>79.700000</ele>
                <time>2018-10-20T06:57:00Z</time>
            </trkpt>
            <trkpt lon="101.185138" lat="14.340646">
                <ele>79.700000</ele>
                <time>2018-10-20T06:57:02Z</time>
            </trkpt>
            <trkpt lon="101.185140" lat="14.340660">
                <ele>79.600000</ele>
                <time>2018-10-20T06:57:03Z</time>
            </trkpt>
            <trkpt lon="101.185161" lat="14.340721">
                <ele>78.600000</ele>
                <time>2018-10-20T06:57:10Z</time>
            </trkpt>
            <trkpt lon="101.185161" lat="14.340721">
                <ele>78.600000</ele>
                <time>2018-10-20T06:57:11Z</time>
            </trkpt>
            <trkpt lon="101.185173" lat="14.340735">
                <ele>78.500000</ele>
                <time>2018-10-20T06:57:16Z</time>
            </trkpt>
            <trkpt lon="101.185191" lat="14.340788">
                <ele>78.500000</ele>
                <time>2018-10-20T06:57:23Z</time>
            </trkpt>
            <trkpt lon="101.185191" lat="14.340788">
                <ele>78.500000</ele>
                <time>2018-10-20T06:57:25Z</time>
            </trkpt>
            <trkpt lon="101.185203" lat="14.340798">
                <ele>77.600000</ele>
                <time>2018-10-20T06:57:32Z</time>
            </trkpt>
            <trkpt lon="101.185234" lat="14.340830">
                <ele>77.400000</ele>
                <time>2018-10-20T06:57:42Z</time>
            </trkpt>
            <trkpt lon="101.185249" lat="14.340815">
                <ele>76.600000</ele>
                <time>2018-10-20T06:57:48Z</time>
            </trkpt>
            <trkpt lon="101.185254" lat="14.340812">
                <ele>76.600000</ele>
                <time>2018-10-20T06:57:49Z</time>
            </trkpt>
            <trkpt lon="101.185356" lat="14.340791">
                <ele>74.600000</ele>
                <time>2018-10-20T06:57:57Z</time>
            </trkpt>
            <trkpt lon="101.185405" lat="14.340786">
                <ele>73.600000</ele>
                <time>2018-10-20T06:58:04Z</time>
            </trkpt>
            <trkpt lon="101.185423" lat="14.340780">
                <ele>72.600000</ele>
                <time>2018-10-20T06:58:05Z</time>
            </trkpt>
            <trkpt lon="101.185473" lat="14.340726">
                <ele>72.100000</ele>
                <time>2018-10-20T06:58:09Z</time>
            </trkpt>
            <trkpt lon="101.185476" lat="14.340652">
                <ele>72.300000</ele>
                <time>2018-10-20T06:58:13Z</time>
            </trkpt>
            <trkpt lon="101.185503" lat="14.340511">
                <ele>73.000000</ele>
                <time>2018-10-20T06:58:19Z</time>
            </trkpt>
            <trkpt lon="101.185512" lat="14.340425">
                <ele>73.100000</ele>
                <time>2018-10-20T06:58:22Z</time>
            </trkpt>
            <trkpt lon="101.185531" lat="14.340343">
                <ele>72.600000</ele>
                <time>2018-10-20T06:58:25Z</time>
            </trkpt>
            <trkpt lon="101.185565" lat="14.340152">
                <ele>71.200000</ele>
                <time>2018-10-20T06:58:31Z</time>
            </trkpt>
            <trkpt lon="101.185589" lat="14.339945">
                <ele>69.800000</ele>
                <time>2018-10-20T06:58:37Z</time>
            </trkpt>
            <trkpt lon="101.185600" lat="14.339797">
                <ele>69.800000</ele>
                <time>2018-10-20T06:58:42Z</time>
            </trkpt>
            <trkpt lon="101.185603" lat="14.339747">
                <ele>69.800000</ele>
                <time>2018-10-20T06:58:44Z</time>
            </trkpt>
            <trkpt lon="101.185617" lat="14.339666">
                <ele>69.800000</ele>
                <time>2018-10-20T06:58:47Z</time>
            </trkpt>
            <trkpt lon="101.185621" lat="14.339614">
                <ele>69.800000</ele>
                <time>2018-10-20T06:58:49Z</time>
            </trkpt>
            <trkpt lon="101.185648" lat="14.339559">
                <ele>70.200000</ele>
                <time>2018-10-20T06:58:52Z</time>
            </trkpt>
            <trkpt lon="101.185661" lat="14.339499">
                <ele>70.500000</ele>
                <time>2018-10-20T06:58:54Z</time>
            </trkpt>
            <trkpt lon="101.185673" lat="14.339395">
                <ele>70.800000</ele>
                <time>2018-10-20T06:58:58Z</time>
            </trkpt>
            <trkpt lon="101.185674" lat="14.339360">
                <ele>71.100000</ele>
                <time>2018-10-20T06:58:59Z</time>
            </trkpt>
            <trkpt lon="101.185681" lat="14.339179">
                <ele>72.000000</ele>
                <time>2018-10-20T06:59:05Z</time>
            </trkpt>
            <trkpt lon="101.185691" lat="14.339017">
                <ele>72.200000</ele>
                <time>2018-10-20T06:59:11Z</time>
            </trkpt>
            <trkpt lon="101.185694" lat="14.338899">
                <ele>71.500000</ele>
                <time>2018-10-20T06:59:15Z</time>
            </trkpt>
            <trkpt lon="101.185713" lat="14.338826">
                <ele>70.800000</ele>
                <time>2018-10-20T06:59:17Z</time>
            </trkpt>
            <trkpt lon="101.185736" lat="14.338618">
                <ele>70.900000</ele>
                <time>2018-10-20T06:59:23Z</time>
            </trkpt>
            <trkpt lon="101.185774" lat="14.338423">
                <ele>70.700000</ele>
                <time>2018-10-20T06:59:29Z</time>
            </trkpt>
            <trkpt lon="101.185793" lat="14.338210">
                <ele>70.700000</ele>
                <time>2018-10-20T06:59:36Z</time>
            </trkpt>
            <trkpt lon="101.185829" lat="14.338054">
                <ele>70.200000</ele>
                <time>2018-10-20T06:59:41Z</time>
            </trkpt>
            <trkpt lon="101.185864" lat="14.337866">
                <ele>70.800000</ele>
                <time>2018-10-20T06:59:46Z</time>
            </trkpt>
            <trkpt lon="101.185925" lat="14.337667">
                <ele>72.200000</ele>
                <time>2018-10-20T06:59:51Z</time>
            </trkpt>
            <trkpt lon="101.185971" lat="14.337512">
                <ele>72.100000</ele>
                <time>2018-10-20T06:59:56Z</time>
            </trkpt>
            <trkpt lon="101.185983" lat="14.337478">
                <ele>71.700000</ele>
                <time>2018-10-20T06:59:57Z</time>
            </trkpt>
            <trkpt lon="101.186026" lat="14.337341">
                <ele>70.200000</ele>
                <time>2018-10-20T07:00:02Z</time>
            </trkpt>
            <trkpt lon="101.186033" lat="14.337192">
                <ele>67.400000</ele>
                <time>2018-10-20T07:00:08Z</time>
            </trkpt>
            <trkpt lon="101.186057" lat="14.337035">
                <ele>66.300000</ele>
                <time>2018-10-20T07:00:15Z</time>
            </trkpt>
            <trkpt lon="101.186062" lat="14.337016">
                <ele>66.100000</ele>
                <time>2018-10-20T07:00:16Z</time>
            </trkpt>
            <trkpt lon="101.186083" lat="14.336964">
                <ele>66.200000</ele>
                <time>2018-10-20T07:00:19Z</time>
            </trkpt>
            <trkpt lon="101.186093" lat="14.336945">
                <ele>66.300000</ele>
                <time>2018-10-20T07:00:20Z</time>
            </trkpt>
            <trkpt lon="101.186112" lat="14.336927">
                <ele>66.200000</ele>
                <time>2018-10-20T07:00:21Z</time>
            </trkpt>
            <trkpt lon="101.186158" lat="14.336921">
                <ele>66.100000</ele>
                <time>2018-10-20T07:00:24Z</time>
            </trkpt>
            <trkpt lon="101.186181" lat="14.336918">
                <ele>66.100000</ele>
                <time>2018-10-20T07:00:25Z</time>
            </trkpt>
            <trkpt lon="101.186280" lat="14.336913">
                <ele>66.000000</ele>
                <time>2018-10-20T07:00:29Z</time>
            </trkpt>
            <trkpt lon="101.186318" lat="14.336911">
                <ele>66.000000</ele>
                <time>2018-10-20T07:00:31Z</time>
            </trkpt>
            <trkpt lon="101.186421" lat="14.336903">
                <ele>65.800000</ele>
                <time>2018-10-20T07:00:36Z</time>
            </trkpt>
            <trkpt lon="101.186511" lat="14.336910">
                <ele>65.300000</ele>
                <time>2018-10-20T07:00:42Z</time>
            </trkpt>
            <trkpt lon="101.186619" lat="14.336940">
                <ele>64.500000</ele>
                <time>2018-10-20T07:00:49Z</time>
            </trkpt>
            <trkpt lon="101.186739" lat="14.336961">
                <ele>64.000000</ele>
                <time>2018-10-20T07:00:56Z</time>
            </trkpt>
            <trkpt lon="101.186872" lat="14.336994">
                <ele>63.900000</ele>
                <time>2018-10-20T07:01:02Z</time>
            </trkpt>
            <trkpt lon="101.187029" lat="14.337001">
                <ele>64.000000</ele>
                <time>2018-10-20T07:01:09Z</time>
            </trkpt>
            <trkpt lon="101.187066" lat="14.337014">
                <ele>64.000000</ele>
                <time>2018-10-20T07:01:11Z</time>
            </trkpt>
            <trkpt lon="101.187116" lat="14.337029">
                <ele>64.300000</ele>
                <time>2018-10-20T07:01:14Z</time>
            </trkpt>
            <trkpt lon="101.187135" lat="14.337032">
                <ele>64.800000</ele>
                <time>2018-10-20T07:01:15Z</time>
            </trkpt>
            <trkpt lon="101.187197" lat="14.337039">
                <ele>65.300000</ele>
                <time>2018-10-20T07:01:20Z</time>
            </trkpt>
            <trkpt lon="101.187286" lat="14.337060">
                <ele>66.000000</ele>
                <time>2018-10-20T07:01:27Z</time>
            </trkpt>
            <trkpt lon="101.187408" lat="14.337084">
                <ele>66.200000</ele>
                <time>2018-10-20T07:01:33Z</time>
            </trkpt>
            <trkpt lon="101.187585" lat="14.337112">
                <ele>66.300000</ele>
                <time>2018-10-20T07:01:40Z</time>
            </trkpt>
            <trkpt lon="101.187801" lat="14.337141">
                <ele>64.600000</ele>
                <time>2018-10-20T07:01:47Z</time>
            </trkpt>
            <trkpt lon="101.187823" lat="14.337145">
                <ele>64.000000</ele>
                <time>2018-10-20T07:01:48Z</time>
            </trkpt>
            <trkpt lon="101.187935" lat="14.337170">
                <ele>63.000000</ele>
                <time>2018-10-20T07:01:55Z</time>
            </trkpt>
            <trkpt lon="101.188097" lat="14.337204">
                <ele>61.900000</ele>
                <time>2018-10-20T07:02:03Z</time>
            </trkpt>
            <trkpt lon="101.188156" lat="14.337192">
                <ele>61.800000</ele>
                <time>2018-10-20T07:02:06Z</time>
            </trkpt>
            <trkpt lon="101.188215" lat="14.337150">
                <ele>61.700000</ele>
                <time>2018-10-20T07:02:09Z</time>
            </trkpt>
            <trkpt lon="101.188320" lat="14.337093">
                <ele>61.400000</ele>
                <time>2018-10-20T07:02:14Z</time>
            </trkpt>
            <trkpt lon="101.188455" lat="14.336996">
                <ele>60.900000</ele>
                <time>2018-10-20T07:02:22Z</time>
            </trkpt>
            <trkpt lon="101.188564" lat="14.336877">
                <ele>59.500000</ele>
                <time>2018-10-20T07:02:28Z</time>
            </trkpt>
            <trkpt lon="101.188646" lat="14.336830">
                <ele>58.600000</ele>
                <time>2018-10-20T07:02:33Z</time>
            </trkpt>
            <trkpt lon="101.188767" lat="14.336814">
                <ele>57.000000</ele>
                <time>2018-10-20T07:02:38Z</time>
            </trkpt>
            <trkpt lon="101.188950" lat="14.336756">
                <ele>55.900000</ele>
                <time>2018-10-20T07:02:44Z</time>
            </trkpt>
            <trkpt lon="101.189088" lat="14.336716">
                <ele>56.400000</ele>
                <time>2018-10-20T07:02:50Z</time>
            </trkpt>
            <trkpt lon="101.189263" lat="14.336682">
                <ele>57.400000</ele>
                <time>2018-10-20T07:02:56Z</time>
            </trkpt>
            <trkpt lon="101.189408" lat="14.336683">
                <ele>58.400000</ele>
                <time>2018-10-20T07:03:02Z</time>
            </trkpt>
            <trkpt lon="101.189526" lat="14.336755">
                <ele>59.400000</ele>
                <time>2018-10-20T07:03:09Z</time>
            </trkpt>
            <trkpt lon="101.189611" lat="14.336814">
                <ele>60.200000</ele>
                <time>2018-10-20T07:03:15Z</time>
            </trkpt>
            <trkpt lon="101.189634" lat="14.336815">
                <ele>60.400000</ele>
                <time>2018-10-20T07:03:16Z</time>
            </trkpt>
            <trkpt lon="101.189713" lat="14.336798">
                <ele>60.500000</ele>
                <time>2018-10-20T07:03:20Z</time>
            </trkpt>
            <trkpt lon="101.189729" lat="14.336797">
                <ele>60.500000</ele>
                <time>2018-10-20T07:03:24Z</time>
            </trkpt>
            <trkpt lon="101.189729" lat="14.336797">
                <ele>60.500000</ele>
                <time>2018-10-20T07:03:40Z</time>
            </trkpt>
            <trkpt lon="101.189727" lat="14.336806">
                <ele>60.500000</ele>
                <time>2018-10-20T07:03:55Z</time>
            </trkpt>
            <trkpt lon="101.189758" lat="14.336810">
                <ele>60.500000</ele>
                <time>2018-10-20T07:04:00Z</time>
            </trkpt>
            <trkpt lon="101.189800" lat="14.336772">
                <ele>60.200000</ele>
                <time>2018-10-20T07:04:06Z</time>
            </trkpt>
            <trkpt lon="101.189818" lat="14.336743">
                <ele>60.200000</ele>
                <time>2018-10-20T07:04:10Z</time>
            </trkpt>
            <trkpt lon="101.189844" lat="14.336714">
                <ele>60.100000</ele>
                <time>2018-10-20T07:04:14Z</time>
            </trkpt>
            <trkpt lon="101.189875" lat="14.336682">
                <ele>59.700000</ele>
                <time>2018-10-20T07:04:21Z</time>
            </trkpt>
            <trkpt lon="101.189876" lat="14.336675">
                <ele>59.800000</ele>
                <time>2018-10-20T07:04:27Z</time>
            </trkpt>
            <trkpt lon="101.189897" lat="14.336646">
                <ele>59.400000</ele>
                <time>2018-10-20T07:04:35Z</time>
            </trkpt>
            <trkpt lon="101.189901" lat="14.336639">
                <ele>59.400000</ele>
                <time>2018-10-20T07:04:38Z</time>
            </trkpt>
            <trkpt lon="101.189901" lat="14.336639">
                <ele>59.400000</ele>
                <time>2018-10-20T07:04:42Z</time>
            </trkpt>
            <trkpt lon="101.189901" lat="14.336639">
                <ele>59.400000</ele>
                <time>2018-10-20T07:04:56Z</time>
            </trkpt>
            <trkpt lon="101.189941" lat="14.336643">
                <ele>59.300000</ele>
                <time>2018-10-20T07:05:03Z</time>
            </trkpt>
            <trkpt lon="101.189995" lat="14.336640">
                <ele>59.300000</ele>
                <time>2018-10-20T07:05:09Z</time>
            </trkpt>
            <trkpt lon="101.190035" lat="14.336613">
                <ele>58.800000</ele>
                <time>2018-10-20T07:05:17Z</time>
            </trkpt>
            <trkpt lon="101.190050" lat="14.336592">
                <ele>58.900000</ele>
                <time>2018-10-20T07:05:24Z</time>
            </trkpt>
            <trkpt lon="101.190103" lat="14.336556">
                <ele>58.400000</ele>
                <time>2018-10-20T07:05:28Z</time>
            </trkpt>
            <trkpt lon="101.190111" lat="14.336541">
                <ele>58.400000</ele>
                <time>2018-10-20T07:05:29Z</time>
            </trkpt>
            <trkpt lon="101.190151" lat="14.336492">
                <ele>57.200000</ele>
                <time>2018-10-20T07:05:32Z</time>
            </trkpt>
            <trkpt lon="101.190230" lat="14.336448">
                <ele>57.400000</ele>
                <time>2018-10-20T07:05:37Z</time>
            </trkpt>
            <trkpt lon="101.190344" lat="14.336385">
                <ele>57.900000</ele>
                <time>2018-10-20T07:05:43Z</time>
            </trkpt>
            <trkpt lon="101.190422" lat="14.336336">
                <ele>58.400000</ele>
                <time>2018-10-20T07:05:48Z</time>
            </trkpt>
            <trkpt lon="101.190483" lat="14.336337">
                <ele>59.400000</ele>
                <time>2018-10-20T07:05:51Z</time>
            </trkpt>
            <trkpt lon="101.190532" lat="14.336354">
                <ele>59.700000</ele>
                <time>2018-10-20T07:05:54Z</time>
            </trkpt>
            <trkpt lon="101.190549" lat="14.336355">
                <ele>59.700000</ele>
                <time>2018-10-20T07:05:55Z</time>
            </trkpt>
            <trkpt lon="101.190581" lat="14.336351">
                <ele>59.700000</ele>
                <time>2018-10-20T07:05:57Z</time>
            </trkpt>
            <trkpt lon="101.190650" lat="14.336342">
                <ele>59.700000</ele>
                <time>2018-10-20T07:06:00Z</time>
            </trkpt>
            <trkpt lon="101.190716" lat="14.336336">
                <ele>59.500000</ele>
                <time>2018-10-20T07:06:06Z</time>
            </trkpt>
            <trkpt lon="101.190773" lat="14.336332">
                <ele>59.300000</ele>
                <time>2018-10-20T07:06:13Z</time>
            </trkpt>
            <trkpt lon="101.190830" lat="14.336320">
                <ele>58.200000</ele>
                <time>2018-10-20T07:06:19Z</time>
            </trkpt>
            <trkpt lon="101.190896" lat="14.336313">
                <ele>58.000000</ele>
                <time>2018-10-20T07:06:23Z</time>
            </trkpt>
            <trkpt lon="101.190933" lat="14.336320">
                <ele>57.800000</ele>
                <time>2018-10-20T07:06:25Z</time>
            </trkpt>
            <trkpt lon="101.191083" lat="14.336350">
                <ele>57.900000</ele>
                <time>2018-10-20T07:06:31Z</time>
            </trkpt>
            <trkpt lon="101.191215" lat="14.336411">
                <ele>59.200000</ele>
                <time>2018-10-20T07:06:37Z</time>
            </trkpt>
            <trkpt lon="101.191324" lat="14.336458">
                <ele>60.000000</ele>
                <time>2018-10-20T07:06:42Z</time>
            </trkpt>
            <trkpt lon="101.191386" lat="14.336523">
                <ele>60.400000</ele>
                <time>2018-10-20T07:06:48Z</time>
            </trkpt>
            <trkpt lon="101.191463" lat="14.336473">
                <ele>60.800000</ele>
                <time>2018-10-20T07:06:52Z</time>
            </trkpt>
            <trkpt lon="101.191493" lat="14.336439">
                <ele>60.700000</ele>
                <time>2018-10-20T07:06:54Z</time>
            </trkpt>
            <trkpt lon="101.191572" lat="14.336355">
                <ele>60.700000</ele>
                <time>2018-10-20T07:06:59Z</time>
            </trkpt>
            <trkpt lon="101.191714" lat="14.336224">
                <ele>60.600000</ele>
                <time>2018-10-20T07:07:07Z</time>
            </trkpt>
            <trkpt lon="101.191825" lat="14.336122">
                <ele>60.500000</ele>
                <time>2018-10-20T07:07:13Z</time>
            </trkpt>
            <trkpt lon="101.191891" lat="14.336063">
                <ele>60.400000</ele>
                <time>2018-10-20T07:07:16Z</time>
            </trkpt>
            <trkpt lon="101.191964" lat="14.335982">
                <ele>60.300000</ele>
                <time>2018-10-20T07:07:20Z</time>
            </trkpt>
            <trkpt lon="101.192081" lat="14.335876">
                <ele>60.200000</ele>
                <time>2018-10-20T07:07:26Z</time>
            </trkpt>
            <trkpt lon="101.192142" lat="14.335819">
                <ele>60.200000</ele>
                <time>2018-10-20T07:07:29Z</time>
            </trkpt>
            <trkpt lon="101.192218" lat="14.335738">
                <ele>60.200000</ele>
                <time>2018-10-20T07:07:33Z</time>
            </trkpt>
            <trkpt lon="101.192308" lat="14.335648">
                <ele>60.100000</ele>
                <time>2018-10-20T07:07:37Z</time>
            </trkpt>
            <trkpt lon="101.192491" lat="14.335429">
                <ele>60.000000</ele>
                <time>2018-10-20T07:07:45Z</time>
            </trkpt>
            <trkpt lon="101.192619" lat="14.335290">
                <ele>60.000000</ele>
                <time>2018-10-20T07:07:50Z</time>
            </trkpt>
            <trkpt lon="101.192634" lat="14.335270">
                <ele>60.000000</ele>
                <time>2018-10-20T07:07:51Z</time>
            </trkpt>
            <trkpt lon="101.192620" lat="14.335236">
                <ele>60.100000</ele>
                <time>2018-10-20T07:07:52Z</time>
            </trkpt>
            <trkpt lon="101.192590" lat="14.335183">
                <ele>60.100000</ele>
                <time>2018-10-20T07:07:54Z</time>
            </trkpt>
            <trkpt lon="101.192547" lat="14.335143">
                <ele>60.100000</ele>
                <time>2018-10-20T07:07:56Z</time>
            </trkpt>
            <trkpt lon="101.192524" lat="14.335125">
                <ele>60.100000</ele>
                <time>2018-10-20T07:07:57Z</time>
            </trkpt>
            <trkpt lon="101.192473" lat="14.335095">
                <ele>60.100000</ele>
                <time>2018-10-20T07:07:59Z</time>
            </trkpt>
            <trkpt lon="101.192256" lat="14.334964">
                <ele>60.200000</ele>
                <time>2018-10-20T07:08:06Z</time>
            </trkpt>
            <trkpt lon="101.192066" lat="14.334835">
                <ele>60.400000</ele>
                <time>2018-10-20T07:08:14Z</time>
            </trkpt>
            <trkpt lon="101.191903" lat="14.334682">
                <ele>60.600000</ele>
                <time>2018-10-20T07:08:21Z</time>
            </trkpt>
            <trkpt lon="101.191727" lat="14.334540">
                <ele>60.700000</ele>
                <time>2018-10-20T07:08:27Z</time>
            </trkpt>
            <trkpt lon="101.191452" lat="14.334351">
                <ele>61.000000</ele>
                <time>2018-10-20T07:08:35Z</time>
            </trkpt>
            <trkpt lon="101.191415" lat="14.334329">
                <ele>61.000000</ele>
                <time>2018-10-20T07:08:36Z</time>
            </trkpt>
            <trkpt lon="101.191165" lat="14.334140">
                <ele>61.200000</ele>
                <time>2018-10-20T07:08:43Z</time>
            </trkpt>
            <trkpt lon="101.190908" lat="14.333942">
                <ele>59.200000</ele>
                <time>2018-10-20T07:08:50Z</time>
            </trkpt>
            <trkpt lon="101.190569" lat="14.333716">
                <ele>59.000000</ele>
                <time>2018-10-20T07:08:59Z</time>
            </trkpt>
            <trkpt lon="101.190532" lat="14.333690">
                <ele>59.200000</ele>
                <time>2018-10-20T07:09:00Z</time>
            </trkpt>
            <trkpt lon="101.190493" lat="14.333665">
                <ele>59.300000</ele>
                <time>2018-10-20T07:09:01Z</time>
            </trkpt>
            <trkpt lon="101.190411" lat="14.333547">
                <ele>59.300000</ele>
                <time>2018-10-20T07:09:05Z</time>
            </trkpt>
            <trkpt lon="101.190534" lat="14.333407">
                <ele>58.700000</ele>
                <time>2018-10-20T07:09:09Z</time>
            </trkpt>
            <trkpt lon="101.190570" lat="14.333369">
                <ele>58.500000</ele>
                <time>2018-10-20T07:09:10Z</time>
            </trkpt>
            <trkpt lon="101.190699" lat="14.333188">
                <ele>57.500000</ele>
                <time>2018-10-20T07:09:14Z</time>
            </trkpt>
            <trkpt lon="101.190929" lat="14.332845">
                <ele>57.000000</ele>
                <time>2018-10-20T07:09:22Z</time>
            </trkpt>
            <trkpt lon="101.191061" lat="14.332644">
                <ele>56.700000</ele>
                <time>2018-10-20T07:09:27Z</time>
            </trkpt>
            <trkpt lon="101.191116" lat="14.332568">
                <ele>56.300000</ele>
                <time>2018-10-20T07:09:29Z</time>
            </trkpt>
            <trkpt lon="101.191313" lat="14.332285">
                <ele>55.100000</ele>
                <time>2018-10-20T07:09:37Z</time>
            </trkpt>
            <trkpt lon="101.191472" lat="14.332046">
                <ele>55.500000</ele>
                <time>2018-10-20T07:09:44Z</time>
            </trkpt>
            <trkpt lon="101.191632" lat="14.331811">
                <ele>55.000000</ele>
                <time>2018-10-20T07:09:50Z</time>
            </trkpt>
            <trkpt lon="101.191775" lat="14.331586">
                <ele>53.800000</ele>
                <time>2018-10-20T07:09:56Z</time>
            </trkpt>
            <trkpt lon="101.191871" lat="14.331360">
                <ele>53.300000</ele>
                <time>2018-10-20T07:10:03Z</time>
            </trkpt>
            <trkpt lon="101.191923" lat="14.331159">
                <ele>53.300000</ele>
                <time>2018-10-20T07:10:08Z</time>
            </trkpt>
            <trkpt lon="101.191931" lat="14.331119">
                <ele>53.200000</ele>
                <time>2018-10-20T07:10:09Z</time>
            </trkpt>
            <trkpt lon="101.191960" lat="14.331024">
                <ele>53.100000</ele>
                <time>2018-10-20T07:10:12Z</time>
            </trkpt>
            <trkpt lon="101.191968" lat="14.330996">
                <ele>53.000000</ele>
                <time>2018-10-20T07:10:13Z</time>
            </trkpt>
            <trkpt lon="101.191990" lat="14.330829">
                <ele>52.900000</ele>
                <time>2018-10-20T07:10:19Z</time>
            </trkpt>
            <trkpt lon="101.191906" lat="14.330764">
                <ele>52.900000</ele>
                <time>2018-10-20T07:10:25Z</time>
            </trkpt>
            <trkpt lon="101.191831" lat="14.330728">
                <ele>53.000000</ele>
                <time>2018-10-20T07:10:31Z</time>
            </trkpt>
            <trkpt lon="101.191817" lat="14.330724">
                <ele>52.900000</ele>
                <time>2018-10-20T07:10:32Z</time>
            </trkpt>
            <trkpt lon="101.191769" lat="14.330705">
                <ele>52.800000</ele>
                <time>2018-10-20T07:10:35Z</time>
            </trkpt>
            <trkpt lon="101.191714" lat="14.330681">
                <ele>52.900000</ele>
                <time>2018-10-20T07:10:38Z</time>
            </trkpt>
            <trkpt lon="101.191575" lat="14.330609">
                <ele>53.200000</ele>
                <time>2018-10-20T07:10:44Z</time>
            </trkpt>
            <trkpt lon="101.191498" lat="14.330573">
                <ele>53.300000</ele>
                <time>2018-10-20T07:10:49Z</time>
            </trkpt>
            <trkpt lon="101.191412" lat="14.330536">
                <ele>53.100000</ele>
                <time>2018-10-20T07:10:54Z</time>
            </trkpt>
            <trkpt lon="101.191384" lat="14.330525">
                <ele>52.800000</ele>
                <time>2018-10-20T07:10:56Z</time>
            </trkpt>
            <trkpt lon="101.191268" lat="14.330515">
                <ele>51.400000</ele>
                <time>2018-10-20T07:11:03Z</time>
            </trkpt>
            <trkpt lon="101.191176" lat="14.330548">
                <ele>50.900000</ele>
                <time>2018-10-20T07:11:09Z</time>
            </trkpt>
            <trkpt lon="101.191085" lat="14.330678">
                <ele>51.800000</ele>
                <time>2018-10-20T07:11:16Z</time>
            </trkpt>
            <trkpt lon="101.190966" lat="14.330867">
                <ele>53.300000</ele>
                <time>2018-10-20T07:11:23Z</time>
            </trkpt>
            <trkpt lon="101.190856" lat="14.331025">
                <ele>54.400000</ele>
                <time>2018-10-20T07:11:30Z</time>
            </trkpt>
            <trkpt lon="101.190835" lat="14.331108">
                <ele>54.400000</ele>
                <time>2018-10-20T07:11:35Z</time>
            </trkpt>
            <trkpt lon="101.190832" lat="14.331124">
                <ele>54.400000</ele>
                <time>2018-10-20T07:11:37Z</time>
            </trkpt>
            <trkpt lon="101.190816" lat="14.331132">
                <ele>54.400000</ele>
                <time>2018-10-20T07:11:40Z</time>
            </trkpt>
            <trkpt lon="101.190800" lat="14.331135">
                <ele>54.400000</ele>
                <time>2018-10-20T07:11:41Z</time>
            </trkpt>
            <trkpt lon="101.190757" lat="14.331176">
                <ele>54.700000</ele>
                <time>2018-10-20T07:11:44Z</time>
            </trkpt>
            <trkpt lon="101.190615" lat="14.331298">
                <ele>54.800000</ele>
                <time>2018-10-20T07:11:51Z</time>
            </trkpt>
            <trkpt lon="101.190490" lat="14.331406">
                <ele>54.600000</ele>
                <time>2018-10-20T07:11:58Z</time>
            </trkpt>
            <trkpt lon="101.190382" lat="14.331496">
                <ele>53.400000</ele>
                <time>2018-10-20T07:12:03Z</time>
            </trkpt>
            <trkpt lon="101.190252" lat="14.331608">
                <ele>52.300000</ele>
                <time>2018-10-20T07:12:09Z</time>
            </trkpt>
            <trkpt lon="101.190148" lat="14.331690">
                <ele>52.000000</ele>
                <time>2018-10-20T07:12:14Z</time>
            </trkpt>
            <trkpt lon="101.190098" lat="14.331722">
                <ele>52.300000</ele>
                <time>2018-10-20T07:12:16Z</time>
            </trkpt>
            <trkpt lon="101.189957" lat="14.331825">
                <ele>53.100000</ele>
                <time>2018-10-20T07:12:22Z</time>
            </trkpt>
            <trkpt lon="101.189855" lat="14.331917">
                <ele>53.800000</ele>
                <time>2018-10-20T07:12:28Z</time>
            </trkpt>
            <trkpt lon="101.189835" lat="14.331948">
                <ele>53.800000</ele>
                <time>2018-10-20T07:12:31Z</time>
            </trkpt>
            <trkpt lon="101.189814" lat="14.331943">
                <ele>54.000000</ele>
                <time>2018-10-20T07:12:33Z</time>
            </trkpt>
            <trkpt lon="101.189729" lat="14.331914">
                <ele>54.300000</ele>
                <time>2018-10-20T07:12:39Z</time>
            </trkpt>
            <trkpt lon="101.189549" lat="14.331860">
                <ele>53.700000</ele>
                <time>2018-10-20T07:12:48Z</time>
            </trkpt>
            <trkpt lon="101.189389" lat="14.331807">
                <ele>53.600000</ele>
                <time>2018-10-20T07:12:55Z</time>
            </trkpt>
            <trkpt lon="101.189306" lat="14.331700">
                <ele>53.700000</ele>
                <time>2018-10-20T07:13:02Z</time>
            </trkpt>
            <trkpt lon="101.189344" lat="14.331575">
                <ele>53.200000</ele>
                <time>2018-10-20T07:13:07Z</time>
            </trkpt>
            <trkpt lon="101.189355" lat="14.331548">
                <ele>53.300000</ele>
                <time>2018-10-20T07:13:08Z</time>
            </trkpt>
            <trkpt lon="101.189438" lat="14.331355">
                <ele>53.400000</ele>
                <time>2018-10-20T07:13:15Z</time>
            </trkpt>
            <trkpt lon="101.189464" lat="14.331220">
                <ele>53.400000</ele>
                <time>2018-10-20T07:13:20Z</time>
            </trkpt>
            <trkpt lon="101.189447" lat="14.331155">
                <ele>53.500000</ele>
                <time>2018-10-20T07:13:25Z</time>
            </trkpt>
            <trkpt lon="101.189455" lat="14.331163">
                <ele>53.500000</ele>
                <time>2018-10-20T07:13:28Z</time>
            </trkpt>
            <trkpt lon="101.189448" lat="14.331203">
                <ele>53.500000</ele>
                <time>2018-10-20T07:13:30Z</time>
            </trkpt>
            <trkpt lon="101.189415" lat="14.331357">
                <ele>53.700000</ele>
                <time>2018-10-20T07:13:35Z</time>
            </trkpt>
            <trkpt lon="101.189348" lat="14.331588">
                <ele>54.000000</ele>
                <time>2018-10-20T07:13:42Z</time>
            </trkpt>
            <trkpt lon="101.189311" lat="14.331757">
                <ele>54.000000</ele>
                <time>2018-10-20T07:13:47Z</time>
            </trkpt>
            <trkpt lon="101.189327" lat="14.331788">
                <ele>54.000000</ele>
                <time>2018-10-20T07:13:48Z</time>
            </trkpt>
            <trkpt lon="101.189389" lat="14.331825">
                <ele>53.600000</ele>
                <time>2018-10-20T07:13:50Z</time>
            </trkpt>
            <trkpt lon="101.189676" lat="14.331924">
                <ele>54.300000</ele>
                <time>2018-10-20T07:13:57Z</time>
            </trkpt>
            <trkpt lon="101.189868" lat="14.331889">
                <ele>53.800000</ele>
                <time>2018-10-20T07:14:01Z</time>
            </trkpt>
            <trkpt lon="101.189983" lat="14.331793">
                <ele>53.000000</ele>
                <time>2018-10-20T07:14:04Z</time>
            </trkpt>
            <trkpt lon="101.190022" lat="14.331761">
                <ele>52.700000</ele>
                <time>2018-10-20T07:14:05Z</time>
            </trkpt>
            <trkpt lon="101.190189" lat="14.331631">
                <ele>52.000000</ele>
                <time>2018-10-20T07:14:10Z</time>
            </trkpt>
            <trkpt lon="101.190417" lat="14.331447">
                <ele>53.700000</ele>
                <time>2018-10-20T07:14:17Z</time>
            </trkpt>
            <trkpt lon="101.190677" lat="14.331210">
                <ele>54.700000</ele>
                <time>2018-10-20T07:14:24Z</time>
            </trkpt>
            <trkpt lon="101.190870" lat="14.330954">
                <ele>54.200000</ele>
                <time>2018-10-20T07:14:30Z</time>
            </trkpt>
            <trkpt lon="101.190955" lat="14.330839">
                <ele>53.200000</ele>
                <time>2018-10-20T07:14:33Z</time>
            </trkpt>
            <trkpt lon="101.190984" lat="14.330801">
                <ele>52.800000</ele>
                <time>2018-10-20T07:14:34Z</time>
            </trkpt>
            <trkpt lon="101.191037" lat="14.330723">
                <ele>52.000000</ele>
                <time>2018-10-20T07:14:36Z</time>
            </trkpt>
            <trkpt lon="101.191081" lat="14.330641">
                <ele>51.800000</ele>
                <time>2018-10-20T07:14:38Z</time>
            </trkpt>
            <trkpt lon="101.191127" lat="14.330538">
                <ele>51.400000</ele>
                <time>2018-10-20T07:14:41Z</time>
            </trkpt>
            <trkpt lon="101.191131" lat="14.330513">
                <ele>51.100000</ele>
                <time>2018-10-20T07:14:42Z</time>
            </trkpt>
            <trkpt lon="101.191156" lat="14.330455">
                <ele>50.600000</ele>
                <time>2018-10-20T07:14:45Z</time>
            </trkpt>
            <trkpt lon="101.191217" lat="14.330352">
                <ele>50.300000</ele>
                <time>2018-10-20T07:14:50Z</time>
            </trkpt>
            <trkpt lon="101.191224" lat="14.330328">
                <ele>50.200000</ele>
                <time>2018-10-20T07:14:51Z</time>
            </trkpt>
            <trkpt lon="101.191256" lat="14.330240">
                <ele>50.200000</ele>
                <time>2018-10-20T07:14:55Z</time>
            </trkpt>
            <trkpt lon="101.191280" lat="14.330169">
                <ele>50.600000</ele>
                <time>2018-10-20T07:14:58Z</time>
            </trkpt>
            <trkpt lon="101.191293" lat="14.330079">
                <ele>51.100000</ele>
                <time>2018-10-20T07:15:03Z</time>
            </trkpt>
            <trkpt lon="101.191283" lat="14.329972">
                <ele>51.800000</ele>
                <time>2018-10-20T07:15:09Z</time>
            </trkpt>
            <trkpt lon="101.191272" lat="14.329950">
                <ele>51.800000</ele>
                <time>2018-10-20T07:15:11Z</time>
            </trkpt>
            <trkpt lon="101.191253" lat="14.329920">
                <ele>52.000000</ele>
                <time>2018-10-20T07:15:13Z</time>
            </trkpt>
            <trkpt lon="101.191149" lat="14.329792">
                <ele>52.200000</ele>
                <time>2018-10-20T07:15:19Z</time>
            </trkpt>
            <trkpt lon="101.190982" lat="14.329682">
                <ele>51.800000</ele>
                <time>2018-10-20T07:15:26Z</time>
            </trkpt>
            <trkpt lon="101.190869" lat="14.329553">
                <ele>52.200000</ele>
                <time>2018-10-20T07:15:32Z</time>
            </trkpt>
            <trkpt lon="101.190749" lat="14.329448">
                <ele>52.600000</ele>
                <time>2018-10-20T07:15:39Z</time>
            </trkpt>
            <trkpt lon="101.190733" lat="14.329438">
                <ele>52.500000</ele>
                <time>2018-10-20T07:15:43Z</time>
            </trkpt>
            <trkpt lon="101.190724" lat="14.329432">
                <ele>52.500000</ele>
                <time>2018-10-20T07:15:44Z</time>
            </trkpt>
            <trkpt lon="101.190657" lat="14.329400">
                <ele>52.600000</ele>
                <time>2018-10-20T07:15:51Z</time>
            </trkpt>
            <trkpt lon="101.190600" lat="14.329373">
                <ele>52.800000</ele>
                <time>2018-10-20T07:15:59Z</time>
            </trkpt>
            <trkpt lon="101.190525" lat="14.329361">
                <ele>53.000000</ele>
                <time>2018-10-20T07:16:07Z</time>
            </trkpt>
            <trkpt lon="101.190376" lat="14.329381">
                <ele>53.800000</ele>
                <time>2018-10-20T07:16:12Z</time>
            </trkpt>
            <trkpt lon="101.190250" lat="14.329482">
                <ele>54.100000</ele>
                <time>2018-10-20T07:16:18Z</time>
            </trkpt>
            <trkpt lon="101.190149" lat="14.329670">
                <ele>54.100000</ele>
                <time>2018-10-20T07:16:26Z</time>
            </trkpt>
            <trkpt lon="101.190073" lat="14.329864">
                <ele>54.200000</ele>
                <time>2018-10-20T07:16:34Z</time>
            </trkpt>
            <trkpt lon="101.190041" lat="14.330013">
                <ele>54.200000</ele>
                <time>2018-10-20T07:16:40Z</time>
            </trkpt>
            <trkpt lon="101.189974" lat="14.330129">
                <ele>54.200000</ele>
                <time>2018-10-20T07:16:46Z</time>
            </trkpt>
            <trkpt lon="101.189890" lat="14.330293">
                <ele>54.200000</ele>
                <time>2018-10-20T07:16:54Z</time>
            </trkpt>
            <trkpt lon="101.189879" lat="14.330313">
                <ele>54.200000</ele>
                <time>2018-10-20T07:16:55Z</time>
            </trkpt>
            <trkpt lon="101.189840" lat="14.330414">
                <ele>54.200000</ele>
                <time>2018-10-20T07:17:00Z</time>
            </trkpt>
            <trkpt lon="101.189791" lat="14.330495">
                <ele>54.200000</ele>
                <time>2018-10-20T07:17:05Z</time>
            </trkpt>
            <trkpt lon="101.189757" lat="14.330561">
                <ele>54.200000</ele>
                <time>2018-10-20T07:17:08Z</time>
            </trkpt>
            <trkpt lon="101.189735" lat="14.330600">
                <ele>54.200000</ele>
                <time>2018-10-20T07:17:10Z</time>
            </trkpt>
            <trkpt lon="101.189669" lat="14.330739">
                <ele>54.200000</ele>
                <time>2018-10-20T07:17:17Z</time>
            </trkpt>
            <trkpt lon="101.189637" lat="14.330796">
                <ele>54.200000</ele>
                <time>2018-10-20T07:17:20Z</time>
            </trkpt>
            <trkpt lon="101.189595" lat="14.330864">
                <ele>54.200000</ele>
                <time>2018-10-20T07:17:23Z</time>
            </trkpt>
            <trkpt lon="101.189560" lat="14.330933">
                <ele>54.200000</ele>
                <time>2018-10-20T07:17:28Z</time>
            </trkpt>
            <trkpt lon="101.189561" lat="14.330922">
                <ele>54.200000</ele>
                <time>2018-10-20T07:17:35Z</time>
            </trkpt>
            <trkpt lon="101.189566" lat="14.330903">
                <ele>54.200000</ele>
                <time>2018-10-20T07:17:42Z</time>
            </trkpt>
            <trkpt lon="101.189587" lat="14.330885">
                <ele>54.200000</ele>
                <time>2018-10-20T07:17:45Z</time>
            </trkpt>
            <trkpt lon="101.189597" lat="14.330849">
                <ele>54.200000</ele>
                <time>2018-10-20T07:17:47Z</time>
            </trkpt>
            <trkpt lon="101.189645" lat="14.330771">
                <ele>54.200000</ele>
                <time>2018-10-20T07:17:51Z</time>
            </trkpt>
            <trkpt lon="101.189661" lat="14.330746">
                <ele>54.200000</ele>
                <time>2018-10-20T07:17:52Z</time>
            </trkpt>
            <trkpt lon="101.189759" lat="14.330580">
                <ele>54.200000</ele>
                <time>2018-10-20T07:17:58Z</time>
            </trkpt>
            <trkpt lon="101.189823" lat="14.330439">
                <ele>54.300000</ele>
                <time>2018-10-20T07:18:03Z</time>
            </trkpt>
            <trkpt lon="101.189883" lat="14.330308">
                <ele>54.300000</ele>
                <time>2018-10-20T07:18:08Z</time>
            </trkpt>
            <trkpt lon="101.189965" lat="14.330166">
                <ele>54.300000</ele>
                <time>2018-10-20T07:18:15Z</time>
            </trkpt>
            <trkpt lon="101.190054" lat="14.329941">
                <ele>54.300000</ele>
                <time>2018-10-20T07:18:21Z</time>
            </trkpt>
            <trkpt lon="101.190109" lat="14.329747">
                <ele>54.300000</ele>
                <time>2018-10-20T07:18:26Z</time>
            </trkpt>
            <trkpt lon="101.190230" lat="14.329488">
                <ele>54.300000</ele>
                <time>2018-10-20T07:18:33Z</time>
            </trkpt>
            <trkpt lon="101.190273" lat="14.329264">
                <ele>54.300000</ele>
                <time>2018-10-20T07:18:39Z</time>
            </trkpt>
            <trkpt lon="101.190256" lat="14.329241">
                <ele>54.800000</ele>
                <time>2018-10-20T07:18:40Z</time>
            </trkpt>
            <trkpt lon="101.190226" lat="14.329217">
                <ele>54.800000</ele>
                <time>2018-10-20T07:18:42Z</time>
            </trkpt>
            <trkpt lon="101.190184" lat="14.329209">
                <ele>55.300000</ele>
                <time>2018-10-20T07:18:44Z</time>
            </trkpt>
            <trkpt lon="101.190137" lat="14.329208">
                <ele>55.400000</ele>
                <time>2018-10-20T07:18:47Z</time>
            </trkpt>
            <trkpt lon="101.190123" lat="14.329206">
                <ele>55.400000</ele>
                <time>2018-10-20T07:18:48Z</time>
            </trkpt>
            <trkpt lon="101.190063" lat="14.329202">
                <ele>55.300000</ele>
                <time>2018-10-20T07:18:52Z</time>
            </trkpt>
            <trkpt lon="101.190029" lat="14.329186">
                <ele>55.300000</ele>
                <time>2018-10-20T07:18:54Z</time>
            </trkpt>
            <trkpt lon="101.189922" lat="14.329139">
                <ele>55.700000</ele>
                <time>2018-10-20T07:19:00Z</time>
            </trkpt>
            <trkpt lon="101.189807" lat="14.329114">
                <ele>55.900000</ele>
                <time>2018-10-20T07:19:06Z</time>
            </trkpt>
            <trkpt lon="101.189737" lat="14.329132">
                <ele>55.900000</ele>
                <time>2018-10-20T07:19:11Z</time>
            </trkpt>
            <trkpt lon="101.189725" lat="14.329121">
                <ele>55.900000</ele>
                <time>2018-10-20T07:19:12Z</time>
            </trkpt>
            <trkpt lon="101.189715" lat="14.329106">
                <ele>56.000000</ele>
                <time>2018-10-20T07:19:13Z</time>
            </trkpt>
            <trkpt lon="101.189651" lat="14.329085">
                <ele>56.300000</ele>
                <time>2018-10-20T07:19:16Z</time>
            </trkpt>
            <trkpt lon="101.189545" lat="14.329069">
                <ele>56.800000</ele>
                <time>2018-10-20T07:19:22Z</time>
            </trkpt>
            <trkpt lon="101.189511" lat="14.329069">
                <ele>57.100000</ele>
                <time>2018-10-20T07:19:24Z</time>
            </trkpt>
            <trkpt lon="101.189434" lat="14.329052">
                <ele>57.400000</ele>
                <time>2018-10-20T07:19:30Z</time>
            </trkpt>
            <trkpt lon="101.189406" lat="14.329017">
                <ele>57.800000</ele>
                <time>2018-10-20T07:19:36Z</time>
            </trkpt>
            <trkpt lon="101.189389" lat="14.328979">
                <ele>58.300000</ele>
                <time>2018-10-20T07:19:42Z</time>
            </trkpt>
            <trkpt lon="101.189382" lat="14.328964">
                <ele>58.600000</ele>
                <time>2018-10-20T07:19:43Z</time>
            </trkpt>
            <trkpt lon="101.189368" lat="14.328909">
                <ele>58.800000</ele>
                <time>2018-10-20T07:19:51Z</time>
            </trkpt>
            <trkpt lon="101.189315" lat="14.328855">
                <ele>59.500000</ele>
                <time>2018-10-20T07:19:59Z</time>
            </trkpt>
            <trkpt lon="101.189307" lat="14.328848">
                <ele>59.500000</ele>
                <time>2018-10-20T07:20:00Z</time>
            </trkpt>
            <trkpt lon="101.189243" lat="14.328789">
                <ele>59.800000</ele>
                <time>2018-10-20T07:20:07Z</time>
            </trkpt>
            <trkpt lon="101.189186" lat="14.328739">
                <ele>60.100000</ele>
                <time>2018-10-20T07:20:15Z</time>
            </trkpt>
            <trkpt lon="101.189169" lat="14.328723">
                <ele>60.200000</ele>
                <time>2018-10-20T07:20:18Z</time>
            </trkpt>
            <trkpt lon="101.189108" lat="14.328689">
                <ele>60.700000</ele>
                <time>2018-10-20T07:20:24Z</time>
            </trkpt>
            <trkpt lon="101.189047" lat="14.328613">
                <ele>62.000000</ele>
                <time>2018-10-20T07:20:33Z</time>
            </trkpt>
            <trkpt lon="101.189018" lat="14.328593">
                <ele>62.000000</ele>
                <time>2018-10-20T07:20:39Z</time>
            </trkpt>
            <trkpt lon="101.189008" lat="14.328586">
                <ele>62.500000</ele>
                <time>2018-10-20T07:20:40Z</time>
            </trkpt>
            <trkpt lon="101.188950" lat="14.328570">
                <ele>62.900000</ele>
                <time>2018-10-20T07:20:48Z</time>
            </trkpt>
            <trkpt lon="101.188823" lat="14.328543">
                <ele>64.200000</ele>
                <time>2018-10-20T07:20:56Z</time>
            </trkpt>
            <trkpt lon="101.188713" lat="14.328501">
                <ele>65.300000</ele>
                <time>2018-10-20T07:21:05Z</time>
            </trkpt>
            <trkpt lon="101.188700" lat="14.328502">
                <ele>65.300000</ele>
                <time>2018-10-20T07:21:08Z</time>
            </trkpt>
            <trkpt lon="101.188680" lat="14.328489">
                <ele>65.300000</ele>
                <time>2018-10-20T07:21:12Z</time>
            </trkpt>
            <trkpt lon="101.188669" lat="14.328484">
                <ele>65.600000</ele>
                <time>2018-10-20T07:21:13Z</time>
            </trkpt>
            <trkpt lon="101.188574" lat="14.328428">
                <ele>66.200000</ele>
                <time>2018-10-20T07:21:20Z</time>
            </trkpt>
            <trkpt lon="101.188567" lat="14.328428">
                <ele>66.200000</ele>
                <time>2018-10-20T07:21:21Z</time>
            </trkpt>
            <trkpt lon="101.188544" lat="14.328389">
                <ele>66.600000</ele>
                <time>2018-10-20T07:21:26Z</time>
            </trkpt>
            <trkpt lon="101.188543" lat="14.328334">
                <ele>66.900000</ele>
                <time>2018-10-20T07:21:33Z</time>
            </trkpt>
            <trkpt lon="101.188520" lat="14.328292">
                <ele>66.900000</ele>
                <time>2018-10-20T07:21:37Z</time>
            </trkpt>
            <trkpt lon="101.188510" lat="14.328251">
                <ele>66.900000</ele>
                <time>2018-10-20T07:21:42Z</time>
            </trkpt>
            <trkpt lon="101.188451" lat="14.328190">
                <ele>67.900000</ele>
                <time>2018-10-20T07:21:47Z</time>
            </trkpt>
            <trkpt lon="101.188411" lat="14.328133">
                <ele>68.900000</ele>
                <time>2018-10-20T07:21:53Z</time>
            </trkpt>
            <trkpt lon="101.188408" lat="14.328084">
                <ele>69.100000</ele>
                <time>2018-10-20T07:21:55Z</time>
            </trkpt>
            <trkpt lon="101.188403" lat="14.328030">
                <ele>69.400000</ele>
                <time>2018-10-20T07:21:57Z</time>
            </trkpt>
            <trkpt lon="101.188386" lat="14.327940">
                <ele>70.200000</ele>
                <time>2018-10-20T07:22:02Z</time>
            </trkpt>
            <trkpt lon="101.188365" lat="14.327817">
                <ele>72.500000</ele>
                <time>2018-10-20T07:22:09Z</time>
            </trkpt>
            <trkpt lon="101.188362" lat="14.327795">
                <ele>72.900000</ele>
                <time>2018-10-20T07:22:15Z</time>
            </trkpt>
            <trkpt lon="101.188318" lat="14.327750">
                <ele>74.400000</ele>
                <time>2018-10-20T07:22:23Z</time>
            </trkpt>
            <trkpt lon="101.188271" lat="14.327733">
                <ele>75.400000</ele>
                <time>2018-10-20T07:22:28Z</time>
            </trkpt>
            <trkpt lon="101.188250" lat="14.327742">
                <ele>75.400000</ele>
                <time>2018-10-20T07:22:30Z</time>
            </trkpt>
            <trkpt lon="101.188213" lat="14.327705">
                <ele>76.700000</ele>
                <time>2018-10-20T07:22:37Z</time>
            </trkpt>
            <trkpt lon="101.188212" lat="14.327698">
                <ele>76.700000</ele>
                <time>2018-10-20T07:22:38Z</time>
            </trkpt>
            <trkpt lon="101.188198" lat="14.327684">
                <ele>77.400000</ele>
                <time>2018-10-20T07:22:43Z</time>
            </trkpt>
            <trkpt lon="101.188191" lat="14.327675">
                <ele>77.700000</ele>
                <time>2018-10-20T07:22:47Z</time>
            </trkpt>
            <trkpt lon="101.188181" lat="14.327667">
                <ele>77.700000</ele>
                <time>2018-10-20T07:22:50Z</time>
            </trkpt>
            <trkpt lon="101.188173" lat="14.327660">
                <ele>77.700000</ele>
                <time>2018-10-20T07:22:56Z</time>
            </trkpt>
            <trkpt lon="101.188171" lat="14.327655">
                <ele>77.700000</ele>
                <time>2018-10-20T07:22:57Z</time>
            </trkpt>
            <trkpt lon="101.188181" lat="14.327621">
                <ele>77.800000</ele>
                <time>2018-10-20T07:23:02Z</time>
            </trkpt>
            <trkpt lon="101.188185" lat="14.327616">
                <ele>77.800000</ele>
                <time>2018-10-20T07:23:11Z</time>
            </trkpt>
            <trkpt lon="101.188184" lat="14.327610">
                <ele>77.800000</ele>
                <time>2018-10-20T07:23:28Z</time>
            </trkpt>
            <trkpt lon="101.188205" lat="14.327587">
                <ele>77.100000</ele>
                <time>2018-10-20T07:23:32Z</time>
            </trkpt>
            <trkpt lon="101.188203" lat="14.327584">
                <ele>77.100000</ele>
                <time>2018-10-20T07:23:34Z</time>
            </trkpt>
            <trkpt lon="101.188209" lat="14.327548">
                <ele>77.200000</ele>
                <time>2018-10-20T07:23:41Z</time>
            </trkpt>
            <trkpt lon="101.188198" lat="14.327511">
                <ele>78.200000</ele>
                <time>2018-10-20T07:23:47Z</time>
            </trkpt>
            <trkpt lon="101.188196" lat="14.327504">
                <ele>78.200000</ele>
                <time>2018-10-20T07:23:49Z</time>
            </trkpt>
            <trkpt lon="101.188181" lat="14.327439">
                <ele>78.200000</ele>
                <time>2018-10-20T07:23:56Z</time>
            </trkpt>
            <trkpt lon="101.188180" lat="14.327430">
                <ele>78.200000</ele>
                <time>2018-10-20T07:23:57Z</time>
            </trkpt>
            <trkpt lon="101.188188" lat="14.327411">
                <ele>78.200000</ele>
                <time>2018-10-20T07:24:02Z</time>
            </trkpt>
            <trkpt lon="101.188203" lat="14.327403">
                <ele>77.200000</ele>
                <time>2018-10-20T07:24:04Z</time>
            </trkpt>
            <trkpt lon="101.188244" lat="14.327384">
                <ele>77.200000</ele>
                <time>2018-10-20T07:24:12Z</time>
            </trkpt>
            <trkpt lon="101.188251" lat="14.327356">
                <ele>76.200000</ele>
                <time>2018-10-20T07:24:19Z</time>
            </trkpt>
            <trkpt lon="101.188282" lat="14.327285">
                <ele>76.600000</ele>
                <time>2018-10-20T07:24:27Z</time>
            </trkpt>
            <trkpt lon="101.188282" lat="14.327285">
                <ele>76.600000</ele>
                <time>2018-10-20T07:24:29Z</time>
            </trkpt>
            <trkpt lon="101.188317" lat="14.327254">
                <ele>76.100000</ele>
                <time>2018-10-20T07:24:36Z</time>
            </trkpt>
            <trkpt lon="101.188334" lat="14.327208">
                <ele>75.900000</ele>
                <time>2018-10-20T07:24:42Z</time>
            </trkpt>
            <trkpt lon="101.188340" lat="14.327192">
                <ele>75.900000</ele>
                <time>2018-10-20T07:24:49Z</time>
            </trkpt>
            <trkpt lon="101.188361" lat="14.327170">
                <ele>76.200000</ele>
                <time>2018-10-20T07:24:55Z</time>
            </trkpt>
            <trkpt lon="101.188425" lat="14.327150">
                <ele>75.200000</ele>
                <time>2018-10-20T07:25:00Z</time>
            </trkpt>
            <trkpt lon="101.188432" lat="14.327145">
                <ele>75.200000</ele>
                <time>2018-10-20T07:25:01Z</time>
            </trkpt>
            <trkpt lon="101.188447" lat="14.327141">
                <ele>75.200000</ele>
                <time>2018-10-20T07:25:02Z</time>
            </trkpt>
            <trkpt lon="101.188501" lat="14.327093">
                <ele>75.100000</ele>
                <time>2018-10-20T07:25:08Z</time>
            </trkpt>
            <trkpt lon="101.188565" lat="14.327047">
                <ele>73.800000</ele>
                <time>2018-10-20T07:25:16Z</time>
            </trkpt>
            <trkpt lon="101.188565" lat="14.327047">
                <ele>73.800000</ele>
                <time>2018-10-20T07:25:26Z</time>
            </trkpt>
            <trkpt lon="101.188567" lat="14.327044">
                <ele>73.800000</ele>
                <time>2018-10-20T07:25:36Z</time>
            </trkpt>
            <trkpt lon="101.188567" lat="14.327044">
                <ele>73.800000</ele>
                <time>2018-10-20T07:25:46Z</time>
            </trkpt>
            <trkpt lon="101.188567" lat="14.327044">
                <ele>73.800000</ele>
                <time>2018-10-20T07:25:51Z</time>
            </trkpt>
            <trkpt lon="101.188567" lat="14.327044">
                <ele>73.800000</ele>
                <time>2018-10-20T07:26:06Z</time>
            </trkpt>
            <trkpt lon="101.188570" lat="14.327036">
                <ele>73.800000</ele>
                <time>2018-10-20T07:26:16Z</time>
            </trkpt>
            <trkpt lon="101.188586" lat="14.327018">
                <ele>73.800000</ele>
                <time>2018-10-20T07:26:31Z</time>
            </trkpt>
            <trkpt lon="101.188622" lat="14.326957">
                <ele>74.000000</ele>
                <time>2018-10-20T07:26:40Z</time>
            </trkpt>
            <trkpt lon="101.188680" lat="14.326879">
                <ele>74.300000</ele>
                <time>2018-10-20T07:26:48Z</time>
            </trkpt>
            <trkpt lon="101.188725" lat="14.326794">
                <ele>75.200000</ele>
                <time>2018-10-20T07:26:56Z</time>
            </trkpt>
            <trkpt lon="101.188726" lat="14.326777">
                <ele>75.200000</ele>
                <time>2018-10-20T07:27:03Z</time>
            </trkpt>
            <trkpt lon="101.188733" lat="14.326648">
                <ele>76.600000</ele>
                <time>2018-10-20T07:27:09Z</time>
            </trkpt>
            <trkpt lon="101.188751" lat="14.326600">
                <ele>76.700000</ele>
                <time>2018-10-20T07:27:15Z</time>
            </trkpt>
            <trkpt lon="101.188765" lat="14.326581">
                <ele>76.100000</ele>
                <time>2018-10-20T07:27:24Z</time>
            </trkpt>
            <trkpt lon="101.188820" lat="14.326482">
                <ele>75.000000</ele>
                <time>2018-10-20T07:27:33Z</time>
            </trkpt>
            <trkpt lon="101.188851" lat="14.326389">
                <ele>73.200000</ele>
                <time>2018-10-20T07:27:41Z</time>
            </trkpt>
            <trkpt lon="101.188889" lat="14.326339">
                <ele>71.800000</ele>
                <time>2018-10-20T07:27:45Z</time>
            </trkpt>
            <trkpt lon="101.188970" lat="14.326292">
                <ele>70.800000</ele>
                <time>2018-10-20T07:27:52Z</time>
            </trkpt>
            <trkpt lon="101.189081" lat="14.326303">
                <ele>67.400000</ele>
                <time>2018-10-20T07:27:59Z</time>
            </trkpt>
            <trkpt lon="101.189207" lat="14.326324">
                <ele>63.400000</ele>
                <time>2018-10-20T07:28:06Z</time>
            </trkpt>
            <trkpt lon="101.189348" lat="14.326336">
                <ele>60.100000</ele>
                <time>2018-10-20T07:28:13Z</time>
            </trkpt>
            <trkpt lon="101.189442" lat="14.326351">
                <ele>58.600000</ele>
                <time>2018-10-20T07:28:19Z</time>
            </trkpt>
            <trkpt lon="101.189454" lat="14.326350">
                <ele>58.100000</ele>
                <time>2018-10-20T07:28:22Z</time>
            </trkpt>
            <trkpt lon="101.189454" lat="14.326350">
                <ele>58.100000</ele>
                <time>2018-10-20T07:28:30Z</time>
            </trkpt>
            <trkpt lon="101.189470" lat="14.326343">
                <ele>58.500000</ele>
                <time>2018-10-20T07:28:41Z</time>
            </trkpt>
            <trkpt lon="101.189478" lat="14.326337">
                <ele>58.500000</ele>
                <time>2018-10-20T07:28:49Z</time>
            </trkpt>
            <trkpt lon="101.189478" lat="14.326337">
                <ele>58.500000</ele>
                <time>2018-10-20T07:28:59Z</time>
            </trkpt>
            <trkpt lon="101.189478" lat="14.326337">
                <ele>58.500000</ele>
                <time>2018-10-20T07:29:14Z</time>
            </trkpt>
            <trkpt lon="101.189482" lat="14.326289">
                <ele>59.000000</ele>
                <time>2018-10-20T07:29:22Z</time>
            </trkpt>
            <trkpt lon="101.189480" lat="14.326252">
                <ele>59.500000</ele>
                <time>2018-10-20T07:29:29Z</time>
            </trkpt>
            <trkpt lon="101.189446" lat="14.326163">
                <ele>61.500000</ele>
                <time>2018-10-20T07:29:36Z</time>
            </trkpt>
            <trkpt lon="101.189459" lat="14.326125">
                <ele>61.500000</ele>
                <time>2018-10-20T07:29:44Z</time>
            </trkpt>
            <trkpt lon="101.189459" lat="14.326125">
                <ele>61.500000</ele>
                <time>2018-10-20T07:29:45Z</time>
            </trkpt>
            <trkpt lon="101.189463" lat="14.326100">
                <ele>61.500000</ele>
                <time>2018-10-20T07:29:52Z</time>
            </trkpt>
            <trkpt lon="101.189465" lat="14.326029">
                <ele>63.000000</ele>
                <time>2018-10-20T07:30:03Z</time>
            </trkpt>
            <trkpt lon="101.189491" lat="14.325947">
                <ele>64.000000</ele>
                <time>2018-10-20T07:30:12Z</time>
            </trkpt>
            <trkpt lon="101.189493" lat="14.325921">
                <ele>64.700000</ele>
                <time>2018-10-20T07:30:19Z</time>
            </trkpt>
            <trkpt lon="101.189479" lat="14.325898">
                <ele>65.300000</ele>
                <time>2018-10-20T07:30:26Z</time>
            </trkpt>
            <trkpt lon="101.189455" lat="14.325846">
                <ele>66.400000</ele>
                <time>2018-10-20T07:30:34Z</time>
            </trkpt>
            <trkpt lon="101.189377" lat="14.325752">
                <ele>68.800000</ele>
                <time>2018-10-20T07:30:43Z</time>
            </trkpt>
            <trkpt lon="101.189290" lat="14.325653">
                <ele>71.400000</ele>
                <time>2018-10-20T07:30:52Z</time>
            </trkpt>
            <trkpt lon="101.189305" lat="14.325569">
                <ele>71.400000</ele>
                <time>2018-10-20T07:31:01Z</time>
            </trkpt>
            <trkpt lon="101.189310" lat="14.325515">
                <ele>71.400000</ele>
                <time>2018-10-20T07:31:09Z</time>
            </trkpt>
            <trkpt lon="101.189324" lat="14.325452">
                <ele>70.400000</ele>
                <time>2018-10-20T07:31:17Z</time>
            </trkpt>
            <trkpt lon="101.189322" lat="14.325411">
                <ele>70.400000</ele>
                <time>2018-10-20T07:31:26Z</time>
            </trkpt>
            <trkpt lon="101.189335" lat="14.325396">
                <ele>70.400000</ele>
                <time>2018-10-20T07:31:35Z</time>
            </trkpt>
            <trkpt lon="101.189353" lat="14.325368">
                <ele>70.400000</ele>
                <time>2018-10-20T07:31:44Z</time>
            </trkpt>
            <trkpt lon="101.189365" lat="14.325347">
                <ele>69.400000</ele>
                <time>2018-10-20T07:31:52Z</time>
            </trkpt>
            <trkpt lon="101.189402" lat="14.325251">
                <ele>69.400000</ele>
                <time>2018-10-20T07:32:01Z</time>
            </trkpt>
            <trkpt lon="101.189418" lat="14.325208">
                <ele>68.400000</ele>
                <time>2018-10-20T07:32:10Z</time>
            </trkpt>
            <trkpt lon="101.189422" lat="14.325157">
                <ele>68.600000</ele>
                <time>2018-10-20T07:32:18Z</time>
            </trkpt>
            <trkpt lon="101.189438" lat="14.325078">
                <ele>69.100000</ele>
                <time>2018-10-20T07:32:25Z</time>
            </trkpt>
            <trkpt lon="101.189513" lat="14.324932">
                <ele>68.800000</ele>
                <time>2018-10-20T07:32:32Z</time>
            </trkpt>
            <trkpt lon="101.189544" lat="14.324832">
                <ele>69.000000</ele>
                <time>2018-10-20T07:32:38Z</time>
            </trkpt>
            <trkpt lon="101.189572" lat="14.324760">
                <ele>69.700000</ele>
                <time>2018-10-20T07:32:44Z</time>
            </trkpt>
            <trkpt lon="101.189610" lat="14.324613">
                <ele>69.500000</ele>
                <time>2018-10-20T07:32:52Z</time>
            </trkpt>
            <trkpt lon="101.189619" lat="14.324598">
                <ele>69.100000</ele>
                <time>2018-10-20T07:33:01Z</time>
            </trkpt>
            <trkpt lon="101.189638" lat="14.324542">
                <ele>69.100000</ele>
                <time>2018-10-20T07:33:13Z</time>
            </trkpt>
            <trkpt lon="101.189645" lat="14.324454">
                <ele>68.700000</ele>
                <time>2018-10-20T07:33:24Z</time>
            </trkpt>
            <trkpt lon="101.189661" lat="14.324400">
                <ele>68.500000</ele>
                <time>2018-10-20T07:33:30Z</time>
            </trkpt>
            <trkpt lon="101.189660" lat="14.324385">
                <ele>68.300000</ele>
                <time>2018-10-20T07:33:37Z</time>
            </trkpt>
            <trkpt lon="101.189689" lat="14.324352">
                <ele>67.900000</ele>
                <time>2018-10-20T07:33:46Z</time>
            </trkpt>
            <trkpt lon="101.189704" lat="14.324339">
                <ele>67.600000</ele>
                <time>2018-10-20T07:33:51Z</time>
            </trkpt>
            <trkpt lon="101.189704" lat="14.324339">
                <ele>67.600000</ele>
                <time>2018-10-20T07:33:54Z</time>
            </trkpt>
            <trkpt lon="101.189733" lat="14.324309">
                <ele>67.600000</ele>
                <time>2018-10-20T07:34:00Z</time>
            </trkpt>
            <trkpt lon="101.189806" lat="14.324217">
                <ele>67.100000</ele>
                <time>2018-10-20T07:34:07Z</time>
            </trkpt>
            <trkpt lon="101.189831" lat="14.324152">
                <ele>67.100000</ele>
                <time>2018-10-20T07:34:15Z</time>
            </trkpt>
            <trkpt lon="101.189838" lat="14.324102">
                <ele>66.800000</ele>
                <time>2018-10-20T07:34:23Z</time>
            </trkpt>
            <trkpt lon="101.189830" lat="14.324086">
                <ele>67.200000</ele>
                <time>2018-10-20T07:34:32Z</time>
            </trkpt>
            <trkpt lon="101.189830" lat="14.324046">
                <ele>67.300000</ele>
                <time>2018-10-20T07:34:41Z</time>
            </trkpt>
            <trkpt lon="101.189777" lat="14.323986">
                <ele>68.000000</ele>
                <time>2018-10-20T07:34:50Z</time>
            </trkpt>
            <trkpt lon="101.189745" lat="14.323886">
                <ele>68.500000</ele>
                <time>2018-10-20T07:34:59Z</time>
            </trkpt>
            <trkpt lon="101.189720" lat="14.323795">
                <ele>68.100000</ele>
                <time>2018-10-20T07:35:07Z</time>
            </trkpt>
            <trkpt lon="101.189690" lat="14.323766">
                <ele>68.800000</ele>
                <time>2018-10-20T07:35:14Z</time>
            </trkpt>
            <trkpt lon="101.189648" lat="14.323734">
                <ele>69.900000</ele>
                <time>2018-10-20T07:35:23Z</time>
            </trkpt>
            <trkpt lon="101.189589" lat="14.323670">
                <ele>70.900000</ele>
                <time>2018-10-20T07:35:32Z</time>
            </trkpt>
            <trkpt lon="101.189516" lat="14.323668">
                <ele>73.500000</ele>
                <time>2018-10-20T07:35:40Z</time>
            </trkpt>
            <trkpt lon="101.189448" lat="14.323664">
                <ele>74.400000</ele>
                <time>2018-10-20T07:35:48Z</time>
            </trkpt>
            <trkpt lon="101.189448" lat="14.323664">
                <ele>74.400000</ele>
                <time>2018-10-20T07:35:57Z</time>
            </trkpt>
            <trkpt lon="101.189448" lat="14.323664">
                <ele>74.400000</ele>
                <time>2018-10-20T07:36:06Z</time>
            </trkpt>
            <trkpt lon="101.189406" lat="14.323653">
                <ele>74.900000</ele>
                <time>2018-10-20T07:36:15Z</time>
            </trkpt>
            <trkpt lon="101.189380" lat="14.323626">
                <ele>75.600000</ele>
                <time>2018-10-20T07:36:23Z</time>
            </trkpt>
            <trkpt lon="101.189346" lat="14.323640">
                <ele>76.100000</ele>
                <time>2018-10-20T07:36:32Z</time>
            </trkpt>
            <trkpt lon="101.189303" lat="14.323634">
                <ele>76.600000</ele>
                <time>2018-10-20T07:36:40Z</time>
            </trkpt>
            <trkpt lon="101.189303" lat="14.323634">
                <ele>76.600000</ele>
                <time>2018-10-20T07:36:50Z</time>
            </trkpt>
            <trkpt lon="101.189237" lat="14.323623">
                <ele>77.100000</ele>
                <time>2018-10-20T07:36:58Z</time>
            </trkpt>
            <trkpt lon="101.189180" lat="14.323589">
                <ele>78.400000</ele>
                <time>2018-10-20T07:37:07Z</time>
            </trkpt>
            <trkpt lon="101.189102" lat="14.323524">
                <ele>80.000000</ele>
                <time>2018-10-20T07:37:16Z</time>
            </trkpt>
            <trkpt lon="101.189054" lat="14.323499">
                <ele>81.100000</ele>
                <time>2018-10-20T07:37:23Z</time>
            </trkpt>
            <trkpt lon="101.189063" lat="14.323429">
                <ele>81.000000</ele>
                <time>2018-10-20T07:37:32Z</time>
            </trkpt>
            <trkpt lon="101.189104" lat="14.323405">
                <ele>80.100000</ele>
                <time>2018-10-20T07:37:39Z</time>
            </trkpt>
            <trkpt lon="101.189144" lat="14.323377">
                <ele>80.400000</ele>
                <time>2018-10-20T07:37:48Z</time>
            </trkpt>
            <trkpt lon="101.189184" lat="14.323352">
                <ele>79.700000</ele>
                <time>2018-10-20T07:38:00Z</time>
            </trkpt>
            <trkpt lon="101.189278" lat="14.323318">
                <ele>78.100000</ele>
                <time>2018-10-20T07:38:07Z</time>
            </trkpt>
            <trkpt lon="101.189317" lat="14.323311">
                <ele>77.900000</ele>
                <time>2018-10-20T07:38:12Z</time>
            </trkpt>
            <trkpt lon="101.189400" lat="14.323320">
                <ele>76.800000</ele>
                <time>2018-10-20T07:38:19Z</time>
            </trkpt>
            <trkpt lon="101.189419" lat="14.323316">
                <ele>76.100000</ele>
                <time>2018-10-20T07:38:26Z</time>
            </trkpt>
            <trkpt lon="101.189433" lat="14.323316">
                <ele>76.100000</ele>
                <time>2018-10-20T07:38:28Z</time>
            </trkpt>
            <trkpt lon="101.189470" lat="14.323311">
                <ele>75.300000</ele>
                <time>2018-10-20T07:38:30Z</time>
            </trkpt>
            <trkpt lon="101.189507" lat="14.323301">
                <ele>74.500000</ele>
                <time>2018-10-20T07:38:32Z</time>
            </trkpt>
            <trkpt lon="101.189528" lat="14.323297">
                <ele>74.500000</ele>
                <time>2018-10-20T07:38:33Z</time>
            </trkpt>
            <trkpt lon="101.189551" lat="14.323293">
                <ele>73.500000</ele>
                <time>2018-10-20T07:38:34Z</time>
            </trkpt>
            <trkpt lon="101.189601" lat="14.323295">
                <ele>72.500000</ele>
                <time>2018-10-20T07:38:36Z</time>
            </trkpt>
            <trkpt lon="101.189710" lat="14.323308">
                <ele>69.500000</ele>
                <time>2018-10-20T07:38:41Z</time>
            </trkpt>
            <trkpt lon="101.189772" lat="14.323311">
                <ele>68.600000</ele>
                <time>2018-10-20T07:38:44Z</time>
            </trkpt>
            <trkpt lon="101.189834" lat="14.323308">
                <ele>66.600000</ele>
                <time>2018-10-20T07:38:46Z</time>
            </trkpt>
            <trkpt lon="101.189891" lat="14.323319">
                <ele>65.600000</ele>
                <time>2018-10-20T07:38:48Z</time>
            </trkpt>
            <trkpt lon="101.189967" lat="14.323333">
                <ele>63.700000</ele>
                <time>2018-10-20T07:38:51Z</time>
            </trkpt>
            <trkpt lon="101.189999" lat="14.323332">
                <ele>63.700000</ele>
                <time>2018-10-20T07:38:53Z</time>
            </trkpt>
            <trkpt lon="101.190025" lat="14.323325">
                <ele>62.900000</ele>
                <time>2018-10-20T07:38:55Z</time>
            </trkpt>
            <trkpt lon="101.190045" lat="14.323324">
                <ele>62.900000</ele>
                <time>2018-10-20T07:38:56Z</time>
            </trkpt>
            <trkpt lon="101.190177" lat="14.323326">
                <ele>60.800000</ele>
                <time>2018-10-20T07:39:01Z</time>
            </trkpt>
            <trkpt lon="101.190295" lat="14.323323">
                <ele>59.700000</ele>
                <time>2018-10-20T07:39:06Z</time>
            </trkpt>
            <trkpt lon="101.190321" lat="14.323324">
                <ele>59.200000</ele>
                <time>2018-10-20T07:39:07Z</time>
            </trkpt>
            <trkpt lon="101.190395" lat="14.323344">
                <ele>58.200000</ele>
                <time>2018-10-20T07:39:11Z</time>
            </trkpt>
            <trkpt lon="101.190440" lat="14.323340">
                <ele>57.700000</ele>
                <time>2018-10-20T07:39:14Z</time>
            </trkpt>
            <trkpt lon="101.190482" lat="14.323332">
                <ele>57.200000</ele>
                <time>2018-10-20T07:39:16Z</time>
            </trkpt>
            <trkpt lon="101.190563" lat="14.323312">
                <ele>56.200000</ele>
                <time>2018-10-20T07:39:20Z</time>
            </trkpt>
            <trkpt lon="101.190590" lat="14.323317">
                <ele>56.200000</ele>
                <time>2018-10-20T07:39:21Z</time>
            </trkpt>
            <trkpt lon="101.190608" lat="14.323326">
                <ele>55.600000</ele>
                <time>2018-10-20T07:39:22Z</time>
            </trkpt>
            <trkpt lon="101.190628" lat="14.323344">
                <ele>55.600000</ele>
                <time>2018-10-20T07:39:26Z</time>
            </trkpt>
            <trkpt lon="101.190628" lat="14.323344">
                <ele>55.600000</ele>
                <time>2018-10-20T07:39:43Z</time>
            </trkpt>
            <trkpt lon="101.190628" lat="14.323344">
                <ele>55.600000</ele>
                <time>2018-10-20T07:39:49Z</time>
            </trkpt>
            <trkpt lon="101.190629" lat="14.323345">
                <ele>55.700000</ele>
                <time>2018-10-20T07:40:06Z</time>
            </trkpt>
            <trkpt lon="101.190629" lat="14.323345">
                <ele>55.700000</ele>
                <time>2018-10-20T07:40:12Z</time>
            </trkpt>
            <trkpt lon="101.190629" lat="14.323345">
                <ele>55.700000</ele>
                <time>2018-10-20T07:40:24Z</time>
            </trkpt>
            <trkpt lon="101.190629" lat="14.323345">
                <ele>55.700000</ele>
                <time>2018-10-20T07:40:31Z</time>
            </trkpt>
            <trkpt lon="101.190634" lat="14.323344">
                <ele>55.700000</ele>
                <time>2018-10-20T07:40:39Z</time>
            </trkpt>
            <trkpt lon="101.190624" lat="14.323347">
                <ele>55.700000</ele>
                <time>2018-10-20T07:40:44Z</time>
            </trkpt>
            <trkpt lon="101.190620" lat="14.323339">
                <ele>55.700000</ele>
                <time>2018-10-20T07:40:45Z</time>
            </trkpt>
            <trkpt lon="101.190683" lat="14.323282">
                <ele>54.700000</ele>
                <time>2018-10-20T07:40:51Z</time>
            </trkpt>
            <trkpt lon="101.190699" lat="14.323277">
                <ele>54.200000</ele>
                <time>2018-10-20T07:40:52Z</time>
            </trkpt>
            <trkpt lon="101.190808" lat="14.323266">
                <ele>53.200000</ele>
                <time>2018-10-20T07:40:58Z</time>
            </trkpt>
            <trkpt lon="101.190855" lat="14.323262">
                <ele>53.000000</ele>
                <time>2018-10-20T07:41:00Z</time>
            </trkpt>
            <trkpt lon="101.190939" lat="14.323255">
                <ele>53.100000</ele>
                <time>2018-10-20T07:41:03Z</time>
            </trkpt>
            <trkpt lon="101.190977" lat="14.323258">
                <ele>53.200000</ele>
                <time>2018-10-20T07:41:05Z</time>
            </trkpt>
            <trkpt lon="101.191029" lat="14.323280">
                <ele>53.700000</ele>
                <time>2018-10-20T07:41:07Z</time>
            </trkpt>
            <trkpt lon="101.191149" lat="14.323261">
                <ele>53.500000</ele>
                <time>2018-10-20T07:41:11Z</time>
            </trkpt>
            <trkpt lon="101.191180" lat="14.323251">
                <ele>53.400000</ele>
                <time>2018-10-20T07:41:12Z</time>
            </trkpt>
            <trkpt lon="101.191370" lat="14.323113">
                <ele>50.100000</ele>
                <time>2018-10-20T07:41:19Z</time>
            </trkpt>
            <trkpt lon="101.191487" lat="14.322942">
                <ele>49.000000</ele>
                <time>2018-10-20T07:41:24Z</time>
            </trkpt>
            <trkpt lon="101.191496" lat="14.322827">
                <ele>46.100000</ele>
                <time>2018-10-20T07:41:27Z</time>
            </trkpt>
            <trkpt lon="101.191412" lat="14.322685">
                <ele>47.100000</ele>
                <time>2018-10-20T07:41:32Z</time>
            </trkpt>
            <trkpt lon="101.191362" lat="14.322523">
                <ele>42.500000</ele>
                <time>2018-10-20T07:41:38Z</time>
            </trkpt>
            <trkpt lon="101.191411" lat="14.322346">
                <ele>45.200000</ele>
                <time>2018-10-20T07:41:43Z</time>
            </trkpt>
            <trkpt lon="101.191569" lat="14.322111">
                <ele>43.700000</ele>
                <time>2018-10-20T07:41:50Z</time>
            </trkpt>
            <trkpt lon="101.191594" lat="14.322083">
                <ele>47.000000</ele>
                <time>2018-10-20T07:41:51Z</time>
            </trkpt>
            <trkpt lon="101.191720" lat="14.321933">
                <ele>46.400000</ele>
                <time>2018-10-20T07:41:57Z</time>
            </trkpt>
            <trkpt lon="101.191723" lat="14.321829">
                <ele>49.800000</ele>
                <time>2018-10-20T07:42:02Z</time>
            </trkpt>
            <trkpt lon="101.191692" lat="14.321766">
                <ele>54.700000</ele>
                <time>2018-10-20T07:42:07Z</time>
            </trkpt>
            <trkpt lon="101.191682" lat="14.321749">
                <ele>48.300000</ele>
                <time>2018-10-20T07:42:08Z</time>
            </trkpt>
            <trkpt lon="101.191609" lat="14.321609">
                <ele>50.700000</ele>
                <time>2018-10-20T07:42:14Z</time>
            </trkpt>
            <trkpt lon="101.191510" lat="14.321448">
                <ele>53.900000</ele>
                <time>2018-10-20T07:42:21Z</time>
            </trkpt>
            <trkpt lon="101.191385" lat="14.321251">
                <ele>58.800000</ele>
                <time>2018-10-20T07:42:29Z</time>
            </trkpt>
            <trkpt lon="101.191365" lat="14.321145">
                <ele>58.900000</ele>
                <time>2018-10-20T07:42:33Z</time>
            </trkpt>
            <trkpt lon="101.191375" lat="14.321127">
                <ele>58.800000</ele>
                <time>2018-10-20T07:42:34Z</time>
            </trkpt>
            <trkpt lon="101.191419" lat="14.321097">
                <ele>58.800000</ele>
                <time>2018-10-20T07:42:38Z</time>
            </trkpt>
            <trkpt lon="101.191433" lat="14.321098">
                <ele>58.900000</ele>
                <time>2018-10-20T07:42:39Z</time>
            </trkpt>
            <trkpt lon="101.191546" lat="14.321081">
                <ele>59.100000</ele>
                <time>2018-10-20T07:42:44Z</time>
            </trkpt>
            <trkpt lon="101.191595" lat="14.321012">
                <ele>60.000000</ele>
                <time>2018-10-20T07:42:47Z</time>
            </trkpt>
            <trkpt lon="101.191608" lat="14.320971">
                <ele>60.200000</ele>
                <time>2018-10-20T07:42:48Z</time>
            </trkpt>
            <trkpt lon="101.191651" lat="14.320763">
                <ele>60.600000</ele>
                <time>2018-10-20T07:42:54Z</time>
            </trkpt>
            <trkpt lon="101.191701" lat="14.320589">
                <ele>60.600000</ele>
                <time>2018-10-20T07:43:00Z</time>
            </trkpt>
            <trkpt lon="101.191768" lat="14.320349">
                <ele>62.300000</ele>
                <time>2018-10-20T07:43:07Z</time>
            </trkpt>
            <trkpt lon="101.191777" lat="14.320317">
                <ele>62.600000</ele>
                <time>2018-10-20T07:43:08Z</time>
            </trkpt>
            <trkpt lon="101.191805" lat="14.320193">
                <ele>63.200000</ele>
                <time>2018-10-20T07:43:13Z</time>
            </trkpt>
            <trkpt lon="101.191814" lat="14.320165">
                <ele>63.500000</ele>
                <time>2018-10-20T07:43:14Z</time>
            </trkpt>
            <trkpt lon="101.191874" lat="14.320018">
                <ele>64.200000</ele>
                <time>2018-10-20T07:43:20Z</time>
            </trkpt>
            <trkpt lon="101.191889" lat="14.319921">
                <ele>64.300000</ele>
                <time>2018-10-20T07:43:25Z</time>
            </trkpt>
            <trkpt lon="101.191900" lat="14.319793">
                <ele>64.300000</ele>
                <time>2018-10-20T07:43:31Z</time>
            </trkpt>
            <trkpt lon="101.191909" lat="14.319619">
                <ele>63.800000</ele>
                <time>2018-10-20T07:43:39Z</time>
            </trkpt>
            <trkpt lon="101.191931" lat="14.319581">
                <ele>63.600000</ele>
                <time>2018-10-20T07:43:44Z</time>
            </trkpt>
            <trkpt lon="101.191933" lat="14.319578">
                <ele>63.500000</ele>
                <time>2018-10-20T07:43:55Z</time>
            </trkpt>
            <trkpt lon="101.191933" lat="14.319578">
                <ele>63.500000</ele>
                <time>2018-10-20T07:44:06Z</time>
            </trkpt>
            <trkpt lon="101.191933" lat="14.319578">
                <ele>63.400000</ele>
                <time>2018-10-20T07:44:18Z</time>
            </trkpt>
            <trkpt lon="101.191936" lat="14.319581">
                <ele>63.100000</ele>
                <time>2018-10-20T07:44:35Z</time>
            </trkpt>
            <trkpt lon="101.191936" lat="14.319581">
                <ele>63.000000</ele>
                <time>2018-10-20T07:44:36Z</time>
            </trkpt>
            <trkpt lon="101.191941" lat="14.319561">
                <ele>62.700000</ele>
                <time>2018-10-20T07:44:45Z</time>
            </trkpt>
            <trkpt lon="101.191951" lat="14.319529">
                <ele>62.700000</ele>
                <time>2018-10-20T07:44:48Z</time>
            </trkpt>
            <trkpt lon="101.191953" lat="14.319505">
                <ele>62.400000</ele>
                <time>2018-10-20T07:44:50Z</time>
            </trkpt>
            <trkpt lon="101.191949" lat="14.319479">
                <ele>62.200000</ele>
                <time>2018-10-20T07:44:52Z</time>
            </trkpt>
            <trkpt lon="101.191952" lat="14.319450">
                <ele>62.200000</ele>
                <time>2018-10-20T07:44:57Z</time>
            </trkpt>
            <trkpt lon="101.191947" lat="14.319432">
                <ele>62.000000</ele>
                <time>2018-10-20T07:45:01Z</time>
            </trkpt>
            <trkpt lon="101.191947" lat="14.319400">
                <ele>61.800000</ele>
                <time>2018-10-20T07:45:03Z</time>
            </trkpt>
            <trkpt lon="101.191961" lat="14.319388">
                <ele>61.800000</ele>
                <time>2018-10-20T07:45:04Z</time>
            </trkpt>
            <trkpt lon="101.192046" lat="14.319376">
                <ele>61.600000</ele>
                <time>2018-10-20T07:45:07Z</time>
            </trkpt>
            <trkpt lon="101.192208" lat="14.319423">
                <ele>61.600000</ele>
                <time>2018-10-20T07:45:11Z</time>
            </trkpt>
            <trkpt lon="101.192250" lat="14.319432">
                <ele>61.500000</ele>
                <time>2018-10-20T07:45:12Z</time>
            </trkpt>
            <trkpt lon="101.192464" lat="14.319436">
                <ele>61.500000</ele>
                <time>2018-10-20T07:45:18Z</time>
            </trkpt>
            <trkpt lon="101.192569" lat="14.319435">
                <ele>61.500000</ele>
                <time>2018-10-20T07:45:21Z</time>
            </trkpt>
            <trkpt lon="101.192658" lat="14.319440">
                <ele>61.300000</ele>
                <time>2018-10-20T07:45:24Z</time>
            </trkpt>
            <trkpt lon="101.192769" lat="14.319452">
                <ele>60.600000</ele>
                <time>2018-10-20T07:45:29Z</time>
            </trkpt>
            <trkpt lon="101.192878" lat="14.319472">
                <ele>59.700000</ele>
                <time>2018-10-20T07:45:36Z</time>
            </trkpt>
            <trkpt lon="101.192899" lat="14.319478">
                <ele>59.200000</ele>
                <time>2018-10-20T07:45:37Z</time>
            </trkpt>
            <trkpt lon="101.192959" lat="14.319474">
                <ele>58.800000</ele>
                <time>2018-10-20T07:45:41Z</time>
            </trkpt>
            <trkpt lon="101.192959" lat="14.319474">
                <ele>58.800000</ele>
                <time>2018-10-20T07:45:53Z</time>
            </trkpt>
            <trkpt lon="101.193003" lat="14.319460">
                <ele>58.500000</ele>
                <time>2018-10-20T07:46:00Z</time>
            </trkpt>
            <trkpt lon="101.193125" lat="14.319409">
                <ele>58.100000</ele>
                <time>2018-10-20T07:46:05Z</time>
            </trkpt>
            <trkpt lon="101.193254" lat="14.319345">
                <ele>57.700000</ele>
                <time>2018-10-20T07:46:09Z</time>
            </trkpt>
            <trkpt lon="101.193294" lat="14.319327">
                <ele>57.100000</ele>
                <time>2018-10-20T07:46:11Z</time>
            </trkpt>
            <trkpt lon="101.193309" lat="14.319315">
                <ele>57.300000</ele>
                <time>2018-10-20T07:46:14Z</time>
            </trkpt>
            <trkpt lon="101.193339" lat="14.319320">
                <ele>56.600000</ele>
                <time>2018-10-20T07:46:24Z</time>
            </trkpt>
            <trkpt lon="101.193379" lat="14.319333">
                <ele>56.000000</ele>
                <time>2018-10-20T07:46:33Z</time>
            </trkpt>
            <trkpt lon="101.193404" lat="14.319353">
                <ele>55.400000</ele>
                <time>2018-10-20T07:46:40Z</time>
            </trkpt>
            <trkpt lon="101.193404" lat="14.319353">
                <ele>55.400000</ele>
                <time>2018-10-20T07:46:52Z</time>
            </trkpt>
            <trkpt lon="101.193404" lat="14.319353">
                <ele>55.400000</ele>
                <time>2018-10-20T07:47:08Z</time>
            </trkpt>
            <trkpt lon="101.193404" lat="14.319353">
                <ele>55.300000</ele>
                <time>2018-10-20T07:47:15Z</time>
            </trkpt>
            <trkpt lon="101.193405" lat="14.319355">
                <ele>55.300000</ele>
                <time>2018-10-20T07:47:30Z</time>
            </trkpt>
            <trkpt lon="101.193405" lat="14.319355">
                <ele>55.300000</ele>
                <time>2018-10-20T07:47:40Z</time>
            </trkpt>
            <trkpt lon="101.193405" lat="14.319355">
                <ele>55.200000</ele>
                <time>2018-10-20T07:47:42Z</time>
            </trkpt>
            <trkpt lon="101.193405" lat="14.319355">
                <ele>55.200000</ele>
                <time>2018-10-20T07:47:56Z</time>
            </trkpt>
            <trkpt lon="101.193403" lat="14.319354">
                <ele>55.100000</ele>
                <time>2018-10-20T07:48:12Z</time>
            </trkpt>
            <trkpt lon="101.193403" lat="14.319354">
                <ele>55.100000</ele>
                <time>2018-10-20T07:48:28Z</time>
            </trkpt>
            <trkpt lon="101.193405" lat="14.319366">
                <ele>54.700000</ele>
                <time>2018-10-20T07:48:43Z</time>
            </trkpt>
            <trkpt lon="101.193405" lat="14.319366">
                <ele>54.700000</ele>
                <time>2018-10-20T07:48:50Z</time>
            </trkpt>
            <trkpt lon="101.193405" lat="14.319366">
                <ele>54.600000</ele>
                <time>2018-10-20T07:49:04Z</time>
            </trkpt>
            <trkpt lon="101.193407" lat="14.319364">
                <ele>54.600000</ele>
                <time>2018-10-20T07:49:22Z</time>
            </trkpt>
            <trkpt lon="101.193407" lat="14.319364">
                <ele>54.500000</ele>
                <time>2018-10-20T07:49:37Z</time>
            </trkpt>
            <trkpt lon="101.193407" lat="14.319364">
                <ele>54.500000</ele>
                <time>2018-10-20T07:49:41Z</time>
            </trkpt>
            <trkpt lon="101.193407" lat="14.319364">
                <ele>54.500000</ele>
                <time>2018-10-20T07:49:53Z</time>
            </trkpt>
            <trkpt lon="101.193407" lat="14.319365">
                <ele>54.400000</ele>
                <time>2018-10-20T07:50:14Z</time>
            </trkpt>
            <trkpt lon="101.193408" lat="14.319369">
                <ele>54.400000</ele>
                <time>2018-10-20T07:50:21Z</time>
            </trkpt>
            <trkpt lon="101.193408" lat="14.319369">
                <ele>54.400000</ele>
                <time>2018-10-20T07:50:32Z</time>
            </trkpt>
            <trkpt lon="101.193411" lat="14.319379">
                <ele>54.300000</ele>
                <time>2018-10-20T07:50:40Z</time>
            </trkpt>
            <trkpt lon="101.193411" lat="14.319379">
                <ele>54.300000</ele>
                <time>2018-10-20T07:50:41Z</time>
            </trkpt>
            <trkpt lon="101.193409" lat="14.319382">
                <ele>54.200000</ele>
                <time>2018-10-20T07:50:42Z</time>
            </trkpt>
            <trkpt lon="101.193421" lat="14.319416">
                <ele>53.900000</ele>
                <time>2018-10-20T07:50:45Z</time>
            </trkpt>
            <trkpt lon="101.193421" lat="14.319416">
                <ele>53.900000</ele>
                <time>2018-10-20T07:50:54Z</time>
            </trkpt>
            <trkpt lon="101.193421" lat="14.319416">
                <ele>53.800000</ele>
                <time>2018-10-20T07:51:02Z</time>
            </trkpt>
            <trkpt lon="101.193423" lat="14.319411">
                <ele>53.800000</ele>
                <time>2018-10-20T07:51:12Z</time>
            </trkpt>
            <trkpt lon="101.193425" lat="14.319412">
                <ele>53.800000</ele>
                <time>2018-10-20T07:51:18Z</time>
            </trkpt>
            <trkpt lon="101.193425" lat="14.319412">
                <ele>53.700000</ele>
                <time>2018-10-20T07:51:28Z</time>
            </trkpt>
            <trkpt lon="101.193425" lat="14.319412">
                <ele>53.700000</ele>
                <time>2018-10-20T07:51:37Z</time>
            </trkpt>
            <trkpt lon="101.193424" lat="14.319423">
                <ele>53.600000</ele>
                <time>2018-10-20T07:51:45Z</time>
            </trkpt>
            <trkpt lon="101.193424" lat="14.319423">
                <ele>53.600000</ele>
                <time>2018-10-20T07:51:55Z</time>
            </trkpt>
            <trkpt lon="101.193424" lat="14.319423">
                <ele>53.600000</ele>
                <time>2018-10-20T07:51:56Z</time>
            </trkpt>
            <trkpt lon="101.193427" lat="14.319428">
                <ele>53.500000</ele>
                <time>2018-10-20T07:52:02Z</time>
            </trkpt>
            <trkpt lon="101.193427" lat="14.319428">
                <ele>53.500000</ele>
                <time>2018-10-20T07:52:11Z</time>
            </trkpt>
            <trkpt lon="101.193445" lat="14.319443">
                <ele>53.200000</ele>
                <time>2018-10-20T07:52:22Z</time>
            </trkpt>
            <trkpt lon="101.193457" lat="14.319465">
                <ele>52.900000</ele>
                <time>2018-10-20T07:52:30Z</time>
            </trkpt>
            <trkpt lon="101.193481" lat="14.319473">
                <ele>53.100000</ele>
                <time>2018-10-20T07:52:38Z</time>
            </trkpt>
            <trkpt lon="101.193526" lat="14.319494">
                <ele>53.100000</ele>
                <time>2018-10-20T07:52:45Z</time>
            </trkpt>
            <trkpt lon="101.193537" lat="14.319507">
                <ele>53.100000</ele>
                <time>2018-10-20T07:52:49Z</time>
            </trkpt>
            <trkpt lon="101.193537" lat="14.319507">
                <ele>53.000000</ele>
                <time>2018-10-20T07:53:00Z</time>
            </trkpt>
            <trkpt lon="101.193537" lat="14.319507">
                <ele>53.000000</ele>
                <time>2018-10-20T07:53:05Z</time>
            </trkpt>
            <trkpt lon="101.193537" lat="14.319507">
                <ele>52.900000</ele>
                <time>2018-10-20T07:53:14Z</time>
            </trkpt>
            <trkpt lon="101.193537" lat="14.319507">
                <ele>52.900000</ele>
                <time>2018-10-20T07:53:19Z</time>
            </trkpt>
            <trkpt lon="101.193544" lat="14.319511">
                <ele>52.900000</ele>
                <time>2018-10-20T07:53:27Z</time>
            </trkpt>
            <trkpt lon="101.193544" lat="14.319512">
                <ele>52.800000</ele>
                <time>2018-10-20T07:53:39Z</time>
            </trkpt>
            <trkpt lon="101.193544" lat="14.319512">
                <ele>52.800000</ele>
                <time>2018-10-20T07:53:41Z</time>
            </trkpt>
            <trkpt lon="101.193544" lat="14.319512">
                <ele>52.800000</ele>
                <time>2018-10-20T07:53:51Z</time>
            </trkpt>
            <trkpt lon="101.193544" lat="14.319512">
                <ele>52.700000</ele>
                <time>2018-10-20T07:54:00Z</time>
            </trkpt>
            <trkpt lon="101.193544" lat="14.319512">
                <ele>52.700000</ele>
                <time>2018-10-20T07:54:02Z</time>
            </trkpt>
            <trkpt lon="101.193544" lat="14.319512">
                <ele>52.600000</ele>
                <time>2018-10-20T07:54:06Z</time>
            </trkpt>
            <trkpt lon="101.193546" lat="14.319516">
                <ele>52.600000</ele>
                <time>2018-10-20T07:54:17Z</time>
            </trkpt>
            <trkpt lon="101.193546" lat="14.319516">
                <ele>52.600000</ele>
                <time>2018-10-20T07:54:32Z</time>
            </trkpt>
            <trkpt lon="101.193546" lat="14.319516">
                <ele>52.500000</ele>
                <time>2018-10-20T07:54:34Z</time>
            </trkpt>
            <trkpt lon="101.193546" lat="14.319516">
                <ele>52.500000</ele>
                <time>2018-10-20T07:54:50Z</time>
            </trkpt>
            <trkpt lon="101.193549" lat="14.319519">
                <ele>52.400000</ele>
                <time>2018-10-20T07:55:06Z</time>
            </trkpt>
            <trkpt lon="101.193549" lat="14.319519">
                <ele>52.400000</ele>
                <time>2018-10-20T07:55:07Z</time>
            </trkpt>
            <trkpt lon="101.193549" lat="14.319519">
                <ele>52.400000</ele>
                <time>2018-10-20T07:55:22Z</time>
            </trkpt>
            <trkpt lon="101.193549" lat="14.319519">
                <ele>52.300000</ele>
                <time>2018-10-20T07:55:25Z</time>
            </trkpt>
            <trkpt lon="101.193548" lat="14.319523">
                <ele>52.300000</ele>
                <time>2018-10-20T07:55:37Z</time>
            </trkpt>
            <trkpt lon="101.193548" lat="14.319523">
                <ele>52.300000</ele>
                <time>2018-10-20T07:55:45Z</time>
            </trkpt>
            <trkpt lon="101.193548" lat="14.319523">
                <ele>52.200000</ele>
                <time>2018-10-20T07:55:55Z</time>
            </trkpt>
            <trkpt lon="101.193548" lat="14.319523">
                <ele>52.200000</ele>
                <time>2018-10-20T07:56:08Z</time>
            </trkpt>
            <trkpt lon="101.193548" lat="14.319523">
                <ele>52.100000</ele>
                <time>2018-10-20T07:56:13Z</time>
            </trkpt>
            <trkpt lon="101.193547" lat="14.319526">
                <ele>52.100000</ele>
                <time>2018-10-20T07:56:28Z</time>
            </trkpt>
            <trkpt lon="101.193547" lat="14.319526">
                <ele>52.100000</ele>
                <time>2018-10-20T07:56:34Z</time>
            </trkpt>
            <trkpt lon="101.193547" lat="14.319526">
                <ele>52.000000</ele>
                <time>2018-10-20T07:56:47Z</time>
            </trkpt>
            <trkpt lon="101.193547" lat="14.319526">
                <ele>52.000000</ele>
                <time>2018-10-20T07:56:52Z</time>
            </trkpt>
            <trkpt lon="101.193550" lat="14.319532">
                <ele>51.900000</ele>
                <time>2018-10-20T07:57:04Z</time>
            </trkpt>
            <trkpt lon="101.193550" lat="14.319532">
                <ele>51.900000</ele>
                <time>2018-10-20T07:57:10Z</time>
            </trkpt>
            <trkpt lon="101.193550" lat="14.319532">
                <ele>51.800000</ele>
                <time>2018-10-20T07:57:20Z</time>
            </trkpt>
            <trkpt lon="101.193550" lat="14.319532">
                <ele>51.800000</ele>
                <time>2018-10-20T07:57:30Z</time>
            </trkpt>
            <trkpt lon="101.193554" lat="14.319537">
                <ele>51.700000</ele>
                <time>2018-10-20T07:57:38Z</time>
            </trkpt>
            <trkpt lon="101.193554" lat="14.319537">
                <ele>51.700000</ele>
                <time>2018-10-20T07:57:46Z</time>
            </trkpt>
            <trkpt lon="101.193554" lat="14.319537">
                <ele>51.700000</ele>
                <time>2018-10-20T07:57:55Z</time>
            </trkpt>
            <trkpt lon="101.193554" lat="14.319537">
                <ele>51.600000</ele>
                <time>2018-10-20T07:58:06Z</time>
            </trkpt>
            <trkpt lon="101.193556" lat="14.319539">
                <ele>51.600000</ele>
                <time>2018-10-20T07:58:25Z</time>
            </trkpt>
            <trkpt lon="101.193556" lat="14.319539">
                <ele>51.600000</ele>
                <time>2018-10-20T07:58:26Z</time>
            </trkpt>
            <trkpt lon="101.193556" lat="14.319539">
                <ele>51.500000</ele>
                <time>2018-10-20T07:58:41Z</time>
            </trkpt>
            <trkpt lon="101.193556" lat="14.319539">
                <ele>51.500000</ele>
                <time>2018-10-20T07:58:48Z</time>
            </trkpt>
            <trkpt lon="101.193557" lat="14.319542">
                <ele>51.400000</ele>
                <time>2018-10-20T07:58:55Z</time>
            </trkpt>
            <trkpt lon="101.193557" lat="14.319542">
                <ele>51.400000</ele>
                <time>2018-10-20T07:59:07Z</time>
            </trkpt>
            <trkpt lon="101.193557" lat="14.319542">
                <ele>51.400000</ele>
                <time>2018-10-20T07:59:15Z</time>
            </trkpt>
            <trkpt lon="101.193557" lat="14.319542">
                <ele>51.300000</ele>
                <time>2018-10-20T07:59:25Z</time>
            </trkpt>
            <trkpt lon="101.193557" lat="14.319542">
                <ele>51.300000</ele>
                <time>2018-10-20T07:59:31Z</time>
            </trkpt>
            <trkpt lon="101.193555" lat="14.319543">
                <ele>51.300000</ele>
                <time>2018-10-20T07:59:44Z</time>
            </trkpt>
            <trkpt lon="101.193555" lat="14.319543">
                <ele>51.200000</ele>
                <time>2018-10-20T07:59:45Z</time>
            </trkpt>
            <trkpt lon="101.193555" lat="14.319543">
                <ele>51.200000</ele>
                <time>2018-10-20T08:00:04Z</time>
            </trkpt>
            <trkpt lon="101.193558" lat="14.319543">
                <ele>51.100000</ele>
                <time>2018-10-20T08:00:20Z</time>
            </trkpt>
            <trkpt lon="101.193558" lat="14.319543">
                <ele>51.100000</ele>
                <time>2018-10-20T08:00:23Z</time>
            </trkpt>
            <trkpt lon="101.193558" lat="14.319543">
                <ele>51.100000</ele>
                <time>2018-10-20T08:00:36Z</time>
            </trkpt>
            <trkpt lon="101.193558" lat="14.319543">
                <ele>51.000000</ele>
                <time>2018-10-20T08:00:42Z</time>
            </trkpt>
            <trkpt lon="101.193558" lat="14.319543">
                <ele>51.000000</ele>
                <time>2018-10-20T08:00:54Z</time>
            </trkpt>
            <trkpt lon="101.193559" lat="14.319546">
                <ele>51.000000</ele>
                <time>2018-10-20T08:00:59Z</time>
            </trkpt>
            <trkpt lon="101.193559" lat="14.319546">
                <ele>50.900000</ele>
                <time>2018-10-20T08:01:09Z</time>
            </trkpt>
            <trkpt lon="101.193559" lat="14.319546">
                <ele>50.900000</ele>
                <time>2018-10-20T08:01:17Z</time>
            </trkpt>
            <trkpt lon="101.193559" lat="14.319546">
                <ele>50.800000</ele>
                <time>2018-10-20T08:01:27Z</time>
            </trkpt>
            <trkpt lon="101.193557" lat="14.319549">
                <ele>50.800000</ele>
                <time>2018-10-20T08:01:36Z</time>
            </trkpt>
            <trkpt lon="101.193557" lat="14.319549">
                <ele>50.800000</ele>
                <time>2018-10-20T08:01:45Z</time>
            </trkpt>
            <trkpt lon="101.193557" lat="14.319549">
                <ele>50.700000</ele>
                <time>2018-10-20T08:01:53Z</time>
            </trkpt>
            <trkpt lon="101.193557" lat="14.319549">
                <ele>50.700000</ele>
                <time>2018-10-20T08:02:01Z</time>
            </trkpt>
            <trkpt lon="101.193557" lat="14.319549">
                <ele>50.700000</ele>
                <time>2018-10-20T08:02:12Z</time>
            </trkpt>
            <trkpt lon="101.193552" lat="14.319542">
                <ele>50.600000</ele>
                <time>2018-10-20T08:02:17Z</time>
            </trkpt>
            <trkpt lon="101.193552" lat="14.319542">
                <ele>50.600000</ele>
                <time>2018-10-20T08:02:29Z</time>
            </trkpt>
            <trkpt lon="101.193552" lat="14.319542">
                <ele>50.500000</ele>
                <time>2018-10-20T08:02:34Z</time>
            </trkpt>
            <trkpt lon="101.193552" lat="14.319542">
                <ele>50.500000</ele>
                <time>2018-10-20T08:02:49Z</time>
            </trkpt>
            <trkpt lon="101.193552" lat="14.319542">
                <ele>50.500000</ele>
                <time>2018-10-20T08:02:53Z</time>
            </trkpt>
            <trkpt lon="101.193552" lat="14.319542">
                <ele>50.400000</ele>
                <time>2018-10-20T08:02:54Z</time>
            </trkpt>
            <trkpt lon="101.193553" lat="14.319545">
                <ele>50.400000</ele>
                <time>2018-10-20T08:02:55Z</time>
            </trkpt>
            <trkpt lon="101.193553" lat="14.319545">
                <ele>50.300000</ele>
                <time>2018-10-20T08:02:56Z</time>
            </trkpt>
            <trkpt lon="101.193553" lat="14.319545">
                <ele>50.300000</ele>
                <time>2018-10-20T08:02:57Z</time>
            </trkpt>
            <trkpt lon="101.193553" lat="14.319545">
                <ele>50.300000</ele>
                <time>2018-10-20T08:02:58Z</time>
            </trkpt>
            <trkpt lon="101.193553" lat="14.319545">
                <ele>50.200000</ele>
                <time>2018-10-20T08:02:59Z</time>
            </trkpt>
            <trkpt lon="101.193553" lat="14.319545">
                <ele>50.200000</ele>
                <time>2018-10-20T08:03:01Z</time>
            </trkpt>
            <trkpt lon="101.193553" lat="14.319545">
                <ele>50.200000</ele>
                <time>2018-10-20T08:03:03Z</time>
            </trkpt>
            <trkpt lon="101.193553" lat="14.319545">
                <ele>50.100000</ele>
                <time>2018-10-20T08:03:17Z</time>
            </trkpt>
            <trkpt lon="101.193553" lat="14.319545">
                <ele>50.100000</ele>
                <time>2018-10-20T08:03:33Z</time>
            </trkpt>
            <trkpt lon="101.193552" lat="14.319546">
                <ele>50.000000</ele>
                <time>2018-10-20T08:03:50Z</time>
            </trkpt>
            <trkpt lon="101.193552" lat="14.319546">
                <ele>50.000000</ele>
                <time>2018-10-20T08:04:09Z</time>
            </trkpt>
            <trkpt lon="101.193552" lat="14.319546">
                <ele>50.000000</ele>
                <time>2018-10-20T08:04:13Z</time>
            </trkpt>
            <trkpt lon="101.193555" lat="14.319545">
                <ele>49.900000</ele>
                <time>2018-10-20T08:04:20Z</time>
            </trkpt>
            <trkpt lon="101.193561" lat="14.319542">
                <ele>49.900000</ele>
                <time>2018-10-20T08:04:31Z</time>
            </trkpt>
            <trkpt lon="101.193566" lat="14.319550">
                <ele>49.900000</ele>
                <time>2018-10-20T08:04:37Z</time>
            </trkpt>
            <trkpt lon="101.193566" lat="14.319550">
                <ele>49.800000</ele>
                <time>2018-10-20T08:04:46Z</time>
            </trkpt>
            <trkpt lon="101.193566" lat="14.319550">
                <ele>49.800000</ele>
                <time>2018-10-20T08:04:53Z</time>
            </trkpt>
            <trkpt lon="101.193577" lat="14.319587">
                <ele>49.700000</ele>
                <time>2018-10-20T08:04:57Z</time>
            </trkpt>
            <trkpt lon="101.193592" lat="14.319596">
                <ele>49.700000</ele>
                <time>2018-10-20T08:05:04Z</time>
            </trkpt>
            <trkpt lon="101.193645" lat="14.319589">
                <ele>49.700000</ele>
                <time>2018-10-20T08:05:10Z</time>
            </trkpt>
            <trkpt lon="101.193778" lat="14.319577">
                <ele>49.700000</ele>
                <time>2018-10-20T08:05:16Z</time>
            </trkpt>
            <trkpt lon="101.193843" lat="14.319633">
                <ele>49.400000</ele>
                <time>2018-10-20T08:05:20Z</time>
            </trkpt>
            <trkpt lon="101.193883" lat="14.319655">
                <ele>49.100000</ele>
                <time>2018-10-20T08:05:22Z</time>
            </trkpt>
            <trkpt lon="101.193941" lat="14.319707">
                <ele>49.000000</ele>
                <time>2018-10-20T08:05:26Z</time>
            </trkpt>
            <trkpt lon="101.194006" lat="14.319776">
                <ele>49.200000</ele>
                <time>2018-10-20T08:05:31Z</time>
            </trkpt>
            <trkpt lon="101.194032" lat="14.319819">
                <ele>49.200000</ele>
                <time>2018-10-20T08:05:33Z</time>
            </trkpt>
            <trkpt lon="101.194142" lat="14.319894">
                <ele>49.900000</ele>
                <time>2018-10-20T08:05:39Z</time>
            </trkpt>
            <trkpt lon="101.194289" lat="14.320016">
                <ele>50.600000</ele>
                <time>2018-10-20T08:05:45Z</time>
            </trkpt>
            <trkpt lon="101.194310" lat="14.320115">
                <ele>50.800000</ele>
                <time>2018-10-20T08:05:49Z</time>
            </trkpt>
            <trkpt lon="101.194280" lat="14.320246">
                <ele>50.700000</ele>
                <time>2018-10-20T08:05:54Z</time>
            </trkpt>
            <trkpt lon="101.194345" lat="14.320301">
                <ele>50.700000</ele>
                <time>2018-10-20T08:05:58Z</time>
            </trkpt>
            <trkpt lon="101.194387" lat="14.320319">
                <ele>50.700000</ele>
                <time>2018-10-20T08:06:00Z</time>
            </trkpt>
            <trkpt lon="101.194424" lat="14.320342">
                <ele>50.600000</ele>
                <time>2018-10-20T08:06:02Z</time>
            </trkpt>
            <trkpt lon="101.194438" lat="14.320353">
                <ele>50.600000</ele>
                <time>2018-10-20T08:06:03Z</time>
            </trkpt>
            <trkpt lon="101.194450" lat="14.320362">
                <ele>50.400000</ele>
                <time>2018-10-20T08:06:04Z</time>
            </trkpt>
            <trkpt lon="101.194465" lat="14.320412">
                <ele>50.200000</ele>
                <time>2018-10-20T08:06:07Z</time>
            </trkpt>
            <trkpt lon="101.194457" lat="14.320474">
                <ele>49.900000</ele>
                <time>2018-10-20T08:06:10Z</time>
            </trkpt>
            <trkpt lon="101.194457" lat="14.320494">
                <ele>49.700000</ele>
                <time>2018-10-20T08:06:11Z</time>
            </trkpt>
            <trkpt lon="101.194493" lat="14.320602">
                <ele>49.000000</ele>
                <time>2018-10-20T08:06:16Z</time>
            </trkpt>
            <trkpt lon="101.194520" lat="14.320672">
                <ele>48.400000</ele>
                <time>2018-10-20T08:06:19Z</time>
            </trkpt>
            <trkpt lon="101.194560" lat="14.320738">
                <ele>48.300000</ele>
                <time>2018-10-20T08:06:22Z</time>
            </trkpt>
            <trkpt lon="101.194651" lat="14.320874">
                <ele>48.100000</ele>
                <time>2018-10-20T08:06:29Z</time>
            </trkpt>
            <trkpt lon="101.194688" lat="14.320980">
                <ele>47.600000</ele>
                <time>2018-10-20T08:06:34Z</time>
            </trkpt>
            <trkpt lon="101.194761" lat="14.321183">
                <ele>46.700000</ele>
                <time>2018-10-20T08:06:42Z</time>
            </trkpt>
            <trkpt lon="101.194782" lat="14.321227">
                <ele>46.600000</ele>
                <time>2018-10-20T08:06:44Z</time>
            </trkpt>
            <trkpt lon="101.194832" lat="14.321376">
                <ele>47.200000</ele>
                <time>2018-10-20T08:06:50Z</time>
            </trkpt>
            <trkpt lon="101.194896" lat="14.321544">
                <ele>48.100000</ele>
                <time>2018-10-20T08:06:57Z</time>
            </trkpt>
            <trkpt lon="101.194960" lat="14.321762">
                <ele>49.600000</ele>
                <time>2018-10-20T08:07:05Z</time>
            </trkpt>
            <trkpt lon="101.195005" lat="14.321875">
                <ele>50.000000</ele>
                <time>2018-10-20T08:07:10Z</time>
            </trkpt>
            <trkpt lon="101.195021" lat="14.321881">
                <ele>50.000000</ele>
                <time>2018-10-20T08:07:11Z</time>
            </trkpt>
            <trkpt lon="101.195081" lat="14.321878">
                <ele>50.000000</ele>
                <time>2018-10-20T08:07:14Z</time>
            </trkpt>
            <trkpt lon="101.195125" lat="14.321866">
                <ele>50.000000</ele>
                <time>2018-10-20T08:07:16Z</time>
            </trkpt>
            <trkpt lon="101.195242" lat="14.321823">
                <ele>49.700000</ele>
                <time>2018-10-20T08:07:20Z</time>
            </trkpt>
            <trkpt lon="101.195309" lat="14.321802">
                <ele>49.400000</ele>
                <time>2018-10-20T08:07:22Z</time>
            </trkpt>
            <trkpt lon="101.195452" lat="14.321752">
                <ele>48.600000</ele>
                <time>2018-10-20T08:07:28Z</time>
            </trkpt>
            <trkpt lon="101.195618" lat="14.321694">
                <ele>48.100000</ele>
                <time>2018-10-20T08:07:35Z</time>
            </trkpt>
            <trkpt lon="101.195771" lat="14.321620">
                <ele>48.600000</ele>
                <time>2018-10-20T08:07:41Z</time>
            </trkpt>
            <trkpt lon="101.195910" lat="14.321549">
                <ele>49.600000</ele>
                <time>2018-10-20T08:07:47Z</time>
            </trkpt>
            <trkpt lon="101.196045" lat="14.321438">
                <ele>50.400000</ele>
                <time>2018-10-20T08:07:53Z</time>
            </trkpt>
            <trkpt lon="101.196056" lat="14.321348">
                <ele>50.500000</ele>
                <time>2018-10-20T08:07:56Z</time>
            </trkpt>
            <trkpt lon="101.196042" lat="14.321315">
                <ele>50.600000</ele>
                <time>2018-10-20T08:07:57Z</time>
            </trkpt>
            <trkpt lon="101.195958" lat="14.321098">
                <ele>51.600000</ele>
                <time>2018-10-20T08:08:04Z</time>
            </trkpt>
            <trkpt lon="101.195889" lat="14.320856">
                <ele>50.600000</ele>
                <time>2018-10-20T08:08:11Z</time>
            </trkpt>
            <trkpt lon="101.195809" lat="14.320634">
                <ele>51.000000</ele>
                <time>2018-10-20T08:08:17Z</time>
            </trkpt>
            <trkpt lon="101.195712" lat="14.320424">
                <ele>50.900000</ele>
                <time>2018-10-20T08:08:23Z</time>
            </trkpt>
            <trkpt lon="101.195650" lat="14.320278">
                <ele>50.600000</ele>
                <time>2018-10-20T08:08:27Z</time>
            </trkpt>
            <trkpt lon="101.195627" lat="14.320240">
                <ele>50.400000</ele>
                <time>2018-10-20T08:08:28Z</time>
            </trkpt>
            <trkpt lon="101.195607" lat="14.320193">
                <ele>50.200000</ele>
                <time>2018-10-20T08:08:29Z</time>
            </trkpt>
            <trkpt lon="101.195533" lat="14.320014">
                <ele>49.200000</ele>
                <time>2018-10-20T08:08:33Z</time>
            </trkpt>
            <trkpt lon="101.195499" lat="14.319923">
                <ele>49.100000</ele>
                <time>2018-10-20T08:08:35Z</time>
            </trkpt>
            <trkpt lon="101.195445" lat="14.319619">
                <ele>49.200000</ele>
                <time>2018-10-20T08:08:42Z</time>
            </trkpt>
            <trkpt lon="101.195436" lat="14.319583">
                <ele>49.300000</ele>
                <time>2018-10-20T08:08:43Z</time>
            </trkpt>
            <trkpt lon="101.195356" lat="14.319363">
                <ele>49.300000</ele>
                <time>2018-10-20T08:08:49Z</time>
            </trkpt>
            <trkpt lon="101.195296" lat="14.319183">
                <ele>48.500000</ele>
                <time>2018-10-20T08:08:54Z</time>
            </trkpt>
            <trkpt lon="101.195204" lat="14.319021">
                <ele>46.800000</ele>
                <time>2018-10-20T08:08:59Z</time>
            </trkpt>
            <trkpt lon="101.195123" lat="14.318911">
                <ele>46.300000</ele>
                <time>2018-10-20T08:09:05Z</time>
            </trkpt>
            <trkpt lon="101.195076" lat="14.318812">
                <ele>45.800000</ele>
                <time>2018-10-20T08:09:12Z</time>
            </trkpt>
            <trkpt lon="101.195068" lat="14.318776">
                <ele>45.600000</ele>
                <time>2018-10-20T08:09:14Z</time>
            </trkpt>
            <trkpt lon="101.195045" lat="14.318728">
                <ele>45.400000</ele>
                <time>2018-10-20T08:09:17Z</time>
            </trkpt>
            <trkpt lon="101.195041" lat="14.318715">
                <ele>45.400000</ele>
                <time>2018-10-20T08:09:18Z</time>
            </trkpt>
            <trkpt lon="101.195006" lat="14.318588">
                <ele>45.100000</ele>
                <time>2018-10-20T08:09:24Z</time>
            </trkpt>
            <trkpt lon="101.194994" lat="14.318409">
                <ele>45.100000</ele>
                <time>2018-10-20T08:09:31Z</time>
            </trkpt>
            <trkpt lon="101.195008" lat="14.318226">
                <ele>45.200000</ele>
                <time>2018-10-20T08:09:37Z</time>
            </trkpt>
            <trkpt lon="101.195012" lat="14.318128">
                <ele>45.200000</ele>
                <time>2018-10-20T08:09:40Z</time>
            </trkpt>
            <trkpt lon="101.195034" lat="14.318034">
                <ele>45.200000</ele>
                <time>2018-10-20T08:09:43Z</time>
            </trkpt>
            <trkpt lon="101.195031" lat="14.317839">
                <ele>45.200000</ele>
                <time>2018-10-20T08:09:49Z</time>
            </trkpt>
            <trkpt lon="101.195020" lat="14.317638">
                <ele>44.500000</ele>
                <time>2018-10-20T08:09:55Z</time>
            </trkpt>
            <trkpt lon="101.195015" lat="14.317614">
                <ele>44.500000</ele>
                <time>2018-10-20T08:09:56Z</time>
            </trkpt>
            <trkpt lon="101.195006" lat="14.317499">
                <ele>44.500000</ele>
                <time>2018-10-20T08:10:00Z</time>
            </trkpt>
            <trkpt lon="101.194996" lat="14.317251">
                <ele>45.900000</ele>
                <time>2018-10-20T08:10:07Z</time>
            </trkpt>
            <trkpt lon="101.194975" lat="14.317020">
                <ele>47.200000</ele>
                <time>2018-10-20T08:10:14Z</time>
            </trkpt>
            <trkpt lon="101.194969" lat="14.316856">
                <ele>48.900000</ele>
                <time>2018-10-20T08:10:20Z</time>
            </trkpt>
            <trkpt lon="101.194983" lat="14.316776">
                <ele>49.500000</ele>
                <time>2018-10-20T08:10:22Z</time>
            </trkpt>
            <trkpt lon="101.194991" lat="14.316655">
                <ele>50.100000</ele>
                <time>2018-10-20T08:10:25Z</time>
            </trkpt>
            <trkpt lon="101.194979" lat="14.316455">
                <ele>47.200000</ele>
                <time>2018-10-20T08:10:29Z</time>
            </trkpt>
            <trkpt lon="101.194957" lat="14.316401">
                <ele>45.600000</ele>
                <time>2018-10-20T08:10:30Z</time>
            </trkpt>
            <trkpt lon="101.194950" lat="14.316238">
                <ele>41.700000</ele>
                <time>2018-10-20T08:10:33Z</time>
            </trkpt>
            <trkpt lon="101.194949" lat="14.316184">
                <ele>40.700000</ele>
                <time>2018-10-20T08:10:34Z</time>
            </trkpt>
            <trkpt lon="101.194926" lat="14.316024">
                <ele>39.300000</ele>
                <time>2018-10-20T08:10:38Z</time>
            </trkpt>
            <trkpt lon="101.194901" lat="14.315817">
                <ele>40.500000</ele>
                <time>2018-10-20T08:10:44Z</time>
            </trkpt>
            <trkpt lon="101.194874" lat="14.315566">
                <ele>41.300000</ele>
                <time>2018-10-20T08:10:50Z</time>
            </trkpt>
            <trkpt lon="101.194860" lat="14.315446">
                <ele>41.400000</ele>
                <time>2018-10-20T08:10:53Z</time>
            </trkpt>
            <trkpt lon="101.194897" lat="14.315336">
                <ele>41.300000</ele>
                <time>2018-10-20T08:10:56Z</time>
            </trkpt>
            <trkpt lon="101.194955" lat="14.315256">
                <ele>41.200000</ele>
                <time>2018-10-20T08:10:59Z</time>
            </trkpt>
            <trkpt lon="101.194985" lat="14.315193">
                <ele>41.200000</ele>
                <time>2018-10-20T08:11:01Z</time>
            </trkpt>
            <trkpt lon="101.195114" lat="14.315041">
                <ele>40.500000</ele>
                <time>2018-10-20T08:11:06Z</time>
            </trkpt>
            <trkpt lon="101.195262" lat="14.314860">
                <ele>40.200000</ele>
                <time>2018-10-20T08:11:12Z</time>
            </trkpt>
            <trkpt lon="101.195404" lat="14.314637">
                <ele>39.900000</ele>
                <time>2018-10-20T08:11:18Z</time>
            </trkpt>
            <trkpt lon="101.195487" lat="14.314402">
                <ele>39.800000</ele>
                <time>2018-10-20T08:11:24Z</time>
            </trkpt>
            <trkpt lon="101.195562" lat="14.314289">
                <ele>39.700000</ele>
                <time>2018-10-20T08:11:29Z</time>
            </trkpt>
            <trkpt lon="101.195567" lat="14.314176">
                <ele>40.000000</ele>
                <time>2018-10-20T08:11:35Z</time>
            </trkpt>
            <trkpt lon="101.195553" lat="14.314166">
                <ele>40.000000</ele>
                <time>2018-10-20T08:11:36Z</time>
            </trkpt>
            <trkpt lon="101.195514" lat="14.314149">
                <ele>40.000000</ele>
                <time>2018-10-20T08:11:39Z</time>
            </trkpt>
            <trkpt lon="101.195475" lat="14.314121">
                <ele>40.000000</ele>
                <time>2018-10-20T08:11:42Z</time>
            </trkpt>
            <trkpt lon="101.195454" lat="14.314109">
                <ele>39.700000</ele>
                <time>2018-10-20T08:11:44Z</time>
            </trkpt>
            <trkpt lon="101.195447" lat="14.314105">
                <ele>39.700000</ele>
                <time>2018-10-20T08:11:45Z</time>
            </trkpt>
            <trkpt lon="101.195419" lat="14.314078">
                <ele>39.700000</ele>
                <time>2018-10-20T08:11:52Z</time>
            </trkpt>
            <trkpt lon="101.195374" lat="14.314041">
                <ele>39.500000</ele>
                <time>2018-10-20T08:12:00Z</time>
            </trkpt>
            <trkpt lon="101.195357" lat="14.314007">
                <ele>39.200000</ele>
                <time>2018-10-20T08:12:05Z</time>
            </trkpt>
            <trkpt lon="101.195339" lat="14.313945">
                <ele>39.200000</ele>
                <time>2018-10-20T08:12:11Z</time>
            </trkpt>
            <trkpt lon="101.195329" lat="14.313928">
                <ele>39.200000</ele>
                <time>2018-10-20T08:12:12Z</time>
            </trkpt>
            <trkpt lon="101.195324" lat="14.313786">
                <ele>39.000000</ele>
                <time>2018-10-20T08:12:18Z</time>
            </trkpt>
            <trkpt lon="101.195374" lat="14.313592">
                <ele>39.200000</ele>
                <time>2018-10-20T08:12:25Z</time>
            </trkpt>
            <trkpt lon="101.195385" lat="14.313567">
                <ele>39.100000</ele>
                <time>2018-10-20T08:12:26Z</time>
            </trkpt>
            <trkpt lon="101.195425" lat="14.313411">
                <ele>38.100000</ele>
                <time>2018-10-20T08:12:33Z</time>
            </trkpt>
            <trkpt lon="101.195469" lat="14.313286">
                <ele>38.100000</ele>
                <time>2018-10-20T08:12:39Z</time>
            </trkpt>
            <trkpt lon="101.195486" lat="14.313217">
                <ele>38.100000</ele>
                <time>2018-10-20T08:12:45Z</time>
            </trkpt>
            <trkpt lon="101.195548" lat="14.313151">
                <ele>38.600000</ele>
                <time>2018-10-20T08:12:53Z</time>
            </trkpt>
            <trkpt lon="101.195565" lat="14.313144">
                <ele>38.600000</ele>
                <time>2018-10-20T08:12:54Z</time>
            </trkpt>
            <trkpt lon="101.195614" lat="14.313114">
                <ele>38.900000</ele>
                <time>2018-10-20T08:12:58Z</time>
            </trkpt>
            <trkpt lon="101.195668" lat="14.313073">
                <ele>39.000000</ele>
                <time>2018-10-20T08:13:05Z</time>
            </trkpt>
            <trkpt lon="101.195716" lat="14.313050">
                <ele>38.500000</ele>
                <time>2018-10-20T08:13:09Z</time>
            </trkpt>
            <trkpt lon="101.195745" lat="14.313078">
                <ele>38.600000</ele>
                <time>2018-10-20T08:13:13Z</time>
            </trkpt>
            <trkpt lon="101.195723" lat="14.313116">
                <ele>38.400000</ele>
                <time>2018-10-20T08:13:16Z</time>
            </trkpt>
            <trkpt lon="101.195673" lat="14.313131">
                <ele>38.400000</ele>
                <time>2018-10-20T08:13:18Z</time>
            </trkpt>
            <trkpt lon="101.195559" lat="14.313201">
                <ele>38.300000</ele>
                <time>2018-10-20T08:13:24Z</time>
            </trkpt>
            <trkpt lon="101.195491" lat="14.313271">
                <ele>38.100000</ele>
                <time>2018-10-20T08:13:30Z</time>
            </trkpt>
            <trkpt lon="101.195484" lat="14.313306">
                <ele>38.100000</ele>
                <time>2018-10-20T08:13:31Z</time>
            </trkpt>
            <trkpt lon="101.195387" lat="14.313384">
                <ele>38.200000</ele>
                <time>2018-10-20T08:13:36Z</time>
            </trkpt>
            <trkpt lon="101.195363" lat="14.313391">
                <ele>38.200000</ele>
                <time>2018-10-20T08:13:37Z</time>
            </trkpt>
            <trkpt lon="101.195266" lat="14.313442">
                <ele>38.300000</ele>
                <time>2018-10-20T08:13:42Z</time>
            </trkpt>
            <trkpt lon="101.195258" lat="14.313450">
                <ele>38.300000</ele>
                <time>2018-10-20T08:13:47Z</time>
            </trkpt>
            <trkpt lon="101.195258" lat="14.313450">
                <ele>38.300000</ele>
                <time>2018-10-20T08:13:59Z</time>
            </trkpt>
            <trkpt lon="101.195258" lat="14.313450">
                <ele>38.300000</ele>
                <time>2018-10-20T08:14:10Z</time>
            </trkpt>
            <trkpt lon="101.195255" lat="14.313452">
                <ele>38.300000</ele>
                <time>2018-10-20T08:14:27Z</time>
            </trkpt>
            <trkpt lon="101.195255" lat="14.313452">
                <ele>38.300000</ele>
                <time>2018-10-20T08:14:39Z</time>
            </trkpt>
            <trkpt lon="101.195255" lat="14.313452">
                <ele>38.300000</ele>
                <time>2018-10-20T08:14:42Z</time>
            </trkpt>
            <trkpt lon="101.195255" lat="14.313452">
                <ele>38.300000</ele>
                <time>2018-10-20T08:14:58Z</time>
            </trkpt>
            <trkpt lon="101.195252" lat="14.313454">
                <ele>38.300000</ele>
                <time>2018-10-20T08:15:09Z</time>
            </trkpt>
            <trkpt lon="101.195252" lat="14.313454">
                <ele>38.300000</ele>
                <time>2018-10-20T08:15:25Z</time>
            </trkpt>
            <trkpt lon="101.195249" lat="14.313460">
                <ele>38.500000</ele>
                <time>2018-10-20T08:15:32Z</time>
            </trkpt>
            <trkpt lon="101.195249" lat="14.313460">
                <ele>38.500000</ele>
                <time>2018-10-20T08:15:45Z</time>
            </trkpt>
            <trkpt lon="101.195238" lat="14.313473">
                <ele>38.400000</ele>
                <time>2018-10-20T08:15:54Z</time>
            </trkpt>
            <trkpt lon="101.195238" lat="14.313473">
                <ele>38.400000</ele>
                <time>2018-10-20T08:16:07Z</time>
            </trkpt>
            <trkpt lon="101.195233" lat="14.313469">
                <ele>38.400000</ele>
                <time>2018-10-20T08:16:17Z</time>
            </trkpt>
            <trkpt lon="101.195238" lat="14.313473">
                <ele>38.400000</ele>
                <time>2018-10-20T08:16:25Z</time>
            </trkpt>
            <trkpt lon="101.195232" lat="14.313478">
                <ele>38.400000</ele>
                <time>2018-10-20T08:16:34Z</time>
            </trkpt>
            <trkpt lon="101.195228" lat="14.313483">
                <ele>38.400000</ele>
                <time>2018-10-20T08:16:42Z</time>
            </trkpt>
            <trkpt lon="101.195228" lat="14.313483">
                <ele>38.400000</ele>
                <time>2018-10-20T08:16:52Z</time>
            </trkpt>
            <trkpt lon="101.195196" lat="14.313491">
                <ele>38.200000</ele>
                <time>2018-10-20T08:16:58Z</time>
            </trkpt>
            <trkpt lon="101.195196" lat="14.313491">
                <ele>38.200000</ele>
                <time>2018-10-20T08:17:07Z</time>
            </trkpt>
            <trkpt lon="101.195171" lat="14.313499">
                <ele>38.300000</ele>
                <time>2018-10-20T08:17:16Z</time>
            </trkpt>
            <trkpt lon="101.195171" lat="14.313499">
                <ele>38.300000</ele>
                <time>2018-10-20T08:17:24Z</time>
            </trkpt>
            <trkpt lon="101.195102" lat="14.313482">
                <ele>38.100000</ele>
                <time>2018-10-20T08:17:31Z</time>
            </trkpt>
            <trkpt lon="101.195092" lat="14.313480">
                <ele>38.100000</ele>
                <time>2018-10-20T08:17:33Z</time>
            </trkpt>
            <trkpt lon="101.195085" lat="14.313481">
                <ele>38.100000</ele>
                <time>2018-10-20T08:17:38Z</time>
            </trkpt>
            <trkpt lon="101.195002" lat="14.313484">
                <ele>38.100000</ele>
                <time>2018-10-20T08:17:46Z</time>
            </trkpt>
            <trkpt lon="101.194930" lat="14.313419">
                <ele>38.000000</ele>
                <time>2018-10-20T08:17:54Z</time>
            </trkpt>
            <trkpt lon="101.194918" lat="14.313395">
                <ele>37.800000</ele>
                <time>2018-10-20T08:18:00Z</time>
            </trkpt>
            <trkpt lon="101.194912" lat="14.313387">
                <ele>37.700000</ele>
                <time>2018-10-20T08:18:01Z</time>
            </trkpt>
            <trkpt lon="101.194882" lat="14.313337">
                <ele>37.400000</ele>
                <time>2018-10-20T08:18:05Z</time>
            </trkpt>
            <trkpt lon="101.194827" lat="14.313281">
                <ele>37.500000</ele>
                <time>2018-10-20T08:18:09Z</time>
            </trkpt>
            <trkpt lon="101.194799" lat="14.313252">
                <ele>37.600000</ele>
                <time>2018-10-20T08:18:11Z</time>
            </trkpt>
            <trkpt lon="101.194696" lat="14.313172">
                <ele>38.100000</ele>
                <time>2018-10-20T08:18:18Z</time>
            </trkpt>
            <trkpt lon="101.194556" lat="14.313111">
                <ele>38.700000</ele>
                <time>2018-10-20T08:18:25Z</time>
            </trkpt>
            <trkpt lon="101.194441" lat="14.313069">
                <ele>39.500000</ele>
                <time>2018-10-20T08:18:31Z</time>
            </trkpt>
            <trkpt lon="101.194418" lat="14.313059">
                <ele>39.700000</ele>
                <time>2018-10-20T08:18:32Z</time>
            </trkpt>
            <trkpt lon="101.194293" lat="14.312969">
                <ele>40.600000</ele>
                <time>2018-10-20T08:18:39Z</time>
            </trkpt>
            <trkpt lon="101.194232" lat="14.312882">
                <ele>41.900000</ele>
                <time>2018-10-20T08:18:45Z</time>
            </trkpt>
            <trkpt lon="101.194232" lat="14.312867">
                <ele>42.100000</ele>
                <time>2018-10-20T08:18:46Z</time>
            </trkpt>
            <trkpt lon="101.194272" lat="14.312803">
                <ele>42.600000</ele>
                <time>2018-10-20T08:18:50Z</time>
            </trkpt>
            <trkpt lon="101.194325" lat="14.312719">
                <ele>43.800000</ele>
                <time>2018-10-20T08:18:54Z</time>
            </trkpt>
            <trkpt lon="101.194353" lat="14.312660">
                <ele>44.300000</ele>
                <time>2018-10-20T08:18:57Z</time>
            </trkpt>
            <trkpt lon="101.194375" lat="14.312597">
                <ele>44.800000</ele>
                <time>2018-10-20T08:19:00Z</time>
            </trkpt>
            <trkpt lon="101.194399" lat="14.312556">
                <ele>45.100000</ele>
                <time>2018-10-20T08:19:02Z</time>
            </trkpt>
            <trkpt lon="101.194456" lat="14.312388">
                <ele>46.700000</ele>
                <time>2018-10-20T08:19:08Z</time>
            </trkpt>
            <trkpt lon="101.194461" lat="14.312196">
                <ele>46.900000</ele>
                <time>2018-10-20T08:19:15Z</time>
            </trkpt>
            <trkpt lon="101.194473" lat="14.312076">
                <ele>46.700000</ele>
                <time>2018-10-20T08:19:20Z</time>
            </trkpt>
            <trkpt lon="101.194529" lat="14.311909">
                <ele>44.500000</ele>
                <time>2018-10-20T08:19:25Z</time>
            </trkpt>
            <trkpt lon="101.194582" lat="14.311754">
                <ele>42.200000</ele>
                <time>2018-10-20T08:19:30Z</time>
            </trkpt>
            <trkpt lon="101.194667" lat="14.311541">
                <ele>39.800000</ele>
                <time>2018-10-20T08:19:37Z</time>
            </trkpt>
            <trkpt lon="101.194664" lat="14.311425">
                <ele>39.800000</ele>
                <time>2018-10-20T08:19:41Z</time>
            </trkpt>
            <trkpt lon="101.194646" lat="14.311366">
                <ele>39.900000</ele>
                <time>2018-10-20T08:19:43Z</time>
            </trkpt>
            <trkpt lon="101.194596" lat="14.311180">
                <ele>43.000000</ele>
                <time>2018-10-20T08:19:49Z</time>
            </trkpt>
            <trkpt lon="101.194509" lat="14.310980">
                <ele>45.100000</ele>
                <time>2018-10-20T08:19:56Z</time>
            </trkpt>
            <trkpt lon="101.194472" lat="14.310877">
                <ele>44.900000</ele>
                <time>2018-10-20T08:20:01Z</time>
            </trkpt>
            <trkpt lon="101.194474" lat="14.310860">
                <ele>44.700000</ele>
                <time>2018-10-20T08:20:02Z</time>
            </trkpt>
            <trkpt lon="101.194528" lat="14.310797">
                <ele>44.100000</ele>
                <time>2018-10-20T08:20:06Z</time>
            </trkpt>
            <trkpt lon="101.194711" lat="14.310747">
                <ele>42.400000</ele>
                <time>2018-10-20T08:20:13Z</time>
            </trkpt>
            <trkpt lon="101.194927" lat="14.310702">
                <ele>40.600000</ele>
                <time>2018-10-20T08:20:20Z</time>
            </trkpt>
            <trkpt lon="101.194980" lat="14.310685">
                <ele>39.900000</ele>
                <time>2018-10-20T08:20:22Z</time>
            </trkpt>
            <trkpt lon="101.195002" lat="14.310663">
                <ele>40.000000</ele>
                <time>2018-10-20T08:20:23Z</time>
            </trkpt>
            <trkpt lon="101.195009" lat="14.310638">
                <ele>40.000000</ele>
                <time>2018-10-20T08:20:24Z</time>
            </trkpt>
            <trkpt lon="101.194979" lat="14.310546">
                <ele>40.400000</ele>
                <time>2018-10-20T08:20:28Z</time>
            </trkpt>
            <trkpt lon="101.194971" lat="14.310521">
                <ele>40.600000</ele>
                <time>2018-10-20T08:20:29Z</time>
            </trkpt>
            <trkpt lon="101.194938" lat="14.310403">
                <ele>41.400000</ele>
                <time>2018-10-20T08:20:33Z</time>
            </trkpt>
            <trkpt lon="101.194929" lat="14.310314">
                <ele>41.900000</ele>
                <time>2018-10-20T08:20:36Z</time>
            </trkpt>
            <trkpt lon="101.194932" lat="14.310152">
                <ele>41.700000</ele>
                <time>2018-10-20T08:20:42Z</time>
            </trkpt>
            <trkpt lon="101.194972" lat="14.309949">
                <ele>41.800000</ele>
                <time>2018-10-20T08:20:49Z</time>
            </trkpt>
            <trkpt lon="101.195023" lat="14.309704">
                <ele>42.300000</ele>
                <time>2018-10-20T08:20:57Z</time>
            </trkpt>
            <trkpt lon="101.195039" lat="14.309489">
                <ele>44.800000</ele>
                <time>2018-10-20T08:21:04Z</time>
            </trkpt>
            <trkpt lon="101.195034" lat="14.309329">
                <ele>46.100000</ele>
                <time>2018-10-20T08:21:11Z</time>
            </trkpt>
            <trkpt lon="101.194970" lat="14.309222">
                <ele>46.500000</ele>
                <time>2018-10-20T08:21:18Z</time>
            </trkpt>
            <trkpt lon="101.194921" lat="14.309128">
                <ele>46.100000</ele>
                <time>2018-10-20T08:21:23Z</time>
            </trkpt>
            <trkpt lon="101.194908" lat="14.309109">
                <ele>46.000000</ele>
                <time>2018-10-20T08:21:24Z</time>
            </trkpt>
            <trkpt lon="101.194786" lat="14.308934">
                <ele>45.600000</ele>
                <time>2018-10-20T08:21:32Z</time>
            </trkpt>
            <trkpt lon="101.194681" lat="14.308808">
                <ele>45.700000</ele>
                <time>2018-10-20T08:21:38Z</time>
            </trkpt>
            <trkpt lon="101.194548" lat="14.308659">
                <ele>45.200000</ele>
                <time>2018-10-20T08:21:45Z</time>
            </trkpt>
            <trkpt lon="101.194422" lat="14.308570">
                <ele>44.400000</ele>
                <time>2018-10-20T08:21:51Z</time>
            </trkpt>
            <trkpt lon="101.194383" lat="14.308529">
                <ele>44.700000</ele>
                <time>2018-10-20T08:21:54Z</time>
            </trkpt>
            <trkpt lon="101.194366" lat="14.308477">
                <ele>44.900000</ele>
                <time>2018-10-20T08:21:57Z</time>
            </trkpt>
            <trkpt lon="101.194353" lat="14.308453">
                <ele>45.000000</ele>
                <time>2018-10-20T08:21:59Z</time>
            </trkpt>
            <trkpt lon="101.194339" lat="14.308438">
                <ele>45.100000</ele>
                <time>2018-10-20T08:22:03Z</time>
            </trkpt>
            <trkpt lon="101.194323" lat="14.308417">
                <ele>45.200000</ele>
                <time>2018-10-20T08:22:08Z</time>
            </trkpt>
            <trkpt lon="101.194274" lat="14.308355">
                <ele>45.600000</ele>
                <time>2018-10-20T08:22:16Z</time>
            </trkpt>
            <trkpt lon="101.194252" lat="14.308325">
                <ele>45.800000</ele>
                <time>2018-10-20T08:22:22Z</time>
            </trkpt>
            <trkpt lon="101.194235" lat="14.308314">
                <ele>45.900000</ele>
                <time>2018-10-20T08:22:29Z</time>
            </trkpt>
            <trkpt lon="101.194226" lat="14.308308">
                <ele>46.000000</ele>
                <time>2018-10-20T08:22:30Z</time>
            </trkpt>
            <trkpt lon="101.194196" lat="14.308282">
                <ele>46.300000</ele>
                <time>2018-10-20T08:22:33Z</time>
            </trkpt>
            <trkpt lon="101.194154" lat="14.308237">
                <ele>47.100000</ele>
                <time>2018-10-20T08:22:37Z</time>
            </trkpt>
            <trkpt lon="101.194098" lat="14.308179">
                <ele>48.800000</ele>
                <time>2018-10-20T08:22:43Z</time>
            </trkpt>
            <trkpt lon="101.194049" lat="14.308128">
                <ele>49.000000</ele>
                <time>2018-10-20T08:22:49Z</time>
            </trkpt>
            <trkpt lon="101.194041" lat="14.308120">
                <ele>49.200000</ele>
                <time>2018-10-20T08:22:50Z</time>
            </trkpt>
            <trkpt lon="101.194005" lat="14.308065">
                <ele>50.400000</ele>
                <time>2018-10-20T08:22:56Z</time>
            </trkpt>
            <trkpt lon="101.193996" lat="14.308044">
                <ele>50.600000</ele>
                <time>2018-10-20T08:22:58Z</time>
            </trkpt>
            <trkpt lon="101.193980" lat="14.308002">
                <ele>50.800000</ele>
                <time>2018-10-20T08:23:03Z</time>
            </trkpt>
            <trkpt lon="101.193977" lat="14.307979">
                <ele>50.900000</ele>
                <time>2018-10-20T08:23:10Z</time>
            </trkpt>
            <trkpt lon="101.193989" lat="14.307971">
                <ele>51.100000</ele>
                <time>2018-10-20T08:23:14Z</time>
            </trkpt>
            <trkpt lon="101.194009" lat="14.307970">
                <ele>51.400000</ele>
                <time>2018-10-20T08:23:17Z</time>
            </trkpt>
            <trkpt lon="101.194060" lat="14.307927">
                <ele>52.300000</ele>
                <time>2018-10-20T08:23:25Z</time>
            </trkpt>
            <trkpt lon="101.194088" lat="14.307893">
                <ele>52.700000</ele>
                <time>2018-10-20T08:23:33Z</time>
            </trkpt>
            <trkpt lon="101.194096" lat="14.307868">
                <ele>52.800000</ele>
                <time>2018-10-20T08:23:41Z</time>
            </trkpt>
            <trkpt lon="101.194099" lat="14.307858">
                <ele>52.800000</ele>
                <time>2018-10-20T08:23:43Z</time>
            </trkpt>
            <trkpt lon="101.194110" lat="14.307817">
                <ele>52.900000</ele>
                <time>2018-10-20T08:23:49Z</time>
            </trkpt>
            <trkpt lon="101.194112" lat="14.307799">
                <ele>52.900000</ele>
                <time>2018-10-20T08:23:51Z</time>
            </trkpt>
            <trkpt lon="101.194131" lat="14.307765">
                <ele>53.500000</ele>
                <time>2018-10-20T08:23:57Z</time>
            </trkpt>
            <trkpt lon="101.194169" lat="14.307708">
                <ele>54.400000</ele>
                <time>2018-10-20T08:24:05Z</time>
            </trkpt>
            <trkpt lon="101.194243" lat="14.307629">
                <ele>55.300000</ele>
                <time>2018-10-20T08:24:13Z</time>
            </trkpt>
            <trkpt lon="101.194289" lat="14.307585">
                <ele>56.200000</ele>
                <time>2018-10-20T08:24:21Z</time>
            </trkpt>
            <trkpt lon="101.194296" lat="14.307556">
                <ele>56.700000</ele>
                <time>2018-10-20T08:24:25Z</time>
            </trkpt>
            <trkpt lon="101.194308" lat="14.307535">
                <ele>57.100000</ele>
                <time>2018-10-20T08:24:28Z</time>
            </trkpt>
            <trkpt lon="101.194319" lat="14.307493">
                <ele>57.800000</ele>
                <time>2018-10-20T08:24:34Z</time>
            </trkpt>
            <trkpt lon="101.194326" lat="14.307482">
                <ele>57.800000</ele>
                <time>2018-10-20T08:24:36Z</time>
            </trkpt>
            <trkpt lon="101.194358" lat="14.307465">
                <ele>57.800000</ele>
                <time>2018-10-20T08:24:43Z</time>
            </trkpt>
            <trkpt lon="101.194388" lat="14.307443">
                <ele>57.800000</ele>
                <time>2018-10-20T08:24:49Z</time>
            </trkpt>
            <trkpt lon="101.194401" lat="14.307434">
                <ele>58.000000</ele>
                <time>2018-10-20T08:24:56Z</time>
            </trkpt>
            <trkpt lon="101.194407" lat="14.307432">
                <ele>58.100000</ele>
                <time>2018-10-20T08:25:03Z</time>
            </trkpt>
            <trkpt lon="101.194498" lat="14.307377">
                <ele>59.700000</ele>
                <time>2018-10-20T08:25:10Z</time>
            </trkpt>
            <trkpt lon="101.194598" lat="14.307321">
                <ele>60.700000</ele>
                <time>2018-10-20T08:25:16Z</time>
            </trkpt>
            <trkpt lon="101.194611" lat="14.307316">
                <ele>60.700000</ele>
                <time>2018-10-20T08:25:17Z</time>
            </trkpt>
            <trkpt lon="101.194660" lat="14.307319">
                <ele>60.800000</ele>
                <time>2018-10-20T08:25:23Z</time>
            </trkpt>
            <trkpt lon="101.194692" lat="14.307294">
                <ele>60.900000</ele>
                <time>2018-10-20T08:25:31Z</time>
            </trkpt>
            <trkpt lon="101.194704" lat="14.307291">
                <ele>61.000000</ele>
                <time>2018-10-20T08:25:32Z</time>
            </trkpt>
            <trkpt lon="101.194772" lat="14.307253">
                <ele>60.700000</ele>
                <time>2018-10-20T08:25:38Z</time>
            </trkpt>
            <trkpt lon="101.194785" lat="14.307231">
                <ele>60.600000</ele>
                <time>2018-10-20T08:25:41Z</time>
            </trkpt>
            <trkpt lon="101.194794" lat="14.307220">
                <ele>60.500000</ele>
                <time>2018-10-20T08:25:44Z</time>
            </trkpt>
            <trkpt lon="101.194827" lat="14.307162">
                <ele>60.100000</ele>
                <time>2018-10-20T08:25:49Z</time>
            </trkpt>
            <trkpt lon="101.194873" lat="14.307071">
                <ele>59.300000</ele>
                <time>2018-10-20T08:25:55Z</time>
            </trkpt>
            <trkpt lon="101.194920" lat="14.306968">
                <ele>57.400000</ele>
                <time>2018-10-20T08:26:02Z</time>
            </trkpt>
            <trkpt lon="101.194945" lat="14.306898">
                <ele>55.900000</ele>
                <time>2018-10-20T08:26:11Z</time>
            </trkpt>
            <trkpt lon="101.194965" lat="14.306866">
                <ele>55.200000</ele>
                <time>2018-10-20T08:26:20Z</time>
            </trkpt>
            <trkpt lon="101.194994" lat="14.306824">
                <ele>54.600000</ele>
                <time>2018-10-20T08:26:28Z</time>
            </trkpt>
            <trkpt lon="101.195020" lat="14.306789">
                <ele>53.700000</ele>
                <time>2018-10-20T08:26:36Z</time>
            </trkpt>
            <trkpt lon="101.195033" lat="14.306779">
                <ele>53.000000</ele>
                <time>2018-10-20T08:26:37Z</time>
            </trkpt>
            <trkpt lon="101.195042" lat="14.306770">
                <ele>52.500000</ele>
                <time>2018-10-20T08:26:42Z</time>
            </trkpt>
            <trkpt lon="101.195084" lat="14.306770">
                <ele>50.800000</ele>
                <time>2018-10-20T08:26:46Z</time>
            </trkpt>
            <trkpt lon="101.195134" lat="14.306773">
                <ele>49.300000</ele>
                <time>2018-10-20T08:26:48Z</time>
            </trkpt>
            <trkpt lon="101.195221" lat="14.306748">
                <ele>47.400000</ele>
                <time>2018-10-20T08:26:52Z</time>
            </trkpt>
            <trkpt lon="101.195241" lat="14.306740">
                <ele>47.200000</ele>
                <time>2018-10-20T08:26:53Z</time>
            </trkpt>
            <trkpt lon="101.195286" lat="14.306718">
                <ele>46.700000</ele>
                <time>2018-10-20T08:26:56Z</time>
            </trkpt>
            <trkpt lon="101.195312" lat="14.306696">
                <ele>46.100000</ele>
                <time>2018-10-20T08:26:59Z</time>
            </trkpt>
            <trkpt lon="101.195341" lat="14.306659">
                <ele>45.200000</ele>
                <time>2018-10-20T08:27:08Z</time>
            </trkpt>
            <trkpt lon="101.195403" lat="14.306605">
                <ele>44.200000</ele>
                <time>2018-10-20T08:27:15Z</time>
            </trkpt>
            <trkpt lon="101.195440" lat="14.306549">
                <ele>44.000000</ele>
                <time>2018-10-20T08:27:22Z</time>
            </trkpt>
            <trkpt lon="101.195453" lat="14.306522">
                <ele>44.100000</ele>
                <time>2018-10-20T08:27:24Z</time>
            </trkpt>
            <trkpt lon="101.195474" lat="14.306449">
                <ele>44.200000</ele>
                <time>2018-10-20T08:27:30Z</time>
            </trkpt>
            <trkpt lon="101.195503" lat="14.306400">
                <ele>44.400000</ele>
                <time>2018-10-20T08:27:37Z</time>
            </trkpt>
            <trkpt lon="101.195524" lat="14.306393">
                <ele>44.500000</ele>
                <time>2018-10-20T08:27:40Z</time>
            </trkpt>
            <trkpt lon="101.195539" lat="14.306386">
                <ele>44.700000</ele>
                <time>2018-10-20T08:27:43Z</time>
            </trkpt>
            <trkpt lon="101.195597" lat="14.306368">
                <ele>45.300000</ele>
                <time>2018-10-20T08:27:49Z</time>
            </trkpt>
            <trkpt lon="101.195691" lat="14.306278">
                <ele>46.300000</ele>
                <time>2018-10-20T08:27:55Z</time>
            </trkpt>
            <trkpt lon="101.195702" lat="14.306262">
                <ele>46.200000</ele>
                <time>2018-10-20T08:27:56Z</time>
            </trkpt>
            <trkpt lon="101.195735" lat="14.306199">
                <ele>46.300000</ele>
                <time>2018-10-20T08:28:00Z</time>
            </trkpt>
            <trkpt lon="101.195763" lat="14.306109">
                <ele>46.800000</ele>
                <time>2018-10-20T08:28:07Z</time>
            </trkpt>
            <trkpt lon="101.195784" lat="14.306037">
                <ele>47.000000</ele>
                <time>2018-10-20T08:28:13Z</time>
            </trkpt>
            <trkpt lon="101.195793" lat="14.306024">
                <ele>47.000000</ele>
                <time>2018-10-20T08:28:14Z</time>
            </trkpt>
            <trkpt lon="101.195822" lat="14.305971">
                <ele>46.900000</ele>
                <time>2018-10-20T08:28:18Z</time>
            </trkpt>
            <trkpt lon="101.195823" lat="14.305943">
                <ele>47.000000</ele>
                <time>2018-10-20T08:28:20Z</time>
            </trkpt>
            <trkpt lon="101.195823" lat="14.305874">
                <ele>47.000000</ele>
                <time>2018-10-20T08:28:24Z</time>
            </trkpt>
            <trkpt lon="101.195811" lat="14.305823">
                <ele>46.800000</ele>
                <time>2018-10-20T08:28:27Z</time>
            </trkpt>
            <trkpt lon="101.195805" lat="14.305720">
                <ele>45.900000</ele>
                <time>2018-10-20T08:28:34Z</time>
            </trkpt>
            <trkpt lon="101.195807" lat="14.305713">
                <ele>45.900000</ele>
                <time>2018-10-20T08:28:42Z</time>
            </trkpt>
            <trkpt lon="101.195819" lat="14.305653">
                <ele>45.600000</ele>
                <time>2018-10-20T08:28:51Z</time>
            </trkpt>
            <trkpt lon="101.195825" lat="14.305514">
                <ele>45.000000</ele>
                <time>2018-10-20T08:28:59Z</time>
            </trkpt>
            <trkpt lon="101.195846" lat="14.305425">
                <ele>44.500000</ele>
                <time>2018-10-20T08:29:05Z</time>
            </trkpt>
            <trkpt lon="101.195885" lat="14.305398">
                <ele>44.600000</ele>
                <time>2018-10-20T08:29:13Z</time>
            </trkpt>
            <trkpt lon="101.196021" lat="14.305354">
                <ele>44.700000</ele>
                <time>2018-10-20T08:29:18Z</time>
            </trkpt>
            <trkpt lon="101.196145" lat="14.305350">
                <ele>43.700000</ele>
                <time>2018-10-20T08:29:23Z</time>
            </trkpt>
            <trkpt lon="101.196270" lat="14.305371">
                <ele>42.400000</ele>
                <time>2018-10-20T08:29:29Z</time>
            </trkpt>
            <trkpt lon="101.196274" lat="14.305370">
                <ele>42.400000</ele>
                <time>2018-10-20T08:29:33Z</time>
            </trkpt>
            <trkpt lon="101.196277" lat="14.305368">
                <ele>42.300000</ele>
                <time>2018-10-20T08:29:34Z</time>
            </trkpt>
            <trkpt lon="101.196302" lat="14.305360">
                <ele>42.000000</ele>
                <time>2018-10-20T08:29:36Z</time>
            </trkpt>
            <trkpt lon="101.196311" lat="14.305359">
                <ele>41.900000</ele>
                <time>2018-10-20T08:29:37Z</time>
            </trkpt>
            <trkpt lon="101.196373" lat="14.305356">
                <ele>41.100000</ele>
                <time>2018-10-20T08:29:43Z</time>
            </trkpt>
            <trkpt lon="101.196373" lat="14.305356">
                <ele>41.100000</ele>
                <time>2018-10-20T08:29:46Z</time>
            </trkpt>
            <trkpt lon="101.196386" lat="14.305353">
                <ele>40.900000</ele>
                <time>2018-10-20T08:29:50Z</time>
            </trkpt>
            <trkpt lon="101.196396" lat="14.305354">
                <ele>40.800000</ele>
                <time>2018-10-20T08:29:51Z</time>
            </trkpt>
            <trkpt lon="101.196519" lat="14.305354">
                <ele>38.100000</ele>
                <time>2018-10-20T08:29:56Z</time>
            </trkpt>
            <trkpt lon="101.196549" lat="14.305353">
                <ele>37.600000</ele>
                <time>2018-10-20T08:29:57Z</time>
            </trkpt>
            <trkpt lon="101.196618" lat="14.305351">
                <ele>36.300000</ele>
                <time>2018-10-20T08:30:00Z</time>
            </trkpt>
            <trkpt lon="101.196709" lat="14.305357">
                <ele>34.900000</ele>
                <time>2018-10-20T08:30:04Z</time>
            </trkpt>
            <trkpt lon="101.196778" lat="14.305366">
                <ele>34.000000</ele>
                <time>2018-10-20T08:30:07Z</time>
            </trkpt>
            <trkpt lon="101.196935" lat="14.305387">
                <ele>32.900000</ele>
                <time>2018-10-20T08:30:14Z</time>
            </trkpt>
            <trkpt lon="101.196993" lat="14.305391">
                <ele>32.800000</ele>
                <time>2018-10-20T08:30:16Z</time>
            </trkpt>
            <trkpt lon="101.197111" lat="14.305395">
                <ele>33.200000</ele>
                <time>2018-10-20T08:30:20Z</time>
            </trkpt>
            <trkpt lon="101.197161" lat="14.305394">
                <ele>33.400000</ele>
                <time>2018-10-20T08:30:23Z</time>
            </trkpt>
            <trkpt lon="101.197197" lat="14.305394">
                <ele>33.500000</ele>
                <time>2018-10-20T08:30:25Z</time>
            </trkpt>
            <trkpt lon="101.197338" lat="14.305390">
                <ele>34.200000</ele>
                <time>2018-10-20T08:30:31Z</time>
            </trkpt>
            <trkpt lon="101.197361" lat="14.305386">
                <ele>34.300000</ele>
                <time>2018-10-20T08:30:32Z</time>
            </trkpt>
            <trkpt lon="101.197431" lat="14.305379">
                <ele>34.500000</ele>
                <time>2018-10-20T08:30:37Z</time>
            </trkpt>
            <trkpt lon="101.197431" lat="14.305379">
                <ele>34.500000</ele>
                <time>2018-10-20T08:30:38Z</time>
            </trkpt>
            <trkpt lon="101.197437" lat="14.305380">
                <ele>34.500000</ele>
                <time>2018-10-20T08:30:43Z</time>
            </trkpt>
            <trkpt lon="101.197486" lat="14.305373">
                <ele>34.400000</ele>
                <time>2018-10-20T08:30:47Z</time>
            </trkpt>
            <trkpt lon="101.197513" lat="14.305370">
                <ele>34.400000</ele>
                <time>2018-10-20T08:30:50Z</time>
            </trkpt>
            <trkpt lon="101.197568" lat="14.305372">
                <ele>34.200000</ele>
                <time>2018-10-20T08:30:55Z</time>
            </trkpt>
            <trkpt lon="101.197587" lat="14.305368">
                <ele>34.100000</ele>
                <time>2018-10-20T08:30:58Z</time>
            </trkpt>
            <trkpt lon="101.197592" lat="14.305367">
                <ele>34.000000</ele>
                <time>2018-10-20T08:31:03Z</time>
            </trkpt>
            <trkpt lon="101.197604" lat="14.305364">
                <ele>34.000000</ele>
                <time>2018-10-20T08:31:04Z</time>
            </trkpt>
            <trkpt lon="101.197726" lat="14.305352">
                <ele>33.500000</ele>
                <time>2018-10-20T08:31:10Z</time>
            </trkpt>
            <trkpt lon="101.197770" lat="14.305347">
                <ele>33.300000</ele>
                <time>2018-10-20T08:31:12Z</time>
            </trkpt>
            <trkpt lon="101.197882" lat="14.305358">
                <ele>33.000000</ele>
                <time>2018-10-20T08:31:17Z</time>
            </trkpt>
            <trkpt lon="101.197957" lat="14.305359">
                <ele>32.900000</ele>
                <time>2018-10-20T08:31:20Z</time>
            </trkpt>
            <trkpt lon="101.198086" lat="14.305389">
                <ele>33.000000</ele>
                <time>2018-10-20T08:31:25Z</time>
            </trkpt>
            <trkpt lon="101.198168" lat="14.305386">
                <ele>33.200000</ele>
                <time>2018-10-20T08:31:29Z</time>
            </trkpt>
            <trkpt lon="101.198185" lat="14.305387">
                <ele>33.300000</ele>
                <time>2018-10-20T08:31:30Z</time>
            </trkpt>
            <trkpt lon="101.198205" lat="14.305386">
                <ele>33.400000</ele>
                <time>2018-10-20T08:31:35Z</time>
            </trkpt>
            <trkpt lon="101.198205" lat="14.305386">
                <ele>33.400000</ele>
                <time>2018-10-20T08:31:43Z</time>
            </trkpt>
            <trkpt lon="101.198205" lat="14.305386">
                <ele>33.400000</ele>
                <time>2018-10-20T08:31:49Z</time>
            </trkpt>
            <trkpt lon="101.198222" lat="14.305403">
                <ele>33.500000</ele>
                <time>2018-10-20T08:31:54Z</time>
            </trkpt>
            <trkpt lon="101.198224" lat="14.305414">
                <ele>33.500000</ele>
                <time>2018-10-20T08:31:59Z</time>
            </trkpt>
            <trkpt lon="101.198236" lat="14.305414">
                <ele>33.600000</ele>
                <time>2018-10-20T08:32:17Z</time>
            </trkpt>
            <trkpt lon="101.198246" lat="14.305414">
                <ele>33.600000</ele>
                <time>2018-10-20T08:32:18Z</time>
            </trkpt>
            <trkpt lon="101.198275" lat="14.305412">
                <ele>33.600000</ele>
                <time>2018-10-20T08:32:24Z</time>
            </trkpt>
            <trkpt lon="101.198275" lat="14.305412">
                <ele>33.600000</ele>
                <time>2018-10-20T08:32:32Z</time>
            </trkpt>
            <trkpt lon="101.198292" lat="14.305403">
                <ele>33.700000</ele>
                <time>2018-10-20T08:32:36Z</time>
            </trkpt>
            <trkpt lon="101.198312" lat="14.305371">
                <ele>33.700000</ele>
                <time>2018-10-20T08:32:44Z</time>
            </trkpt>
            <trkpt lon="101.198352" lat="14.305249">
                <ele>33.500000</ele>
                <time>2018-10-20T08:32:50Z</time>
            </trkpt>
            <trkpt lon="101.198368" lat="14.305173">
                <ele>33.400000</ele>
                <time>2018-10-20T08:32:53Z</time>
            </trkpt>
            <trkpt lon="101.198378" lat="14.305052">
                <ele>33.200000</ele>
                <time>2018-10-20T08:32:58Z</time>
            </trkpt>
            <trkpt lon="101.198380" lat="14.305029">
                <ele>33.200000</ele>
                <time>2018-10-20T08:32:59Z</time>
            </trkpt>
            <trkpt lon="101.198400" lat="14.304871">
                <ele>33.000000</ele>
                <time>2018-10-20T08:33:06Z</time>
            </trkpt>
            <trkpt lon="101.198411" lat="14.304809">
                <ele>32.900000</ele>
                <time>2018-10-20T08:33:09Z</time>
            </trkpt>
            <trkpt lon="101.198423" lat="14.304637">
                <ele>32.700000</ele>
                <time>2018-10-20T08:33:17Z</time>
            </trkpt>
            <trkpt lon="101.198431" lat="14.304576">
                <ele>32.600000</ele>
                <time>2018-10-20T08:33:20Z</time>
            </trkpt>
            <trkpt lon="101.198443" lat="14.304441">
                <ele>33.500000</ele>
                <time>2018-10-20T08:33:27Z</time>
            </trkpt>
            <trkpt lon="101.198457" lat="14.304350">
                <ele>33.900000</ele>
                <time>2018-10-20T08:33:32Z</time>
            </trkpt>
            <trkpt lon="101.198465" lat="14.304267">
                <ele>34.300000</ele>
                <time>2018-10-20T08:33:36Z</time>
            </trkpt>
            <trkpt lon="101.198524" lat="14.304095">
                <ele>34.900000</ele>
                <time>2018-10-20T08:33:43Z</time>
            </trkpt>
            <trkpt lon="101.198538" lat="14.304073">
                <ele>34.900000</ele>
                <time>2018-10-20T08:33:44Z</time>
            </trkpt>
            <trkpt lon="101.198657" lat="14.303964">
                <ele>35.200000</ele>
                <time>2018-10-20T08:33:50Z</time>
            </trkpt>
            <trkpt lon="101.198870" lat="14.303824">
                <ele>35.400000</ele>
                <time>2018-10-20T08:33:58Z</time>
            </trkpt>
            <trkpt lon="101.199098" lat="14.303713">
                <ele>35.300000</ele>
                <time>2018-10-20T08:34:06Z</time>
            </trkpt>
            <trkpt lon="101.199244" lat="14.303644">
                <ele>35.200000</ele>
                <time>2018-10-20T08:34:11Z</time>
            </trkpt>
            <trkpt lon="101.199400" lat="14.303586">
                <ele>34.900000</ele>
                <time>2018-10-20T08:34:15Z</time>
            </trkpt>
            <trkpt lon="101.199696" lat="14.303446">
                <ele>33.500000</ele>
                <time>2018-10-20T08:34:21Z</time>
            </trkpt>
            <trkpt lon="101.199868" lat="14.303355">
                <ele>32.700000</ele>
                <time>2018-10-20T08:34:24Z</time>
            </trkpt>
            <trkpt lon="101.200055" lat="14.303262">
                <ele>32.100000</ele>
                <time>2018-10-20T08:34:27Z</time>
            </trkpt>
            <trkpt lon="101.200326" lat="14.303161">
                <ele>31.500000</ele>
                <time>2018-10-20T08:34:31Z</time>
            </trkpt>
            <trkpt lon="101.200461" lat="14.303117">
                <ele>31.400000</ele>
                <time>2018-10-20T08:34:33Z</time>
            </trkpt>
            <trkpt lon="101.200725" lat="14.303031">
                <ele>31.200000</ele>
                <time>2018-10-20T08:34:37Z</time>
            </trkpt>
            <trkpt lon="101.200972" lat="14.302951">
                <ele>31.200000</ele>
                <time>2018-10-20T08:34:41Z</time>
            </trkpt>
            <trkpt lon="101.201285" lat="14.302822">
                <ele>31.400000</ele>
                <time>2018-10-20T08:34:47Z</time>
            </trkpt>
            <trkpt lon="101.201579" lat="14.302711">
                <ele>31.400000</ele>
                <time>2018-10-20T08:34:53Z</time>
            </trkpt>
            <trkpt lon="101.201626" lat="14.302707">
                <ele>31.400000</ele>
                <time>2018-10-20T08:34:54Z</time>
            </trkpt>
            <trkpt lon="101.201818" lat="14.302753">
                <ele>31.200000</ele>
                <time>2018-10-20T08:34:58Z</time>
            </trkpt>
            <trkpt lon="101.201867" lat="14.302769">
                <ele>31.100000</ele>
                <time>2018-10-20T08:35:00Z</time>
            </trkpt>
            <trkpt lon="101.202072" lat="14.302801">
                <ele>30.800000</ele>
                <time>2018-10-20T08:35:04Z</time>
            </trkpt>
            <trkpt lon="101.202124" lat="14.302800">
                <ele>30.700000</ele>
                <time>2018-10-20T08:35:05Z</time>
            </trkpt>
            <trkpt lon="101.202230" lat="14.302798">
                <ele>30.500000</ele>
                <time>2018-10-20T08:35:07Z</time>
            </trkpt>
            <trkpt lon="101.202484" lat="14.302746">
                <ele>30.200000</ele>
                <time>2018-10-20T08:35:12Z</time>
            </trkpt>
            <trkpt lon="101.202777" lat="14.302626">
                <ele>30.100000</ele>
                <time>2018-10-20T08:35:19Z</time>
            </trkpt>
            <trkpt lon="101.203048" lat="14.302512">
                <ele>30.200000</ele>
                <time>2018-10-20T08:35:26Z</time>
            </trkpt>
            <trkpt lon="101.203222" lat="14.302451">
                <ele>30.300000</ele>
                <time>2018-10-20T08:35:30Z</time>
            </trkpt>
            <trkpt lon="101.203444" lat="14.302358">
                <ele>30.300000</ele>
                <time>2018-10-20T08:35:35Z</time>
            </trkpt>
            <trkpt lon="101.203878" lat="14.302216">
                <ele>30.200000</ele>
                <time>2018-10-20T08:35:45Z</time>
            </trkpt>
            <trkpt lon="101.204109" lat="14.302186">
                <ele>30.000000</ele>
                <time>2018-10-20T08:35:51Z</time>
            </trkpt>
            <trkpt lon="101.204317" lat="14.302140">
                <ele>30.100000</ele>
                <time>2018-10-20T08:35:56Z</time>
            </trkpt>
            <trkpt lon="101.204402" lat="14.302117">
                <ele>30.100000</ele>
                <time>2018-10-20T08:35:58Z</time>
            </trkpt>
            <trkpt lon="101.204485" lat="14.302086">
                <ele>30.300000</ele>
                <time>2018-10-20T08:36:00Z</time>
            </trkpt>
            <trkpt lon="101.204568" lat="14.302053">
                <ele>30.400000</ele>
                <time>2018-10-20T08:36:02Z</time>
            </trkpt>
            <trkpt lon="101.204651" lat="14.302013">
                <ele>30.600000</ele>
                <time>2018-10-20T08:36:04Z</time>
            </trkpt>
            <trkpt lon="101.204794" lat="14.301933">
                <ele>31.200000</ele>
                <time>2018-10-20T08:36:08Z</time>
            </trkpt>
            <trkpt lon="101.205022" lat="14.301824">
                <ele>32.000000</ele>
                <time>2018-10-20T08:36:15Z</time>
            </trkpt>
            <trkpt lon="101.205316" lat="14.301687">
                <ele>31.500000</ele>
                <time>2018-10-20T08:36:23Z</time>
            </trkpt>
            <trkpt lon="101.205606" lat="14.301468">
                <ele>30.600000</ele>
                <time>2018-10-20T08:36:30Z</time>
            </trkpt>
            <trkpt lon="101.205855" lat="14.301271">
                <ele>30.500000</ele>
                <time>2018-10-20T08:36:37Z</time>
            </trkpt>
            <trkpt lon="101.205892" lat="14.301241">
                <ele>30.500000</ele>
                <time>2018-10-20T08:36:39Z</time>
            </trkpt>
            <trkpt lon="101.205885" lat="14.301229">
                <ele>30.500000</ele>
                <time>2018-10-20T08:36:40Z</time>
            </trkpt>
            <trkpt lon="101.205844" lat="14.301251">
                <ele>30.500000</ele>
                <time>2018-10-20T08:36:43Z</time>
            </trkpt>
            <trkpt lon="101.205830" lat="14.301262">
                <ele>30.500000</ele>
                <time>2018-10-20T08:36:44Z</time>
            </trkpt>
            <trkpt lon="101.205741" lat="14.301305">
                <ele>30.400000</ele>
                <time>2018-10-20T08:36:49Z</time>
            </trkpt>
            <trkpt lon="101.205723" lat="14.301295">
                <ele>30.400000</ele>
                <time>2018-10-20T08:36:50Z</time>
            </trkpt>
            <trkpt lon="101.205713" lat="14.301285">
                <ele>30.400000</ele>
                <time>2018-10-20T08:36:54Z</time>
            </trkpt>
            <trkpt lon="101.205713" lat="14.301285">
                <ele>30.400000</ele>
                <time>2018-10-20T08:37:11Z</time>
            </trkpt>
            <trkpt lon="101.205713" lat="14.301285">
                <ele>30.400000</ele>
                <time>2018-10-20T08:37:24Z</time>
            </trkpt>
            <trkpt lon="101.205670" lat="14.301238">
                <ele>30.400000</ele>
                <time>2018-10-20T08:37:29Z</time>
            </trkpt>
            <trkpt lon="101.205629" lat="14.301219">
                <ele>30.400000</ele>
                <time>2018-10-20T08:37:31Z</time>
            </trkpt>
            <trkpt lon="101.205520" lat="14.301168">
                <ele>30.000000</ele>
                <time>2018-10-20T08:37:35Z</time>
            </trkpt>
            <trkpt lon="101.205427" lat="14.301044">
                <ele>30.100000</ele>
                <time>2018-10-20T08:37:41Z</time>
            </trkpt>
            <trkpt lon="101.205416" lat="14.301019">
                <ele>30.100000</ele>
                <time>2018-10-20T08:37:42Z</time>
            </trkpt>
            <trkpt lon="101.205399" lat="14.300960">
                <ele>30.200000</ele>
                <time>2018-10-20T08:37:44Z</time>
            </trkpt>
            <trkpt lon="101.205400" lat="14.300846">
                <ele>30.800000</ele>
                <time>2018-10-20T08:37:48Z</time>
            </trkpt>
            <trkpt lon="101.205406" lat="14.300746">
                <ele>30.500000</ele>
                <time>2018-10-20T08:37:52Z</time>
            </trkpt>
            <trkpt lon="101.205301" lat="14.300642">
                <ele>30.500000</ele>
                <time>2018-10-20T08:37:56Z</time>
            </trkpt>
            <trkpt lon="101.205259" lat="14.300575">
                <ele>30.100000</ele>
                <time>2018-10-20T08:37:58Z</time>
            </trkpt>
            <trkpt lon="101.205177" lat="14.300430">
                <ele>30.200000</ele>
                <time>2018-10-20T08:38:02Z</time>
            </trkpt>
            <trkpt lon="101.205113" lat="14.300201">
                <ele>30.000000</ele>
                <time>2018-10-20T08:38:08Z</time>
            </trkpt>
            <trkpt lon="101.205107" lat="14.300163">
                <ele>30.000000</ele>
                <time>2018-10-20T08:38:09Z</time>
            </trkpt>
            <trkpt lon="101.205053" lat="14.299943">
                <ele>29.900000</ele>
                <time>2018-10-20T08:38:16Z</time>
            </trkpt>
            <trkpt lon="101.205114" lat="14.299751">
                <ele>30.200000</ele>
                <time>2018-10-20T08:38:22Z</time>
            </trkpt>
            <trkpt lon="101.205243" lat="14.299542">
                <ele>28.800000</ele>
                <time>2018-10-20T08:38:29Z</time>
            </trkpt>
            <trkpt lon="101.205328" lat="14.299333">
                <ele>26.600000</ele>
                <time>2018-10-20T08:38:35Z</time>
            </trkpt>
            <trkpt lon="101.205370" lat="14.299142">
                <ele>25.400000</ele>
                <time>2018-10-20T08:38:41Z</time>
            </trkpt>
            <trkpt lon="101.205415" lat="14.298899">
                <ele>26.000000</ele>
                <time>2018-10-20T08:38:48Z</time>
            </trkpt>
            <trkpt lon="101.205450" lat="14.298806">
                <ele>25.800000</ele>
                <time>2018-10-20T08:38:51Z</time>
            </trkpt>
            <trkpt lon="101.205524" lat="14.298664">
                <ele>25.600000</ele>
                <time>2018-10-20T08:38:56Z</time>
            </trkpt>
            <trkpt lon="101.205685" lat="14.298518">
                <ele>26.000000</ele>
                <time>2018-10-20T08:39:02Z</time>
            </trkpt>
            <trkpt lon="101.205857" lat="14.298478">
                <ele>26.700000</ele>
                <time>2018-10-20T08:39:07Z</time>
            </trkpt>
            <trkpt lon="101.205979" lat="14.298575">
                <ele>28.000000</ele>
                <time>2018-10-20T08:39:12Z</time>
            </trkpt>
            <trkpt lon="101.206043" lat="14.298706">
                <ele>29.000000</ele>
                <time>2018-10-20T08:39:17Z</time>
            </trkpt>
            <trkpt lon="101.206139" lat="14.298886">
                <ele>29.800000</ele>
                <time>2018-10-20T08:39:24Z</time>
            </trkpt>
            <trkpt lon="101.206203" lat="14.299095">
                <ele>29.800000</ele>
                <time>2018-10-20T08:39:33Z</time>
            </trkpt>
            <trkpt lon="101.206191" lat="14.299082">
                <ele>29.800000</ele>
                <time>2018-10-20T08:39:35Z</time>
            </trkpt>
            <trkpt lon="101.206188" lat="14.299044">
                <ele>29.800000</ele>
                <time>2018-10-20T08:39:37Z</time>
            </trkpt>
            <trkpt lon="101.206146" lat="14.298909">
                <ele>29.800000</ele>
                <time>2018-10-20T08:39:42Z</time>
            </trkpt>
            <trkpt lon="101.206054" lat="14.298751">
                <ele>29.500000</ele>
                <time>2018-10-20T08:39:48Z</time>
            </trkpt>
            <trkpt lon="101.205986" lat="14.298603">
                <ele>28.200000</ele>
                <time>2018-10-20T08:39:54Z</time>
            </trkpt>
            <trkpt lon="101.205976" lat="14.298576">
                <ele>28.200000</ele>
                <time>2018-10-20T08:39:56Z</time>
            </trkpt>
            <trkpt lon="101.205999" lat="14.298571">
                <ele>28.300000</ele>
                <time>2018-10-20T08:39:58Z</time>
            </trkpt>
            <trkpt lon="101.206055" lat="14.298590">
                <ele>28.300000</ele>
                <time>2018-10-20T08:40:00Z</time>
            </trkpt>
            <trkpt lon="101.206121" lat="14.298599">
                <ele>27.700000</ele>
                <time>2018-10-20T08:40:02Z</time>
            </trkpt>
            <trkpt lon="101.206209" lat="14.298560">
                <ele>27.600000</ele>
                <time>2018-10-20T08:40:06Z</time>
            </trkpt>
            <trkpt lon="101.206245" lat="14.298491">
                <ele>27.300000</ele>
                <time>2018-10-20T08:40:10Z</time>
            </trkpt>
            <trkpt lon="101.206270" lat="14.298439">
                <ele>26.700000</ele>
                <time>2018-10-20T08:40:12Z</time>
            </trkpt>
            <trkpt lon="101.206393" lat="14.298344">
                <ele>25.500000</ele>
                <time>2018-10-20T08:40:17Z</time>
            </trkpt>
            <trkpt lon="101.206554" lat="14.298367">
                <ele>25.100000</ele>
                <time>2018-10-20T08:40:22Z</time>
            </trkpt>
            <trkpt lon="101.206751" lat="14.298463">
                <ele>26.500000</ele>
                <time>2018-10-20T08:40:29Z</time>
            </trkpt>
            <trkpt lon="101.206802" lat="14.298495">
                <ele>27.100000</ele>
                <time>2018-10-20T08:40:31Z</time>
            </trkpt>
            <trkpt lon="101.206979" lat="14.298556">
                <ele>27.800000</ele>
                <time>2018-10-20T08:40:37Z</time>
            </trkpt>
            <trkpt lon="101.207163" lat="14.298505">
                <ele>26.700000</ele>
                <time>2018-10-20T08:40:43Z</time>
            </trkpt>
            <trkpt lon="101.207247" lat="14.298390">
                <ele>26.100000</ele>
                <time>2018-10-20T08:40:48Z</time>
            </trkpt>
            <trkpt lon="101.207250" lat="14.298188">
                <ele>25.900000</ele>
                <time>2018-10-20T08:40:54Z</time>
            </trkpt>
            <trkpt lon="101.207243" lat="14.297976">
                <ele>25.000000</ele>
                <time>2018-10-20T08:41:01Z</time>
            </trkpt>
            <trkpt lon="101.207238" lat="14.297733">
                <ele>25.000000</ele>
                <time>2018-10-20T08:41:09Z</time>
            </trkpt>
            <trkpt lon="101.207253" lat="14.297446">
                <ele>25.400000</ele>
                <time>2018-10-20T08:41:17Z</time>
            </trkpt>
            <trkpt lon="101.207280" lat="14.297108">
                <ele>26.000000</ele>
                <time>2018-10-20T08:41:26Z</time>
            </trkpt>
            <trkpt lon="101.207330" lat="14.297035">
                <ele>26.000000</ele>
                <time>2018-10-20T08:41:29Z</time>
            </trkpt>
            <trkpt lon="101.207356" lat="14.297036">
                <ele>26.000000</ele>
                <time>2018-10-20T08:41:30Z</time>
            </trkpt>
            <trkpt lon="101.207418" lat="14.297084">
                <ele>26.000000</ele>
                <time>2018-10-20T08:41:33Z</time>
            </trkpt>
            <trkpt lon="101.207442" lat="14.297103">
                <ele>26.000000</ele>
                <time>2018-10-20T08:41:34Z</time>
            </trkpt>
            <trkpt lon="101.207652" lat="14.297247">
                <ele>26.100000</ele>
                <time>2018-10-20T08:41:41Z</time>
            </trkpt>
            <trkpt lon="101.207894" lat="14.297412">
                <ele>26.100000</ele>
                <time>2018-10-20T08:41:49Z</time>
            </trkpt>
            <trkpt lon="101.208059" lat="14.297615">
                <ele>26.100000</ele>
                <time>2018-10-20T08:41:56Z</time>
            </trkpt>
            <trkpt lon="101.208079" lat="14.297647">
                <ele>26.200000</ele>
                <time>2018-10-20T08:41:57Z</time>
            </trkpt>
            <trkpt lon="101.208207" lat="14.297892">
                <ele>26.200000</ele>
                <time>2018-10-20T08:42:04Z</time>
            </trkpt>
            <trkpt lon="101.208271" lat="14.298134">
                <ele>26.200000</ele>
                <time>2018-10-20T08:42:11Z</time>
            </trkpt>
            <trkpt lon="101.208187" lat="14.298161">
                <ele>26.200000</ele>
                <time>2018-10-20T08:42:14Z</time>
            </trkpt>
            <trkpt lon="101.208160" lat="14.298165">
                <ele>26.200000</ele>
                <time>2018-10-20T08:42:15Z</time>
            </trkpt>
            <trkpt lon="101.208089" lat="14.298158">
                <ele>26.300000</ele>
                <time>2018-10-20T08:42:20Z</time>
            </trkpt>
            <trkpt lon="101.208102" lat="14.298149">
                <ele>26.300000</ele>
                <time>2018-10-20T08:42:25Z</time>
            </trkpt>
            <trkpt lon="101.208102" lat="14.298149">
                <ele>26.300000</ele>
                <time>2018-10-20T08:42:29Z</time>
            </trkpt>
            <trkpt lon="101.208102" lat="14.298149">
                <ele>26.300000</ele>
                <time>2018-10-20T08:42:37Z</time>
            </trkpt>
            <trkpt lon="101.208102" lat="14.298149">
                <ele>26.300000</ele>
                <time>2018-10-20T08:42:49Z</time>
            </trkpt>
            <trkpt lon="101.208102" lat="14.298149">
                <ele>26.300000</ele>
                <time>2018-10-20T08:43:01Z</time>
            </trkpt>
            <trkpt lon="101.208102" lat="14.298151">
                <ele>26.300000</ele>
                <time>2018-10-20T08:43:12Z</time>
            </trkpt>
            <trkpt lon="101.208102" lat="14.298151">
                <ele>26.300000</ele>
                <time>2018-10-20T08:43:14Z</time>
            </trkpt>
            <trkpt lon="101.208102" lat="14.298151">
                <ele>26.300000</ele>
                <time>2018-10-20T08:43:24Z</time>
            </trkpt>
            <trkpt lon="101.208102" lat="14.298151">
                <ele>26.300000</ele>
                <time>2018-10-20T08:43:26Z</time>
            </trkpt>
            <trkpt lon="101.208102" lat="14.298151">
                <ele>26.300000</ele>
                <time>2018-10-20T08:43:35Z</time>
            </trkpt>
            <trkpt lon="101.208103" lat="14.298150">
                <ele>26.300000</ele>
                <time>2018-10-20T08:43:46Z</time>
            </trkpt>
            <trkpt lon="101.208103" lat="14.298150">
                <ele>26.300000</ele>
                <time>2018-10-20T08:43:55Z</time>
            </trkpt>
            <trkpt lon="101.208103" lat="14.298150">
                <ele>26.300000</ele>
                <time>2018-10-20T08:43:58Z</time>
            </trkpt>
            <trkpt lon="101.208103" lat="14.298150">
                <ele>26.300000</ele>
                <time>2018-10-20T08:44:10Z</time>
            </trkpt>
            <trkpt lon="101.208103" lat="14.298150">
                <ele>26.300000</ele>
                <time>2018-10-20T08:44:12Z</time>
            </trkpt>
            <trkpt lon="101.208103" lat="14.298150">
                <ele>26.300000</ele>
                <time>2018-10-20T08:44:22Z</time>
            </trkpt>
            <trkpt lon="101.208102" lat="14.298155">
                <ele>26.300000</ele>
                <time>2018-10-20T08:44:33Z</time>
            </trkpt>
            <trkpt lon="101.208102" lat="14.298155">
                <ele>26.300000</ele>
                <time>2018-10-20T08:44:36Z</time>
            </trkpt>
            <trkpt lon="101.208102" lat="14.298155">
                <ele>26.300000</ele>
                <time>2018-10-20T08:44:42Z</time>
            </trkpt>
            <trkpt lon="101.208102" lat="14.298155">
                <ele>26.300000</ele>
                <time>2018-10-20T08:44:52Z</time>
            </trkpt>
            <trkpt lon="101.208102" lat="14.298155">
                <ele>26.300000</ele>
                <time>2018-10-20T08:44:57Z</time>
            </trkpt>
            <trkpt lon="101.208102" lat="14.298155">
                <ele>26.300000</ele>
                <time>2018-10-20T08:45:01Z</time>
            </trkpt>
            <trkpt lon="101.208107" lat="14.298161">
                <ele>26.300000</ele>
                <time>2018-10-20T08:45:11Z</time>
            </trkpt>
            <trkpt lon="101.208107" lat="14.298161">
                <ele>26.300000</ele>
                <time>2018-10-20T08:45:20Z</time>
            </trkpt>
            <trkpt lon="101.208107" lat="14.298161">
                <ele>26.300000</ele>
                <time>2018-10-20T08:45:22Z</time>
            </trkpt>
            <trkpt lon="101.208107" lat="14.298161">
                <ele>26.300000</ele>
                <time>2018-10-20T08:45:32Z</time>
            </trkpt>
            <trkpt lon="101.208107" lat="14.298161">
                <ele>26.300000</ele>
                <time>2018-10-20T08:45:40Z</time>
            </trkpt>
            <trkpt lon="101.208107" lat="14.298161">
                <ele>26.300000</ele>
                <time>2018-10-20T08:45:42Z</time>
            </trkpt>
            <trkpt lon="101.208107" lat="14.298164">
                <ele>26.300000</ele>
                <time>2018-10-20T08:45:51Z</time>
            </trkpt>
            <trkpt lon="101.208107" lat="14.298164">
                <ele>26.300000</ele>
                <time>2018-10-20T08:46:00Z</time>
            </trkpt>
            <trkpt lon="101.208107" lat="14.298164">
                <ele>26.300000</ele>
                <time>2018-10-20T08:46:03Z</time>
            </trkpt>
            <trkpt lon="101.208107" lat="14.298164">
                <ele>26.300000</ele>
                <time>2018-10-20T08:46:08Z</time>
            </trkpt>
            <trkpt lon="101.208107" lat="14.298164">
                <ele>26.300000</ele>
                <time>2018-10-20T08:46:09Z</time>
            </trkpt>
            <trkpt lon="101.208107" lat="14.298164">
                <ele>26.300000</ele>
                <time>2018-10-20T08:46:10Z</time>
            </trkpt>
            <trkpt lon="101.208107" lat="14.298164">
                <ele>26.300000</ele>
                <time>2018-10-20T08:46:11Z</time>
            </trkpt>
            <trkpt lon="101.208107" lat="14.298164">
                <ele>26.300000</ele>
                <time>2018-10-20T08:46:12Z</time>
            </trkpt>
            <trkpt lon="101.208107" lat="14.298164">
                <ele>26.300000</ele>
                <time>2018-10-20T08:46:13Z</time>
            </trkpt>
            <trkpt lon="101.208107" lat="14.298164">
                <ele>26.300000</ele>
                <time>2018-10-20T08:46:15Z</time>
            </trkpt>
            <trkpt lon="101.208107" lat="14.298164">
                <ele>26.300000</ele>
                <time>2018-10-20T08:46:21Z</time>
            </trkpt>
            <trkpt lon="101.208107" lat="14.298164">
                <ele>26.300000</ele>
                <time>2018-10-20T08:46:41Z</time>
            </trkpt>
            <trkpt lon="101.208107" lat="14.298164">
                <ele>26.300000</ele>
                <time>2018-10-20T08:46:56Z</time>
            </trkpt>
            <trkpt lon="101.208105" lat="14.298164">
                <ele>26.300000</ele>
                <time>2018-10-20T08:47:10Z</time>
            </trkpt>
            <trkpt lon="101.208108" lat="14.298165">
                <ele>26.300000</ele>
                <time>2018-10-20T08:47:35Z</time>
            </trkpt>
            <trkpt lon="101.208107" lat="14.298168">
                <ele>26.300000</ele>
                <time>2018-10-20T08:47:36Z</time>
            </trkpt>
            <trkpt lon="101.208118" lat="14.298165">
                <ele>26.300000</ele>
                <time>2018-10-20T08:47:41Z</time>
            </trkpt>
            <trkpt lon="101.208118" lat="14.298165">
                <ele>26.300000</ele>
                <time>2018-10-20T08:47:50Z</time>
            </trkpt>
            <trkpt lon="101.208118" lat="14.298165">
                <ele>26.300000</ele>
                <time>2018-10-20T08:48:03Z</time>
            </trkpt>
            <trkpt lon="101.208118" lat="14.298165">
                <ele>26.300000</ele>
                <time>2018-10-20T08:48:20Z</time>
            </trkpt>
            <trkpt lon="101.208118" lat="14.298168">
                <ele>26.300000</ele>
                <time>2018-10-20T08:48:28Z</time>
            </trkpt>
            <trkpt lon="101.208118" lat="14.298168">
                <ele>26.300000</ele>
                <time>2018-10-20T08:48:38Z</time>
            </trkpt>
            <trkpt lon="101.208118" lat="14.298168">
                <ele>26.300000</ele>
                <time>2018-10-20T08:48:47Z</time>
            </trkpt>
            <trkpt lon="101.208118" lat="14.298168">
                <ele>26.300000</ele>
                <time>2018-10-20T08:49:00Z</time>
            </trkpt>
            <trkpt lon="101.208119" lat="14.298170">
                <ele>26.300000</ele>
                <time>2018-10-20T08:49:23Z</time>
            </trkpt>
            <trkpt lon="101.208153" lat="14.298173">
                <ele>26.300000</ele>
                <time>2018-10-20T08:49:43Z</time>
            </trkpt>
            <trkpt lon="101.208246" lat="14.298144">
                <ele>26.300000</ele>
                <time>2018-10-20T08:49:48Z</time>
            </trkpt>
            <trkpt lon="101.208308" lat="14.298042">
                <ele>26.300000</ele>
                <time>2018-10-20T08:49:52Z</time>
            </trkpt>
            <trkpt lon="101.208284" lat="14.297941">
                <ele>26.300000</ele>
                <time>2018-10-20T08:49:55Z</time>
            </trkpt>
            <trkpt lon="101.208258" lat="14.297869">
                <ele>26.300000</ele>
                <time>2018-10-20T08:49:57Z</time>
            </trkpt>
            <trkpt lon="101.208107" lat="14.297586">
                <ele>26.400000</ele>
                <time>2018-10-20T08:50:05Z</time>
            </trkpt>
            <trkpt lon="101.207933" lat="14.297353">
                <ele>26.400000</ele>
                <time>2018-10-20T08:50:12Z</time>
            </trkpt>
            <trkpt lon="101.207898" lat="14.297326">
                <ele>26.400000</ele>
                <time>2018-10-20T08:50:13Z</time>
            </trkpt>
            <trkpt lon="101.207709" lat="14.297192">
                <ele>26.400000</ele>
                <time>2018-10-20T08:50:18Z</time>
            </trkpt>
            <trkpt lon="101.207410" lat="14.296985">
                <ele>26.000000</ele>
                <time>2018-10-20T08:50:26Z</time>
            </trkpt>
            <trkpt lon="101.207377" lat="14.296952">
                <ele>26.000000</ele>
                <time>2018-10-20T08:50:27Z</time>
            </trkpt>
            <trkpt lon="101.207269" lat="14.296782">
                <ele>26.200000</ele>
                <time>2018-10-20T08:50:31Z</time>
            </trkpt>
            <trkpt lon="101.207086" lat="14.296418">
                <ele>26.600000</ele>
                <time>2018-10-20T08:50:39Z</time>
            </trkpt>
            <trkpt lon="101.206838" lat="14.295903">
                <ele>27.100000</ele>
                <time>2018-10-20T08:50:50Z</time>
            </trkpt>
            <trkpt lon="101.206737" lat="14.295551">
                <ele>27.300000</ele>
                <time>2018-10-20T08:50:57Z</time>
            </trkpt>
            <trkpt lon="101.206725" lat="14.295184">
                <ele>27.700000</ele>
                <time>2018-10-20T08:51:04Z</time>
            </trkpt>
            <trkpt lon="101.206701" lat="14.295082">
                <ele>27.900000</ele>
                <time>2018-10-20T08:51:06Z</time>
            </trkpt>
            <trkpt lon="101.206633" lat="14.295005">
                <ele>28.200000</ele>
                <time>2018-10-20T08:51:08Z</time>
            </trkpt>
            <trkpt lon="101.206477" lat="14.294952">
                <ele>28.300000</ele>
                <time>2018-10-20T08:51:11Z</time>
            </trkpt>
            <trkpt lon="101.206424" lat="14.294938">
                <ele>28.100000</ele>
                <time>2018-10-20T08:51:12Z</time>
            </trkpt>
            <trkpt lon="101.205946" lat="14.294785">
                <ele>25.500000</ele>
                <time>2018-10-20T08:51:21Z</time>
            </trkpt>
            <trkpt lon="101.205512" lat="14.294651">
                <ele>26.100000</ele>
                <time>2018-10-20T08:51:30Z</time>
            </trkpt>
            <trkpt lon="101.205092" lat="14.294518">
                <ele>26.400000</ele>
                <time>2018-10-20T08:51:39Z</time>
            </trkpt>
            <trkpt lon="101.204774" lat="14.294419">
                <ele>26.100000</ele>
                <time>2018-10-20T08:51:46Z</time>
            </trkpt>
            <trkpt lon="101.204309" lat="14.294273">
                <ele>36.100000</ele>
                <time>2018-10-20T08:51:56Z</time>
            </trkpt>
            <trkpt lon="101.203974" lat="14.294175">
                <ele>38.100000</ele>
                <time>2018-10-20T08:52:04Z</time>
            </trkpt>
            <trkpt lon="101.203632" lat="14.294092">
                <ele>35.400000</ele>
                <time>2018-10-20T08:52:12Z</time>
            </trkpt>
            <trkpt lon="101.203587" lat="14.294085">
                <ele>35.500000</ele>
                <time>2018-10-20T08:52:13Z</time>
            </trkpt>
            <trkpt lon="101.203445" lat="14.294071">
                <ele>36.000000</ele>
                <time>2018-10-20T08:52:16Z</time>
            </trkpt>
            <trkpt lon="101.203296" lat="14.294058">
                <ele>35.100000</ele>
                <time>2018-10-20T08:52:19Z</time>
            </trkpt>
            <trkpt lon="101.202942" lat="14.294068">
                <ele>32.200000</ele>
                <time>2018-10-20T08:52:26Z</time>
            </trkpt>
            <trkpt lon="101.202463" lat="14.294096">
                <ele>27.600000</ele>
                <time>2018-10-20T08:52:36Z</time>
            </trkpt>
            <trkpt lon="101.202418" lat="14.294101">
                <ele>27.400000</ele>
                <time>2018-10-20T08:52:37Z</time>
            </trkpt>
            <trkpt lon="101.202240" lat="14.294112">
                <ele>28.000000</ele>
                <time>2018-10-20T08:52:41Z</time>
            </trkpt>
            <trkpt lon="101.202057" lat="14.294122">
                <ele>30.000000</ele>
                <time>2018-10-20T08:52:45Z</time>
            </trkpt>
            <trkpt lon="101.201586" lat="14.294152">
                <ele>28.100000</ele>
                <time>2018-10-20T08:52:55Z</time>
            </trkpt>
            <trkpt lon="101.201448" lat="14.294158">
                <ele>28.800000</ele>
                <time>2018-10-20T08:52:58Z</time>
            </trkpt>
            <trkpt lon="101.201108" lat="14.294152">
                <ele>30.000000</ele>
                <time>2018-10-20T08:53:06Z</time>
            </trkpt>
            <trkpt lon="101.200983" lat="14.294128">
                <ele>30.400000</ele>
                <time>2018-10-20T08:53:09Z</time>
            </trkpt>
            <trkpt lon="101.200871" lat="14.294068">
                <ele>30.700000</ele>
                <time>2018-10-20T08:53:12Z</time>
            </trkpt>
            <trkpt lon="101.200805" lat="14.293920">
                <ele>31.000000</ele>
                <time>2018-10-20T08:53:16Z</time>
            </trkpt>
            <trkpt lon="101.200789" lat="14.293830">
                <ele>31.200000</ele>
                <time>2018-10-20T08:53:18Z</time>
            </trkpt>
            <trkpt lon="101.200756" lat="14.293600">
                <ele>31.500000</ele>
                <time>2018-10-20T08:53:23Z</time>
            </trkpt>
            <trkpt lon="101.200706" lat="14.293311">
                <ele>31.700000</ele>
                <time>2018-10-20T08:53:29Z</time>
            </trkpt>
            <trkpt lon="101.200641" lat="14.292850">
                <ele>32.500000</ele>
                <time>2018-10-20T08:53:38Z</time>
            </trkpt>
            <trkpt lon="101.200630" lat="14.292752">
                <ele>32.600000</ele>
                <time>2018-10-20T08:53:40Z</time>
            </trkpt>
            <trkpt lon="101.200625" lat="14.292652">
                <ele>32.800000</ele>
                <time>2018-10-20T08:53:43Z</time>
            </trkpt>
            <trkpt lon="101.200604" lat="14.292552">
                <ele>32.700000</ele>
                <time>2018-10-20T08:53:48Z</time>
            </trkpt>
            <trkpt lon="101.200579" lat="14.292549">
                <ele>32.700000</ele>
                <time>2018-10-20T08:53:49Z</time>
            </trkpt>
            <trkpt lon="101.200528" lat="14.292595">
                <ele>32.700000</ele>
                <time>2018-10-20T08:53:51Z</time>
            </trkpt>
            <trkpt lon="101.200378" lat="14.292637">
                <ele>32.700000</ele>
                <time>2018-10-20T08:53:56Z</time>
            </trkpt>
            <trkpt lon="101.200187" lat="14.292698">
                <ele>35.000000</ele>
                <time>2018-10-20T08:54:03Z</time>
            </trkpt>
            <trkpt lon="101.199988" lat="14.292761">
                <ele>37.300000</ele>
                <time>2018-10-20T08:54:12Z</time>
            </trkpt>
            <trkpt lon="101.199969" lat="14.292764">
                <ele>37.600000</ele>
                <time>2018-10-20T08:54:13Z</time>
            </trkpt>
            <trkpt lon="101.199863" lat="14.292815">
                <ele>39.100000</ele>
                <time>2018-10-20T08:54:20Z</time>
            </trkpt>
            <trkpt lon="101.199853" lat="14.292825">
                <ele>39.200000</ele>
                <time>2018-10-20T08:54:21Z</time>
            </trkpt>
            <trkpt lon="101.199788" lat="14.292878">
                <ele>39.700000</ele>
                <time>2018-10-20T08:54:27Z</time>
            </trkpt>
            <trkpt lon="101.199779" lat="14.292890">
                <ele>39.800000</ele>
                <time>2018-10-20T08:54:28Z</time>
            </trkpt>
            <trkpt lon="101.199725" lat="14.292941">
                <ele>40.200000</ele>
                <time>2018-10-20T08:54:34Z</time>
            </trkpt>
            <trkpt lon="101.199686" lat="14.292992">
                <ele>40.200000</ele>
                <time>2018-10-20T08:54:39Z</time>
            </trkpt>
            <trkpt lon="101.199660" lat="14.293004">
                <ele>40.200000</ele>
                <time>2018-10-20T08:54:41Z</time>
            </trkpt>
            <trkpt lon="101.199628" lat="14.293018">
                <ele>40.300000</ele>
                <time>2018-10-20T08:54:44Z</time>
            </trkpt>
            <trkpt lon="101.199579" lat="14.293051">
                <ele>40.500000</ele>
                <time>2018-10-20T08:54:49Z</time>
            </trkpt>
            <trkpt lon="101.199571" lat="14.293061">
                <ele>40.500000</ele>
                <time>2018-10-20T08:54:50Z</time>
            </trkpt>
            <trkpt lon="101.199489" lat="14.293090">
                <ele>40.700000</ele>
                <time>2018-10-20T08:54:56Z</time>
            </trkpt>
            <trkpt lon="101.199364" lat="14.293118">
                <ele>40.300000</ele>
                <time>2018-10-20T08:55:04Z</time>
            </trkpt>
            <trkpt lon="101.199342" lat="14.293136">
                <ele>40.200000</ele>
                <time>2018-10-20T08:55:06Z</time>
            </trkpt>
            <trkpt lon="101.199323" lat="14.293196">
                <ele>40.200000</ele>
                <time>2018-10-20T08:55:10Z</time>
            </trkpt>
            <trkpt lon="101.199353" lat="14.293320">
                <ele>39.800000</ele>
                <time>2018-10-20T08:55:18Z</time>
            </trkpt>
            <trkpt lon="101.199430" lat="14.293465">
                <ele>39.500000</ele>
                <time>2018-10-20T08:55:27Z</time>
            </trkpt>
            <trkpt lon="101.199490" lat="14.293662">
                <ele>39.000000</ele>
                <time>2018-10-20T08:55:36Z</time>
            </trkpt>
            <trkpt lon="101.199553" lat="14.293799">
                <ele>39.100000</ele>
                <time>2018-10-20T08:55:42Z</time>
            </trkpt>
            <trkpt lon="101.199624" lat="14.293921">
                <ele>38.900000</ele>
                <time>2018-10-20T08:55:48Z</time>
            </trkpt>
            <trkpt lon="101.199702" lat="14.294041">
                <ele>38.600000</ele>
                <time>2018-10-20T08:55:54Z</time>
            </trkpt>
            <trkpt lon="101.199739" lat="14.294128">
                <ele>38.700000</ele>
                <time>2018-10-20T08:55:59Z</time>
            </trkpt>
            <trkpt lon="101.199793" lat="14.294245">
                <ele>38.600000</ele>
                <time>2018-10-20T08:56:05Z</time>
            </trkpt>
            <trkpt lon="101.199840" lat="14.294371">
                <ele>39.500000</ele>
                <time>2018-10-20T08:56:11Z</time>
            </trkpt>
            <trkpt lon="101.199856" lat="14.294542">
                <ele>40.300000</ele>
                <time>2018-10-20T08:56:18Z</time>
            </trkpt>
            <trkpt lon="101.199848" lat="14.294707">
                <ele>41.100000</ele>
                <time>2018-10-20T08:56:24Z</time>
            </trkpt>
            <trkpt lon="101.199829" lat="14.294892">
                <ele>43.300000</ele>
                <time>2018-10-20T08:56:29Z</time>
            </trkpt>
            <trkpt lon="101.199815" lat="14.294990">
                <ele>45.200000</ele>
                <time>2018-10-20T08:56:34Z</time>
            </trkpt>
            <trkpt lon="101.199809" lat="14.295002">
                <ele>45.400000</ele>
                <time>2018-10-20T08:56:35Z</time>
            </trkpt>
            <trkpt lon="101.199795" lat="14.295089">
                <ele>46.300000</ele>
                <time>2018-10-20T08:56:39Z</time>
            </trkpt>
            <trkpt lon="101.199778" lat="14.295262">
                <ele>48.400000</ele>
                <time>2018-10-20T08:56:47Z</time>
            </trkpt>
            <trkpt lon="101.199739" lat="14.295366">
                <ele>48.600000</ele>
                <time>2018-10-20T08:56:53Z</time>
            </trkpt>
            <trkpt lon="101.199633" lat="14.295378">
                <ele>48.500000</ele>
                <time>2018-10-20T08:56:57Z</time>
            </trkpt>
            <trkpt lon="101.199607" lat="14.295361">
                <ele>48.500000</ele>
                <time>2018-10-20T08:56:58Z</time>
            </trkpt>
            <trkpt lon="101.199466" lat="14.295203">
                <ele>47.200000</ele>
                <time>2018-10-20T08:57:06Z</time>
            </trkpt>
            <trkpt lon="101.199342" lat="14.295077">
                <ele>47.700000</ele>
                <time>2018-10-20T08:57:14Z</time>
            </trkpt>
            <trkpt lon="101.199269" lat="14.295019">
                <ele>48.200000</ele>
                <time>2018-10-20T08:57:20Z</time>
            </trkpt>
            <trkpt lon="101.199135" lat="14.294923">
                <ele>48.200000</ele>
                <time>2018-10-20T08:57:29Z</time>
            </trkpt>
            <trkpt lon="101.199007" lat="14.294862">
                <ele>47.600000</ele>
                <time>2018-10-20T08:57:37Z</time>
            </trkpt>
            <trkpt lon="101.198879" lat="14.294758">
                <ele>47.000000</ele>
                <time>2018-10-20T08:57:44Z</time>
            </trkpt>
            <trkpt lon="101.198688" lat="14.294645">
                <ele>46.200000</ele>
                <time>2018-10-20T08:57:51Z</time>
            </trkpt>
            <trkpt lon="101.198645" lat="14.294620">
                <ele>46.800000</ele>
                <time>2018-10-20T08:57:53Z</time>
            </trkpt>
            <trkpt lon="101.198573" lat="14.294611">
                <ele>46.700000</ele>
                <time>2018-10-20T08:57:54Z</time>
            </trkpt>
            <trkpt lon="101.198450" lat="14.294582">
                <ele>49.000000</ele>
                <time>2018-10-20T08:57:59Z</time>
            </trkpt>
            <trkpt lon="101.198260" lat="14.294513">
                <ele>49.400000</ele>
                <time>2018-10-20T08:58:08Z</time>
            </trkpt>
            <trkpt lon="101.198081" lat="14.294418">
                <ele>49.200000</ele>
                <time>2018-10-20T08:58:16Z</time>
            </trkpt>
            <trkpt lon="101.197961" lat="14.294355">
                <ele>45.600000</ele>
                <time>2018-10-20T08:58:21Z</time>
            </trkpt>
            <trkpt lon="101.197799" lat="14.294298">
                <ele>45.300000</ele>
                <time>2018-10-20T08:58:26Z</time>
            </trkpt>
            <trkpt lon="101.197658" lat="14.294275">
                <ele>45.000000</ele>
                <time>2018-10-20T08:58:32Z</time>
            </trkpt>
            <trkpt lon="101.197490" lat="14.294276">
                <ele>45.500000</ele>
                <time>2018-10-20T08:58:38Z</time>
            </trkpt>
            <trkpt lon="101.197255" lat="14.294287">
                <ele>47.400000</ele>
                <time>2018-10-20T08:58:46Z</time>
            </trkpt>
            <trkpt lon="101.197152" lat="14.294282">
                <ele>41.500000</ele>
                <time>2018-10-20T08:58:50Z</time>
            </trkpt>
            <trkpt lon="101.197082" lat="14.294280">
                <ele>41.600000</ele>
                <time>2018-10-20T08:58:53Z</time>
            </trkpt>
            <trkpt lon="101.196927" lat="14.294269">
                <ele>42.700000</ele>
                <time>2018-10-20T08:59:01Z</time>
            </trkpt>
            <trkpt lon="101.196785" lat="14.294286">
                <ele>45.700000</ele>
                <time>2018-10-20T08:59:08Z</time>
            </trkpt>
            <trkpt lon="101.196758" lat="14.294299">
                <ele>46.300000</ele>
                <time>2018-10-20T08:59:09Z</time>
            </trkpt>
            <trkpt lon="101.196729" lat="14.294307">
                <ele>46.900000</ele>
                <time>2018-10-20T08:59:10Z</time>
            </trkpt>
            <trkpt lon="101.196630" lat="14.294322">
                <ele>47.400000</ele>
                <time>2018-10-20T08:59:13Z</time>
            </trkpt>
            <trkpt lon="101.196442" lat="14.294332">
                <ele>48.400000</ele>
                <time>2018-10-20T08:59:18Z</time>
            </trkpt>
            <trkpt lon="101.196419" lat="14.294328">
                <ele>48.000000</ele>
                <time>2018-10-20T08:59:21Z</time>
            </trkpt>
            <trkpt lon="101.196419" lat="14.294328">
                <ele>48.000000</ele>
                <time>2018-10-20T08:59:32Z</time>
            </trkpt>
            <trkpt lon="101.196396" lat="14.294329">
                <ele>47.600000</ele>
                <time>2018-10-20T08:59:41Z</time>
            </trkpt>
            <trkpt lon="101.196341" lat="14.294341">
                <ele>47.200000</ele>
                <time>2018-10-20T08:59:49Z</time>
            </trkpt>
            <trkpt lon="101.196336" lat="14.294343">
                <ele>47.200000</ele>
                <time>2018-10-20T08:59:50Z</time>
            </trkpt>
            <trkpt lon="101.196264" lat="14.294337">
                <ele>46.700000</ele>
                <time>2018-10-20T08:59:59Z</time>
            </trkpt>
            <trkpt lon="101.196244" lat="14.294333">
                <ele>46.700000</ele>
                <time>2018-10-20T09:00:05Z</time>
            </trkpt>
            <trkpt lon="101.196201" lat="14.294307">
                <ele>45.500000</ele>
                <time>2018-10-20T09:00:14Z</time>
            </trkpt>
            <trkpt lon="101.196136" lat="14.294295">
                <ele>45.400000</ele>
                <time>2018-10-20T09:00:21Z</time>
            </trkpt>
            <trkpt lon="101.196074" lat="14.294285">
                <ele>44.300000</ele>
                <time>2018-10-20T09:00:30Z</time>
            </trkpt>
            <trkpt lon="101.195985" lat="14.294288">
                <ele>45.900000</ele>
                <time>2018-10-20T09:00:39Z</time>
            </trkpt>
            <trkpt lon="101.195985" lat="14.294288">
                <ele>45.900000</ele>
                <time>2018-10-20T09:00:52Z</time>
            </trkpt>
            <trkpt lon="101.195871" lat="14.294261">
                <ele>47.600000</ele>
                <time>2018-10-20T09:00:58Z</time>
            </trkpt>
            <trkpt lon="101.195759" lat="14.294249">
                <ele>49.900000</ele>
                <time>2018-10-20T09:01:04Z</time>
            </trkpt>
            <trkpt lon="101.195728" lat="14.294243">
                <ele>49.800000</ele>
                <time>2018-10-20T09:01:12Z</time>
            </trkpt>
            <trkpt lon="101.195718" lat="14.294243">
                <ele>49.800000</ele>
                <time>2018-10-20T09:01:16Z</time>
            </trkpt>
            <trkpt lon="101.195706" lat="14.294251">
                <ele>52.300000</ele>
                <time>2018-10-20T09:01:20Z</time>
            </trkpt>
            <trkpt lon="101.195670" lat="14.294266">
                <ele>52.300000</ele>
                <time>2018-10-20T09:01:24Z</time>
            </trkpt>
            <trkpt lon="101.195623" lat="14.294262">
                <ele>54.800000</ele>
                <time>2018-10-20T09:01:29Z</time>
            </trkpt>
            <trkpt lon="101.195604" lat="14.294259">
                <ele>54.800000</ele>
                <time>2018-10-20T09:01:32Z</time>
            </trkpt>
            <trkpt lon="101.195604" lat="14.294259">
                <ele>54.800000</ele>
                <time>2018-10-20T09:01:36Z</time>
            </trkpt>
            <trkpt lon="101.195535" lat="14.294225">
                <ele>55.900000</ele>
                <time>2018-10-20T09:01:44Z</time>
            </trkpt>
            <trkpt lon="101.195498" lat="14.294205">
                <ele>55.900000</ele>
                <time>2018-10-20T09:01:53Z</time>
            </trkpt>
            <trkpt lon="101.195411" lat="14.294171">
                <ele>57.100000</ele>
                <time>2018-10-20T09:02:01Z</time>
            </trkpt>
            <trkpt lon="101.195350" lat="14.294131">
                <ele>56.300000</ele>
                <time>2018-10-20T09:02:09Z</time>
            </trkpt>
            <trkpt lon="101.195284" lat="14.294096">
                <ele>55.500000</ele>
                <time>2018-10-20T09:02:15Z</time>
            </trkpt>
            <trkpt lon="101.195225" lat="14.294059">
                <ele>55.200000</ele>
                <time>2018-10-20T09:02:22Z</time>
            </trkpt>
            <trkpt lon="101.195200" lat="14.294014">
                <ele>53.900000</ele>
                <time>2018-10-20T09:02:28Z</time>
            </trkpt>
            <trkpt lon="101.195161" lat="14.293980">
                <ele>53.200000</ele>
                <time>2018-10-20T09:02:34Z</time>
            </trkpt>
            <trkpt lon="101.195147" lat="14.293970">
                <ele>53.800000</ele>
                <time>2018-10-20T09:02:36Z</time>
            </trkpt>
            <trkpt lon="101.195114" lat="14.293947">
                <ele>52.500000</ele>
                <time>2018-10-20T09:02:40Z</time>
            </trkpt>
            <trkpt lon="101.195065" lat="14.293935">
                <ele>55.100000</ele>
                <time>2018-10-20T09:02:49Z</time>
            </trkpt>
            <trkpt lon="101.194982" lat="14.293901">
                <ele>56.300000</ele>
                <time>2018-10-20T09:02:58Z</time>
            </trkpt>
            <trkpt lon="101.194902" lat="14.293845">
                <ele>56.300000</ele>
                <time>2018-10-20T09:03:05Z</time>
            </trkpt>
            <trkpt lon="101.194891" lat="14.293838">
                <ele>57.300000</ele>
                <time>2018-10-20T09:03:06Z</time>
            </trkpt>
            <trkpt lon="101.194856" lat="14.293819">
                <ele>56.000000</ele>
                <time>2018-10-20T09:03:09Z</time>
            </trkpt>
            <trkpt lon="101.194843" lat="14.293813">
                <ele>56.700000</ele>
                <time>2018-10-20T09:03:10Z</time>
            </trkpt>
            <trkpt lon="101.194808" lat="14.293794">
                <ele>57.400000</ele>
                <time>2018-10-20T09:03:13Z</time>
            </trkpt>
            <trkpt lon="101.194797" lat="14.293788">
                <ele>57.300000</ele>
                <time>2018-10-20T09:03:14Z</time>
            </trkpt>
            <trkpt lon="101.194752" lat="14.293756">
                <ele>56.300000</ele>
                <time>2018-10-20T09:03:20Z</time>
            </trkpt>
            <trkpt lon="101.194693" lat="14.293715">
                <ele>55.700000</ele>
                <time>2018-10-20T09:03:28Z</time>
            </trkpt>
            <trkpt lon="101.194619" lat="14.293677">
                <ele>55.800000</ele>
                <time>2018-10-20T09:03:36Z</time>
            </trkpt>
            <trkpt lon="101.194546" lat="14.293618">
                <ele>55.300000</ele>
                <time>2018-10-20T09:03:45Z</time>
            </trkpt>
            <trkpt lon="101.194526" lat="14.293589">
                <ele>55.300000</ele>
                <time>2018-10-20T09:03:48Z</time>
            </trkpt>
            <trkpt lon="101.194519" lat="14.293554">
                <ele>59.700000</ele>
                <time>2018-10-20T09:03:52Z</time>
            </trkpt>
            <trkpt lon="101.194509" lat="14.293482">
                <ele>57.700000</ele>
                <time>2018-10-20T09:04:01Z</time>
            </trkpt>
            <trkpt lon="101.194528" lat="14.293461">
                <ele>57.400000</ele>
                <time>2018-10-20T09:04:05Z</time>
            </trkpt>
            <trkpt lon="101.194535" lat="14.293439">
                <ele>56.300000</ele>
                <time>2018-10-20T09:04:11Z</time>
            </trkpt>
            <trkpt lon="101.194483" lat="14.293368">
                <ele>54.400000</ele>
                <time>2018-10-20T09:04:18Z</time>
            </trkpt>
            <trkpt lon="101.194458" lat="14.293319">
                <ele>54.000000</ele>
                <time>2018-10-20T09:04:26Z</time>
            </trkpt>
            <trkpt lon="101.194454" lat="14.293302">
                <ele>54.000000</ele>
                <time>2018-10-20T09:04:37Z</time>
            </trkpt>
            <trkpt lon="101.194409" lat="14.293227">
                <ele>51.800000</ele>
                <time>2018-10-20T09:04:43Z</time>
            </trkpt>
            <trkpt lon="101.194401" lat="14.293216">
                <ele>51.800000</ele>
                <time>2018-10-20T09:04:44Z</time>
            </trkpt>
            <trkpt lon="101.194379" lat="14.293183">
                <ele>50.900000</ele>
                <time>2018-10-20T09:04:50Z</time>
            </trkpt>
            <trkpt lon="101.194369" lat="14.293175">
                <ele>50.900000</ele>
                <time>2018-10-20T09:05:02Z</time>
            </trkpt>
            <trkpt lon="101.194334" lat="14.293135">
                <ele>50.100000</ele>
                <time>2018-10-20T09:05:08Z</time>
            </trkpt>
            <trkpt lon="101.194274" lat="14.293073">
                <ele>48.400000</ele>
                <time>2018-10-20T09:05:17Z</time>
            </trkpt>
            <trkpt lon="101.194236" lat="14.293027">
                <ele>47.700000</ele>
                <time>2018-10-20T09:05:24Z</time>
            </trkpt>
            <trkpt lon="101.194178" lat="14.292979">
                <ele>46.900000</ele>
                <time>2018-10-20T09:05:32Z</time>
            </trkpt>
            <trkpt lon="101.194086" lat="14.292961">
                <ele>47.200000</ele>
                <time>2018-10-20T09:05:41Z</time>
            </trkpt>
            <trkpt lon="101.194044" lat="14.292917">
                <ele>46.500000</ele>
                <time>2018-10-20T09:05:48Z</time>
            </trkpt>
            <trkpt lon="101.194004" lat="14.292899">
                <ele>45.800000</ele>
                <time>2018-10-20T09:05:56Z</time>
            </trkpt>
            <trkpt lon="101.193913" lat="14.292869">
                <ele>45.200000</ele>
                <time>2018-10-20T09:06:05Z</time>
            </trkpt>
            <trkpt lon="101.193831" lat="14.292853">
                <ele>45.400000</ele>
                <time>2018-10-20T09:06:15Z</time>
            </trkpt>
            <trkpt lon="101.193804" lat="14.292845">
                <ele>45.500000</ele>
                <time>2018-10-20T09:06:18Z</time>
            </trkpt>
            <trkpt lon="101.193780" lat="14.292844">
                <ele>45.600000</ele>
                <time>2018-10-20T09:06:23Z</time>
            </trkpt>
            <trkpt lon="101.193714" lat="14.292845">
                <ele>45.700000</ele>
                <time>2018-10-20T09:06:32Z</time>
            </trkpt>
            <trkpt lon="101.193654" lat="14.292846">
                <ele>45.800000</ele>
                <time>2018-10-20T09:06:40Z</time>
            </trkpt>
            <trkpt lon="101.193586" lat="14.292817">
                <ele>45.900000</ele>
                <time>2018-10-20T09:06:46Z</time>
            </trkpt>
            <trkpt lon="101.193570" lat="14.292821">
                <ele>45.900000</ele>
                <time>2018-10-20T09:06:57Z</time>
            </trkpt>
            <trkpt lon="101.193512" lat="14.292803">
                <ele>46.300000</ele>
                <time>2018-10-20T09:07:06Z</time>
            </trkpt>
            <trkpt lon="101.193405" lat="14.292798">
                <ele>46.600000</ele>
                <time>2018-10-20T09:07:14Z</time>
            </trkpt>
            <trkpt lon="101.193374" lat="14.292792">
                <ele>46.900000</ele>
                <time>2018-10-20T09:07:16Z</time>
            </trkpt>
            <trkpt lon="101.193337" lat="14.292797">
                <ele>47.100000</ele>
                <time>2018-10-20T09:07:20Z</time>
            </trkpt>
            <trkpt lon="101.193278" lat="14.292774">
                <ele>46.900000</ele>
                <time>2018-10-20T09:07:27Z</time>
            </trkpt>
            <trkpt lon="101.193228" lat="14.292762">
                <ele>46.900000</ele>
                <time>2018-10-20T09:07:34Z</time>
            </trkpt>
            <trkpt lon="101.193193" lat="14.292750">
                <ele>46.900000</ele>
                <time>2018-10-20T09:07:42Z</time>
            </trkpt>
            <trkpt lon="101.193155" lat="14.292760">
                <ele>46.900000</ele>
                <time>2018-10-20T09:07:49Z</time>
            </trkpt>
            <trkpt lon="101.193144" lat="14.292758">
                <ele>46.900000</ele>
                <time>2018-10-20T09:07:59Z</time>
            </trkpt>
            <trkpt lon="101.193025" lat="14.292740">
                <ele>44.900000</ele>
                <time>2018-10-20T09:08:08Z</time>
            </trkpt>
            <trkpt lon="101.192906" lat="14.292691">
                <ele>44.600000</ele>
                <time>2018-10-20T09:08:18Z</time>
            </trkpt>
            <trkpt lon="101.192840" lat="14.292677">
                <ele>44.700000</ele>
                <time>2018-10-20T09:08:25Z</time>
            </trkpt>
            <trkpt lon="101.192781" lat="14.292636">
                <ele>44.300000</ele>
                <time>2018-10-20T09:08:30Z</time>
            </trkpt>
            <trkpt lon="101.192756" lat="14.292626">
                <ele>44.300000</ele>
                <time>2018-10-20T09:08:33Z</time>
            </trkpt>
            <trkpt lon="101.192715" lat="14.292620">
                <ele>43.600000</ele>
                <time>2018-10-20T09:08:40Z</time>
            </trkpt>
            <trkpt lon="101.192640" lat="14.292595">
                <ele>43.100000</ele>
                <time>2018-10-20T09:08:48Z</time>
            </trkpt>
            <trkpt lon="101.192579" lat="14.292627">
                <ele>42.900000</ele>
                <time>2018-10-20T09:08:55Z</time>
            </trkpt>
            <trkpt lon="101.192546" lat="14.292651">
                <ele>42.900000</ele>
                <time>2018-10-20T09:09:02Z</time>
            </trkpt>
            <trkpt lon="101.192544" lat="14.292656">
                <ele>42.900000</ele>
                <time>2018-10-20T09:09:09Z</time>
            </trkpt>
            <trkpt lon="101.192544" lat="14.292656">
                <ele>42.900000</ele>
                <time>2018-10-20T09:09:17Z</time>
            </trkpt>
            <trkpt lon="101.192534" lat="14.292699">
                <ele>42.900000</ele>
                <time>2018-10-20T09:09:25Z</time>
            </trkpt>
            <trkpt lon="101.192521" lat="14.292736">
                <ele>43.100000</ele>
                <time>2018-10-20T09:09:34Z</time>
            </trkpt>
            <trkpt lon="101.192490" lat="14.292783">
                <ele>43.400000</ele>
                <time>2018-10-20T09:09:38Z</time>
            </trkpt>
            <trkpt lon="101.192471" lat="14.292797">
                <ele>44.200000</ele>
                <time>2018-10-20T09:09:40Z</time>
            </trkpt>
            <trkpt lon="101.192414" lat="14.292818">
                <ele>43.800000</ele>
                <time>2018-10-20T09:09:48Z</time>
            </trkpt>
            <trkpt lon="101.192414" lat="14.292818">
                <ele>43.800000</ele>
                <time>2018-10-20T09:09:58Z</time>
            </trkpt>
            <trkpt lon="101.192402" lat="14.292828">
                <ele>43.700000</ele>
                <time>2018-10-20T09:10:07Z</time>
            </trkpt>
            <trkpt lon="101.192397" lat="14.292836">
                <ele>44.400000</ele>
                <time>2018-10-20T09:10:08Z</time>
            </trkpt>
            <trkpt lon="101.192289" lat="14.292877">
                <ele>44.700000</ele>
                <time>2018-10-20T09:10:13Z</time>
            </trkpt>
            <trkpt lon="101.192118" lat="14.292931">
                <ele>44.200000</ele>
                <time>2018-10-20T09:10:20Z</time>
            </trkpt>
            <trkpt lon="101.191969" lat="14.292916">
                <ele>43.800000</ele>
                <time>2018-10-20T09:10:27Z</time>
            </trkpt>
            <trkpt lon="101.191843" lat="14.292881">
                <ele>43.800000</ele>
                <time>2018-10-20T09:10:34Z</time>
            </trkpt>
            <trkpt lon="101.191743" lat="14.292853">
                <ele>43.800000</ele>
                <time>2018-10-20T09:10:40Z</time>
            </trkpt>
            <trkpt lon="101.191598" lat="14.292809">
                <ele>43.100000</ele>
                <time>2018-10-20T09:10:47Z</time>
            </trkpt>
            <trkpt lon="101.191473" lat="14.292781">
                <ele>43.200000</ele>
                <time>2018-10-20T09:10:53Z</time>
            </trkpt>
            <trkpt lon="101.191333" lat="14.292727">
                <ele>44.500000</ele>
                <time>2018-10-20T09:11:00Z</time>
            </trkpt>
            <trkpt lon="101.191197" lat="14.292633">
                <ele>45.200000</ele>
                <time>2018-10-20T09:11:06Z</time>
            </trkpt>
            <trkpt lon="101.191169" lat="14.292504">
                <ele>43.200000</ele>
                <time>2018-10-20T09:11:11Z</time>
            </trkpt>
            <trkpt lon="101.191188" lat="14.292348">
                <ele>42.100000</ele>
                <time>2018-10-20T09:11:18Z</time>
            </trkpt>
            <trkpt lon="101.191223" lat="14.292129">
                <ele>39.300000</ele>
                <time>2018-10-20T09:11:26Z</time>
            </trkpt>
            <trkpt lon="101.191259" lat="14.291813">
                <ele>37.300000</ele>
                <time>2018-10-20T09:11:35Z</time>
            </trkpt>
            <trkpt lon="101.191297" lat="14.291455">
                <ele>41.100000</ele>
                <time>2018-10-20T09:11:45Z</time>
            </trkpt>
            <trkpt lon="101.191330" lat="14.291119">
                <ele>41.700000</ele>
                <time>2018-10-20T09:11:54Z</time>
            </trkpt>
            <trkpt lon="101.191381" lat="14.290737">
                <ele>32.300000</ele>
                <time>2018-10-20T09:12:04Z</time>
            </trkpt>
            <trkpt lon="101.191434" lat="14.290296">
                <ele>31.400000</ele>
                <time>2018-10-20T09:12:15Z</time>
            </trkpt>
            <trkpt lon="101.191473" lat="14.290004">
                <ele>31.000000</ele>
                <time>2018-10-20T09:12:22Z</time>
            </trkpt>
            <trkpt lon="101.191520" lat="14.289631">
                <ele>30.900000</ele>
                <time>2018-10-20T09:12:30Z</time>
            </trkpt>
            <trkpt lon="101.191572" lat="14.289147">
                <ele>31.200000</ele>
                <time>2018-10-20T09:12:40Z</time>
            </trkpt>
            <trkpt lon="101.191629" lat="14.288693">
                <ele>32.000000</ele>
                <time>2018-10-20T09:12:49Z</time>
            </trkpt>
            <trkpt lon="101.191647" lat="14.288537">
                <ele>32.500000</ele>
                <time>2018-10-20T09:12:52Z</time>
            </trkpt>
            <trkpt lon="101.191675" lat="14.288270">
                <ele>33.400000</ele>
                <time>2018-10-20T09:12:57Z</time>
            </trkpt>
            <trkpt lon="101.191746" lat="14.287726">
                <ele>36.000000</ele>
                <time>2018-10-20T09:13:07Z</time>
            </trkpt>
            <trkpt lon="101.191818" lat="14.287186">
                <ele>37.100000</ele>
                <time>2018-10-20T09:13:17Z</time>
            </trkpt>
            <trkpt lon="101.191870" lat="14.286768">
                <ele>38.800000</ele>
                <time>2018-10-20T09:13:25Z</time>
            </trkpt>
            <trkpt lon="101.191920" lat="14.286514">
                <ele>43.900000</ele>
                <time>2018-10-20T09:13:31Z</time>
            </trkpt>
            <trkpt lon="101.191947" lat="14.286470">
                <ele>45.200000</ele>
                <time>2018-10-20T09:13:33Z</time>
            </trkpt>
            <trkpt lon="101.191983" lat="14.286460">
                <ele>46.100000</ele>
                <time>2018-10-20T09:13:35Z</time>
            </trkpt>
            <trkpt lon="101.191998" lat="14.286460">
                <ele>51.300000</ele>
                <time>2018-10-20T09:13:36Z</time>
            </trkpt>
            <trkpt lon="101.192063" lat="14.286471">
                <ele>51.000000</ele>
                <time>2018-10-20T09:13:40Z</time>
            </trkpt>
            <trkpt lon="101.192084" lat="14.286477">
                <ele>51.000000</ele>
                <time>2018-10-20T09:13:41Z</time>
            </trkpt>
            <trkpt lon="101.192105" lat="14.286483">
                <ele>50.900000</ele>
                <time>2018-10-20T09:13:42Z</time>
            </trkpt>
            <trkpt lon="101.192278" lat="14.286512">
                <ele>50.200000</ele>
                <time>2018-10-20T09:13:48Z</time>
            </trkpt>
            <trkpt lon="101.192460" lat="14.286498">
                <ele>49.400000</ele>
                <time>2018-10-20T09:13:53Z</time>
            </trkpt>
            <trkpt lon="101.192637" lat="14.286434">
                <ele>48.500000</ele>
                <time>2018-10-20T09:13:59Z</time>
            </trkpt>
            <trkpt lon="101.192716" lat="14.286410">
                <ele>48.100000</ele>
                <time>2018-10-20T09:14:03Z</time>
            </trkpt>
            <trkpt lon="101.192784" lat="14.286388">
                <ele>47.900000</ele>
                <time>2018-10-20T09:14:06Z</time>
            </trkpt>
            <trkpt lon="101.192812" lat="14.286387">
                <ele>47.800000</ele>
                <time>2018-10-20T09:14:07Z</time>
            </trkpt>
            <trkpt lon="101.192919" lat="14.286397">
                <ele>47.400000</ele>
                <time>2018-10-20T09:14:10Z</time>
            </trkpt>
            <trkpt lon="101.193214" lat="14.286425">
                <ele>46.800000</ele>
                <time>2018-10-20T09:14:17Z</time>
            </trkpt>
            <trkpt lon="101.193560" lat="14.286474">
                <ele>46.400000</ele>
                <time>2018-10-20T09:14:24Z</time>
            </trkpt>
            <trkpt lon="101.193659" lat="14.286484">
                <ele>46.300000</ele>
                <time>2018-10-20T09:14:26Z</time>
            </trkpt>
            <trkpt lon="101.194010" lat="14.286536">
                <ele>46.100000</ele>
                <time>2018-10-20T09:14:33Z</time>
            </trkpt>
            <trkpt lon="101.194196" lat="14.286629">
                <ele>45.900000</ele>
                <time>2018-10-20T09:14:37Z</time>
            </trkpt>
            <trkpt lon="101.194241" lat="14.286656">
                <ele>45.900000</ele>
                <time>2018-10-20T09:14:38Z</time>
            </trkpt>
            <trkpt lon="101.194377" lat="14.286739">
                <ele>45.900000</ele>
                <time>2018-10-20T09:14:41Z</time>
            </trkpt>
            <trkpt lon="101.194592" lat="14.286882">
                <ele>45.800000</ele>
                <time>2018-10-20T09:14:46Z</time>
            </trkpt>
            <trkpt lon="101.194839" lat="14.287024">
                <ele>45.700000</ele>
                <time>2018-10-20T09:14:52Z</time>
            </trkpt>
            <trkpt lon="101.195031" lat="14.287090">
                <ele>45.500000</ele>
                <time>2018-10-20T09:14:56Z</time>
            </trkpt>
            <trkpt lon="101.195137" lat="14.287106">
                <ele>45.400000</ele>
                <time>2018-10-20T09:14:58Z</time>
            </trkpt>
            <trkpt lon="101.195460" lat="14.287109">
                <ele>45.200000</ele>
                <time>2018-10-20T09:15:04Z</time>
            </trkpt>
            <trkpt lon="101.195799" lat="14.287049">
                <ele>45.100000</ele>
                <time>2018-10-20T09:15:11Z</time>
            </trkpt>
            <trkpt lon="101.196058" lat="14.286990">
                <ele>44.900000</ele>
                <time>2018-10-20T09:15:16Z</time>
            </trkpt>
            <trkpt lon="101.196218" lat="14.286959">
                <ele>44.800000</ele>
                <time>2018-10-20T09:15:19Z</time>
            </trkpt>
            <trkpt lon="101.196728" lat="14.286915">
                <ele>44.800000</ele>
                <time>2018-10-20T09:15:28Z</time>
            </trkpt>
            <trkpt lon="101.196785" lat="14.286928">
                <ele>44.800000</ele>
                <time>2018-10-20T09:15:29Z</time>
            </trkpt>
            <trkpt lon="101.197009" lat="14.286998">
                <ele>44.800000</ele>
                <time>2018-10-20T09:15:33Z</time>
            </trkpt>
            <trkpt lon="101.197051" lat="14.287019">
                <ele>44.800000</ele>
                <time>2018-10-20T09:15:34Z</time>
            </trkpt>
            <trkpt lon="101.197208" lat="14.287063">
                <ele>44.800000</ele>
                <time>2018-10-20T09:15:37Z</time>
            </trkpt>
            <trkpt lon="101.197313" lat="14.287097">
                <ele>44.700000</ele>
                <time>2018-10-20T09:15:39Z</time>
            </trkpt>
            <trkpt lon="101.197514" lat="14.287168">
                <ele>44.300000</ele>
                <time>2018-10-20T09:15:43Z</time>
            </trkpt>
            <trkpt lon="101.197665" lat="14.287185">
                <ele>44.100000</ele>
                <time>2018-10-20T09:15:46Z</time>
            </trkpt>
            <trkpt lon="101.197731" lat="14.287135">
                <ele>44.000000</ele>
                <time>2018-10-20T09:15:48Z</time>
            </trkpt>
            <trkpt lon="101.197765" lat="14.287047">
                <ele>43.500000</ele>
                <time>2018-10-20T09:15:51Z</time>
            </trkpt>
            <trkpt lon="101.197771" lat="14.287021">
                <ele>43.600000</ele>
                <time>2018-10-20T09:15:52Z</time>
            </trkpt>
            <trkpt lon="101.197830" lat="14.286853">
                <ele>43.900000</ele>
                <time>2018-10-20T09:15:59Z</time>
            </trkpt>
            <trkpt lon="101.197839" lat="14.286836">
                <ele>44.100000</ele>
                <time>2018-10-20T09:16:00Z</time>
            </trkpt>
            <trkpt lon="101.197869" lat="14.286754">
                <ele>44.700000</ele>
                <time>2018-10-20T09:16:05Z</time>
            </trkpt>
            <trkpt lon="101.197914" lat="14.286691">
                <ele>44.800000</ele>
                <time>2018-10-20T09:16:09Z</time>
            </trkpt>
            <trkpt lon="101.197954" lat="14.286672">
                <ele>45.000000</ele>
                <time>2018-10-20T09:16:11Z</time>
            </trkpt>
            <trkpt lon="101.197999" lat="14.286666">
                <ele>44.900000</ele>
                <time>2018-10-20T09:16:13Z</time>
            </trkpt>
            <trkpt lon="101.198025" lat="14.286665">
                <ele>44.900000</ele>
                <time>2018-10-20T09:16:14Z</time>
            </trkpt>
            <trkpt lon="101.198209" lat="14.286622">
                <ele>46.000000</ele>
                <time>2018-10-20T09:16:21Z</time>
            </trkpt>
            <trkpt lon="101.198280" lat="14.286554">
                <ele>46.800000</ele>
                <time>2018-10-20T09:16:26Z</time>
            </trkpt>
            <trkpt lon="101.198334" lat="14.286447">
                <ele>48.300000</ele>
                <time>2018-10-20T09:16:34Z</time>
            </trkpt>
            <trkpt lon="101.198351" lat="14.286413">
                <ele>48.800000</ele>
                <time>2018-10-20T09:16:37Z</time>
            </trkpt>
            <trkpt lon="101.198373" lat="14.286360">
                <ele>49.600000</ele>
                <time>2018-10-20T09:16:42Z</time>
            </trkpt>
            <trkpt lon="101.198399" lat="14.286300">
                <ele>51.000000</ele>
                <time>2018-10-20T09:16:46Z</time>
            </trkpt>
            <trkpt lon="101.198419" lat="14.286259">
                <ele>51.800000</ele>
                <time>2018-10-20T09:16:50Z</time>
            </trkpt>
            <trkpt lon="101.198419" lat="14.286259">
                <ele>51.800000</ele>
                <time>2018-10-20T09:16:52Z</time>
            </trkpt>
            <trkpt lon="101.198431" lat="14.286250">
                <ele>51.800000</ele>
                <time>2018-10-20T09:16:57Z</time>
            </trkpt>
            <trkpt lon="101.198456" lat="14.286232">
                <ele>51.800000</ele>
                <time>2018-10-20T09:17:03Z</time>
            </trkpt>
            <trkpt lon="101.198461" lat="14.286227">
                <ele>51.600000</ele>
                <time>2018-10-20T09:17:04Z</time>
            </trkpt>
            <trkpt lon="101.198469" lat="14.286217">
                <ele>52.600000</ele>
                <time>2018-10-20T09:17:10Z</time>
            </trkpt>
            <trkpt lon="101.198473" lat="14.286205">
                <ele>52.600000</ele>
                <time>2018-10-20T09:17:15Z</time>
            </trkpt>
            <trkpt lon="101.198484" lat="14.286187">
                <ele>52.600000</ele>
                <time>2018-10-20T09:17:19Z</time>
            </trkpt>
            <trkpt lon="101.198489" lat="14.286163">
                <ele>53.600000</ele>
                <time>2018-10-20T09:17:23Z</time>
            </trkpt>
            <trkpt lon="101.198491" lat="14.286119">
                <ele>54.600000</ele>
                <time>2018-10-20T09:17:29Z</time>
            </trkpt>
            <trkpt lon="101.198489" lat="14.286113">
                <ele>54.600000</ele>
                <time>2018-10-20T09:17:30Z</time>
            </trkpt>
            <trkpt lon="101.198489" lat="14.286110">
                <ele>54.600000</ele>
                <time>2018-10-20T09:17:39Z</time>
            </trkpt>
            <trkpt lon="101.198486" lat="14.286091">
                <ele>55.600000</ele>
                <time>2018-10-20T09:17:47Z</time>
            </trkpt>
            <trkpt lon="101.198489" lat="14.286050">
                <ele>56.200000</ele>
                <time>2018-10-20T09:17:53Z</time>
            </trkpt>
            <trkpt lon="101.198487" lat="14.286043">
                <ele>56.200000</ele>
                <time>2018-10-20T09:17:54Z</time>
            </trkpt>
            <trkpt lon="101.198478" lat="14.285999">
                <ele>56.900000</ele>
                <time>2018-10-20T09:18:02Z</time>
            </trkpt>
            <trkpt lon="101.198478" lat="14.285999">
                <ele>56.900000</ele>
                <time>2018-10-20T09:18:06Z</time>
            </trkpt>
            <trkpt lon="101.198483" lat="14.285966">
                <ele>57.500000</ele>
                <time>2018-10-20T09:18:11Z</time>
            </trkpt>
            <trkpt lon="101.198484" lat="14.285956">
                <ele>57.600000</ele>
                <time>2018-10-20T09:18:18Z</time>
            </trkpt>
            <trkpt lon="101.198490" lat="14.285974">
                <ele>56.900000</ele>
                <time>2018-10-20T09:18:24Z</time>
            </trkpt>
            <trkpt lon="101.198507" lat="14.286019">
                <ele>56.000000</ele>
                <time>2018-10-20T09:18:30Z</time>
            </trkpt>
            <trkpt lon="101.198507" lat="14.286068">
                <ele>55.400000</ele>
                <time>2018-10-20T09:18:37Z</time>
            </trkpt>
            <trkpt lon="101.198504" lat="14.286072">
                <ele>55.400000</ele>
                <time>2018-10-20T09:18:38Z</time>
            </trkpt>
            <trkpt lon="101.198502" lat="14.286127">
                <ele>54.500000</ele>
                <time>2018-10-20T09:18:44Z</time>
            </trkpt>
            <trkpt lon="101.198502" lat="14.286144">
                <ele>53.500000</ele>
                <time>2018-10-20T09:18:46Z</time>
            </trkpt>
            <trkpt lon="101.198503" lat="14.286147">
                <ele>53.500000</ele>
                <time>2018-10-20T09:18:51Z</time>
            </trkpt>
            <trkpt lon="101.198500" lat="14.286154">
                <ele>53.800000</ele>
                <time>2018-10-20T09:18:59Z</time>
            </trkpt>
            <trkpt lon="101.198490" lat="14.286182">
                <ele>52.800000</ele>
                <time>2018-10-20T09:19:06Z</time>
            </trkpt>
            <trkpt lon="101.198435" lat="14.286275">
                <ele>51.200000</ele>
                <time>2018-10-20T09:19:10Z</time>
            </trkpt>
            <trkpt lon="101.198421" lat="14.286299">
                <ele>51.300000</ele>
                <time>2018-10-20T09:19:11Z</time>
            </trkpt>
            <trkpt lon="101.198406" lat="14.286324">
                <ele>50.600000</ele>
                <time>2018-10-20T09:19:12Z</time>
            </trkpt>
            <trkpt lon="101.198367" lat="14.286394">
                <ele>49.200000</ele>
                <time>2018-10-20T09:19:15Z</time>
            </trkpt>
            <trkpt lon="101.198346" lat="14.286449">
                <ele>48.600000</ele>
                <time>2018-10-20T09:19:17Z</time>
            </trkpt>
            <trkpt lon="101.198322" lat="14.286524">
                <ele>47.600000</ele>
                <time>2018-10-20T09:19:21Z</time>
            </trkpt>
            <trkpt lon="101.198306" lat="14.286534">
                <ele>47.700000</ele>
                <time>2018-10-20T09:19:22Z</time>
            </trkpt>
            <trkpt lon="101.198217" lat="14.286614">
                <ele>46.400000</ele>
                <time>2018-10-20T09:19:27Z</time>
            </trkpt>
            <trkpt lon="101.198169" lat="14.286629">
                <ele>46.200000</ele>
                <time>2018-10-20T09:19:29Z</time>
            </trkpt>
            <trkpt lon="101.198147" lat="14.286633">
                <ele>46.000000</ele>
                <time>2018-10-20T09:19:30Z</time>
            </trkpt>
            <trkpt lon="101.198095" lat="14.286642">
                <ele>45.300000</ele>
                <time>2018-10-20T09:19:33Z</time>
            </trkpt>
            <trkpt lon="101.197972" lat="14.286658">
                <ele>45.500000</ele>
                <time>2018-10-20T09:19:41Z</time>
            </trkpt>
            <trkpt lon="101.197942" lat="14.286611">
                <ele>45.900000</ele>
                <time>2018-10-20T09:19:46Z</time>
            </trkpt>
            <trkpt lon="101.197944" lat="14.286575">
                <ele>46.200000</ele>
                <time>2018-10-20T09:19:49Z</time>
            </trkpt>
            <trkpt lon="101.197977" lat="14.286586">
                <ele>46.200000</ele>
                <time>2018-10-20T09:19:52Z</time>
            </trkpt>
            <trkpt lon="101.197966" lat="14.286633">
                <ele>45.900000</ele>
                <time>2018-10-20T09:19:56Z</time>
            </trkpt>
            <trkpt lon="101.197946" lat="14.286685">
                <ele>45.200000</ele>
                <time>2018-10-20T09:20:01Z</time>
            </trkpt>
            <trkpt lon="101.197993" lat="14.286679">
                <ele>45.000000</ele>
                <time>2018-10-20T09:20:05Z</time>
            </trkpt>
            <trkpt lon="101.198007" lat="14.286672">
                <ele>45.400000</ele>
                <time>2018-10-20T09:20:06Z</time>
            </trkpt>
            <trkpt lon="101.198075" lat="14.286660">
                <ele>45.400000</ele>
                <time>2018-10-20T09:20:09Z</time>
            </trkpt>
            <trkpt lon="101.198161" lat="14.286647">
                <ele>45.700000</ele>
                <time>2018-10-20T09:20:12Z</time>
            </trkpt>
            <trkpt lon="101.198304" lat="14.286603">
                <ele>46.700000</ele>
                <time>2018-10-20T09:20:18Z</time>
            </trkpt>
            <trkpt lon="101.198443" lat="14.286590">
                <ele>47.200000</ele>
                <time>2018-10-20T09:20:25Z</time>
            </trkpt>
            <trkpt lon="101.198554" lat="14.286608">
                <ele>45.900000</ele>
                <time>2018-10-20T09:20:29Z</time>
            </trkpt>
            <trkpt lon="101.198683" lat="14.286693">
                <ele>43.500000</ele>
                <time>2018-10-20T09:20:34Z</time>
            </trkpt>
            <trkpt lon="101.198703" lat="14.286702">
                <ele>43.600000</ele>
                <time>2018-10-20T09:20:35Z</time>
            </trkpt>
            <trkpt lon="101.198890" lat="14.286809">
                <ele>39.500000</ele>
                <time>2018-10-20T09:20:42Z</time>
            </trkpt>
            <trkpt lon="101.199054" lat="14.286876">
                <ele>39.200000</ele>
                <time>2018-10-20T09:20:48Z</time>
            </trkpt>
            <trkpt lon="101.199138" lat="14.286906">
                <ele>39.300000</ele>
                <time>2018-10-20T09:20:51Z</time>
            </trkpt>
            <trkpt lon="101.199183" lat="14.286923">
                <ele>39.300000</ele>
                <time>2018-10-20T09:20:53Z</time>
            </trkpt>
            <trkpt lon="101.199201" lat="14.286946">
                <ele>39.500000</ele>
                <time>2018-10-20T09:20:55Z</time>
            </trkpt>
            <trkpt lon="101.199212" lat="14.286952">
                <ele>39.500000</ele>
                <time>2018-10-20T09:20:58Z</time>
            </trkpt>
            <trkpt lon="101.199212" lat="14.286952">
                <ele>39.500000</ele>
                <time>2018-10-20T09:21:07Z</time>
            </trkpt>
            <trkpt lon="101.199212" lat="14.286952">
                <ele>39.500000</ele>
                <time>2018-10-20T09:21:11Z</time>
            </trkpt>
            <trkpt lon="101.199212" lat="14.286952">
                <ele>39.500000</ele>
                <time>2018-10-20T09:21:15Z</time>
            </trkpt>
            <trkpt lon="101.199210" lat="14.286958">
                <ele>39.500000</ele>
                <time>2018-10-20T09:21:22Z</time>
            </trkpt>
            <trkpt lon="101.199181" lat="14.286945">
                <ele>39.500000</ele>
                <time>2018-10-20T09:21:30Z</time>
            </trkpt>
            <trkpt lon="101.199139" lat="14.286929">
                <ele>39.500000</ele>
                <time>2018-10-20T09:21:39Z</time>
            </trkpt>
            <trkpt lon="101.199131" lat="14.286924">
                <ele>39.400000</ele>
                <time>2018-10-20T09:21:41Z</time>
            </trkpt>
            <trkpt lon="101.199074" lat="14.286897">
                <ele>39.400000</ele>
                <time>2018-10-20T09:21:48Z</time>
            </trkpt>
            <trkpt lon="101.199021" lat="14.286874">
                <ele>39.400000</ele>
                <time>2018-10-20T09:21:56Z</time>
            </trkpt>
            <trkpt lon="101.199012" lat="14.286871">
                <ele>39.400000</ele>
                <time>2018-10-20T09:21:57Z</time>
            </trkpt>
            <trkpt lon="101.198982" lat="14.286845">
                <ele>39.400000</ele>
                <time>2018-10-20T09:22:04Z</time>
            </trkpt>
            <trkpt lon="101.198911" lat="14.286842">
                <ele>39.600000</ele>
                <time>2018-10-20T09:22:10Z</time>
            </trkpt>
            <trkpt lon="101.198881" lat="14.286895">
                <ele>39.800000</ele>
                <time>2018-10-20T09:22:15Z</time>
            </trkpt>
            <trkpt lon="101.198896" lat="14.286988">
                <ele>40.300000</ele>
                <time>2018-10-20T09:22:19Z</time>
            </trkpt>
            <trkpt lon="101.198907" lat="14.287011">
                <ele>40.800000</ele>
                <time>2018-10-20T09:22:20Z</time>
            </trkpt>
            <trkpt lon="101.198918" lat="14.287032">
                <ele>40.800000</ele>
                <time>2018-10-20T09:22:21Z</time>
            </trkpt>
            <trkpt lon="101.198941" lat="14.287052">
                <ele>41.200000</ele>
                <time>2018-10-20T09:22:22Z</time>
            </trkpt>
            <trkpt lon="101.198977" lat="14.287078">
                <ele>41.000000</ele>
                <time>2018-10-20T09:22:24Z</time>
            </trkpt>
            <trkpt lon="101.198991" lat="14.287094">
                <ele>41.300000</ele>
                <time>2018-10-20T09:22:25Z</time>
            </trkpt>
            <trkpt lon="101.199007" lat="14.287105">
                <ele>41.300000</ele>
                <time>2018-10-20T09:22:26Z</time>
            </trkpt>
            <trkpt lon="101.199056" lat="14.287158">
                <ele>41.300000</ele>
                <time>2018-10-20T09:22:31Z</time>
            </trkpt>
            <trkpt lon="101.199143" lat="14.287231">
                <ele>41.300000</ele>
                <time>2018-10-20T09:22:37Z</time>
            </trkpt>
            <trkpt lon="101.199160" lat="14.287244">
                <ele>41.100000</ele>
                <time>2018-10-20T09:22:38Z</time>
            </trkpt>
            <trkpt lon="101.199228" lat="14.287337">
                <ele>40.500000</ele>
                <time>2018-10-20T09:22:43Z</time>
            </trkpt>
            <trkpt lon="101.199248" lat="14.287358">
                <ele>40.000000</ele>
                <time>2018-10-20T09:22:45Z</time>
            </trkpt>
            <trkpt lon="101.199273" lat="14.287388">
                <ele>39.700000</ele>
                <time>2018-10-20T09:22:50Z</time>
            </trkpt>
            <trkpt lon="101.199273" lat="14.287389">
                <ele>39.700000</ele>
                <time>2018-10-20T09:22:58Z</time>
            </trkpt>
            <trkpt lon="101.199319" lat="14.287423">
                <ele>39.600000</ele>
                <time>2018-10-20T09:23:05Z</time>
            </trkpt>
            <trkpt lon="101.199385" lat="14.287470">
                <ele>39.400000</ele>
                <time>2018-10-20T09:23:13Z</time>
            </trkpt>
            <trkpt lon="101.199428" lat="14.287497">
                <ele>39.500000</ele>
                <time>2018-10-20T09:23:20Z</time>
            </trkpt>
            <trkpt lon="101.199450" lat="14.287530">
                <ele>39.600000</ele>
                <time>2018-10-20T09:23:27Z</time>
            </trkpt>
            <trkpt lon="101.199491" lat="14.287569">
                <ele>39.600000</ele>
                <time>2018-10-20T09:23:33Z</time>
            </trkpt>
            <trkpt lon="101.199532" lat="14.287574">
                <ele>39.500000</ele>
                <time>2018-10-20T09:23:40Z</time>
            </trkpt>
            <trkpt lon="101.199611" lat="14.287583">
                <ele>39.400000</ele>
                <time>2018-10-20T09:23:47Z</time>
            </trkpt>
            <trkpt lon="101.199688" lat="14.287581">
                <ele>39.300000</ele>
                <time>2018-10-20T09:23:55Z</time>
            </trkpt>
            <trkpt lon="101.199801" lat="14.287589">
                <ele>39.100000</ele>
                <time>2018-10-20T09:23:58Z</time>
            </trkpt>
            <trkpt lon="101.199828" lat="14.287604">
                <ele>39.000000</ele>
                <time>2018-10-20T09:23:59Z</time>
            </trkpt>
            <trkpt lon="101.199899" lat="14.287650">
                <ele>38.600000</ele>
                <time>2018-10-20T09:24:04Z</time>
            </trkpt>
            <trkpt lon="101.199945" lat="14.287680">
                <ele>38.400000</ele>
                <time>2018-10-20T09:24:10Z</time>
            </trkpt>
            <trkpt lon="101.199947" lat="14.287678">
                <ele>38.400000</ele>
                <time>2018-10-20T09:24:19Z</time>
            </trkpt>
            <trkpt lon="101.199945" lat="14.287680">
                <ele>28.300000</ele>
                <time>2018-10-20T09:24:27Z</time>
            </trkpt>
            <trkpt lon="101.199945" lat="14.287680">
                <ele>28.300000</ele>
                <time>2018-10-20T09:24:46Z</time>
            </trkpt>
            <trkpt lon="101.199948" lat="14.287682">
                <ele>38.400000</ele>
                <time>2018-10-20T09:25:10Z</time>
            </trkpt>
            <trkpt lon="101.199954" lat="14.287681">
                <ele>38.400000</ele>
                <time>2018-10-20T09:25:34Z</time>
            </trkpt>
            <trkpt lon="101.199954" lat="14.287681">
                <ele>38.400000</ele>
                <time>2018-10-20T09:25:38Z</time>
            </trkpt>
            <trkpt lon="101.199954" lat="14.287681">
                <ele>38.400000</ele>
                <time>2018-10-20T09:26:00Z</time>
            </trkpt>
            <trkpt lon="101.199956" lat="14.287687">
                <ele>38.400000</ele>
                <time>2018-10-20T09:26:10Z</time>
            </trkpt>
            <trkpt lon="101.199964" lat="14.287688">
                <ele>38.400000</ele>
                <time>2018-10-20T09:26:12Z</time>
            </trkpt>
            <trkpt lon="101.199964" lat="14.287688">
                <ele>38.400000</ele>
                <time>2018-10-20T09:26:20Z</time>
            </trkpt>
            <trkpt lon="101.199976" lat="14.287689">
                <ele>38.400000</ele>
                <time>2018-10-20T09:26:33Z</time>
            </trkpt>
            <trkpt lon="101.199985" lat="14.287677">
                <ele>38.400000</ele>
                <time>2018-10-20T09:26:34Z</time>
            </trkpt>
            <trkpt lon="101.199984" lat="14.287680">
                <ele>38.400000</ele>
                <time>2018-10-20T09:26:37Z</time>
            </trkpt>
            <trkpt lon="101.199992" lat="14.287679">
                <ele>38.400000</ele>
                <time>2018-10-20T09:26:41Z</time>
            </trkpt>
            <trkpt lon="101.200056" lat="14.287691">
                <ele>38.400000</ele>
                <time>2018-10-20T09:26:44Z</time>
            </trkpt>
            <trkpt lon="101.200084" lat="14.287694">
                <ele>38.500000</ele>
                <time>2018-10-20T09:26:45Z</time>
            </trkpt>
            <trkpt lon="101.200272" lat="14.287672">
                <ele>38.500000</ele>
                <time>2018-10-20T09:26:51Z</time>
            </trkpt>
            <trkpt lon="101.200449" lat="14.287654">
                <ele>38.500000</ele>
                <time>2018-10-20T09:26:56Z</time>
            </trkpt>
            <trkpt lon="101.200527" lat="14.287649">
                <ele>38.500000</ele>
                <time>2018-10-20T09:26:58Z</time>
            </trkpt>
            <trkpt lon="101.200824" lat="14.287627">
                <ele>38.500000</ele>
                <time>2018-10-20T09:27:06Z</time>
            </trkpt>
            <trkpt lon="101.200965" lat="14.287583">
                <ele>38.500000</ele>
                <time>2018-10-20T09:27:12Z</time>
            </trkpt>
            <trkpt lon="101.200948" lat="14.287572">
                <ele>38.500000</ele>
                <time>2018-10-20T09:27:14Z</time>
            </trkpt>
            <trkpt lon="101.200935" lat="14.287594">
                <ele>38.500000</ele>
                <time>2018-10-20T09:27:16Z</time>
            </trkpt>
            <trkpt lon="101.200975" lat="14.287604">
                <ele>38.500000</ele>
                <time>2018-10-20T09:27:20Z</time>
            </trkpt>
            <trkpt lon="101.201045" lat="14.287599">
                <ele>38.500000</ele>
                <time>2018-10-20T09:27:24Z</time>
            </trkpt>
            <trkpt lon="101.201069" lat="14.287602">
                <ele>38.600000</ele>
                <time>2018-10-20T09:27:25Z</time>
            </trkpt>
            <trkpt lon="101.201213" lat="14.287601">
                <ele>38.600000</ele>
                <time>2018-10-20T09:27:30Z</time>
            </trkpt>
            <trkpt lon="101.201243" lat="14.287594">
                <ele>38.600000</ele>
                <time>2018-10-20T09:27:31Z</time>
            </trkpt>
            <trkpt lon="101.201471" lat="14.287558">
                <ele>38.600000</ele>
                <time>2018-10-20T09:27:38Z</time>
            </trkpt>
            <trkpt lon="101.201711" lat="14.287496">
                <ele>38.600000</ele>
                <time>2018-10-20T09:27:45Z</time>
            </trkpt>
            <trkpt lon="101.201764" lat="14.287500">
                <ele>38.600000</ele>
                <time>2018-10-20T09:27:49Z</time>
            </trkpt>
            <trkpt lon="101.201744" lat="14.287494">
                <ele>38.600000</ele>
                <time>2018-10-20T09:27:53Z</time>
            </trkpt>
            <trkpt lon="101.201731" lat="14.287491">
                <ele>38.600000</ele>
                <time>2018-10-20T09:27:54Z</time>
            </trkpt>
            <trkpt lon="101.201566" lat="14.287494">
                <ele>38.600000</ele>
                <time>2018-10-20T09:28:01Z</time>
            </trkpt>
            <trkpt lon="101.201402" lat="14.287522">
                <ele>38.600000</ele>
                <time>2018-10-20T09:28:07Z</time>
            </trkpt>
            <trkpt lon="101.201373" lat="14.287519">
                <ele>38.700000</ele>
                <time>2018-10-20T09:28:08Z</time>
            </trkpt>
            <trkpt lon="101.201151" lat="14.287546">
                <ele>38.700000</ele>
                <time>2018-10-20T09:28:15Z</time>
            </trkpt>
            <trkpt lon="101.200896" lat="14.287561">
                <ele>38.700000</ele>
                <time>2018-10-20T09:28:22Z</time>
            </trkpt>
            <trkpt lon="101.200544" lat="14.287607">
                <ele>38.700000</ele>
                <time>2018-10-20T09:28:30Z</time>
            </trkpt>
            <trkpt lon="101.200296" lat="14.287674">
                <ele>38.800000</ele>
                <time>2018-10-20T09:28:36Z</time>
            </trkpt>
            <trkpt lon="101.200225" lat="14.287692">
                <ele>38.800000</ele>
                <time>2018-10-20T09:28:38Z</time>
            </trkpt>
            <trkpt lon="101.200110" lat="14.287714">
                <ele>38.800000</ele>
                <time>2018-10-20T09:28:43Z</time>
            </trkpt>
            <trkpt lon="101.200105" lat="14.287711">
                <ele>38.800000</ele>
                <time>2018-10-20T09:28:47Z</time>
            </trkpt>
            <trkpt lon="101.200105" lat="14.287711">
                <ele>38.800000</ele>
                <time>2018-10-20T09:28:48Z</time>
            </trkpt>
            <trkpt lon="101.200105" lat="14.287711">
                <ele>38.800000</ele>
                <time>2018-10-20T09:28:59Z</time>
            </trkpt>
            <trkpt lon="101.200105" lat="14.287711">
                <ele>38.800000</ele>
                <time>2018-10-20T09:29:11Z</time>
            </trkpt>
            <trkpt lon="101.200105" lat="14.287710">
                <ele>38.800000</ele>
                <time>2018-10-20T09:29:28Z</time>
            </trkpt>
            <trkpt lon="101.200105" lat="14.287710">
                <ele>38.800000</ele>
                <time>2018-10-20T09:29:41Z</time>
            </trkpt>
            <trkpt lon="101.200105" lat="14.287710">
                <ele>38.800000</ele>
                <time>2018-10-20T09:29:54Z</time>
            </trkpt>
            <trkpt lon="101.200105" lat="14.287711">
                <ele>38.800000</ele>
                <time>2018-10-20T09:30:09Z</time>
            </trkpt>
            <trkpt lon="101.200098" lat="14.287712">
                <ele>38.800000</ele>
                <time>2018-10-20T09:30:25Z</time>
            </trkpt>
            <trkpt lon="101.200077" lat="14.287715">
                <ele>38.800000</ele>
                <time>2018-10-20T09:30:26Z</time>
            </trkpt>
            <trkpt lon="101.199972" lat="14.287736">
                <ele>38.800000</ele>
                <time>2018-10-20T09:30:31Z</time>
            </trkpt>
            <trkpt lon="101.199936" lat="14.287743">
                <ele>38.800000</ele>
                <time>2018-10-20T09:30:33Z</time>
            </trkpt>
            <trkpt lon="101.199914" lat="14.287768">
                <ele>38.800000</ele>
                <time>2018-10-20T09:30:35Z</time>
            </trkpt>
            <trkpt lon="101.199915" lat="14.287807">
                <ele>38.800000</ele>
                <time>2018-10-20T09:30:37Z</time>
            </trkpt>
            <trkpt lon="101.199910" lat="14.287818">
                <ele>38.800000</ele>
                <time>2018-10-20T09:30:41Z</time>
            </trkpt>
            <trkpt lon="101.199910" lat="14.287818">
                <ele>38.800000</ele>
                <time>2018-10-20T09:30:55Z</time>
            </trkpt>
            <trkpt lon="101.199863" lat="14.287840">
                <ele>38.800000</ele>
                <time>2018-10-20T09:30:59Z</time>
            </trkpt>
            <trkpt lon="101.199835" lat="14.287829">
                <ele>39.000000</ele>
                <time>2018-10-20T09:31:00Z</time>
            </trkpt>
            <trkpt lon="101.199791" lat="14.287759">
                <ele>39.100000</ele>
                <time>2018-10-20T09:31:03Z</time>
            </trkpt>
            <trkpt lon="101.199771" lat="14.287741">
                <ele>39.100000</ele>
                <time>2018-10-20T09:31:04Z</time>
            </trkpt>
            <trkpt lon="101.199658" lat="14.287709">
                <ele>39.200000</ele>
                <time>2018-10-20T09:31:08Z</time>
            </trkpt>
            <trkpt lon="101.199571" lat="14.287699">
                <ele>39.200000</ele>
                <time>2018-10-20T09:31:11Z</time>
            </trkpt>
            <trkpt lon="101.199488" lat="14.287713">
                <ele>39.300000</ele>
                <time>2018-10-20T09:31:14Z</time>
            </trkpt>
            <trkpt lon="101.199302" lat="14.287719">
                <ele>39.400000</ele>
                <time>2018-10-20T09:31:21Z</time>
            </trkpt>
            <trkpt lon="101.199158" lat="14.287715">
                <ele>39.500000</ele>
                <time>2018-10-20T09:31:27Z</time>
            </trkpt>
            <trkpt lon="101.199124" lat="14.287716">
                <ele>39.500000</ele>
                <time>2018-10-20T09:31:29Z</time>
            </trkpt>
            <trkpt lon="101.199080" lat="14.287724">
                <ele>39.600000</ele>
                <time>2018-10-20T09:31:32Z</time>
            </trkpt>
            <trkpt lon="101.199073" lat="14.287745">
                <ele>39.600000</ele>
                <time>2018-10-20T09:31:34Z</time>
            </trkpt>
            <trkpt lon="101.199101" lat="14.287746">
                <ele>39.600000</ele>
                <time>2018-10-20T09:31:35Z</time>
            </trkpt>
            <trkpt lon="101.199162" lat="14.287743">
                <ele>39.600000</ele>
                <time>2018-10-20T09:31:37Z</time>
            </trkpt>
            <trkpt lon="101.199374" lat="14.287752">
                <ele>39.800000</ele>
                <time>2018-10-20T09:31:42Z</time>
            </trkpt>
            <trkpt lon="101.199655" lat="14.287758">
                <ele>39.300000</ele>
                <time>2018-10-20T09:31:48Z</time>
            </trkpt>
            <trkpt lon="101.199705" lat="14.287767">
                <ele>38.800000</ele>
                <time>2018-10-20T09:31:49Z</time>
            </trkpt>
            <trkpt lon="101.199803" lat="14.287807">
                <ele>38.500000</ele>
                <time>2018-10-20T09:31:51Z</time>
            </trkpt>
            <trkpt lon="101.199842" lat="14.287851">
                <ele>38.400000</ele>
                <time>2018-10-20T09:31:52Z</time>
            </trkpt>
            <trkpt lon="101.199908" lat="14.288011">
                <ele>38.000000</ele>
                <time>2018-10-20T09:31:55Z</time>
            </trkpt>
            <trkpt lon="101.199925" lat="14.288066">
                <ele>37.900000</ele>
                <time>2018-10-20T09:31:56Z</time>
            </trkpt>
            <trkpt lon="101.199941" lat="14.288124">
                <ele>37.800000</ele>
                <time>2018-10-20T09:31:57Z</time>
            </trkpt>
            <trkpt lon="101.200043" lat="14.288470">
                <ele>37.100000</ele>
                <time>2018-10-20T09:32:03Z</time>
            </trkpt>
            <trkpt lon="101.200140" lat="14.288840">
                <ele>36.500000</ele>
                <time>2018-10-20T09:32:09Z</time>
            </trkpt>
            <trkpt lon="101.200264" lat="14.289323">
                <ele>35.800000</ele>
                <time>2018-10-20T09:32:17Z</time>
            </trkpt>
            <trkpt lon="101.200338" lat="14.289648">
                <ele>35.400000</ele>
                <time>2018-10-20T09:32:23Z</time>
            </trkpt>
            <trkpt lon="101.200400" lat="14.290051">
                <ele>34.900000</ele>
                <time>2018-10-20T09:32:30Z</time>
            </trkpt>
            <trkpt lon="101.200429" lat="14.290448">
                <ele>34.300000</ele>
                <time>2018-10-20T09:32:37Z</time>
            </trkpt>
            <trkpt lon="101.200433" lat="14.290504">
                <ele>34.300000</ele>
                <time>2018-10-20T09:32:38Z</time>
            </trkpt>
            <trkpt lon="101.200440" lat="14.290845">
                <ele>33.800000</ele>
                <time>2018-10-20T09:32:44Z</time>
            </trkpt>
            <trkpt lon="101.200445" lat="14.291321">
                <ele>33.200000</ele>
                <time>2018-10-20T09:32:51Z</time>
            </trkpt>
            <trkpt lon="101.200474" lat="14.291879">
                <ele>32.600000</ele>
                <time>2018-10-20T09:33:00Z</time>
            </trkpt>
            <trkpt lon="101.200498" lat="14.292044">
                <ele>32.600000</ele>
                <time>2018-10-20T09:33:03Z</time>
            </trkpt>
            <trkpt lon="101.200531" lat="14.292267">
                <ele>32.600000</ele>
                <time>2018-10-20T09:33:07Z</time>
            </trkpt>
            <trkpt lon="101.200569" lat="14.292515">
                <ele>32.700000</ele>
                <time>2018-10-20T09:33:12Z</time>
            </trkpt>
            <trkpt lon="101.200612" lat="14.292764">
                <ele>32.600000</ele>
                <time>2018-10-20T09:33:17Z</time>
            </trkpt>
            <trkpt lon="101.200632" lat="14.292911">
                <ele>32.400000</ele>
                <time>2018-10-20T09:33:20Z</time>
            </trkpt>
            <trkpt lon="101.200656" lat="14.293058">
                <ele>32.200000</ele>
                <time>2018-10-20T09:33:23Z</time>
            </trkpt>
            <trkpt lon="101.200675" lat="14.293234">
                <ele>31.900000</ele>
                <time>2018-10-20T09:33:27Z</time>
            </trkpt>
            <trkpt lon="101.200690" lat="14.293319">
                <ele>31.800000</ele>
                <time>2018-10-20T09:33:29Z</time>
            </trkpt>
            <trkpt lon="101.200693" lat="14.293365">
                <ele>31.700000</ele>
                <time>2018-10-20T09:33:30Z</time>
            </trkpt>
            <trkpt lon="101.200701" lat="14.293504">
                <ele>31.600000</ele>
                <time>2018-10-20T09:33:33Z</time>
            </trkpt>
            <trkpt lon="101.200758" lat="14.293913">
                <ele>31.100000</ele>
                <time>2018-10-20T09:33:42Z</time>
            </trkpt>
            <trkpt lon="101.200805" lat="14.294051">
                <ele>30.900000</ele>
                <time>2018-10-20T09:33:45Z</time>
            </trkpt>
            <trkpt lon="101.200831" lat="14.294090">
                <ele>30.800000</ele>
                <time>2018-10-20T09:33:46Z</time>
            </trkpt>
            <trkpt lon="101.200868" lat="14.294123">
                <ele>30.700000</ele>
                <time>2018-10-20T09:33:47Z</time>
            </trkpt>
            <trkpt lon="101.201052" lat="14.294197">
                <ele>30.200000</ele>
                <time>2018-10-20T09:33:51Z</time>
            </trkpt>
            <trkpt lon="101.201206" lat="14.294212">
                <ele>29.800000</ele>
                <time>2018-10-20T09:33:54Z</time>
            </trkpt>
            <trkpt lon="101.201374" lat="14.294218">
                <ele>29.300000</ele>
                <time>2018-10-20T09:33:57Z</time>
            </trkpt>
            <trkpt lon="101.201885" lat="14.294191">
                <ele>29.800000</ele>
                <time>2018-10-20T09:34:06Z</time>
            </trkpt>
            <trkpt lon="101.202063" lat="14.294174">
                <ele>30.000000</ele>
                <time>2018-10-20T09:34:09Z</time>
            </trkpt>
            <trkpt lon="101.202355" lat="14.294149">
                <ele>27.200000</ele>
                <time>2018-10-20T09:34:14Z</time>
            </trkpt>
            <trkpt lon="101.202744" lat="14.294127">
                <ele>30.200000</ele>
                <time>2018-10-20T09:34:20Z</time>
            </trkpt>
            <trkpt lon="101.202941" lat="14.294109">
                <ele>32.200000</ele>
                <time>2018-10-20T09:34:23Z</time>
            </trkpt>
            <trkpt lon="101.203402" lat="14.294094">
                <ele>36.100000</ele>
                <time>2018-10-20T09:34:30Z</time>
            </trkpt>
            <trkpt lon="101.203466" lat="14.294098">
                <ele>36.000000</ele>
                <time>2018-10-20T09:34:31Z</time>
            </trkpt>
            <trkpt lon="101.203841" lat="14.294178">
                <ele>37.200000</ele>
                <time>2018-10-20T09:34:37Z</time>
            </trkpt>
            <trkpt lon="101.204171" lat="14.294273">
                <ele>38.100000</ele>
                <time>2018-10-20T09:34:42Z</time>
            </trkpt>
            <trkpt lon="101.204241" lat="14.294296">
                <ele>37.500000</ele>
                <time>2018-10-20T09:34:43Z</time>
            </trkpt>
            <trkpt lon="101.204793" lat="14.294472">
                <ele>26.000000</ele>
                <time>2018-10-20T09:34:51Z</time>
            </trkpt>
            <trkpt lon="101.204926" lat="14.294516">
                <ele>25.800000</ele>
                <time>2018-10-20T09:34:53Z</time>
            </trkpt>
            <trkpt lon="101.204992" lat="14.294539">
                <ele>26.000000</ele>
                <time>2018-10-20T09:34:54Z</time>
            </trkpt>
            <trkpt lon="101.205545" lat="14.294716">
                <ele>25.900000</ele>
                <time>2018-10-20T09:35:03Z</time>
            </trkpt>
            <trkpt lon="101.205604" lat="14.294738">
                <ele>25.700000</ele>
                <time>2018-10-20T09:35:04Z</time>
            </trkpt>
            <trkpt lon="101.205988" lat="14.294850">
                <ele>25.800000</ele>
                <time>2018-10-20T09:35:11Z</time>
            </trkpt>
            <trkpt lon="101.206025" lat="14.294871">
                <ele>25.900000</ele>
                <time>2018-10-20T09:35:12Z</time>
            </trkpt>
            <trkpt lon="101.206176" lat="14.294928">
                <ele>26.900000</ele>
                <time>2018-10-20T09:35:16Z</time>
            </trkpt>
            <trkpt lon="101.206479" lat="14.295040">
                <ele>28.300000</ele>
                <time>2018-10-20T09:35:23Z</time>
            </trkpt>
            <trkpt lon="101.206653" lat="14.295137">
                <ele>27.900000</ele>
                <time>2018-10-20T09:35:27Z</time>
            </trkpt>
            <trkpt lon="101.206674" lat="14.295187">
                <ele>27.800000</ele>
                <time>2018-10-20T09:35:28Z</time>
            </trkpt>
            <trkpt lon="101.206677" lat="14.295351">
                <ele>27.600000</ele>
                <time>2018-10-20T09:35:31Z</time>
            </trkpt>
            <trkpt lon="101.206726" lat="14.295814">
                <ele>27.200000</ele>
                <time>2018-10-20T09:35:40Z</time>
            </trkpt>
            <trkpt lon="101.206877" lat="14.296160">
                <ele>26.900000</ele>
                <time>2018-10-20T09:35:47Z</time>
            </trkpt>
            <trkpt lon="101.207099" lat="14.296618">
                <ele>26.400000</ele>
                <time>2018-10-20T09:35:56Z</time>
            </trkpt>
            <trkpt lon="101.207284" lat="14.296971">
                <ele>26.000000</ele>
                <time>2018-10-20T09:36:03Z</time>
            </trkpt>
            <trkpt lon="101.207359" lat="14.297049">
                <ele>26.000000</ele>
                <time>2018-10-20T09:36:05Z</time>
            </trkpt>
            <trkpt lon="101.207447" lat="14.297116">
                <ele>26.200000</ele>
                <time>2018-10-20T09:36:07Z</time>
            </trkpt>
            <trkpt lon="101.207633" lat="14.297246">
                <ele>26.400000</ele>
                <time>2018-10-20T09:36:11Z</time>
            </trkpt>
            <trkpt lon="101.208025" lat="14.297572">
                <ele>26.900000</ele>
                <time>2018-10-20T09:36:20Z</time>
            </trkpt>
            <trkpt lon="101.208191" lat="14.297876">
                <ele>26.900000</ele>
                <time>2018-10-20T09:36:26Z</time>
            </trkpt>
            <trkpt lon="101.208412" lat="14.298372">
                <ele>26.400000</ele>
                <time>2018-10-20T09:36:35Z</time>
            </trkpt>
            <trkpt lon="101.208636" lat="14.298871">
                <ele>24.100000</ele>
                <time>2018-10-20T09:36:44Z</time>
            </trkpt>
            <trkpt lon="101.208845" lat="14.299006">
                <ele>23.600000</ele>
                <time>2018-10-20T09:36:48Z</time>
            </trkpt>
            <trkpt lon="101.209023" lat="14.299074">
                <ele>23.700000</ele>
                <time>2018-10-20T09:36:51Z</time>
            </trkpt>
            <trkpt lon="101.209204" lat="14.299135">
                <ele>23.900000</ele>
                <time>2018-10-20T09:36:54Z</time>
            </trkpt>
            <trkpt lon="101.209261" lat="14.299151">
                <ele>23.900000</ele>
                <time>2018-10-20T09:36:55Z</time>
            </trkpt>
            <trkpt lon="101.209572" lat="14.299260">
                <ele>24.200000</ele>
                <time>2018-10-20T09:37:01Z</time>
            </trkpt>
            <trkpt lon="101.209994" lat="14.299413">
                <ele>24.100000</ele>
                <time>2018-10-20T09:37:10Z</time>
            </trkpt>
            <trkpt lon="101.210513" lat="14.299623">
                <ele>24.900000</ele>
                <time>2018-10-20T09:37:20Z</time>
            </trkpt>
            <trkpt lon="101.210607" lat="14.299695">
                <ele>24.900000</ele>
                <time>2018-10-20T09:37:22Z</time>
            </trkpt>
            <trkpt lon="101.210727" lat="14.299822">
                <ele>25.000000</ele>
                <time>2018-10-20T09:37:25Z</time>
            </trkpt>
            <trkpt lon="101.210891" lat="14.299980">
                <ele>25.100000</ele>
                <time>2018-10-20T09:37:30Z</time>
            </trkpt>
            <trkpt lon="101.210889" lat="14.300028">
                <ele>25.200000</ele>
                <time>2018-10-20T09:37:31Z</time>
            </trkpt>
            <trkpt lon="101.210867" lat="14.300141">
                <ele>23.700000</ele>
                <time>2018-10-20T09:37:33Z</time>
            </trkpt>
            <trkpt lon="101.210787" lat="14.300550">
                <ele>22.100000</ele>
                <time>2018-10-20T09:37:40Z</time>
            </trkpt>
            <trkpt lon="101.210695" lat="14.301015">
                <ele>25.800000</ele>
                <time>2018-10-20T09:37:48Z</time>
            </trkpt>
            <trkpt lon="101.210587" lat="14.301551">
                <ele>26.200000</ele>
                <time>2018-10-20T09:37:57Z</time>
            </trkpt>
            <trkpt lon="101.210575" lat="14.301605">
                <ele>26.200000</ele>
                <time>2018-10-20T09:37:58Z</time>
            </trkpt>
            <trkpt lon="101.210550" lat="14.301658">
                <ele>26.100000</ele>
                <time>2018-10-20T09:37:59Z</time>
            </trkpt>
            <trkpt lon="101.210440" lat="14.301800">
                <ele>25.500000</ele>
                <time>2018-10-20T09:38:02Z</time>
            </trkpt>
            <trkpt lon="101.210279" lat="14.301870">
                <ele>24.800000</ele>
                <time>2018-10-20T09:38:05Z</time>
            </trkpt>
            <trkpt lon="101.210053" lat="14.301896">
                <ele>24.300000</ele>
                <time>2018-10-20T09:38:09Z</time>
            </trkpt>
            <trkpt lon="101.209997" lat="14.301896">
                <ele>24.600000</ele>
                <time>2018-10-20T09:38:10Z</time>
            </trkpt>
            <trkpt lon="101.209552" lat="14.301904">
                <ele>26.000000</ele>
                <time>2018-10-20T09:38:18Z</time>
            </trkpt>
            <trkpt lon="101.209267" lat="14.301901">
                <ele>26.000000</ele>
                <time>2018-10-20T09:38:23Z</time>
            </trkpt>
            <trkpt lon="101.209050" lat="14.301920">
                <ele>26.000000</ele>
                <time>2018-10-20T09:38:27Z</time>
            </trkpt>
            <trkpt lon="101.208836" lat="14.302000">
                <ele>25.800000</ele>
                <time>2018-10-20T09:38:31Z</time>
            </trkpt>
            <trkpt lon="101.208790" lat="14.302033">
                <ele>25.900000</ele>
                <time>2018-10-20T09:38:32Z</time>
            </trkpt>
            <trkpt lon="101.208687" lat="14.302167">
                <ele>26.700000</ele>
                <time>2018-10-20T09:38:35Z</time>
            </trkpt>
            <trkpt lon="101.208641" lat="14.302268">
                <ele>27.100000</ele>
                <time>2018-10-20T09:38:37Z</time>
            </trkpt>
            <trkpt lon="101.208609" lat="14.302370">
                <ele>27.800000</ele>
                <time>2018-10-20T09:38:39Z</time>
            </trkpt>
            <trkpt lon="101.208584" lat="14.302472">
                <ele>28.400000</ele>
                <time>2018-10-20T09:38:41Z</time>
            </trkpt>
            <trkpt lon="101.208521" lat="14.302874">
                <ele>30.900000</ele>
                <time>2018-10-20T09:38:49Z</time>
            </trkpt>
            <trkpt lon="101.208474" lat="14.303241">
                <ele>30.800000</ele>
                <time>2018-10-20T09:38:57Z</time>
            </trkpt>
            <trkpt lon="101.208454" lat="14.303336">
                <ele>30.400000</ele>
                <time>2018-10-20T09:38:59Z</time>
            </trkpt>
            <trkpt lon="101.208413" lat="14.303592">
                <ele>29.800000</ele>
                <time>2018-10-20T09:39:04Z</time>
            </trkpt>
            <trkpt lon="101.208323" lat="14.304106">
                <ele>29.200000</ele>
                <time>2018-10-20T09:39:14Z</time>
            </trkpt>
            <trkpt lon="101.208269" lat="14.304557">
                <ele>28.500000</ele>
                <time>2018-10-20T09:39:23Z</time>
            </trkpt>
            <trkpt lon="101.208274" lat="14.304604">
                <ele>28.800000</ele>
                <time>2018-10-20T09:39:24Z</time>
            </trkpt>
            <trkpt lon="101.208329" lat="14.304826">
                <ele>29.500000</ele>
                <time>2018-10-20T09:39:29Z</time>
            </trkpt>
            <trkpt lon="101.208420" lat="14.305105">
                <ele>29.800000</ele>
                <time>2018-10-20T09:39:35Z</time>
            </trkpt>
            <trkpt lon="101.208455" lat="14.305200">
                <ele>29.300000</ele>
                <time>2018-10-20T09:39:37Z</time>
            </trkpt>
            <trkpt lon="101.208643" lat="14.305729">
                <ele>26.000000</ele>
                <time>2018-10-20T09:39:48Z</time>
            </trkpt>
            <trkpt lon="101.208671" lat="14.306078">
                <ele>28.000000</ele>
                <time>2018-10-20T09:39:55Z</time>
            </trkpt>
            <trkpt lon="101.208668" lat="14.306176">
                <ele>28.700000</ele>
                <time>2018-10-20T09:39:57Z</time>
            </trkpt>
            <trkpt lon="101.208637" lat="14.306493">
                <ele>29.800000</ele>
                <time>2018-10-20T09:40:04Z</time>
            </trkpt>
            <trkpt lon="101.208589" lat="14.306696">
                <ele>30.000000</ele>
                <time>2018-10-20T09:40:10Z</time>
            </trkpt>
            <trkpt lon="101.208564" lat="14.306720">
                <ele>30.000000</ele>
                <time>2018-10-20T09:40:14Z</time>
            </trkpt>
            <trkpt lon="101.208564" lat="14.306720">
                <ele>30.000000</ele>
                <time>2018-10-20T09:40:24Z</time>
            </trkpt>
            <trkpt lon="101.208563" lat="14.306720">
                <ele>30.000000</ele>
                <time>2018-10-20T09:40:38Z</time>
            </trkpt>
            <trkpt lon="101.208469" lat="14.306689">
                <ele>30.000000</ele>
                <time>2018-10-20T09:40:42Z</time>
            </trkpt>
            <trkpt lon="101.208438" lat="14.306685">
                <ele>30.000000</ele>
                <time>2018-10-20T09:40:43Z</time>
            </trkpt>
            <trkpt lon="101.208278" lat="14.306670">
                <ele>30.000000</ele>
                <time>2018-10-20T09:40:48Z</time>
            </trkpt>
            <trkpt lon="101.207996" lat="14.306650">
                <ele>30.000000</ele>
                <time>2018-10-20T09:40:55Z</time>
            </trkpt>
            <trkpt lon="101.207698" lat="14.306615">
                <ele>30.100000</ele>
                <time>2018-10-20T09:41:01Z</time>
            </trkpt>
            <trkpt lon="101.207158" lat="14.306577">
                <ele>33.600000</ele>
                <time>2018-10-20T09:41:11Z</time>
            </trkpt>
            <trkpt lon="101.206621" lat="14.306543">
                <ele>34.400000</ele>
                <time>2018-10-20T09:41:21Z</time>
            </trkpt>
            <trkpt lon="101.206252" lat="14.306514">
                <ele>32.200000</ele>
                <time>2018-10-20T09:41:28Z</time>
            </trkpt>
            <trkpt lon="101.206203" lat="14.306510">
                <ele>31.900000</ele>
                <time>2018-10-20T09:41:29Z</time>
            </trkpt>
            <trkpt lon="101.206019" lat="14.306470">
                <ele>30.600000</ele>
                <time>2018-10-20T09:41:33Z</time>
            </trkpt>
            <trkpt lon="101.205977" lat="14.306449">
                <ele>30.500000</ele>
                <time>2018-10-20T09:41:34Z</time>
            </trkpt>
            <trkpt lon="101.205937" lat="14.306424">
                <ele>30.700000</ele>
                <time>2018-10-20T09:41:35Z</time>
            </trkpt>
            <trkpt lon="101.205829" lat="14.306314">
                <ele>30.600000</ele>
                <time>2018-10-20T09:41:38Z</time>
            </trkpt>
            <trkpt lon="101.205667" lat="14.306080">
                <ele>31.000000</ele>
                <time>2018-10-20T09:41:44Z</time>
            </trkpt>
            <trkpt lon="101.205490" lat="14.305812">
                <ele>30.700000</ele>
                <time>2018-10-20T09:41:51Z</time>
            </trkpt>
            <trkpt lon="101.205259" lat="14.305485">
                <ele>33.100000</ele>
                <time>2018-10-20T09:41:59Z</time>
            </trkpt>
            <trkpt lon="101.205123" lat="14.305259">
                <ele>34.900000</ele>
                <time>2018-10-20T09:42:04Z</time>
            </trkpt>
            <trkpt lon="101.205063" lat="14.305172">
                <ele>34.800000</ele>
                <time>2018-10-20T09:42:06Z</time>
            </trkpt>
            <trkpt lon="101.204945" lat="14.305103">
                <ele>34.900000</ele>
                <time>2018-10-20T09:42:09Z</time>
            </trkpt>
            <trkpt lon="101.204826" lat="14.304973">
                <ele>33.600000</ele>
                <time>2018-10-20T09:42:13Z</time>
            </trkpt>
            <trkpt lon="101.204692" lat="14.304989">
                <ele>32.400000</ele>
                <time>2018-10-20T09:42:16Z</time>
            </trkpt>
            <trkpt lon="101.204636" lat="14.305069">
                <ele>31.400000</ele>
                <time>2018-10-20T09:42:19Z</time>
            </trkpt>
            <trkpt lon="101.204619" lat="14.305093">
                <ele>31.300000</ele>
                <time>2018-10-20T09:42:20Z</time>
            </trkpt>
            <trkpt lon="101.204501" lat="14.305150">
                <ele>30.200000</ele>
                <time>2018-10-20T09:42:25Z</time>
            </trkpt>
            <trkpt lon="101.204345" lat="14.305192">
                <ele>29.800000</ele>
                <time>2018-10-20T09:42:30Z</time>
            </trkpt>
            <trkpt lon="101.204309" lat="14.305201">
                <ele>29.800000</ele>
                <time>2018-10-20T09:42:31Z</time>
            </trkpt>
            <trkpt lon="101.204192" lat="14.305278">
                <ele>29.900000</ele>
                <time>2018-10-20T09:42:35Z</time>
            </trkpt>
            <trkpt lon="101.204138" lat="14.305404">
                <ele>29.900000</ele>
                <time>2018-10-20T09:42:39Z</time>
            </trkpt>
            <trkpt lon="101.204154" lat="14.305518">
                <ele>29.600000</ele>
                <time>2018-10-20T09:42:44Z</time>
            </trkpt>
            <trkpt lon="101.204207" lat="14.305662">
                <ele>30.000000</ele>
                <time>2018-10-20T09:42:50Z</time>
            </trkpt>
            <trkpt lon="101.204251" lat="14.305868">
                <ele>29.900000</ele>
                <time>2018-10-20T09:42:56Z</time>
            </trkpt>
            <trkpt lon="101.204303" lat="14.306053">
                <ele>30.400000</ele>
                <time>2018-10-20T09:43:02Z</time>
            </trkpt>
            <trkpt lon="101.204304" lat="14.306112">
                <ele>30.400000</ele>
                <time>2018-10-20T09:43:04Z</time>
            </trkpt>
            <trkpt lon="101.204279" lat="14.306164">
                <ele>29.900000</ele>
                <time>2018-10-20T09:43:06Z</time>
            </trkpt>
            <trkpt lon="101.204145" lat="14.306263">
                <ele>29.400000</ele>
                <time>2018-10-20T09:43:11Z</time>
            </trkpt>
            <trkpt lon="101.204024" lat="14.306384">
                <ele>28.900000</ele>
                <time>2018-10-20T09:43:17Z</time>
            </trkpt>
            <trkpt lon="101.204010" lat="14.306491">
                <ele>28.600000</ele>
                <time>2018-10-20T09:43:22Z</time>
            </trkpt>
            <trkpt lon="101.204060" lat="14.306659">
                <ele>28.700000</ele>
                <time>2018-10-20T09:43:29Z</time>
            </trkpt>
            <trkpt lon="101.204110" lat="14.306841">
                <ele>29.100000</ele>
                <time>2018-10-20T09:43:35Z</time>
            </trkpt>
            <trkpt lon="101.204073" lat="14.306959">
                <ele>30.000000</ele>
                <time>2018-10-20T09:43:39Z</time>
            </trkpt>
            <trkpt lon="101.204075" lat="14.307072">
                <ele>30.900000</ele>
                <time>2018-10-20T09:43:44Z</time>
            </trkpt>
            <trkpt lon="101.204099" lat="14.307203">
                <ele>31.400000</ele>
                <time>2018-10-20T09:43:50Z</time>
            </trkpt>
            <trkpt lon="101.204131" lat="14.307347">
                <ele>32.400000</ele>
                <time>2018-10-20T09:43:56Z</time>
            </trkpt>
            <trkpt lon="101.204147" lat="14.307439">
                <ele>33.200000</ele>
                <time>2018-10-20T09:44:00Z</time>
            </trkpt>
            <trkpt lon="101.204172" lat="14.307532">
                <ele>33.800000</ele>
                <time>2018-10-20T09:44:04Z</time>
            </trkpt>
            <trkpt lon="101.204221" lat="14.307700">
                <ele>35.400000</ele>
                <time>2018-10-20T09:44:11Z</time>
            </trkpt>
            <trkpt lon="101.204270" lat="14.307878">
                <ele>36.200000</ele>
                <time>2018-10-20T09:44:18Z</time>
            </trkpt>
            <trkpt lon="101.204319" lat="14.308019">
                <ele>35.700000</ele>
                <time>2018-10-20T09:44:24Z</time>
            </trkpt>
            <trkpt lon="101.204356" lat="14.308203">
                <ele>35.900000</ele>
                <time>2018-10-20T09:44:31Z</time>
            </trkpt>
            <trkpt lon="101.204374" lat="14.308429">
                <ele>37.300000</ele>
                <time>2018-10-20T09:44:39Z</time>
            </trkpt>
            <trkpt lon="101.204313" lat="14.308594">
                <ele>38.100000</ele>
                <time>2018-10-20T09:44:45Z</time>
            </trkpt>
            <trkpt lon="101.204291" lat="14.308726">
                <ele>38.400000</ele>
                <time>2018-10-20T09:44:50Z</time>
            </trkpt>
            <trkpt lon="101.204365" lat="14.308838">
                <ele>39.700000</ele>
                <time>2018-10-20T09:44:56Z</time>
            </trkpt>
            <trkpt lon="101.204372" lat="14.308852">
                <ele>39.800000</ele>
                <time>2018-10-20T09:44:59Z</time>
            </trkpt>
            <trkpt lon="101.204373" lat="14.308864">
                <ele>39.800000</ele>
                <time>2018-10-20T09:45:02Z</time>
            </trkpt>
            <trkpt lon="101.204374" lat="14.308866">
                <ele>39.800000</ele>
                <time>2018-10-20T09:45:09Z</time>
            </trkpt>
            <trkpt lon="101.204379" lat="14.308894">
                <ele>39.500000</ele>
                <time>2018-10-20T09:45:11Z</time>
            </trkpt>
            <trkpt lon="101.204386" lat="14.308936">
                <ele>39.700000</ele>
                <time>2018-10-20T09:45:14Z</time>
            </trkpt>
            <trkpt lon="101.204387" lat="14.308970">
                <ele>39.200000</ele>
                <time>2018-10-20T09:45:16Z</time>
            </trkpt>
            <trkpt lon="101.204388" lat="14.308985">
                <ele>39.200000</ele>
                <time>2018-10-20T09:45:17Z</time>
            </trkpt>
            <trkpt lon="101.204377" lat="14.309029">
                <ele>38.200000</ele>
                <time>2018-10-20T09:45:20Z</time>
            </trkpt>
            <trkpt lon="101.204379" lat="14.309055">
                <ele>37.700000</ele>
                <time>2018-10-20T09:45:22Z</time>
            </trkpt>
            <trkpt lon="101.204377" lat="14.309073">
                <ele>37.700000</ele>
                <time>2018-10-20T09:45:27Z</time>
            </trkpt>
            <trkpt lon="101.204379" lat="14.309102">
                <ele>37.100000</ele>
                <time>2018-10-20T09:45:37Z</time>
            </trkpt>
            <trkpt lon="101.204376" lat="14.309114">
                <ele>37.100000</ele>
                <time>2018-10-20T09:45:46Z</time>
            </trkpt>
            <trkpt lon="101.204368" lat="14.309157">
                <ele>36.500000</ele>
                <time>2018-10-20T09:45:51Z</time>
            </trkpt>
            <trkpt lon="101.204364" lat="14.309175">
                <ele>35.900000</ele>
                <time>2018-10-20T09:45:52Z</time>
            </trkpt>
            <trkpt lon="101.204359" lat="14.309215">
                <ele>35.900000</ele>
                <time>2018-10-20T09:45:55Z</time>
            </trkpt>
            <trkpt lon="101.204352" lat="14.309234">
                <ele>35.700000</ele>
                <time>2018-10-20T09:45:57Z</time>
            </trkpt>
            <trkpt lon="101.204355" lat="14.309283">
                <ele>35.700000</ele>
                <time>2018-10-20T09:46:01Z</time>
            </trkpt>
            <trkpt lon="101.204358" lat="14.309337">
                <ele>35.600000</ele>
                <time>2018-10-20T09:46:08Z</time>
            </trkpt>
            <trkpt lon="101.204365" lat="14.309387">
                <ele>35.700000</ele>
                <time>2018-10-20T09:46:15Z</time>
            </trkpt>
            <trkpt lon="101.204371" lat="14.309421">
                <ele>35.700000</ele>
                <time>2018-10-20T09:46:22Z</time>
            </trkpt>
            <trkpt lon="101.204358" lat="14.309540">
                <ele>36.100000</ele>
                <time>2018-10-20T09:46:30Z</time>
            </trkpt>
            <trkpt lon="101.204346" lat="14.309640">
                <ele>36.800000</ele>
                <time>2018-10-20T09:46:36Z</time>
            </trkpt>
            <trkpt lon="101.204332" lat="14.309719">
                <ele>36.800000</ele>
                <time>2018-10-20T09:46:40Z</time>
            </trkpt>
            <trkpt lon="101.204327" lat="14.309754">
                <ele>36.800000</ele>
                <time>2018-10-20T09:46:42Z</time>
            </trkpt>
            <trkpt lon="101.204328" lat="14.309771">
                <ele>36.800000</ele>
                <time>2018-10-20T09:46:43Z</time>
            </trkpt>
            <trkpt lon="101.204317" lat="14.309854">
                <ele>36.700000</ele>
                <time>2018-10-20T09:46:48Z</time>
            </trkpt>
            <trkpt lon="101.204291" lat="14.309982">
                <ele>36.500000</ele>
                <time>2018-10-20T09:46:55Z</time>
            </trkpt>
            <trkpt lon="101.204294" lat="14.310072">
                <ele>36.400000</ele>
                <time>2018-10-20T09:47:00Z</time>
            </trkpt>
            <trkpt lon="101.204305" lat="14.310086">
                <ele>36.600000</ele>
                <time>2018-10-20T09:47:01Z</time>
            </trkpt>
            <trkpt lon="101.204370" lat="14.310126">
                <ele>36.900000</ele>
                <time>2018-10-20T09:47:06Z</time>
            </trkpt>
            <trkpt lon="101.204383" lat="14.310122">
                <ele>37.100000</ele>
                <time>2018-10-20T09:47:07Z</time>
            </trkpt>
            <trkpt lon="101.204450" lat="14.310095">
                <ele>37.300000</ele>
                <time>2018-10-20T09:47:12Z</time>
            </trkpt>
            <trkpt lon="101.204466" lat="14.310093">
                <ele>37.200000</ele>
                <time>2018-10-20T09:47:13Z</time>
            </trkpt>
            <trkpt lon="101.204500" lat="14.310089">
                <ele>37.400000</ele>
                <time>2018-10-20T09:47:15Z</time>
            </trkpt>
            <trkpt lon="101.204594" lat="14.310063">
                <ele>37.800000</ele>
                <time>2018-10-20T09:47:21Z</time>
            </trkpt>
            <trkpt lon="101.204605" lat="14.310055">
                <ele>38.000000</ele>
                <time>2018-10-20T09:47:22Z</time>
            </trkpt>
            <trkpt lon="101.204626" lat="14.310051">
                <ele>38.000000</ele>
                <time>2018-10-20T09:47:26Z</time>
            </trkpt>
            <trkpt lon="101.204626" lat="14.310051">
                <ele>38.000000</ele>
                <time>2018-10-20T09:47:34Z</time>
            </trkpt>
            <trkpt lon="101.204659" lat="14.310043">
                <ele>38.400000</ele>
                <time>2018-10-20T09:47:42Z</time>
            </trkpt>
            <trkpt lon="101.204728" lat="14.310049">
                <ele>38.700000</ele>
                <time>2018-10-20T09:47:50Z</time>
            </trkpt>
            <trkpt lon="101.204735" lat="14.310024">
                <ele>38.900000</ele>
                <time>2018-10-20T09:47:57Z</time>
            </trkpt>
            <trkpt lon="101.204732" lat="14.310004">
                <ele>39.000000</ele>
                <time>2018-10-20T09:47:59Z</time>
            </trkpt>
            <trkpt lon="101.204730" lat="14.309975">
                <ele>39.000000</ele>
                <time>2018-10-20T09:48:04Z</time>
            </trkpt>
            <trkpt lon="101.204724" lat="14.309876">
                <ele>39.000000</ele>
                <time>2018-10-20T09:48:13Z</time>
            </trkpt>
            <trkpt lon="101.204724" lat="14.309829">
                <ele>38.800000</ele>
                <time>2018-10-20T09:48:20Z</time>
            </trkpt>
            <trkpt lon="101.204717" lat="14.309813">
                <ele>38.800000</ele>
                <time>2018-10-20T09:48:28Z</time>
            </trkpt>
            <trkpt lon="101.204723" lat="14.309822">
                <ele>38.700000</ele>
                <time>2018-10-20T09:48:35Z</time>
            </trkpt>
            <trkpt lon="101.204713" lat="14.309865">
                <ele>38.800000</ele>
                <time>2018-10-20T09:48:43Z</time>
            </trkpt>
            <trkpt lon="101.204722" lat="14.309899">
                <ele>38.800000</ele>
                <time>2018-10-20T09:48:53Z</time>
            </trkpt>
            <trkpt lon="101.204773" lat="14.309914">
                <ele>39.600000</ele>
                <time>2018-10-20T09:49:01Z</time>
            </trkpt>
            <trkpt lon="101.204817" lat="14.309918">
                <ele>39.600000</ele>
                <time>2018-10-20T09:49:06Z</time>
            </trkpt>
            <trkpt lon="101.204821" lat="14.309924">
                <ele>39.400000</ele>
                <time>2018-10-20T09:49:07Z</time>
            </trkpt>
            <trkpt lon="101.204835" lat="14.309985">
                <ele>39.200000</ele>
                <time>2018-10-20T09:49:15Z</time>
            </trkpt>
            <trkpt lon="101.204846" lat="14.310013">
                <ele>39.000000</ele>
                <time>2018-10-20T09:49:19Z</time>
            </trkpt>
            <trkpt lon="101.204851" lat="14.310026">
                <ele>38.900000</ele>
                <time>2018-10-20T09:49:21Z</time>
            </trkpt>
            <trkpt lon="101.204862" lat="14.310097">
                <ele>38.900000</ele>
                <time>2018-10-20T09:49:27Z</time>
            </trkpt>
            <trkpt lon="101.204882" lat="14.310171">
                <ele>38.800000</ele>
                <time>2018-10-20T09:49:35Z</time>
            </trkpt>
            <trkpt lon="101.204882" lat="14.310171">
                <ele>38.700000</ele>
                <time>2018-10-20T09:49:40Z</time>
            </trkpt>
            <trkpt lon="101.204889" lat="14.310196">
                <ele>38.600000</ele>
                <time>2018-10-20T09:49:42Z</time>
            </trkpt>
            <trkpt lon="101.204890" lat="14.310225">
                <ele>38.600000</ele>
                <time>2018-10-20T09:49:44Z</time>
            </trkpt>
            <trkpt lon="101.204896" lat="14.310317">
                <ele>39.100000</ele>
                <time>2018-10-20T09:49:50Z</time>
            </trkpt>
            <trkpt lon="101.204934" lat="14.310441">
                <ele>39.200000</ele>
                <time>2018-10-20T09:49:57Z</time>
            </trkpt>
            <trkpt lon="101.204981" lat="14.310566">
                <ele>39.300000</ele>
                <time>2018-10-20T09:50:05Z</time>
            </trkpt>
            <trkpt lon="101.205036" lat="14.310670">
                <ele>39.300000</ele>
                <time>2018-10-20T09:50:12Z</time>
            </trkpt>
            <trkpt lon="101.205004" lat="14.310743">
                <ele>39.300000</ele>
                <time>2018-10-20T09:50:18Z</time>
            </trkpt>
            <trkpt lon="101.204968" lat="14.310853">
                <ele>39.200000</ele>
                <time>2018-10-20T09:50:25Z</time>
            </trkpt>
            <trkpt lon="101.204930" lat="14.310941">
                <ele>38.600000</ele>
                <time>2018-10-20T09:50:31Z</time>
            </trkpt>
            <trkpt lon="101.204898" lat="14.310974">
                <ele>38.300000</ele>
                <time>2018-10-20T09:50:34Z</time>
            </trkpt>
            <trkpt lon="101.204838" lat="14.311024">
                <ele>37.600000</ele>
                <time>2018-10-20T09:50:38Z</time>
            </trkpt>
            <trkpt lon="101.204776" lat="14.311116">
                <ele>37.200000</ele>
                <time>2018-10-20T09:50:44Z</time>
            </trkpt>
            <trkpt lon="101.204765" lat="14.311239">
                <ele>37.100000</ele>
                <time>2018-10-20T09:50:51Z</time>
            </trkpt>
            <trkpt lon="101.204752" lat="14.311287">
                <ele>37.100000</ele>
                <time>2018-10-20T09:50:54Z</time>
            </trkpt>
            <trkpt lon="101.204719" lat="14.311345">
                <ele>37.000000</ele>
                <time>2018-10-20T09:50:58Z</time>
            </trkpt>
            <trkpt lon="101.204593" lat="14.311452">
                <ele>36.400000</ele>
                <time>2018-10-20T09:51:06Z</time>
            </trkpt>
            <trkpt lon="101.204528" lat="14.311568">
                <ele>35.500000</ele>
                <time>2018-10-20T09:51:13Z</time>
            </trkpt>
            <trkpt lon="101.204533" lat="14.311704">
                <ele>35.000000</ele>
                <time>2018-10-20T09:51:20Z</time>
            </trkpt>
            <trkpt lon="101.204561" lat="14.311840">
                <ele>34.900000</ele>
                <time>2018-10-20T09:51:27Z</time>
            </trkpt>
            <trkpt lon="101.204649" lat="14.311976">
                <ele>34.900000</ele>
                <time>2018-10-20T09:51:36Z</time>
            </trkpt>
            <trkpt lon="101.204704" lat="14.312085">
                <ele>35.200000</ele>
                <time>2018-10-20T09:51:42Z</time>
            </trkpt>
            <trkpt lon="101.204727" lat="14.312124">
                <ele>35.200000</ele>
                <time>2018-10-20T09:51:45Z</time>
            </trkpt>
            <trkpt lon="101.204744" lat="14.312174">
                <ele>35.700000</ele>
                <time>2018-10-20T09:51:48Z</time>
            </trkpt>
            <trkpt lon="101.204760" lat="14.312214">
                <ele>35.800000</ele>
                <time>2018-10-20T09:51:51Z</time>
            </trkpt>
            <trkpt lon="101.204779" lat="14.312270">
                <ele>35.600000</ele>
                <time>2018-10-20T09:51:55Z</time>
            </trkpt>
            <trkpt lon="101.204784" lat="14.312304">
                <ele>35.600000</ele>
                <time>2018-10-20T09:51:57Z</time>
            </trkpt>
            <trkpt lon="101.204774" lat="14.312402">
                <ele>35.500000</ele>
                <time>2018-10-20T09:52:03Z</time>
            </trkpt>
            <trkpt lon="101.204769" lat="14.312419">
                <ele>35.500000</ele>
                <time>2018-10-20T09:52:04Z</time>
            </trkpt>
            <trkpt lon="101.204762" lat="14.312454">
                <ele>35.800000</ele>
                <time>2018-10-20T09:52:06Z</time>
            </trkpt>
            <trkpt lon="101.204727" lat="14.312528">
                <ele>35.800000</ele>
                <time>2018-10-20T09:52:11Z</time>
            </trkpt>
            <trkpt lon="101.204697" lat="14.312665">
                <ele>36.300000</ele>
                <time>2018-10-20T09:52:20Z</time>
            </trkpt>
            <trkpt lon="101.204691" lat="14.312703">
                <ele>36.300000</ele>
                <time>2018-10-20T09:52:23Z</time>
            </trkpt>
            <trkpt lon="101.204667" lat="14.312704">
                <ele>36.800000</ele>
                <time>2018-10-20T09:52:25Z</time>
            </trkpt>
            <trkpt lon="101.204643" lat="14.312699">
                <ele>36.700000</ele>
                <time>2018-10-20T09:52:27Z</time>
            </trkpt>
            <trkpt lon="101.204623" lat="14.312700">
                <ele>37.200000</ele>
                <time>2018-10-20T09:52:31Z</time>
            </trkpt>
            <trkpt lon="101.204618" lat="14.312696">
                <ele>37.200000</ele>
                <time>2018-10-20T09:52:36Z</time>
            </trkpt>
            <trkpt lon="101.204618" lat="14.312696">
                <ele>37.200000</ele>
                <time>2018-10-20T09:52:38Z</time>
            </trkpt>
            <trkpt lon="101.204618" lat="14.312696">
                <ele>37.200000</ele>
                <time>2018-10-20T09:52:43Z</time>
            </trkpt>
            <trkpt lon="101.204618" lat="14.312696">
                <ele>37.200000</ele>
                <time>2018-10-20T09:52:54Z</time>
            </trkpt>
            <trkpt lon="101.204618" lat="14.312696">
                <ele>37.200000</ele>
                <time>2018-10-20T09:53:06Z</time>
            </trkpt>
            <trkpt lon="101.204617" lat="14.312693">
                <ele>37.200000</ele>
                <time>2018-10-20T09:53:24Z</time>
            </trkpt>
            <trkpt lon="101.204617" lat="14.312693">
                <ele>37.200000</ele>
                <time>2018-10-20T09:53:37Z</time>
            </trkpt>
            <trkpt lon="101.204617" lat="14.312693">
                <ele>37.200000</ele>
                <time>2018-10-20T09:53:47Z</time>
            </trkpt>
            <trkpt lon="101.204619" lat="14.312693">
                <ele>37.200000</ele>
                <time>2018-10-20T09:53:54Z</time>
            </trkpt>
            <trkpt lon="101.204619" lat="14.312693">
                <ele>37.200000</ele>
                <time>2018-10-20T09:53:58Z</time>
            </trkpt>
            <trkpt lon="101.204570" lat="14.312695">
                <ele>37.200000</ele>
                <time>2018-10-20T09:54:04Z</time>
            </trkpt>
            <trkpt lon="101.204554" lat="14.312694">
                <ele>37.200000</ele>
                <time>2018-10-20T09:54:05Z</time>
            </trkpt>
            <trkpt lon="101.204423" lat="14.312685">
                <ele>37.400000</ele>
                <time>2018-10-20T09:54:11Z</time>
            </trkpt>
            <trkpt lon="101.204218" lat="14.312673">
                <ele>37.600000</ele>
                <time>2018-10-20T09:54:17Z</time>
            </trkpt>
            <trkpt lon="101.203990" lat="14.312653">
                <ele>37.800000</ele>
                <time>2018-10-20T09:54:23Z</time>
            </trkpt>
            <trkpt lon="101.203705" lat="14.312615">
                <ele>38.200000</ele>
                <time>2018-10-20T09:54:31Z</time>
            </trkpt>
            <trkpt lon="101.203356" lat="14.312568">
                <ele>38.700000</ele>
                <time>2018-10-20T09:54:39Z</time>
            </trkpt>
            <trkpt lon="101.203267" lat="14.312546">
                <ele>38.800000</ele>
                <time>2018-10-20T09:54:41Z</time>
            </trkpt>
            <trkpt lon="101.203148" lat="14.312492">
                <ele>38.800000</ele>
                <time>2018-10-20T09:54:44Z</time>
            </trkpt>
            <trkpt lon="101.203074" lat="14.312448">
                <ele>38.600000</ele>
                <time>2018-10-20T09:54:46Z</time>
            </trkpt>
            <trkpt lon="101.202958" lat="14.312329">
                <ele>38.200000</ele>
                <time>2018-10-20T09:54:50Z</time>
            </trkpt>
            <trkpt lon="101.202731" lat="14.311985">
                <ele>36.700000</ele>
                <time>2018-10-20T09:54:59Z</time>
            </trkpt>
            <trkpt lon="101.202526" lat="14.311673">
                <ele>35.900000</ele>
                <time>2018-10-20T09:55:07Z</time>
            </trkpt>
            <trkpt lon="101.202315" lat="14.311344">
                <ele>35.100000</ele>
                <time>2018-10-20T09:55:16Z</time>
            </trkpt>
            <trkpt lon="101.202252" lat="14.311296">
                <ele>34.600000</ele>
                <time>2018-10-20T09:55:18Z</time>
            </trkpt>
            <trkpt lon="101.202214" lat="14.311307">
                <ele>34.400000</ele>
                <time>2018-10-20T09:55:19Z</time>
            </trkpt>
            <trkpt lon="101.202183" lat="14.311335">
                <ele>34.200000</ele>
                <time>2018-10-20T09:55:20Z</time>
            </trkpt>
            <trkpt lon="101.202154" lat="14.311399">
                <ele>34.000000</ele>
                <time>2018-10-20T09:55:22Z</time>
            </trkpt>
            <trkpt lon="101.202148" lat="14.311505">
                <ele>34.100000</ele>
                <time>2018-10-20T09:55:26Z</time>
            </trkpt>
            <trkpt lon="101.202155" lat="14.311567">
                <ele>34.400000</ele>
                <time>2018-10-20T09:55:28Z</time>
            </trkpt>
            <trkpt lon="101.202155" lat="14.311894">
                <ele>37.200000</ele>
                <time>2018-10-20T09:55:38Z</time>
            </trkpt>
            <trkpt lon="101.202150" lat="14.312168">
                <ele>37.500000</ele>
                <time>2018-10-20T09:55:47Z</time>
            </trkpt>
            <trkpt lon="101.202165" lat="14.312410">
                <ele>36.900000</ele>
                <time>2018-10-20T09:55:55Z</time>
            </trkpt>
            <trkpt lon="101.202168" lat="14.312439">
                <ele>36.800000</ele>
                <time>2018-10-20T09:55:56Z</time>
            </trkpt>
            <trkpt lon="101.202222" lat="14.312664">
                <ele>36.300000</ele>
                <time>2018-10-20T09:56:04Z</time>
            </trkpt>
            <trkpt lon="101.202271" lat="14.312870">
                <ele>37.100000</ele>
                <time>2018-10-20T09:56:11Z</time>
            </trkpt>
            <trkpt lon="101.202312" lat="14.313043">
                <ele>38.600000</ele>
                <time>2018-10-20T09:56:17Z</time>
            </trkpt>
            <trkpt lon="101.202378" lat="14.313275">
                <ele>41.900000</ele>
                <time>2018-10-20T09:56:25Z</time>
            </trkpt>
            <trkpt lon="101.202396" lat="14.313360">
                <ele>42.700000</ele>
                <time>2018-10-20T09:56:28Z</time>
            </trkpt>
            <trkpt lon="101.202442" lat="14.313531">
                <ele>43.700000</ele>
                <time>2018-10-20T09:56:34Z</time>
            </trkpt>
            <trkpt lon="101.202502" lat="14.313754">
                <ele>44.100000</ele>
                <time>2018-10-20T09:56:42Z</time>
            </trkpt>
            <trkpt lon="101.202528" lat="14.313836">
                <ele>44.300000</ele>
                <time>2018-10-20T09:56:45Z</time>
            </trkpt>
            <trkpt lon="101.202579" lat="14.314006">
                <ele>44.300000</ele>
                <time>2018-10-20T09:56:51Z</time>
            </trkpt>
            <trkpt lon="101.202645" lat="14.314276">
                <ele>43.100000</ele>
                <time>2018-10-20T09:57:00Z</time>
            </trkpt>
            <trkpt lon="101.202702" lat="14.314511">
                <ele>41.200000</ele>
                <time>2018-10-20T09:57:08Z</time>
            </trkpt>
            <trkpt lon="101.202749" lat="14.314705">
                <ele>41.300000</ele>
                <time>2018-10-20T09:57:15Z</time>
            </trkpt>
            <trkpt lon="101.202769" lat="14.314781">
                <ele>41.800000</ele>
                <time>2018-10-20T09:57:18Z</time>
            </trkpt>
            <trkpt lon="101.202804" lat="14.314915">
                <ele>41.900000</ele>
                <time>2018-10-20T09:57:23Z</time>
            </trkpt>
            <trkpt lon="101.202782" lat="14.315067">
                <ele>41.400000</ele>
                <time>2018-10-20T09:57:29Z</time>
            </trkpt>
            <trkpt lon="101.202714" lat="14.315216">
                <ele>41.700000</ele>
                <time>2018-10-20T09:57:35Z</time>
            </trkpt>
            <trkpt lon="101.202601" lat="14.315381">
                <ele>41.400000</ele>
                <time>2018-10-20T09:57:42Z</time>
            </trkpt>
            <trkpt lon="101.202451" lat="14.315603">
                <ele>41.900000</ele>
                <time>2018-10-20T09:57:51Z</time>
            </trkpt>
            <trkpt lon="101.202441" lat="14.315629">
                <ele>42.000000</ele>
                <time>2018-10-20T09:57:52Z</time>
            </trkpt>
            <trkpt lon="101.202380" lat="14.315713">
                <ele>42.500000</ele>
                <time>2018-10-20T09:57:56Z</time>
            </trkpt>
            <trkpt lon="101.202293" lat="14.315842">
                <ele>43.500000</ele>
                <time>2018-10-20T09:58:01Z</time>
            </trkpt>
            <trkpt lon="101.202192" lat="14.316014">
                <ele>44.400000</ele>
                <time>2018-10-20T09:58:08Z</time>
            </trkpt>
            <trkpt lon="101.202175" lat="14.316212">
                <ele>44.500000</ele>
                <time>2018-10-20T09:58:16Z</time>
            </trkpt>
            <trkpt lon="101.202219" lat="14.316407">
                <ele>44.700000</ele>
                <time>2018-10-20T09:58:23Z</time>
            </trkpt>
            <trkpt lon="101.202233" lat="14.316463">
                <ele>44.800000</ele>
                <time>2018-10-20T09:58:25Z</time>
            </trkpt>
            <trkpt lon="101.202295" lat="14.316757">
                <ele>45.600000</ele>
                <time>2018-10-20T09:58:35Z</time>
            </trkpt>
            <trkpt lon="101.202377" lat="14.317063">
                <ele>47.200000</ele>
                <time>2018-10-20T09:58:46Z</time>
            </trkpt>
            <trkpt lon="101.202391" lat="14.317334">
                <ele>47.600000</ele>
                <time>2018-10-20T09:58:55Z</time>
            </trkpt>
            <trkpt lon="101.202381" lat="14.317365">
                <ele>47.500000</ele>
                <time>2018-10-20T09:58:56Z</time>
            </trkpt>
            <trkpt lon="101.202305" lat="14.317516">
                <ele>46.400000</ele>
                <time>2018-10-20T09:59:02Z</time>
            </trkpt>
            <trkpt lon="101.202199" lat="14.317702">
                <ele>45.500000</ele>
                <time>2018-10-20T09:59:09Z</time>
            </trkpt>
            <trkpt lon="101.202062" lat="14.317933">
                <ele>45.500000</ele>
                <time>2018-10-20T09:59:18Z</time>
            </trkpt>
            <trkpt lon="101.201932" lat="14.318129">
                <ele>46.300000</ele>
                <time>2018-10-20T09:59:26Z</time>
            </trkpt>
            <trkpt lon="101.201904" lat="14.318182">
                <ele>46.400000</ele>
                <time>2018-10-20T09:59:28Z</time>
            </trkpt>
            <trkpt lon="101.201828" lat="14.318327">
                <ele>46.100000</ele>
                <time>2018-10-20T09:59:34Z</time>
            </trkpt>
            <trkpt lon="101.201754" lat="14.318519">
                <ele>45.800000</ele>
                <time>2018-10-20T09:59:43Z</time>
            </trkpt>
            <trkpt lon="101.201772" lat="14.318656">
                <ele>46.200000</ele>
                <time>2018-10-20T09:59:49Z</time>
            </trkpt>
            <trkpt lon="101.201796" lat="14.318713">
                <ele>46.200000</ele>
                <time>2018-10-20T09:59:52Z</time>
            </trkpt>
            <trkpt lon="101.201774" lat="14.318714">
                <ele>46.200000</ele>
                <time>2018-10-20T09:59:54Z</time>
            </trkpt>
            <trkpt lon="101.201772" lat="14.318665">
                <ele>46.200000</ele>
                <time>2018-10-20T09:59:57Z</time>
            </trkpt>
            <trkpt lon="101.201764" lat="14.318651">
                <ele>46.200000</ele>
                <time>2018-10-20T09:59:58Z</time>
            </trkpt>
            <trkpt lon="101.201721" lat="14.318639">
                <ele>46.200000</ele>
                <time>2018-10-20T10:00:03Z</time>
            </trkpt>
            <trkpt lon="101.201661" lat="14.318635">
                <ele>46.200000</ele>
                <time>2018-10-20T10:00:08Z</time>
            </trkpt>
            <trkpt lon="101.201516" lat="14.318657">
                <ele>46.500000</ele>
                <time>2018-10-20T10:00:13Z</time>
            </trkpt>
            <trkpt lon="101.201380" lat="14.318678">
                <ele>46.600000</ele>
                <time>2018-10-20T10:00:18Z</time>
            </trkpt>
            <trkpt lon="101.201265" lat="14.318682">
                <ele>46.500000</ele>
                <time>2018-10-20T10:00:23Z</time>
            </trkpt>
            <trkpt lon="101.201203" lat="14.318654">
                <ele>46.400000</ele>
                <time>2018-10-20T10:00:26Z</time>
            </trkpt>
            <trkpt lon="101.201181" lat="14.318538">
                <ele>46.600000</ele>
                <time>2018-10-20T10:00:31Z</time>
            </trkpt>
            <trkpt lon="101.201164" lat="14.318389">
                <ele>47.400000</ele>
                <time>2018-10-20T10:00:37Z</time>
            </trkpt>
            <trkpt lon="101.201117" lat="14.318238">
                <ele>48.300000</ele>
                <time>2018-10-20T10:00:44Z</time>
            </trkpt>
            <trkpt lon="101.201104" lat="14.318168">
                <ele>48.500000</ele>
                <time>2018-10-20T10:00:47Z</time>
            </trkpt>
            <trkpt lon="101.201081" lat="14.318117">
                <ele>48.600000</ele>
                <time>2018-10-20T10:00:50Z</time>
            </trkpt>
            <trkpt lon="101.201082" lat="14.318104">
                <ele>48.700000</ele>
                <time>2018-10-20T10:00:51Z</time>
            </trkpt>
            <trkpt lon="101.201100" lat="14.318104">
                <ele>48.700000</ele>
                <time>2018-10-20T10:00:54Z</time>
            </trkpt>
            <trkpt lon="101.201101" lat="14.318113">
                <ele>48.700000</ele>
                <time>2018-10-20T10:00:55Z</time>
            </trkpt>
            <trkpt lon="101.201102" lat="14.318185">
                <ele>49.000000</ele>
                <time>2018-10-20T10:01:00Z</time>
            </trkpt>
            <trkpt lon="101.201083" lat="14.318240">
                <ele>49.100000</ele>
                <time>2018-10-20T10:01:03Z</time>
            </trkpt>
            <trkpt lon="101.201061" lat="14.318249">
                <ele>49.200000</ele>
                <time>2018-10-20T10:01:04Z</time>
            </trkpt>
            <trkpt lon="101.200920" lat="14.318281">
                <ele>49.300000</ele>
                <time>2018-10-20T10:01:09Z</time>
            </trkpt>
            <trkpt lon="101.200893" lat="14.318287">
                <ele>49.200000</ele>
                <time>2018-10-20T10:01:10Z</time>
            </trkpt>
            <trkpt lon="101.200782" lat="14.318313">
                <ele>48.700000</ele>
                <time>2018-10-20T10:01:15Z</time>
            </trkpt>
            <trkpt lon="101.200621" lat="14.318351">
                <ele>48.300000</ele>
                <time>2018-10-20T10:01:23Z</time>
            </trkpt>
            <trkpt lon="101.200444" lat="14.318358">
                <ele>48.300000</ele>
                <time>2018-10-20T10:01:30Z</time>
            </trkpt>
            <trkpt lon="101.200301" lat="14.318374">
                <ele>48.200000</ele>
                <time>2018-10-20T10:01:36Z</time>
            </trkpt>
            <trkpt lon="101.200177" lat="14.318371">
                <ele>48.200000</ele>
                <time>2018-10-20T10:01:41Z</time>
            </trkpt>
            <trkpt lon="101.200159" lat="14.318358">
                <ele>48.100000</ele>
                <time>2018-10-20T10:01:42Z</time>
            </trkpt>
            <trkpt lon="101.200082" lat="14.318318">
                <ele>48.000000</ele>
                <time>2018-10-20T10:01:45Z</time>
            </trkpt>
            <trkpt lon="101.199934" lat="14.318219">
                <ele>47.500000</ele>
                <time>2018-10-20T10:01:52Z</time>
            </trkpt>
            <trkpt lon="101.199782" lat="14.318163">
                <ele>47.400000</ele>
                <time>2018-10-20T10:01:58Z</time>
            </trkpt>
            <trkpt lon="101.199629" lat="14.318117">
                <ele>47.700000</ele>
                <time>2018-10-20T10:02:03Z</time>
            </trkpt>
            <trkpt lon="101.199449" lat="14.318048">
                <ele>47.800000</ele>
                <time>2018-10-20T10:02:10Z</time>
            </trkpt>
            <trkpt lon="101.199344" lat="14.317917">
                <ele>47.600000</ele>
                <time>2018-10-20T10:02:16Z</time>
            </trkpt>
            <trkpt lon="101.199356" lat="14.317794">
                <ele>47.200000</ele>
                <time>2018-10-20T10:02:22Z</time>
            </trkpt>
            <trkpt lon="101.199431" lat="14.317682">
                <ele>46.800000</ele>
                <time>2018-10-20T10:02:28Z</time>
            </trkpt>
            <trkpt lon="101.199452" lat="14.317584">
                <ele>46.000000</ele>
                <time>2018-10-20T10:02:32Z</time>
            </trkpt>
            <trkpt lon="101.199450" lat="14.317562">
                <ele>45.700000</ele>
                <time>2018-10-20T10:02:33Z</time>
            </trkpt>
            <trkpt lon="101.199414" lat="14.317400">
                <ele>45.900000</ele>
                <time>2018-10-20T10:02:40Z</time>
            </trkpt>
            <trkpt lon="101.199308" lat="14.317281">
                <ele>46.800000</ele>
                <time>2018-10-20T10:02:46Z</time>
            </trkpt>
            <trkpt lon="101.199204" lat="14.317234">
                <ele>46.800000</ele>
                <time>2018-10-20T10:02:51Z</time>
            </trkpt>
            <trkpt lon="101.199108" lat="14.317208">
                <ele>46.800000</ele>
                <time>2018-10-20T10:02:56Z</time>
            </trkpt>
            <trkpt lon="101.199032" lat="14.317239">
                <ele>46.100000</ele>
                <time>2018-10-20T10:02:59Z</time>
            </trkpt>
            <trkpt lon="101.199007" lat="14.317254">
                <ele>45.500000</ele>
                <time>2018-10-20T10:03:00Z</time>
            </trkpt>
            <trkpt lon="101.198886" lat="14.317271">
                <ele>44.600000</ele>
                <time>2018-10-20T10:03:04Z</time>
            </trkpt>
            <trkpt lon="101.198853" lat="14.317254">
                <ele>44.600000</ele>
                <time>2018-10-20T10:03:05Z</time>
            </trkpt>
            <trkpt lon="101.198715" lat="14.317200">
                <ele>43.900000</ele>
                <time>2018-10-20T10:03:09Z</time>
            </trkpt>
            <trkpt lon="101.198634" lat="14.317187">
                <ele>43.700000</ele>
                <time>2018-10-20T10:03:11Z</time>
            </trkpt>
            <trkpt lon="101.198599" lat="14.317195">
                <ele>43.700000</ele>
                <time>2018-10-20T10:03:12Z</time>
            </trkpt>
            <trkpt lon="101.198501" lat="14.317218">
                <ele>43.800000</ele>
                <time>2018-10-20T10:03:15Z</time>
            </trkpt>
            <trkpt lon="101.198269" lat="14.317255">
                <ele>43.900000</ele>
                <time>2018-10-20T10:03:22Z</time>
            </trkpt>
            <trkpt lon="101.198096" lat="14.317290">
                <ele>44.700000</ele>
                <time>2018-10-20T10:03:28Z</time>
            </trkpt>
            <trkpt lon="101.197972" lat="14.317304">
                <ele>45.100000</ele>
                <time>2018-10-20T10:03:33Z</time>
            </trkpt>
            <trkpt lon="101.197881" lat="14.317317">
                <ele>45.300000</ele>
                <time>2018-10-20T10:03:39Z</time>
            </trkpt>
            <trkpt lon="101.197790" lat="14.317331">
                <ele>45.100000</ele>
                <time>2018-10-20T10:03:45Z</time>
            </trkpt>
            <trkpt lon="101.197759" lat="14.317336">
                <ele>45.100000</ele>
                <time>2018-10-20T10:03:47Z</time>
            </trkpt>
            <trkpt lon="101.197703" lat="14.317355">
                <ele>45.100000</ele>
                <time>2018-10-20T10:03:50Z</time>
            </trkpt>
            <trkpt lon="101.197640" lat="14.317370">
                <ele>45.400000</ele>
                <time>2018-10-20T10:03:53Z</time>
            </trkpt>
            <trkpt lon="101.197590" lat="14.317383">
                <ele>45.700000</ele>
                <time>2018-10-20T10:03:55Z</time>
            </trkpt>
            <trkpt lon="101.197566" lat="14.317392">
                <ele>45.700000</ele>
                <time>2018-10-20T10:03:56Z</time>
            </trkpt>
            <trkpt lon="101.197456" lat="14.317439">
                <ele>45.200000</ele>
                <time>2018-10-20T10:04:01Z</time>
            </trkpt>
            <trkpt lon="101.197374" lat="14.317543">
                <ele>44.800000</ele>
                <time>2018-10-20T10:04:07Z</time>
            </trkpt>
            <trkpt lon="101.197297" lat="14.317674">
                <ele>44.500000</ele>
                <time>2018-10-20T10:04:14Z</time>
            </trkpt>
            <trkpt lon="101.197311" lat="14.317775">
                <ele>44.500000</ele>
                <time>2018-10-20T10:04:20Z</time>
            </trkpt>
            <trkpt lon="101.197351" lat="14.317896">
                <ele>44.900000</ele>
                <time>2018-10-20T10:04:26Z</time>
            </trkpt>
            <trkpt lon="101.197373" lat="14.317956">
                <ele>44.900000</ele>
                <time>2018-10-20T10:04:29Z</time>
            </trkpt>
            <trkpt lon="101.197381" lat="14.318009">
                <ele>44.900000</ele>
                <time>2018-10-20T10:04:32Z</time>
            </trkpt>
            <trkpt lon="101.197399" lat="14.318132">
                <ele>44.800000</ele>
                <time>2018-10-20T10:04:38Z</time>
            </trkpt>
            <trkpt lon="101.197438" lat="14.318249">
                <ele>44.500000</ele>
                <time>2018-10-20T10:04:44Z</time>
            </trkpt>
            <trkpt lon="101.197486" lat="14.318330">
                <ele>44.200000</ele>
                <time>2018-10-20T10:04:49Z</time>
            </trkpt>
            <trkpt lon="101.197514" lat="14.318372">
                <ele>44.200000</ele>
                <time>2018-10-20T10:04:51Z</time>
            </trkpt>
            <trkpt lon="101.197547" lat="14.318411">
                <ele>44.000000</ele>
                <time>2018-10-20T10:04:53Z</time>
            </trkpt>
            <trkpt lon="101.197597" lat="14.318478">
                <ele>43.900000</ele>
                <time>2018-10-20T10:04:57Z</time>
            </trkpt>
            <trkpt lon="101.197628" lat="14.318503">
                <ele>43.900000</ele>
                <time>2018-10-20T10:04:59Z</time>
            </trkpt>
            <trkpt lon="101.197680" lat="14.318563">
                <ele>44.100000</ele>
                <time>2018-10-20T10:05:03Z</time>
            </trkpt>
            <trkpt lon="101.197701" lat="14.318595">
                <ele>44.400000</ele>
                <time>2018-10-20T10:05:05Z</time>
            </trkpt>
            <trkpt lon="101.197712" lat="14.318611">
                <ele>44.400000</ele>
                <time>2018-10-20T10:05:06Z</time>
            </trkpt>
            <trkpt lon="101.197789" lat="14.318691">
                <ele>45.300000</ele>
                <time>2018-10-20T10:05:12Z</time>
            </trkpt>
            <trkpt lon="101.197804" lat="14.318707">
                <ele>45.500000</ele>
                <time>2018-10-20T10:05:13Z</time>
            </trkpt>
            <trkpt lon="101.197894" lat="14.318793">
                <ele>45.900000</ele>
                <time>2018-10-20T10:05:19Z</time>
            </trkpt>
            <trkpt lon="101.197958" lat="14.318851">
                <ele>46.300000</ele>
                <time>2018-10-20T10:05:25Z</time>
            </trkpt>
            <trkpt lon="101.198014" lat="14.318898">
                <ele>46.800000</ele>
                <time>2018-10-20T10:05:30Z</time>
            </trkpt>
            <trkpt lon="101.198026" lat="14.318910">
                <ele>47.000000</ele>
                <time>2018-10-20T10:05:31Z</time>
            </trkpt>
            <trkpt lon="101.198039" lat="14.318922">
                <ele>47.300000</ele>
                <time>2018-10-20T10:05:32Z</time>
            </trkpt>
            <trkpt lon="101.198118" lat="14.318986">
                <ele>47.800000</ele>
                <time>2018-10-20T10:05:37Z</time>
            </trkpt>
            <trkpt lon="101.198132" lat="14.319013">
                <ele>47.900000</ele>
                <time>2018-10-20T10:05:39Z</time>
            </trkpt>
            <trkpt lon="101.198104" lat="14.319009">
                <ele>47.900000</ele>
                <time>2018-10-20T10:05:41Z</time>
            </trkpt>
            <trkpt lon="101.198079" lat="14.318986">
                <ele>47.700000</ele>
                <time>2018-10-20T10:05:43Z</time>
            </trkpt>
            <trkpt lon="101.198031" lat="14.318923">
                <ele>47.300000</ele>
                <time>2018-10-20T10:05:46Z</time>
            </trkpt>
            <trkpt lon="101.197871" lat="14.318765">
                <ele>45.900000</ele>
                <time>2018-10-20T10:05:53Z</time>
            </trkpt>
            <trkpt lon="101.197745" lat="14.318646">
                <ele>44.800000</ele>
                <time>2018-10-20T10:05:58Z</time>
            </trkpt>
            <trkpt lon="101.197722" lat="14.318641">
                <ele>44.700000</ele>
                <time>2018-10-20T10:05:59Z</time>
            </trkpt>
            <trkpt lon="101.197677" lat="14.318649">
                <ele>44.700000</ele>
                <time>2018-10-20T10:06:01Z</time>
            </trkpt>
            <trkpt lon="101.197611" lat="14.318660">
                <ele>44.900000</ele>
                <time>2018-10-20T10:06:03Z</time>
            </trkpt>
            <trkpt lon="101.197522" lat="14.318672">
                <ele>44.900000</ele>
                <time>2018-10-20T10:06:05Z</time>
            </trkpt>
            <trkpt lon="101.197478" lat="14.318683">
                <ele>44.900000</ele>
                <time>2018-10-20T10:06:06Z</time>
            </trkpt>
            <trkpt lon="101.197387" lat="14.318722">
                <ele>45.200000</ele>
                <time>2018-10-20T10:06:09Z</time>
            </trkpt>
            <trkpt lon="101.197387" lat="14.318720">
                <ele>45.200000</ele>
                <time>2018-10-20T10:06:10Z</time>
            </trkpt>
            <trkpt lon="101.197387" lat="14.318720">
                <ele>45.200000</ele>
                <time>2018-10-20T10:06:12Z</time>
            </trkpt>
            <trkpt lon="101.197385" lat="14.318718">
                <ele>45.300000</ele>
                <time>2018-10-20T10:06:17Z</time>
            </trkpt>
            <trkpt lon="101.197345" lat="14.318727">
                <ele>45.300000</ele>
                <time>2018-10-20T10:06:23Z</time>
            </trkpt>
            <trkpt lon="101.197285" lat="14.318764">
                <ele>45.800000</ele>
                <time>2018-10-20T10:06:29Z</time>
            </trkpt>
            <trkpt lon="101.197239" lat="14.318793">
                <ele>46.000000</ele>
                <time>2018-10-20T10:06:35Z</time>
            </trkpt>
            <trkpt lon="101.197230" lat="14.318810">
                <ele>46.000000</ele>
                <time>2018-10-20T10:06:37Z</time>
            </trkpt>
            <trkpt lon="101.197217" lat="14.318846">
                <ele>46.000000</ele>
                <time>2018-10-20T10:06:41Z</time>
            </trkpt>
            <trkpt lon="101.197211" lat="14.318877">
                <ele>46.300000</ele>
                <time>2018-10-20T10:06:44Z</time>
            </trkpt>
            <trkpt lon="101.197198" lat="14.318921">
                <ele>46.500000</ele>
                <time>2018-10-20T10:06:50Z</time>
            </trkpt>
            <trkpt lon="101.197189" lat="14.318976">
                <ele>46.800000</ele>
                <time>2018-10-20T10:06:57Z</time>
            </trkpt>
            <trkpt lon="101.197188" lat="14.318982">
                <ele>46.800000</ele>
                <time>2018-10-20T10:07:06Z</time>
            </trkpt>
            <trkpt lon="101.197173" lat="14.319041">
                <ele>47.300000</ele>
                <time>2018-10-20T10:07:11Z</time>
            </trkpt>
            <trkpt lon="101.197102" lat="14.319110">
                <ele>48.300000</ele>
                <time>2018-10-20T10:07:16Z</time>
            </trkpt>
            <trkpt lon="101.197009" lat="14.319171">
                <ele>49.900000</ele>
                <time>2018-10-20T10:07:21Z</time>
            </trkpt>
            <trkpt lon="101.196878" lat="14.319235">
                <ele>50.400000</ele>
                <time>2018-10-20T10:07:28Z</time>
            </trkpt>
            <trkpt lon="101.196795" lat="14.319267">
                <ele>50.900000</ele>
                <time>2018-10-20T10:07:33Z</time>
            </trkpt>
            <trkpt lon="101.196708" lat="14.319302">
                <ele>51.400000</ele>
                <time>2018-10-20T10:07:39Z</time>
            </trkpt>
            <trkpt lon="101.196618" lat="14.319358">
                <ele>51.900000</ele>
                <time>2018-10-20T10:07:46Z</time>
            </trkpt>
            <trkpt lon="101.196530" lat="14.319424">
                <ele>52.600000</ele>
                <time>2018-10-20T10:07:52Z</time>
            </trkpt>
            <trkpt lon="101.196485" lat="14.319453">
                <ele>52.800000</ele>
                <time>2018-10-20T10:07:54Z</time>
            </trkpt>
            <trkpt lon="101.196336" lat="14.319463">
                <ele>53.100000</ele>
                <time>2018-10-20T10:08:00Z</time>
            </trkpt>
            <trkpt lon="101.196161" lat="14.319509">
                <ele>53.000000</ele>
                <time>2018-10-20T10:08:07Z</time>
            </trkpt>
            <trkpt lon="101.196048" lat="14.319573">
                <ele>51.800000</ele>
                <time>2018-10-20T10:08:12Z</time>
            </trkpt>
            <trkpt lon="101.195967" lat="14.319614">
                <ele>51.100000</ele>
                <time>2018-10-20T10:08:16Z</time>
            </trkpt>
            <trkpt lon="101.195966" lat="14.319640">
                <ele>51.100000</ele>
                <time>2018-10-20T10:08:17Z</time>
            </trkpt>
            <trkpt lon="101.195912" lat="14.319758">
                <ele>50.100000</ele>
                <time>2018-10-20T10:08:23Z</time>
            </trkpt>
            <trkpt lon="101.195810" lat="14.319835">
                <ele>49.200000</ele>
                <time>2018-10-20T10:08:28Z</time>
            </trkpt>
            <trkpt lon="101.195633" lat="14.319898">
                <ele>49.100000</ele>
                <time>2018-10-20T10:08:35Z</time>
            </trkpt>
            <trkpt lon="101.195565" lat="14.319947">
                <ele>49.100000</ele>
                <time>2018-10-20T10:08:38Z</time>
            </trkpt>
            <trkpt lon="101.195551" lat="14.319973">
                <ele>49.100000</ele>
                <time>2018-10-20T10:08:39Z</time>
            </trkpt>
            <trkpt lon="101.195571" lat="14.320031">
                <ele>49.100000</ele>
                <time>2018-10-20T10:08:42Z</time>
            </trkpt>
            <trkpt lon="101.195542" lat="14.320043">
                <ele>49.200000</ele>
                <time>2018-10-20T10:08:46Z</time>
            </trkpt>
            <trkpt lon="101.195504" lat="14.319931">
                <ele>49.300000</ele>
                <time>2018-10-20T10:08:51Z</time>
            </trkpt>
            <trkpt lon="101.195453" lat="14.319732">
                <ele>49.800000</ele>
                <time>2018-10-20T10:08:59Z</time>
            </trkpt>
            <trkpt lon="101.195446" lat="14.319716">
                <ele>49.900000</ele>
                <time>2018-10-20T10:09:03Z</time>
            </trkpt>
            <trkpt lon="101.195446" lat="14.319716">
                <ele>49.900000</ele>
                <time>2018-10-20T10:09:18Z</time>
            </trkpt>
            <trkpt lon="101.195446" lat="14.319716">
                <ele>49.900000</ele>
                <time>2018-10-20T10:09:31Z</time>
            </trkpt>
            <trkpt lon="101.195445" lat="14.319716">
                <ele>49.900000</ele>
                <time>2018-10-20T10:09:45Z</time>
            </trkpt>
            <trkpt lon="101.195445" lat="14.319716">
                <ele>49.900000</ele>
                <time>2018-10-20T10:09:48Z</time>
            </trkpt>
            <trkpt lon="101.195431" lat="14.319684">
                <ele>50.000000</ele>
                <time>2018-10-20T10:09:54Z</time>
            </trkpt>
            <trkpt lon="101.195398" lat="14.319533">
                <ele>50.200000</ele>
                <time>2018-10-20T10:09:59Z</time>
            </trkpt>
            <trkpt lon="101.195313" lat="14.319283">
                <ele>50.600000</ele>
                <time>2018-10-20T10:10:07Z</time>
            </trkpt>
            <trkpt lon="101.195249" lat="14.319122">
                <ele>50.900000</ele>
                <time>2018-10-20T10:10:13Z</time>
            </trkpt>
            <trkpt lon="101.195162" lat="14.319004">
                <ele>50.900000</ele>
                <time>2018-10-20T10:10:18Z</time>
            </trkpt>
            <trkpt lon="101.195064" lat="14.318834">
                <ele>50.900000</ele>
                <time>2018-10-20T10:10:25Z</time>
            </trkpt>
            <trkpt lon="101.194997" lat="14.318641">
                <ele>51.000000</ele>
                <time>2018-10-20T10:10:31Z</time>
            </trkpt>
            <trkpt lon="101.194979" lat="14.318421">
                <ele>51.000000</ele>
                <time>2018-10-20T10:10:38Z</time>
            </trkpt>
            <trkpt lon="101.194996" lat="14.318178">
                <ele>50.800000</ele>
                <time>2018-10-20T10:10:45Z</time>
            </trkpt>
            <trkpt lon="101.195037" lat="14.317928">
                <ele>50.600000</ele>
                <time>2018-10-20T10:10:54Z</time>
            </trkpt>
            <trkpt lon="101.195032" lat="14.317809">
                <ele>50.600000</ele>
                <time>2018-10-20T10:11:00Z</time>
            </trkpt>
            <trkpt lon="101.195035" lat="14.317805">
                <ele>50.600000</ele>
                <time>2018-10-20T10:11:01Z</time>
            </trkpt>
            <trkpt lon="101.195035" lat="14.317805">
                <ele>50.600000</ele>
                <time>2018-10-20T10:11:08Z</time>
            </trkpt>
            <trkpt lon="101.195028" lat="14.317817">
                <ele>50.600000</ele>
                <time>2018-10-20T10:11:21Z</time>
            </trkpt>
            <trkpt lon="101.195031" lat="14.317825">
                <ele>50.600000</ele>
                <time>2018-10-20T10:11:24Z</time>
            </trkpt>
            <trkpt lon="101.195031" lat="14.317860">
                <ele>50.600000</ele>
                <time>2018-10-20T10:11:27Z</time>
            </trkpt>
            <trkpt lon="101.195028" lat="14.318015">
                <ele>51.000000</ele>
                <time>2018-10-20T10:11:34Z</time>
            </trkpt>
            <trkpt lon="101.195017" lat="14.318179">
                <ele>51.400000</ele>
                <time>2018-10-20T10:11:40Z</time>
            </trkpt>
            <trkpt lon="101.194991" lat="14.318425">
                <ele>51.700000</ele>
                <time>2018-10-20T10:11:49Z</time>
            </trkpt>
            <trkpt lon="101.195004" lat="14.318617">
                <ele>51.800000</ele>
                <time>2018-10-20T10:11:56Z</time>
            </trkpt>
            <trkpt lon="101.195057" lat="14.318781">
                <ele>51.300000</ele>
                <time>2018-10-20T10:12:02Z</time>
            </trkpt>
            <trkpt lon="101.195134" lat="14.318923">
                <ele>50.600000</ele>
                <time>2018-10-20T10:12:08Z</time>
            </trkpt>
            <trkpt lon="101.195226" lat="14.319080">
                <ele>50.400000</ele>
                <time>2018-10-20T10:12:14Z</time>
            </trkpt>
            <trkpt lon="101.195286" lat="14.319256">
                <ele>50.400000</ele>
                <time>2018-10-20T10:12:20Z</time>
            </trkpt>
            <trkpt lon="101.195373" lat="14.319532">
                <ele>49.700000</ele>
                <time>2018-10-20T10:12:29Z</time>
            </trkpt>
            <trkpt lon="101.195418" lat="14.319706">
                <ele>49.300000</ele>
                <time>2018-10-20T10:12:35Z</time>
            </trkpt>
            <trkpt lon="101.195435" lat="14.319790">
                <ele>49.100000</ele>
                <time>2018-10-20T10:12:38Z</time>
            </trkpt>
            <trkpt lon="101.195476" lat="14.319934">
                <ele>48.700000</ele>
                <time>2018-10-20T10:12:43Z</time>
            </trkpt>
            <trkpt lon="101.195518" lat="14.320018">
                <ele>48.500000</ele>
                <time>2018-10-20T10:12:48Z</time>
            </trkpt>
            <trkpt lon="101.195515" lat="14.320026">
                <ele>48.500000</ele>
                <time>2018-10-20T10:12:52Z</time>
            </trkpt>
            <trkpt lon="101.195543" lat="14.319931">
                <ele>48.300000</ele>
                <time>2018-10-20T10:12:57Z</time>
            </trkpt>
            <trkpt lon="101.195641" lat="14.319869">
                <ele>48.100000</ele>
                <time>2018-10-20T10:13:02Z</time>
            </trkpt>
            <trkpt lon="101.195690" lat="14.319854">
                <ele>48.100000</ele>
                <time>2018-10-20T10:13:04Z</time>
            </trkpt>
            <trkpt lon="101.195814" lat="14.319816">
                <ele>48.100000</ele>
                <time>2018-10-20T10:13:08Z</time>
            </trkpt>
            <trkpt lon="101.195894" lat="14.319758">
                <ele>48.100000</ele>
                <time>2018-10-20T10:13:13Z</time>
            </trkpt>
            <trkpt lon="101.195917" lat="14.319744">
                <ele>48.100000</ele>
                <time>2018-10-20T10:13:17Z</time>
            </trkpt>
            <trkpt lon="101.195914" lat="14.319766">
                <ele>48.100000</ele>
                <time>2018-10-20T10:13:19Z</time>
            </trkpt>
            <trkpt lon="101.195871" lat="14.319790">
                <ele>48.100000</ele>
                <time>2018-10-20T10:13:22Z</time>
            </trkpt>
            <trkpt lon="101.195751" lat="14.319850">
                <ele>48.400000</ele>
                <time>2018-10-20T10:13:27Z</time>
            </trkpt>
            <trkpt lon="101.195621" lat="14.319897">
                <ele>48.800000</ele>
                <time>2018-10-20T10:13:33Z</time>
            </trkpt>
            <trkpt lon="101.195515" lat="14.319921">
                <ele>49.000000</ele>
                <time>2018-10-20T10:13:38Z</time>
            </trkpt>
            <trkpt lon="101.195508" lat="14.319925">
                <ele>49.000000</ele>
                <time>2018-10-20T10:13:43Z</time>
            </trkpt>
            <trkpt lon="101.195508" lat="14.319925">
                <ele>49.000000</ele>
                <time>2018-10-20T10:13:58Z</time>
            </trkpt>
            <trkpt lon="101.195508" lat="14.319925">
                <ele>49.000000</ele>
                <time>2018-10-20T10:13:59Z</time>
            </trkpt>
            <trkpt lon="101.195496" lat="14.319940">
                <ele>49.100000</ele>
                <time>2018-10-20T10:14:08Z</time>
            </trkpt>
            <trkpt lon="101.195495" lat="14.319955">
                <ele>49.100000</ele>
                <time>2018-10-20T10:14:09Z</time>
            </trkpt>
            <trkpt lon="101.195519" lat="14.320026">
                <ele>49.300000</ele>
                <time>2018-10-20T10:14:13Z</time>
            </trkpt>
            <trkpt lon="101.195534" lat="14.320044">
                <ele>49.300000</ele>
                <time>2018-10-20T10:14:14Z</time>
            </trkpt>
            <trkpt lon="101.195598" lat="14.320183">
                <ele>49.700000</ele>
                <time>2018-10-20T10:14:20Z</time>
            </trkpt>
            <trkpt lon="101.195672" lat="14.320381">
                <ele>49.900000</ele>
                <time>2018-10-20T10:14:28Z</time>
            </trkpt>
            <trkpt lon="101.195711" lat="14.320493">
                <ele>50.000000</ele>
                <time>2018-10-20T10:14:33Z</time>
            </trkpt>
            <trkpt lon="101.195775" lat="14.320649">
                <ele>50.000000</ele>
                <time>2018-10-20T10:14:39Z</time>
            </trkpt>
            <trkpt lon="101.195799" lat="14.320704">
                <ele>50.000000</ele>
                <time>2018-10-20T10:14:41Z</time>
            </trkpt>
            <trkpt lon="101.195867" lat="14.320921">
                <ele>50.000000</ele>
                <time>2018-10-20T10:14:48Z</time>
            </trkpt>
            <trkpt lon="101.195947" lat="14.321190">
                <ele>50.000000</ele>
                <time>2018-10-20T10:14:57Z</time>
            </trkpt>
            <trkpt lon="101.196016" lat="14.321417">
                <ele>50.600000</ele>
                <time>2018-10-20T10:15:05Z</time>
            </trkpt>
            <trkpt lon="101.196007" lat="14.321472">
                <ele>50.800000</ele>
                <time>2018-10-20T10:15:07Z</time>
            </trkpt>
            <trkpt lon="101.195991" lat="14.321493">
                <ele>50.900000</ele>
                <time>2018-10-20T10:15:08Z</time>
            </trkpt>
            <trkpt lon="101.195971" lat="14.321512">
                <ele>51.100000</ele>
                <time>2018-10-20T10:15:09Z</time>
            </trkpt>
            <trkpt lon="101.195871" lat="14.321572">
                <ele>51.600000</ele>
                <time>2018-10-20T10:15:13Z</time>
            </trkpt>
            <trkpt lon="101.195819" lat="14.321601">
                <ele>51.900000</ele>
                <time>2018-10-20T10:15:15Z</time>
            </trkpt>
            <trkpt lon="101.195576" lat="14.321713">
                <ele>53.000000</ele>
                <time>2018-10-20T10:15:23Z</time>
            </trkpt>
            <trkpt lon="101.195355" lat="14.321792">
                <ele>53.700000</ele>
                <time>2018-10-20T10:15:30Z</time>
            </trkpt>
            <trkpt lon="101.195049" lat="14.321905">
                <ele>54.600000</ele>
                <time>2018-10-20T10:15:39Z</time>
            </trkpt>
            <trkpt lon="101.194687" lat="14.322028">
                <ele>55.100000</ele>
                <time>2018-10-20T10:15:48Z</time>
            </trkpt>
            <trkpt lon="101.194418" lat="14.322123">
                <ele>55.600000</ele>
                <time>2018-10-20T10:15:55Z</time>
            </trkpt>
            <trkpt lon="101.194344" lat="14.322160">
                <ele>55.500000</ele>
                <time>2018-10-20T10:15:57Z</time>
            </trkpt>
            <trkpt lon="101.194254" lat="14.322241">
                <ele>54.900000</ele>
                <time>2018-10-20T10:16:00Z</time>
            </trkpt>
            <trkpt lon="101.194162" lat="14.322397">
                <ele>54.300000</ele>
                <time>2018-10-20T10:16:05Z</time>
            </trkpt>
            <trkpt lon="101.194080" lat="14.322559">
                <ele>54.100000</ele>
                <time>2018-10-20T10:16:11Z</time>
            </trkpt>
            <trkpt lon="101.194082" lat="14.322631">
                <ele>54.100000</ele>
                <time>2018-10-20T10:16:14Z</time>
            </trkpt>
            <trkpt lon="101.194097" lat="14.322660">
                <ele>54.100000</ele>
                <time>2018-10-20T10:16:15Z</time>
            </trkpt>
            <trkpt lon="101.194164" lat="14.322838">
                <ele>54.000000</ele>
                <time>2018-10-20T10:16:21Z</time>
            </trkpt>
            <trkpt lon="101.194139" lat="14.323081">
                <ele>54.000000</ele>
                <time>2018-10-20T10:16:28Z</time>
            </trkpt>
            <trkpt lon="101.194122" lat="14.323250">
                <ele>53.900000</ele>
                <time>2018-10-20T10:16:33Z</time>
            </trkpt>
            <trkpt lon="101.194111" lat="14.323353">
                <ele>53.900000</ele>
                <time>2018-10-20T10:16:36Z</time>
            </trkpt>
            <trkpt lon="101.194087" lat="14.323657">
                <ele>53.900000</ele>
                <time>2018-10-20T10:16:45Z</time>
            </trkpt>
            <trkpt lon="101.194073" lat="14.323884">
                <ele>53.800000</ele>
                <time>2018-10-20T10:16:52Z</time>
            </trkpt>
            <trkpt lon="101.194070" lat="14.323919">
                <ele>53.800000</ele>
                <time>2018-10-20T10:16:53Z</time>
            </trkpt>
            <trkpt lon="101.194110" lat="14.324190">
                <ele>53.700000</ele>
                <time>2018-10-20T10:17:01Z</time>
            </trkpt>
            <trkpt lon="101.194223" lat="14.324342">
                <ele>53.700000</ele>
                <time>2018-10-20T10:17:07Z</time>
            </trkpt>
            <trkpt lon="101.194295" lat="14.324404">
                <ele>53.700000</ele>
                <time>2018-10-20T10:17:10Z</time>
            </trkpt>
            <trkpt lon="101.194428" lat="14.324504">
                <ele>53.700000</ele>
                <time>2018-10-20T10:17:15Z</time>
            </trkpt>
            <trkpt lon="101.194644" lat="14.324651">
                <ele>53.800000</ele>
                <time>2018-10-20T10:17:23Z</time>
            </trkpt>
            <trkpt lon="101.194667" lat="14.324640">
                <ele>53.800000</ele>
                <time>2018-10-20T10:17:24Z</time>
            </trkpt>
            <trkpt lon="101.194641" lat="14.324604">
                <ele>53.800000</ele>
                <time>2018-10-20T10:17:26Z</time>
            </trkpt>
            <trkpt lon="101.194599" lat="14.324612">
                <ele>53.300000</ele>
                <time>2018-10-20T10:17:28Z</time>
            </trkpt>
            <trkpt lon="101.194575" lat="14.324644">
                <ele>52.700000</ele>
                <time>2018-10-20T10:17:29Z</time>
            </trkpt>
            <trkpt lon="101.194506" lat="14.324751">
                <ele>51.300000</ele>
                <time>2018-10-20T10:17:32Z</time>
            </trkpt>
            <trkpt lon="101.194459" lat="14.324832">
                <ele>50.400000</ele>
                <time>2018-10-20T10:17:34Z</time>
            </trkpt>
            <trkpt lon="101.194341" lat="14.325038">
                <ele>49.500000</ele>
                <time>2018-10-20T10:17:39Z</time>
            </trkpt>
            <trkpt lon="101.194271" lat="14.325159">
                <ele>49.600000</ele>
                <time>2018-10-20T10:17:42Z</time>
            </trkpt>
            <trkpt lon="101.194093" lat="14.325481">
                <ele>53.100000</ele>
                <time>2018-10-20T10:17:50Z</time>
            </trkpt>
            <trkpt lon="101.193926" lat="14.325794">
                <ele>52.500000</ele>
                <time>2018-10-20T10:17:57Z</time>
            </trkpt>
            <trkpt lon="101.193881" lat="14.325874">
                <ele>51.900000</ele>
                <time>2018-10-20T10:17:59Z</time>
            </trkpt>
            <trkpt lon="101.193853" lat="14.325907">
                <ele>51.600000</ele>
                <time>2018-10-20T10:18:00Z</time>
            </trkpt>
            <trkpt lon="101.193729" lat="14.325918">
                <ele>50.600000</ele>
                <time>2018-10-20T10:18:03Z</time>
            </trkpt>
            <trkpt lon="101.193687" lat="14.325908">
                <ele>50.400000</ele>
                <time>2018-10-20T10:18:04Z</time>
            </trkpt>
            <trkpt lon="101.193397" lat="14.325862">
                <ele>48.200000</ele>
                <time>2018-10-20T10:18:10Z</time>
            </trkpt>
            <trkpt lon="101.193299" lat="14.325874">
                <ele>48.400000</ele>
                <time>2018-10-20T10:18:12Z</time>
            </trkpt>
            <trkpt lon="101.193170" lat="14.325913">
                <ele>50.000000</ele>
                <time>2018-10-20T10:18:15Z</time>
            </trkpt>
            <trkpt lon="101.193085" lat="14.325929">
                <ele>51.100000</ele>
                <time>2018-10-20T10:18:17Z</time>
            </trkpt>
            <trkpt lon="101.192859" lat="14.325958">
                <ele>51.000000</ele>
                <time>2018-10-20T10:18:22Z</time>
            </trkpt>
            <trkpt lon="101.192589" lat="14.326020">
                <ele>47.300000</ele>
                <time>2018-10-20T10:18:29Z</time>
            </trkpt>
            <trkpt lon="101.192490" lat="14.326043">
                <ele>46.000000</ele>
                <time>2018-10-20T10:18:32Z</time>
            </trkpt>
            <trkpt lon="101.192336" lat="14.326063">
                <ele>45.200000</ele>
                <time>2018-10-20T10:18:36Z</time>
            </trkpt>
            <trkpt lon="101.191946" lat="14.326160">
                <ele>47.600000</ele>
                <time>2018-10-20T10:18:45Z</time>
            </trkpt>
            <trkpt lon="101.191900" lat="14.326166">
                <ele>48.200000</ele>
                <time>2018-10-20T10:18:46Z</time>
            </trkpt>
            <trkpt lon="101.191708" lat="14.326186">
                <ele>51.500000</ele>
                <time>2018-10-20T10:18:50Z</time>
            </trkpt>
            <trkpt lon="101.191410" lat="14.326246">
                <ele>51.400000</ele>
                <time>2018-10-20T10:18:57Z</time>
            </trkpt>
            <trkpt lon="101.191366" lat="14.326278">
                <ele>50.900000</ele>
                <time>2018-10-20T10:18:59Z</time>
            </trkpt>
            <trkpt lon="101.191373" lat="14.326324">
                <ele>50.900000</ele>
                <time>2018-10-20T10:19:01Z</time>
            </trkpt>
            <trkpt lon="101.191385" lat="14.326387">
                <ele>51.400000</ele>
                <time>2018-10-20T10:19:04Z</time>
            </trkpt>
            <trkpt lon="101.191413" lat="14.326499">
                <ele>51.400000</ele>
                <time>2018-10-20T10:19:08Z</time>
            </trkpt>
            <trkpt lon="101.191449" lat="14.326691">
                <ele>51.500000</ele>
                <time>2018-10-20T10:19:14Z</time>
            </trkpt>
            <trkpt lon="101.191498" lat="14.326932">
                <ele>51.200000</ele>
                <time>2018-10-20T10:19:21Z</time>
            </trkpt>
            <trkpt lon="101.191555" lat="14.327214">
                <ele>51.000000</ele>
                <time>2018-10-20T10:19:29Z</time>
            </trkpt>
            <trkpt lon="101.191637" lat="14.327628">
                <ele>51.700000</ele>
                <time>2018-10-20T10:19:41Z</time>
            </trkpt>
            <trkpt lon="101.191693" lat="14.327935">
                <ele>51.300000</ele>
                <time>2018-10-20T10:19:50Z</time>
            </trkpt>
            <trkpt lon="101.191699" lat="14.327971">
                <ele>51.100000</ele>
                <time>2018-10-20T10:19:51Z</time>
            </trkpt>
            <trkpt lon="101.191697" lat="14.328215">
                <ele>49.900000</ele>
                <time>2018-10-20T10:19:58Z</time>
            </trkpt>
            <trkpt lon="101.191695" lat="14.328412">
                <ele>51.000000</ele>
                <time>2018-10-20T10:20:05Z</time>
            </trkpt>
            <trkpt lon="101.191726" lat="14.328448">
                <ele>51.500000</ele>
                <time>2018-10-20T10:20:07Z</time>
            </trkpt>
            <trkpt lon="101.191766" lat="14.328459">
                <ele>52.100000</ele>
                <time>2018-10-20T10:20:09Z</time>
            </trkpt>
            <trkpt lon="101.191858" lat="14.328432">
                <ele>53.500000</ele>
                <time>2018-10-20T10:20:14Z</time>
            </trkpt>
            <trkpt lon="101.192046" lat="14.328403">
                <ele>54.900000</ele>
                <time>2018-10-20T10:20:21Z</time>
            </trkpt>
            <trkpt lon="101.192318" lat="14.328346">
                <ele>54.000000</ele>
                <time>2018-10-20T10:20:29Z</time>
            </trkpt>
            <trkpt lon="101.192343" lat="14.328323">
                <ele>53.600000</ele>
                <time>2018-10-20T10:20:30Z</time>
            </trkpt>
            <trkpt lon="101.192374" lat="14.328256">
                <ele>52.700000</ele>
                <time>2018-10-20T10:20:32Z</time>
            </trkpt>
            <trkpt lon="101.192458" lat="14.327937">
                <ele>49.300000</ele>
                <time>2018-10-20T10:20:41Z</time>
            </trkpt>
            <trkpt lon="101.192464" lat="14.327924">
                <ele>48.900000</ele>
                <time>2018-10-20T10:20:42Z</time>
            </trkpt>
            <trkpt lon="101.192482" lat="14.327914">
                <ele>48.900000</ele>
                <time>2018-10-20T10:20:44Z</time>
            </trkpt>
            <trkpt lon="101.192458" lat="14.327930">
                <ele>49.300000</ele>
                <time>2018-10-20T10:20:50Z</time>
            </trkpt>
            <trkpt lon="101.192453" lat="14.327942">
                <ele>49.300000</ele>
                <time>2018-10-20T10:20:54Z</time>
            </trkpt>
            <trkpt lon="101.192446" lat="14.327955">
                <ele>49.600000</ele>
                <time>2018-10-20T10:20:55Z</time>
            </trkpt>
            <trkpt lon="101.192420" lat="14.328040">
                <ele>50.200000</ele>
                <time>2018-10-20T10:21:00Z</time>
            </trkpt>
            <trkpt lon="101.192369" lat="14.328216">
                <ele>52.400000</ele>
                <time>2018-10-20T10:21:06Z</time>
            </trkpt>
            <trkpt lon="101.192280" lat="14.328342">
                <ele>53.800000</ele>
                <time>2018-10-20T10:21:11Z</time>
            </trkpt>
            <trkpt lon="101.192071" lat="14.328372">
                <ele>55.100000</ele>
                <time>2018-10-20T10:21:17Z</time>
            </trkpt>
            <trkpt lon="101.191882" lat="14.328401">
                <ele>53.200000</ele>
                <time>2018-10-20T10:21:22Z</time>
            </trkpt>
            <trkpt lon="101.191722" lat="14.328437">
                <ele>51.400000</ele>
                <time>2018-10-20T10:21:28Z</time>
            </trkpt>
            <trkpt lon="101.191675" lat="14.328450">
                <ele>50.700000</ele>
                <time>2018-10-20T10:21:34Z</time>
            </trkpt>
            <trkpt lon="101.191675" lat="14.328450">
                <ele>50.700000</ele>
                <time>2018-10-20T10:21:47Z</time>
            </trkpt>
            <trkpt lon="101.191674" lat="14.328450">
                <ele>50.700000</ele>
                <time>2018-10-20T10:21:52Z</time>
            </trkpt>
            <trkpt lon="101.191656" lat="14.328464">
                <ele>50.600000</ele>
                <time>2018-10-20T10:21:55Z</time>
            </trkpt>
            <trkpt lon="101.191642" lat="14.328477">
                <ele>50.800000</ele>
                <time>2018-10-20T10:21:57Z</time>
            </trkpt>
            <trkpt lon="101.191636" lat="14.328486">
                <ele>50.700000</ele>
                <time>2018-10-20T10:21:58Z</time>
            </trkpt>
            <trkpt lon="101.191594" lat="14.328557">
                <ele>50.500000</ele>
                <time>2018-10-20T10:22:05Z</time>
            </trkpt>
            <trkpt lon="101.191552" lat="14.328623">
                <ele>50.300000</ele>
                <time>2018-10-20T10:22:12Z</time>
            </trkpt>
            <trkpt lon="101.191504" lat="14.328709">
                <ele>50.200000</ele>
                <time>2018-10-20T10:22:21Z</time>
            </trkpt>
            <trkpt lon="101.191491" lat="14.328795">
                <ele>50.200000</ele>
                <time>2018-10-20T10:22:29Z</time>
            </trkpt>
            <trkpt lon="101.191476" lat="14.328854">
                <ele>50.100000</ele>
                <time>2018-10-20T10:22:36Z</time>
            </trkpt>
            <trkpt lon="101.191461" lat="14.328841">
                <ele>50.200000</ele>
                <time>2018-10-20T10:22:39Z</time>
            </trkpt>
            <trkpt lon="101.191472" lat="14.328824">
                <ele>50.200000</ele>
                <time>2018-10-20T10:22:41Z</time>
            </trkpt>
            <trkpt lon="101.191501" lat="14.328773">
                <ele>50.200000</ele>
                <time>2018-10-20T10:22:47Z</time>
            </trkpt>
            <trkpt lon="101.191522" lat="14.328687">
                <ele>50.200000</ele>
                <time>2018-10-20T10:22:56Z</time>
            </trkpt>
            <trkpt lon="101.191567" lat="14.328606">
                <ele>50.300000</ele>
                <time>2018-10-20T10:23:05Z</time>
            </trkpt>
            <trkpt lon="101.191592" lat="14.328573">
                <ele>50.300000</ele>
                <time>2018-10-20T10:23:09Z</time>
            </trkpt>
            <trkpt lon="101.191623" lat="14.328533">
                <ele>50.500000</ele>
                <time>2018-10-20T10:23:14Z</time>
            </trkpt>
            <trkpt lon="101.191669" lat="14.328475">
                <ele>50.700000</ele>
                <time>2018-10-20T10:23:21Z</time>
            </trkpt>
            <trkpt lon="101.191697" lat="14.328459">
                <ele>51.000000</ele>
                <time>2018-10-20T10:23:28Z</time>
            </trkpt>
            <trkpt lon="101.191697" lat="14.328459">
                <ele>51.000000</ele>
                <time>2018-10-20T10:23:40Z</time>
            </trkpt>
            <trkpt lon="101.191697" lat="14.328459">
                <ele>51.000000</ele>
                <time>2018-10-20T10:23:56Z</time>
            </trkpt>
            <trkpt lon="101.191698" lat="14.328461">
                <ele>51.000000</ele>
                <time>2018-10-20T10:24:12Z</time>
            </trkpt>
            <trkpt lon="101.191698" lat="14.328460">
                <ele>51.000000</ele>
                <time>2018-10-20T10:24:31Z</time>
            </trkpt>
            <trkpt lon="101.191695" lat="14.328428">
                <ele>51.000000</ele>
                <time>2018-10-20T10:24:38Z</time>
            </trkpt>
            <trkpt lon="101.191695" lat="14.328428">
                <ele>51.000000</ele>
                <time>2018-10-20T10:24:40Z</time>
            </trkpt>
            <trkpt lon="101.191695" lat="14.328428">
                <ele>51.000000</ele>
                <time>2018-10-20T10:24:53Z</time>
            </trkpt>
            <trkpt lon="101.191695" lat="14.328428">
                <ele>51.000000</ele>
                <time>2018-10-20T10:24:57Z</time>
            </trkpt>
            <trkpt lon="101.191703" lat="14.328432">
                <ele>51.000000</ele>
                <time>2018-10-20T10:25:06Z</time>
            </trkpt>
            <trkpt lon="101.191725" lat="14.328438">
                <ele>51.400000</ele>
                <time>2018-10-20T10:25:12Z</time>
            </trkpt>
            <trkpt lon="101.191725" lat="14.328438">
                <ele>51.400000</ele>
                <time>2018-10-20T10:25:20Z</time>
            </trkpt>
            <trkpt lon="101.191768" lat="14.328434">
                <ele>52.100000</ele>
                <time>2018-10-20T10:25:25Z</time>
            </trkpt>
            <trkpt lon="101.191910" lat="14.328419">
                <ele>53.800000</ele>
                <time>2018-10-20T10:25:31Z</time>
            </trkpt>
            <trkpt lon="101.192092" lat="14.328389">
                <ele>55.100000</ele>
                <time>2018-10-20T10:25:37Z</time>
            </trkpt>
            <trkpt lon="101.192289" lat="14.328359">
                <ele>54.000000</ele>
                <time>2018-10-20T10:25:44Z</time>
            </trkpt>
            <trkpt lon="101.192332" lat="14.328381">
                <ele>53.800000</ele>
                <time>2018-10-20T10:25:47Z</time>
            </trkpt>
            <trkpt lon="101.192336" lat="14.328396">
                <ele>54.000000</ele>
                <time>2018-10-20T10:25:48Z</time>
            </trkpt>
            <trkpt lon="101.192317" lat="14.328524">
                <ele>54.900000</ele>
                <time>2018-10-20T10:25:54Z</time>
            </trkpt>
            <trkpt lon="101.192334" lat="14.328669">
                <ele>55.100000</ele>
                <time>2018-10-20T10:26:01Z</time>
            </trkpt>
            <trkpt lon="101.192370" lat="14.328809">
                <ele>55.800000</ele>
                <time>2018-10-20T10:26:08Z</time>
            </trkpt>
            <trkpt lon="101.192388" lat="14.328974">
                <ele>55.800000</ele>
                <time>2018-10-20T10:26:16Z</time>
            </trkpt>
            <trkpt lon="101.192408" lat="14.329082">
                <ele>55.700000</ele>
                <time>2018-10-20T10:26:21Z</time>
            </trkpt>
            <trkpt lon="101.192415" lat="14.329121">
                <ele>55.500000</ele>
                <time>2018-10-20T10:26:23Z</time>
            </trkpt>
            <trkpt lon="101.192452" lat="14.329299">
                <ele>55.500000</ele>
                <time>2018-10-20T10:26:31Z</time>
            </trkpt>
            <trkpt lon="101.192461" lat="14.329318">
                <ele>55.500000</ele>
                <time>2018-10-20T10:26:32Z</time>
            </trkpt>
            <trkpt lon="101.192543" lat="14.329424">
                <ele>55.300000</ele>
                <time>2018-10-20T10:26:38Z</time>
            </trkpt>
            <trkpt lon="101.192625" lat="14.329502">
                <ele>55.200000</ele>
                <time>2018-10-20T10:26:44Z</time>
            </trkpt>
            <trkpt lon="101.192675" lat="14.329580">
                <ele>55.000000</ele>
                <time>2018-10-20T10:26:49Z</time>
            </trkpt>
            <trkpt lon="101.192701" lat="14.329628">
                <ele>54.900000</ele>
                <time>2018-10-20T10:26:52Z</time>
            </trkpt>
            <trkpt lon="101.192722" lat="14.329717">
                <ele>55.000000</ele>
                <time>2018-10-20T10:26:59Z</time>
            </trkpt>
            <trkpt lon="101.192732" lat="14.329765">
                <ele>55.000000</ele>
                <time>2018-10-20T10:27:02Z</time>
            </trkpt>
            <trkpt lon="101.192742" lat="14.329808">
                <ele>55.000000</ele>
                <time>2018-10-20T10:27:05Z</time>
            </trkpt>
            <trkpt lon="101.192771" lat="14.329875">
                <ele>55.100000</ele>
                <time>2018-10-20T10:27:11Z</time>
            </trkpt>
            <trkpt lon="101.192770" lat="14.329886">
                <ele>54.800000</ele>
                <time>2018-10-20T10:27:12Z</time>
            </trkpt>
            <trkpt lon="101.192771" lat="14.329891">
                <ele>54.800000</ele>
                <time>2018-10-20T10:27:13Z</time>
            </trkpt>
            <trkpt lon="101.192773" lat="14.329891">
                <ele>54.800000</ele>
                <time>2018-10-20T10:27:16Z</time>
            </trkpt>
            <trkpt lon="101.192775" lat="14.329896">
                <ele>54.800000</ele>
                <time>2018-10-20T10:27:31Z</time>
            </trkpt>
            <trkpt lon="101.192758" lat="14.329920">
                <ele>54.800000</ele>
                <time>2018-10-20T10:27:37Z</time>
            </trkpt>
            <trkpt lon="101.192775" lat="14.329997">
                <ele>54.400000</ele>
                <time>2018-10-20T10:27:42Z</time>
            </trkpt>
            <trkpt lon="101.192785" lat="14.330019">
                <ele>54.300000</ele>
                <time>2018-10-20T10:27:43Z</time>
            </trkpt>
            <trkpt lon="101.192836" lat="14.330150">
                <ele>54.500000</ele>
                <time>2018-10-20T10:27:50Z</time>
            </trkpt>
            <trkpt lon="101.192832" lat="14.330190">
                <ele>54.500000</ele>
                <time>2018-10-20T10:27:55Z</time>
            </trkpt>
            <trkpt lon="101.192826" lat="14.330203">
                <ele>54.500000</ele>
                <time>2018-10-20T10:28:03Z</time>
            </trkpt>
            <trkpt lon="101.192810" lat="14.330227">
                <ele>54.500000</ele>
                <time>2018-10-20T10:28:07Z</time>
            </trkpt>
            <trkpt lon="101.192801" lat="14.330241">
                <ele>54.500000</ele>
                <time>2018-10-20T10:28:10Z</time>
            </trkpt>
            <trkpt lon="101.192796" lat="14.330264">
                <ele>54.500000</ele>
                <time>2018-10-20T10:28:13Z</time>
            </trkpt>
            <trkpt lon="101.192796" lat="14.330288">
                <ele>54.500000</ele>
                <time>2018-10-20T10:28:16Z</time>
            </trkpt>
            <trkpt lon="101.192803" lat="14.330317">
                <ele>54.500000</ele>
                <time>2018-10-20T10:28:21Z</time>
            </trkpt>
            <trkpt lon="101.192804" lat="14.330337">
                <ele>54.500000</ele>
                <time>2018-10-20T10:28:23Z</time>
            </trkpt>
            <trkpt lon="101.192798" lat="14.330401">
                <ele>54.700000</ele>
                <time>2018-10-20T10:28:30Z</time>
            </trkpt>
            <trkpt lon="101.192768" lat="14.330462">
                <ele>54.800000</ele>
                <time>2018-10-20T10:28:37Z</time>
            </trkpt>
            <trkpt lon="101.192764" lat="14.330472">
                <ele>55.100000</ele>
                <time>2018-10-20T10:28:38Z</time>
            </trkpt>
            <trkpt lon="101.192744" lat="14.330518">
                <ele>55.000000</ele>
                <time>2018-10-20T10:28:45Z</time>
            </trkpt>
            <trkpt lon="101.192736" lat="14.330553">
                <ele>55.000000</ele>
                <time>2018-10-20T10:28:49Z</time>
            </trkpt>
            <trkpt lon="101.192740" lat="14.330574">
                <ele>55.000000</ele>
                <time>2018-10-20T10:28:51Z</time>
            </trkpt>
            <trkpt lon="101.192730" lat="14.330635">
                <ele>55.000000</ele>
                <time>2018-10-20T10:28:58Z</time>
            </trkpt>
            <trkpt lon="101.192735" lat="14.330658">
                <ele>55.000000</ele>
                <time>2018-10-20T10:29:00Z</time>
            </trkpt>
            <trkpt lon="101.192738" lat="14.330703">
                <ele>55.000000</ele>
                <time>2018-10-20T10:29:06Z</time>
            </trkpt>
            <trkpt lon="101.192737" lat="14.330705">
                <ele>55.000000</ele>
                <time>2018-10-20T10:29:10Z</time>
            </trkpt>
            <trkpt lon="101.192722" lat="14.330726">
                <ele>55.000000</ele>
                <time>2018-10-20T10:29:12Z</time>
            </trkpt>
            <trkpt lon="101.192696" lat="14.330769">
                <ele>54.700000</ele>
                <time>2018-10-20T10:29:15Z</time>
            </trkpt>
            <trkpt lon="101.192694" lat="14.330788">
                <ele>54.700000</ele>
                <time>2018-10-20T10:29:16Z</time>
            </trkpt>
            <trkpt lon="101.192690" lat="14.330805">
                <ele>54.700000</ele>
                <time>2018-10-20T10:29:17Z</time>
            </trkpt>
            <trkpt lon="101.192731" lat="14.330890">
                <ele>55.000000</ele>
                <time>2018-10-20T10:29:22Z</time>
            </trkpt>
            <trkpt lon="101.192775" lat="14.331009">
                <ele>55.100000</ele>
                <time>2018-10-20T10:29:28Z</time>
            </trkpt>
            <trkpt lon="101.192797" lat="14.331068">
                <ele>55.100000</ele>
                <time>2018-10-20T10:29:31Z</time>
            </trkpt>
            <trkpt lon="101.192830" lat="14.331108">
                <ele>55.100000</ele>
                <time>2018-10-20T10:29:33Z</time>
            </trkpt>
            <trkpt lon="101.192863" lat="14.331131">
                <ele>55.100000</ele>
                <time>2018-10-20T10:29:35Z</time>
            </trkpt>
            <trkpt lon="101.192909" lat="14.331162">
                <ele>55.100000</ele>
                <time>2018-10-20T10:29:38Z</time>
            </trkpt>
            <trkpt lon="101.192922" lat="14.331175">
                <ele>55.300000</ele>
                <time>2018-10-20T10:29:39Z</time>
            </trkpt>
            <trkpt lon="101.192960" lat="14.331236">
                <ele>55.500000</ele>
                <time>2018-10-20T10:29:43Z</time>
            </trkpt>
            <trkpt lon="101.193069" lat="14.331291">
                <ele>55.200000</ele>
                <time>2018-10-20T10:29:49Z</time>
            </trkpt>
            <trkpt lon="101.193132" lat="14.331300">
                <ele>55.100000</ele>
                <time>2018-10-20T10:29:52Z</time>
            </trkpt>
            <trkpt lon="101.193193" lat="14.331305">
                <ele>55.100000</ele>
                <time>2018-10-20T10:29:55Z</time>
            </trkpt>
            <trkpt lon="101.193304" lat="14.331329">
                <ele>55.100000</ele>
                <time>2018-10-20T10:30:01Z</time>
            </trkpt>
            <trkpt lon="101.193388" lat="14.331361">
                <ele>55.700000</ele>
                <time>2018-10-20T10:30:05Z</time>
            </trkpt>
            <trkpt lon="101.193452" lat="14.331393">
                <ele>56.300000</ele>
                <time>2018-10-20T10:30:08Z</time>
            </trkpt>
            <trkpt lon="101.193597" lat="14.331435">
                <ele>57.800000</ele>
                <time>2018-10-20T10:30:15Z</time>
            </trkpt>
            <trkpt lon="101.193701" lat="14.331436">
                <ele>58.900000</ele>
                <time>2018-10-20T10:30:20Z</time>
            </trkpt>
            <trkpt lon="101.193738" lat="14.331443">
                <ele>59.200000</ele>
                <time>2018-10-20T10:30:22Z</time>
            </trkpt>
            <trkpt lon="101.193804" lat="14.331482">
                <ele>59.300000</ele>
                <time>2018-10-20T10:30:26Z</time>
            </trkpt>
            <trkpt lon="101.193928" lat="14.331562">
                <ele>59.600000</ele>
                <time>2018-10-20T10:30:32Z</time>
            </trkpt>
            <trkpt lon="101.194047" lat="14.331616">
                <ele>59.300000</ele>
                <time>2018-10-20T10:30:38Z</time>
            </trkpt>
            <trkpt lon="101.194110" lat="14.331634">
                <ele>59.100000</ele>
                <time>2018-10-20T10:30:41Z</time>
            </trkpt>
            <trkpt lon="101.194184" lat="14.331651">
                <ele>58.800000</ele>
                <time>2018-10-20T10:30:45Z</time>
            </trkpt>
            <trkpt lon="101.194349" lat="14.331661">
                <ele>58.100000</ele>
                <time>2018-10-20T10:30:53Z</time>
            </trkpt>
            <trkpt lon="101.194467" lat="14.331606">
                <ele>58.100000</ele>
                <time>2018-10-20T10:30:59Z</time>
            </trkpt>
            <trkpt lon="101.194498" lat="14.331577">
                <ele>58.100000</ele>
                <time>2018-10-20T10:31:01Z</time>
            </trkpt>
            <trkpt lon="101.194563" lat="14.331507">
                <ele>58.600000</ele>
                <time>2018-10-20T10:31:06Z</time>
            </trkpt>
            <trkpt lon="101.194660" lat="14.331436">
                <ele>59.400000</ele>
                <time>2018-10-20T10:31:12Z</time>
            </trkpt>
            <trkpt lon="101.194699" lat="14.331439">
                <ele>59.400000</ele>
                <time>2018-10-20T10:31:14Z</time>
            </trkpt>
            <trkpt lon="101.194764" lat="14.331459">
                <ele>59.400000</ele>
                <time>2018-10-20T10:31:17Z</time>
            </trkpt>
            <trkpt lon="101.194858" lat="14.331500">
                <ele>58.600000</ele>
                <time>2018-10-20T10:31:21Z</time>
            </trkpt>
            <trkpt lon="101.194896" lat="14.331521">
                <ele>58.400000</ele>
                <time>2018-10-20T10:31:23Z</time>
            </trkpt>
            <trkpt lon="101.195037" lat="14.331613">
                <ele>57.100000</ele>
                <time>2018-10-20T10:31:31Z</time>
            </trkpt>
            <trkpt lon="101.195113" lat="14.331710">
                <ele>57.300000</ele>
                <time>2018-10-20T10:31:37Z</time>
            </trkpt>
            <trkpt lon="101.195176" lat="14.331825">
                <ele>58.000000</ele>
                <time>2018-10-20T10:31:43Z</time>
            </trkpt>
            <trkpt lon="101.195226" lat="14.331939">
                <ele>58.600000</ele>
                <time>2018-10-20T10:31:48Z</time>
            </trkpt>
            <trkpt lon="101.195308" lat="14.332086">
                <ele>59.800000</ele>
                <time>2018-10-20T10:31:55Z</time>
            </trkpt>
            <trkpt lon="101.195319" lat="14.332106">
                <ele>59.900000</ele>
                <time>2018-10-20T10:31:56Z</time>
            </trkpt>
            <trkpt lon="101.195381" lat="14.332223">
                <ele>60.400000</ele>
                <time>2018-10-20T10:32:01Z</time>
            </trkpt>
            <trkpt lon="101.195409" lat="14.332267">
                <ele>60.600000</ele>
                <time>2018-10-20T10:32:03Z</time>
            </trkpt>
            <trkpt lon="101.195451" lat="14.332368">
                <ele>60.700000</ele>
                <time>2018-10-20T10:32:08Z</time>
            </trkpt>
            <trkpt lon="101.195439" lat="14.332387">
                <ele>60.700000</ele>
                <time>2018-10-20T10:32:09Z</time>
            </trkpt>
            <trkpt lon="101.195408" lat="14.332422">
                <ele>60.700000</ele>
                <time>2018-10-20T10:32:11Z</time>
            </trkpt>
            <trkpt lon="101.195373" lat="14.332456">
                <ele>60.600000</ele>
                <time>2018-10-20T10:32:13Z</time>
            </trkpt>
            <trkpt lon="101.195285" lat="14.332551">
                <ele>60.500000</ele>
                <time>2018-10-20T10:32:18Z</time>
            </trkpt>
            <trkpt lon="101.195197" lat="14.332641">
                <ele>60.400000</ele>
                <time>2018-10-20T10:32:23Z</time>
            </trkpt>
            <trkpt lon="101.195164" lat="14.332679">
                <ele>60.400000</ele>
                <time>2018-10-20T10:32:25Z</time>
            </trkpt>
            <trkpt lon="101.195076" lat="14.332774">
                <ele>60.400000</ele>
                <time>2018-10-20T10:32:30Z</time>
            </trkpt>
            <trkpt lon="101.195019" lat="14.332835">
                <ele>60.400000</ele>
                <time>2018-10-20T10:32:33Z</time>
            </trkpt>
            <trkpt lon="101.194979" lat="14.332870">
                <ele>60.400000</ele>
                <time>2018-10-20T10:32:35Z</time>
            </trkpt>
            <trkpt lon="101.194937" lat="14.332930">
                <ele>60.400000</ele>
                <time>2018-10-20T10:32:38Z</time>
            </trkpt>
            <trkpt lon="101.194945" lat="14.332944">
                <ele>60.400000</ele>
                <time>2018-10-20T10:32:39Z</time>
            </trkpt>
            <trkpt lon="101.194958" lat="14.332947">
                <ele>60.400000</ele>
                <time>2018-10-20T10:32:40Z</time>
            </trkpt>
            <trkpt lon="101.194998" lat="14.332923">
                <ele>60.400000</ele>
                <time>2018-10-20T10:32:43Z</time>
            </trkpt>
            <trkpt lon="101.195012" lat="14.332907">
                <ele>60.400000</ele>
                <time>2018-10-20T10:32:44Z</time>
            </trkpt>
            <trkpt lon="101.195049" lat="14.332859">
                <ele>60.500000</ele>
                <time>2018-10-20T10:32:47Z</time>
            </trkpt>
            <trkpt lon="101.195098" lat="14.332816">
                <ele>60.500000</ele>
                <time>2018-10-20T10:32:51Z</time>
            </trkpt>
            <trkpt lon="101.195154" lat="14.332766">
                <ele>60.500000</ele>
                <time>2018-10-20T10:32:55Z</time>
            </trkpt>
            <trkpt lon="101.195208" lat="14.332704">
                <ele>60.500000</ele>
                <time>2018-10-20T10:32:58Z</time>
            </trkpt>
            <trkpt lon="101.195297" lat="14.332601">
                <ele>60.500000</ele>
                <time>2018-10-20T10:33:03Z</time>
            </trkpt>
            <trkpt lon="101.195328" lat="14.332576">
                <ele>60.500000</ele>
                <time>2018-10-20T10:33:05Z</time>
            </trkpt>
            <trkpt lon="101.195437" lat="14.332464">
                <ele>60.700000</ele>
                <time>2018-10-20T10:33:12Z</time>
            </trkpt>
            <trkpt lon="101.195453" lat="14.332444">
                <ele>60.700000</ele>
                <time>2018-10-20T10:33:13Z</time>
            </trkpt>
            <trkpt lon="101.195535" lat="14.332359">
                <ele>60.700000</ele>
                <time>2018-10-20T10:33:19Z</time>
            </trkpt>
            <trkpt lon="101.195506" lat="14.332334">
                <ele>60.700000</ele>
                <time>2018-10-20T10:33:22Z</time>
            </trkpt>
            <trkpt lon="101.195494" lat="14.332346">
                <ele>60.700000</ele>
                <time>2018-10-20T10:33:23Z</time>
            </trkpt>
            <trkpt lon="101.195478" lat="14.332362">
                <ele>60.700000</ele>
                <time>2018-10-20T10:33:24Z</time>
            </trkpt>
            <trkpt lon="101.195400" lat="14.332442">
                <ele>60.700000</ele>
                <time>2018-10-20T10:33:28Z</time>
            </trkpt>
            <trkpt lon="101.195235" lat="14.332606">
                <ele>60.400000</ele>
                <time>2018-10-20T10:33:35Z</time>
            </trkpt>
            <trkpt lon="101.195188" lat="14.332656">
                <ele>60.300000</ele>
                <time>2018-10-20T10:33:37Z</time>
            </trkpt>
            <trkpt lon="101.195033" lat="14.332817">
                <ele>60.100000</ele>
                <time>2018-10-20T10:33:43Z</time>
            </trkpt>
            <trkpt lon="101.194836" lat="14.333016">
                <ele>60.100000</ele>
                <time>2018-10-20T10:33:50Z</time>
            </trkpt>
            <trkpt lon="101.194751" lat="14.333108">
                <ele>60.100000</ele>
                <time>2018-10-20T10:33:53Z</time>
            </trkpt>
            <trkpt lon="101.194522" lat="14.333336">
                <ele>60.200000</ele>
                <time>2018-10-20T10:34:01Z</time>
            </trkpt>
            <trkpt lon="101.194465" lat="14.333401">
                <ele>60.200000</ele>
                <time>2018-10-20T10:34:03Z</time>
            </trkpt>
            <trkpt lon="101.194313" lat="14.333557">
                <ele>60.200000</ele>
                <time>2018-10-20T10:34:08Z</time>
            </trkpt>
            <trkpt lon="101.194164" lat="14.333710">
                <ele>60.200000</ele>
                <time>2018-10-20T10:34:13Z</time>
            </trkpt>
            <trkpt lon="101.194103" lat="14.333774">
                <ele>60.200000</ele>
                <time>2018-10-20T10:34:15Z</time>
            </trkpt>
            <trkpt lon="101.193903" lat="14.333976">
                <ele>60.200000</ele>
                <time>2018-10-20T10:34:22Z</time>
            </trkpt>
            <trkpt lon="101.193845" lat="14.334039">
                <ele>60.200000</ele>
                <time>2018-10-20T10:34:24Z</time>
            </trkpt>
            <trkpt lon="101.193688" lat="14.334202">
                <ele>60.200000</ele>
                <time>2018-10-20T10:34:30Z</time>
            </trkpt>
            <trkpt lon="101.193546" lat="14.334341">
                <ele>60.200000</ele>
                <time>2018-10-20T10:34:36Z</time>
            </trkpt>
            <trkpt lon="101.193484" lat="14.334409">
                <ele>60.200000</ele>
                <time>2018-10-20T10:34:39Z</time>
            </trkpt>
            <trkpt lon="101.193387" lat="14.334501">
                <ele>60.200000</ele>
                <time>2018-10-20T10:34:43Z</time>
            </trkpt>
            <trkpt lon="101.193302" lat="14.334584">
                <ele>60.200000</ele>
                <time>2018-10-20T10:34:46Z</time>
            </trkpt>
            <trkpt lon="101.193155" lat="14.334742">
                <ele>60.300000</ele>
                <time>2018-10-20T10:34:52Z</time>
            </trkpt>
            <trkpt lon="101.193112" lat="14.334789">
                <ele>60.300000</ele>
                <time>2018-10-20T10:34:54Z</time>
            </trkpt>
            <trkpt lon="101.192952" lat="14.334950">
                <ele>60.300000</ele>
                <time>2018-10-20T10:35:01Z</time>
            </trkpt>
            <trkpt lon="101.192885" lat="14.335017">
                <ele>60.300000</ele>
                <time>2018-10-20T10:35:04Z</time>
            </trkpt>
            <trkpt lon="101.192771" lat="14.335121">
                <ele>60.300000</ele>
                <time>2018-10-20T10:35:09Z</time>
            </trkpt>
            <trkpt lon="101.192630" lat="14.335236">
                <ele>60.300000</ele>
                <time>2018-10-20T10:35:16Z</time>
            </trkpt>
            <trkpt lon="101.192605" lat="14.335232">
                <ele>60.300000</ele>
                <time>2018-10-20T10:35:17Z</time>
            </trkpt>
            <trkpt lon="101.192558" lat="14.335277">
                <ele>60.300000</ele>
                <time>2018-10-20T10:35:20Z</time>
            </trkpt>
            <trkpt lon="101.192570" lat="14.335300">
                <ele>60.300000</ele>
                <time>2018-10-20T10:35:21Z</time>
            </trkpt>
            <trkpt lon="101.192611" lat="14.335315">
                <ele>60.300000</ele>
                <time>2018-10-20T10:35:23Z</time>
            </trkpt>
            <trkpt lon="101.192709" lat="14.335249">
                <ele>60.300000</ele>
                <time>2018-10-20T10:35:27Z</time>
            </trkpt>
            <trkpt lon="101.192728" lat="14.335224">
                <ele>60.300000</ele>
                <time>2018-10-20T10:35:28Z</time>
            </trkpt>
            <trkpt lon="101.192875" lat="14.335090">
                <ele>60.300000</ele>
                <time>2018-10-20T10:35:34Z</time>
            </trkpt>
            <trkpt lon="101.192914" lat="14.335059">
                <ele>60.300000</ele>
                <time>2018-10-20T10:35:38Z</time>
            </trkpt>
            <trkpt lon="101.192914" lat="14.335059">
                <ele>60.300000</ele>
                <time>2018-10-20T10:35:50Z</time>
            </trkpt>
            <trkpt lon="101.192927" lat="14.335038">
                <ele>60.300000</ele>
                <time>2018-10-20T10:35:53Z</time>
            </trkpt>
            <trkpt lon="101.192945" lat="14.335013">
                <ele>60.300000</ele>
                <time>2018-10-20T10:35:55Z</time>
            </trkpt>
            <trkpt lon="101.193051" lat="14.334907">
                <ele>60.300000</ele>
                <time>2018-10-20T10:36:00Z</time>
            </trkpt>
            <trkpt lon="101.193282" lat="14.334668">
                <ele>60.400000</ele>
                <time>2018-10-20T10:36:09Z</time>
            </trkpt>
            <trkpt lon="101.193342" lat="14.334604">
                <ele>60.400000</ele>
                <time>2018-10-20T10:36:11Z</time>
            </trkpt>
            <trkpt lon="101.193507" lat="14.334431">
                <ele>60.400000</ele>
                <time>2018-10-20T10:36:17Z</time>
            </trkpt>
            <trkpt lon="101.193733" lat="14.334194">
                <ele>60.400000</ele>
                <time>2018-10-20T10:36:25Z</time>
            </trkpt>
            <trkpt lon="101.193907" lat="14.334019">
                <ele>60.400000</ele>
                <time>2018-10-20T10:36:32Z</time>
            </trkpt>
            <trkpt lon="101.193932" lat="14.333991">
                <ele>60.400000</ele>
                <time>2018-10-20T10:36:33Z</time>
            </trkpt>
            <trkpt lon="101.194116" lat="14.333809">
                <ele>60.400000</ele>
                <time>2018-10-20T10:36:39Z</time>
            </trkpt>
            <trkpt lon="101.194385" lat="14.333529">
                <ele>60.500000</ele>
                <time>2018-10-20T10:36:47Z</time>
            </trkpt>
            <trkpt lon="101.194675" lat="14.333239">
                <ele>60.500000</ele>
                <time>2018-10-20T10:36:55Z</time>
            </trkpt>
            <trkpt lon="101.194939" lat="14.332964">
                <ele>60.500000</ele>
                <time>2018-10-20T10:37:03Z</time>
            </trkpt>
            <trkpt lon="101.195129" lat="14.332773">
                <ele>60.500000</ele>
                <time>2018-10-20T10:37:09Z</time>
            </trkpt>
            <trkpt lon="101.195160" lat="14.332744">
                <ele>60.500000</ele>
                <time>2018-10-20T10:37:10Z</time>
            </trkpt>
            <trkpt lon="101.195324" lat="14.332569">
                <ele>60.500000</ele>
                <time>2018-10-20T10:37:16Z</time>
            </trkpt>
            <trkpt lon="101.195345" lat="14.332566">
                <ele>60.500000</ele>
                <time>2018-10-20T10:37:17Z</time>
            </trkpt>
            <trkpt lon="101.195374" lat="14.332593">
                <ele>60.500000</ele>
                <time>2018-10-20T10:37:19Z</time>
            </trkpt>
            <trkpt lon="101.195481" lat="14.332734">
                <ele>61.700000</ele>
                <time>2018-10-20T10:37:24Z</time>
            </trkpt>
            <trkpt lon="101.195655" lat="14.332975">
                <ele>62.600000</ele>
                <time>2018-10-20T10:37:31Z</time>
            </trkpt>
            <trkpt lon="101.195680" lat="14.333010">
                <ele>62.800000</ele>
                <time>2018-10-20T10:37:32Z</time>
            </trkpt>
            <trkpt lon="101.195878" lat="14.333255">
                <ele>63.700000</ele>
                <time>2018-10-20T10:37:39Z</time>
            </trkpt>
            <trkpt lon="101.196036" lat="14.333408">
                <ele>64.200000</ele>
                <time>2018-10-20T10:37:44Z</time>
            </trkpt>
            <trkpt lon="101.196104" lat="14.333459">
                <ele>64.300000</ele>
                <time>2018-10-20T10:37:46Z</time>
            </trkpt>
            <trkpt lon="101.196259" lat="14.333600">
                <ele>64.200000</ele>
                <time>2018-10-20T10:37:51Z</time>
            </trkpt>
            <trkpt lon="101.196321" lat="14.333653">
                <ele>64.000000</ele>
                <time>2018-10-20T10:37:53Z</time>
            </trkpt>
            <trkpt lon="101.196502" lat="14.333790">
                <ele>63.700000</ele>
                <time>2018-10-20T10:37:58Z</time>
            </trkpt>
            <trkpt lon="101.196534" lat="14.333816">
                <ele>63.700000</ele>
                <time>2018-10-20T10:37:59Z</time>
            </trkpt>
            <trkpt lon="101.196667" lat="14.333919">
                <ele>63.500000</ele>
                <time>2018-10-20T10:38:03Z</time>
            </trkpt>
            <trkpt lon="101.196802" lat="14.334010">
                <ele>63.300000</ele>
                <time>2018-10-20T10:38:07Z</time>
            </trkpt>
            <trkpt lon="101.196901" lat="14.334062">
                <ele>63.300000</ele>
                <time>2018-10-20T10:38:10Z</time>
            </trkpt>
            <trkpt lon="101.197023" lat="14.334119">
                <ele>63.300000</ele>
                <time>2018-10-20T10:38:14Z</time>
            </trkpt>
            <trkpt lon="101.197128" lat="14.334130">
                <ele>63.500000</ele>
                <time>2018-10-20T10:38:17Z</time>
            </trkpt>
            <trkpt lon="101.197199" lat="14.334122">
                <ele>63.600000</ele>
                <time>2018-10-20T10:38:19Z</time>
            </trkpt>
            <trkpt lon="101.197354" lat="14.334101">
                <ele>63.800000</ele>
                <time>2018-10-20T10:38:24Z</time>
            </trkpt>
            <trkpt lon="101.197408" lat="14.334095">
                <ele>63.800000</ele>
                <time>2018-10-20T10:38:26Z</time>
            </trkpt>
            <trkpt lon="101.197580" lat="14.334063">
                <ele>64.200000</ele>
                <time>2018-10-20T10:38:32Z</time>
            </trkpt>
            <trkpt lon="101.197609" lat="14.334061">
                <ele>64.200000</ele>
                <time>2018-10-20T10:38:33Z</time>
            </trkpt>
            <trkpt lon="101.197795" lat="14.334049">
                <ele>64.900000</ele>
                <time>2018-10-20T10:38:40Z</time>
            </trkpt>
            <trkpt lon="101.197961" lat="14.334036">
                <ele>65.600000</ele>
                <time>2018-10-20T10:38:46Z</time>
            </trkpt>
            <trkpt lon="101.197986" lat="14.334038">
                <ele>65.800000</ele>
                <time>2018-10-20T10:38:47Z</time>
            </trkpt>
            <trkpt lon="101.198098" lat="14.334029">
                <ele>66.300000</ele>
                <time>2018-10-20T10:38:52Z</time>
            </trkpt>
            <trkpt lon="101.198117" lat="14.334026">
                <ele>66.500000</ele>
                <time>2018-10-20T10:38:53Z</time>
            </trkpt>
            <trkpt lon="101.198212" lat="14.334016">
                <ele>67.100000</ele>
                <time>2018-10-20T10:38:59Z</time>
            </trkpt>
            <trkpt lon="101.198233" lat="14.334020">
                <ele>67.200000</ele>
                <time>2018-10-20T10:39:00Z</time>
            </trkpt>
            <trkpt lon="101.198252" lat="14.334022">
                <ele>67.400000</ele>
                <time>2018-10-20T10:39:01Z</time>
            </trkpt>
            <trkpt lon="101.198313" lat="14.334032">
                <ele>67.800000</ele>
                <time>2018-10-20T10:39:04Z</time>
            </trkpt>
            <trkpt lon="101.198411" lat="14.334043">
                <ele>68.400000</ele>
                <time>2018-10-20T10:39:09Z</time>
            </trkpt>
            <trkpt lon="101.198449" lat="14.334050">
                <ele>68.500000</ele>
                <time>2018-10-20T10:39:11Z</time>
            </trkpt>
            <trkpt lon="101.198531" lat="14.334062">
                <ele>68.700000</ele>
                <time>2018-10-20T10:39:16Z</time>
            </trkpt>
            <trkpt lon="101.198558" lat="14.334063">
                <ele>68.800000</ele>
                <time>2018-10-20T10:39:18Z</time>
            </trkpt>
            <trkpt lon="101.198636" lat="14.334062">
                <ele>68.900000</ele>
                <time>2018-10-20T10:39:24Z</time>
            </trkpt>
            <trkpt lon="101.198672" lat="14.334067">
                <ele>69.000000</ele>
                <time>2018-10-20T10:39:26Z</time>
            </trkpt>
            <trkpt lon="101.198778" lat="14.334077">
                <ele>69.200000</ele>
                <time>2018-10-20T10:39:32Z</time>
            </trkpt>
            <trkpt lon="101.198794" lat="14.334083">
                <ele>69.200000</ele>
                <time>2018-10-20T10:39:33Z</time>
            </trkpt>
            <trkpt lon="101.198868" lat="14.334101">
                <ele>69.400000</ele>
                <time>2018-10-20T10:39:38Z</time>
            </trkpt>
            <trkpt lon="101.198930" lat="14.334114">
                <ele>69.500000</ele>
                <time>2018-10-20T10:39:42Z</time>
            </trkpt>
            <trkpt lon="101.198959" lat="14.334116">
                <ele>69.600000</ele>
                <time>2018-10-20T10:39:44Z</time>
            </trkpt>
            <trkpt lon="101.198974" lat="14.334116">
                <ele>69.600000</ele>
                <time>2018-10-20T10:39:45Z</time>
            </trkpt>
            <trkpt lon="101.199047" lat="14.334129">
                <ele>69.900000</ele>
                <time>2018-10-20T10:39:50Z</time>
            </trkpt>
            <trkpt lon="101.199061" lat="14.334126">
                <ele>70.000000</ele>
                <time>2018-10-20T10:39:51Z</time>
            </trkpt>
            <trkpt lon="101.199202" lat="14.334127">
                <ele>70.700000</ele>
                <time>2018-10-20T10:39:59Z</time>
            </trkpt>
            <trkpt lon="101.199223" lat="14.334126">
                <ele>70.900000</ele>
                <time>2018-10-20T10:40:00Z</time>
            </trkpt>
            <trkpt lon="101.199370" lat="14.334131">
                <ele>71.700000</ele>
                <time>2018-10-20T10:40:06Z</time>
            </trkpt>
            <trkpt lon="101.199452" lat="14.334129">
                <ele>72.400000</ele>
                <time>2018-10-20T10:40:11Z</time>
            </trkpt>
            <trkpt lon="101.199492" lat="14.334130">
                <ele>72.700000</ele>
                <time>2018-10-20T10:40:13Z</time>
            </trkpt>
            <trkpt lon="101.199585" lat="14.334134">
                <ele>73.100000</ele>
                <time>2018-10-20T10:40:18Z</time>
            </trkpt>
            <trkpt lon="101.199597" lat="14.334130">
                <ele>73.200000</ele>
                <time>2018-10-20T10:40:19Z</time>
            </trkpt>
            <trkpt lon="101.199622" lat="14.334120">
                <ele>73.300000</ele>
                <time>2018-10-20T10:40:21Z</time>
            </trkpt>
            <trkpt lon="101.199697" lat="14.334116">
                <ele>73.500000</ele>
                <time>2018-10-20T10:40:25Z</time>
            </trkpt>
            <trkpt lon="101.199721" lat="14.334119">
                <ele>73.600000</ele>
                <time>2018-10-20T10:40:26Z</time>
            </trkpt>
            <trkpt lon="101.199847" lat="14.334124">
                <ele>73.900000</ele>
                <time>2018-10-20T10:40:31Z</time>
            </trkpt>
            <trkpt lon="101.199868" lat="14.334122">
                <ele>74.000000</ele>
                <time>2018-10-20T10:40:32Z</time>
            </trkpt>
            <trkpt lon="101.199891" lat="14.334120">
                <ele>74.100000</ele>
                <time>2018-10-20T10:40:33Z</time>
            </trkpt>
            <trkpt lon="101.200064" lat="14.334116">
                <ele>74.800000</ele>
                <time>2018-10-20T10:40:41Z</time>
            </trkpt>
            <trkpt lon="101.200216" lat="14.334119">
                <ele>75.700000</ele>
                <time>2018-10-20T10:40:48Z</time>
            </trkpt>
            <trkpt lon="101.200385" lat="14.334124">
                <ele>76.600000</ele>
                <time>2018-10-20T10:40:56Z</time>
            </trkpt>
            <trkpt lon="101.200509" lat="14.334144">
                <ele>77.100000</ele>
                <time>2018-10-20T10:41:02Z</time>
            </trkpt>
            <trkpt lon="101.200632" lat="14.334186">
                <ele>77.400000</ele>
                <time>2018-10-20T10:41:08Z</time>
            </trkpt>
            <trkpt lon="101.200796" lat="14.334239">
                <ele>77.700000</ele>
                <time>2018-10-20T10:41:15Z</time>
            </trkpt>
            <trkpt lon="101.200963" lat="14.334286">
                <ele>78.000000</ele>
                <time>2018-10-20T10:41:22Z</time>
            </trkpt>
            <trkpt lon="101.201117" lat="14.334338">
                <ele>78.300000</ele>
                <time>2018-10-20T10:41:29Z</time>
            </trkpt>
            <trkpt lon="101.201216" lat="14.334370">
                <ele>78.600000</ele>
                <time>2018-10-20T10:41:35Z</time>
            </trkpt>
            <trkpt lon="101.201325" lat="14.334414">
                <ele>78.900000</ele>
                <time>2018-10-20T10:41:41Z</time>
            </trkpt>
            <trkpt lon="101.201436" lat="14.334461">
                <ele>79.400000</ele>
                <time>2018-10-20T10:41:48Z</time>
            </trkpt>
            <trkpt lon="101.201450" lat="14.334469">
                <ele>79.500000</ele>
                <time>2018-10-20T10:41:49Z</time>
            </trkpt>
            <trkpt lon="101.201528" lat="14.334499">
                <ele>79.900000</ele>
                <time>2018-10-20T10:41:56Z</time>
            </trkpt>
            <trkpt lon="101.201606" lat="14.334527">
                <ele>80.300000</ele>
                <time>2018-10-20T10:42:02Z</time>
            </trkpt>
            <trkpt lon="101.201617" lat="14.334533">
                <ele>80.300000</ele>
                <time>2018-10-20T10:42:03Z</time>
            </trkpt>
            <trkpt lon="101.201658" lat="14.334551">
                <ele>80.600000</ele>
                <time>2018-10-20T10:42:06Z</time>
            </trkpt>
            <trkpt lon="101.201697" lat="14.334561">
                <ele>81.200000</ele>
                <time>2018-10-20T10:42:09Z</time>
            </trkpt>
            <trkpt lon="101.201713" lat="14.334566">
                <ele>81.300000</ele>
                <time>2018-10-20T10:42:10Z</time>
            </trkpt>
            <trkpt lon="101.201740" lat="14.334570">
                <ele>81.600000</ele>
                <time>2018-10-20T10:42:12Z</time>
            </trkpt>
            <trkpt lon="101.201793" lat="14.334574">
                <ele>82.000000</ele>
                <time>2018-10-20T10:42:17Z</time>
            </trkpt>
            <trkpt lon="101.201804" lat="14.334575">
                <ele>82.100000</ele>
                <time>2018-10-20T10:42:18Z</time>
            </trkpt>
            <trkpt lon="101.201887" lat="14.334598">
                <ele>82.900000</ele>
                <time>2018-10-20T10:42:25Z</time>
            </trkpt>
            <trkpt lon="101.201978" lat="14.334611">
                <ele>83.900000</ele>
                <time>2018-10-20T10:42:33Z</time>
            </trkpt>
            <trkpt lon="101.202054" lat="14.334625">
                <ele>84.400000</ele>
                <time>2018-10-20T10:42:39Z</time>
            </trkpt>
            <trkpt lon="101.202077" lat="14.334633">
                <ele>84.600000</ele>
                <time>2018-10-20T10:42:41Z</time>
            </trkpt>
            <trkpt lon="101.202117" lat="14.334642">
                <ele>84.900000</ele>
                <time>2018-10-20T10:42:45Z</time>
            </trkpt>
            <trkpt lon="101.202146" lat="14.334646">
                <ele>85.200000</ele>
                <time>2018-10-20T10:42:47Z</time>
            </trkpt>
            <trkpt lon="101.202160" lat="14.334646">
                <ele>85.300000</ele>
                <time>2018-10-20T10:42:48Z</time>
            </trkpt>
            <trkpt lon="101.202204" lat="14.334643">
                <ele>85.800000</ele>
                <time>2018-10-20T10:42:51Z</time>
            </trkpt>
            <trkpt lon="101.202231" lat="14.334649">
                <ele>86.100000</ele>
                <time>2018-10-20T10:42:53Z</time>
            </trkpt>
            <trkpt lon="101.202287" lat="14.334653">
                <ele>86.900000</ele>
                <time>2018-10-20T10:42:57Z</time>
            </trkpt>
            <trkpt lon="101.202301" lat="14.334653">
                <ele>87.100000</ele>
                <time>2018-10-20T10:42:58Z</time>
            </trkpt>
            <trkpt lon="101.202327" lat="14.334655">
                <ele>87.600000</ele>
                <time>2018-10-20T10:43:00Z</time>
            </trkpt>
            <trkpt lon="101.202387" lat="14.334654">
                <ele>88.700000</ele>
                <time>2018-10-20T10:43:05Z</time>
            </trkpt>
            <trkpt lon="101.202398" lat="14.334644">
                <ele>89.000000</ele>
                <time>2018-10-20T10:43:06Z</time>
            </trkpt>
            <trkpt lon="101.202410" lat="14.334634">
                <ele>89.300000</ele>
                <time>2018-10-20T10:43:07Z</time>
            </trkpt>
            <trkpt lon="101.202477" lat="14.334585">
                <ele>90.600000</ele>
                <time>2018-10-20T10:43:11Z</time>
            </trkpt>
            <trkpt lon="101.202548" lat="14.334573">
                <ele>91.900000</ele>
                <time>2018-10-20T10:43:14Z</time>
            </trkpt>
            <trkpt lon="101.202607" lat="14.334565">
                <ele>93.000000</ele>
                <time>2018-10-20T10:43:17Z</time>
            </trkpt>
            <trkpt lon="101.202672" lat="14.334572">
                <ele>94.300000</ele>
                <time>2018-10-20T10:43:21Z</time>
            </trkpt>
            <trkpt lon="101.202702" lat="14.334581">
                <ele>94.300000</ele>
                <time>2018-10-20T10:43:23Z</time>
            </trkpt>
            <trkpt lon="101.202770" lat="14.334614">
                <ele>94.400000</ele>
                <time>2018-10-20T10:43:28Z</time>
            </trkpt>
            <trkpt lon="101.202785" lat="14.334622">
                <ele>94.400000</ele>
                <time>2018-10-20T10:43:29Z</time>
            </trkpt>
            <trkpt lon="101.202934" lat="14.334680">
                <ele>94.600000</ele>
                <time>2018-10-20T10:43:35Z</time>
            </trkpt>
            <trkpt lon="101.203048" lat="14.334751">
                <ele>94.600000</ele>
                <time>2018-10-20T10:43:41Z</time>
            </trkpt>
            <trkpt lon="101.203097" lat="14.334836">
                <ele>94.700000</ele>
                <time>2018-10-20T10:43:47Z</time>
            </trkpt>
            <trkpt lon="101.203109" lat="14.334876">
                <ele>94.700000</ele>
                <time>2018-10-20T10:43:49Z</time>
            </trkpt>
            <trkpt lon="101.203137" lat="14.334981">
                <ele>94.700000</ele>
                <time>2018-10-20T10:43:54Z</time>
            </trkpt>
            <trkpt lon="101.203154" lat="14.335062">
                <ele>94.700000</ele>
                <time>2018-10-20T10:43:57Z</time>
            </trkpt>
            <trkpt lon="101.203177" lat="14.335175">
                <ele>94.700000</ele>
                <time>2018-10-20T10:44:01Z</time>
            </trkpt>
            <trkpt lon="101.203185" lat="14.335286">
                <ele>94.600000</ele>
                <time>2018-10-20T10:44:05Z</time>
            </trkpt>
            <trkpt lon="101.203184" lat="14.335371">
                <ele>94.600000</ele>
                <time>2018-10-20T10:44:08Z</time>
            </trkpt>
            <trkpt lon="101.203185" lat="14.335538">
                <ele>94.600000</ele>
                <time>2018-10-20T10:44:13Z</time>
            </trkpt>
            <trkpt lon="101.203169" lat="14.335583">
                <ele>94.600000</ele>
                <time>2018-10-20T10:44:15Z</time>
            </trkpt>
            <trkpt lon="101.203163" lat="14.335649">
                <ele>94.700000</ele>
                <time>2018-10-20T10:44:18Z</time>
            </trkpt>
            <trkpt lon="101.203144" lat="14.335822">
                <ele>94.900000</ele>
                <time>2018-10-20T10:44:25Z</time>
            </trkpt>
            <trkpt lon="101.203139" lat="14.335851">
                <ele>95.000000</ele>
                <time>2018-10-20T10:44:26Z</time>
            </trkpt>
            <trkpt lon="101.203113" lat="14.336017">
                <ele>95.300000</ele>
                <time>2018-10-20T10:44:31Z</time>
            </trkpt>
            <trkpt lon="101.203106" lat="14.336091">
                <ele>95.400000</ele>
                <time>2018-10-20T10:44:34Z</time>
            </trkpt>
            <trkpt lon="101.203098" lat="14.336155">
                <ele>95.500000</ele>
                <time>2018-10-20T10:44:37Z</time>
            </trkpt>
            <trkpt lon="101.203077" lat="14.336311">
                <ele>95.800000</ele>
                <time>2018-10-20T10:44:43Z</time>
            </trkpt>
            <trkpt lon="101.203066" lat="14.336352">
                <ele>95.800000</ele>
                <time>2018-10-20T10:44:45Z</time>
            </trkpt>
            <trkpt lon="101.203024" lat="14.336503">
                <ele>95.900000</ele>
                <time>2018-10-20T10:44:50Z</time>
            </trkpt>
            <trkpt lon="101.203002" lat="14.336697">
                <ele>95.900000</ele>
                <time>2018-10-20T10:44:55Z</time>
            </trkpt>
            <trkpt lon="101.203000" lat="14.336729">
                <ele>95.900000</ele>
                <time>2018-10-20T10:44:56Z</time>
            </trkpt>
            <trkpt lon="101.202971" lat="14.336890">
                <ele>95.800000</ele>
                <time>2018-10-20T10:45:01Z</time>
            </trkpt>
            <trkpt lon="101.202956" lat="14.337056">
                <ele>95.600000</ele>
                <time>2018-10-20T10:45:06Z</time>
            </trkpt>
            <trkpt lon="101.202960" lat="14.337299">
                <ele>94.800000</ele>
                <time>2018-10-20T10:45:11Z</time>
            </trkpt>
            <trkpt lon="101.202973" lat="14.337604">
                <ele>93.600000</ele>
                <time>2018-10-20T10:45:15Z</time>
            </trkpt>
            <trkpt lon="101.202978" lat="14.337672">
                <ele>93.600000</ele>
                <time>2018-10-20T10:45:16Z</time>
            </trkpt>
            <trkpt lon="101.202977" lat="14.337835">
                <ele>93.700000</ele>
                <time>2018-10-20T10:45:19Z</time>
            </trkpt>
            <trkpt lon="101.202972" lat="14.337961">
                <ele>94.100000</ele>
                <time>2018-10-20T10:45:23Z</time>
            </trkpt>
            <trkpt lon="101.202968" lat="14.337993">
                <ele>94.200000</ele>
                <time>2018-10-20T10:45:25Z</time>
            </trkpt>
            <trkpt lon="101.202963" lat="14.338067">
                <ele>94.500000</ele>
                <time>2018-10-20T10:45:29Z</time>
            </trkpt>
            <trkpt lon="101.202951" lat="14.338158">
                <ele>95.000000</ele>
                <time>2018-10-20T10:45:35Z</time>
            </trkpt>
            <trkpt lon="101.202946" lat="14.338172">
                <ele>95.100000</ele>
                <time>2018-10-20T10:45:36Z</time>
            </trkpt>
            <trkpt lon="101.202925" lat="14.338296">
                <ele>96.000000</ele>
                <time>2018-10-20T10:45:44Z</time>
            </trkpt>
            <trkpt lon="101.202911" lat="14.338454">
                <ele>96.700000</ele>
                <time>2018-10-20T10:45:52Z</time>
            </trkpt>
            <trkpt lon="101.202893" lat="14.338538">
                <ele>97.000000</ele>
                <time>2018-10-20T10:45:56Z</time>
            </trkpt>
            <trkpt lon="101.202882" lat="14.338604">
                <ele>97.200000</ele>
                <time>2018-10-20T10:45:59Z</time>
            </trkpt>
            <trkpt lon="101.202863" lat="14.338774">
                <ele>97.600000</ele>
                <time>2018-10-20T10:46:07Z</time>
            </trkpt>
            <trkpt lon="101.202842" lat="14.338934">
                <ele>98.000000</ele>
                <time>2018-10-20T10:46:15Z</time>
            </trkpt>
            <trkpt lon="101.202825" lat="14.339059">
                <ele>98.500000</ele>
                <time>2018-10-20T10:46:20Z</time>
            </trkpt>
            <trkpt lon="101.202824" lat="14.339086">
                <ele>98.500000</ele>
                <time>2018-10-20T10:46:21Z</time>
            </trkpt>
            <trkpt lon="101.202817" lat="14.339220">
                <ele>99.100000</ele>
                <time>2018-10-20T10:46:28Z</time>
            </trkpt>
            <trkpt lon="101.202800" lat="14.339335">
                <ele>99.700000</ele>
                <time>2018-10-20T10:46:34Z</time>
            </trkpt>
            <trkpt lon="101.202801" lat="14.339371">
                <ele>100.000000</ele>
                <time>2018-10-20T10:46:36Z</time>
            </trkpt>
            <trkpt lon="101.202782" lat="14.339470">
                <ele>101.000000</ele>
                <time>2018-10-20T10:46:43Z</time>
            </trkpt>
            <trkpt lon="101.202784" lat="14.339488">
                <ele>101.200000</ele>
                <time>2018-10-20T10:46:44Z</time>
            </trkpt>
            <trkpt lon="101.202773" lat="14.339550">
                <ele>101.800000</ele>
                <time>2018-10-20T10:46:48Z</time>
            </trkpt>
            <trkpt lon="101.202778" lat="14.339653">
                <ele>102.600000</ele>
                <time>2018-10-20T10:46:55Z</time>
            </trkpt>
            <trkpt lon="101.202769" lat="14.339773">
                <ele>103.300000</ele>
                <time>2018-10-20T10:47:03Z</time>
            </trkpt>
            <trkpt lon="101.202744" lat="14.339912">
                <ele>103.500000</ele>
                <time>2018-10-20T10:47:11Z</time>
            </trkpt>
            <trkpt lon="101.202720" lat="14.340076">
                <ele>103.000000</ele>
                <time>2018-10-20T10:47:17Z</time>
            </trkpt>
            <trkpt lon="101.202711" lat="14.340168">
                <ele>102.300000</ele>
                <time>2018-10-20T10:47:19Z</time>
            </trkpt>
            <trkpt lon="101.202701" lat="14.340267">
                <ele>101.400000</ele>
                <time>2018-10-20T10:47:21Z</time>
            </trkpt>
            <trkpt lon="101.202695" lat="14.340399">
                <ele>100.100000</ele>
                <time>2018-10-20T10:47:25Z</time>
            </trkpt>
            <trkpt lon="101.202713" lat="14.340415">
                <ele>99.900000</ele>
                <time>2018-10-20T10:47:26Z</time>
            </trkpt>
            <trkpt lon="101.202767" lat="14.340419">
                <ele>99.500000</ele>
                <time>2018-10-20T10:47:28Z</time>
            </trkpt>
            <trkpt lon="101.202941" lat="14.340393">
                <ele>98.100000</ele>
                <time>2018-10-20T10:47:30Z</time>
            </trkpt>
            <trkpt lon="101.203317" lat="14.340308">
                <ele>96.900000</ele>
                <time>2018-10-20T10:47:35Z</time>
            </trkpt>
            <trkpt lon="101.203509" lat="14.340266">
                <ele>96.700000</ele>
                <time>2018-10-20T10:47:38Z</time>
            </trkpt>
            <trkpt lon="101.203677" lat="14.340218">
                <ele>96.500000</ele>
                <time>2018-10-20T10:47:41Z</time>
            </trkpt>
            <trkpt lon="101.203815" lat="14.340178">
                <ele>96.300000</ele>
                <time>2018-10-20T10:47:44Z</time>
            </trkpt>
            <trkpt lon="101.203904" lat="14.340166">
                <ele>96.100000</ele>
                <time>2018-10-20T10:47:46Z</time>
            </trkpt>
            <trkpt lon="101.204200" lat="14.340135">
                <ele>95.600000</ele>
                <time>2018-10-20T10:47:52Z</time>
            </trkpt>
            <trkpt lon="101.204254" lat="14.340126">
                <ele>95.500000</ele>
                <time>2018-10-20T10:47:53Z</time>
            </trkpt>
            <trkpt lon="101.204371" lat="14.340124">
                <ele>95.400000</ele>
                <time>2018-10-20T10:47:55Z</time>
            </trkpt>
            <trkpt lon="101.204462" lat="14.340146">
                <ele>95.400000</ele>
                <time>2018-10-20T10:47:57Z</time>
            </trkpt>
            <trkpt lon="101.204718" lat="14.340242">
                <ele>95.400000</ele>
                <time>2018-10-20T10:48:04Z</time>
            </trkpt>
            <trkpt lon="101.204819" lat="14.340354">
                <ele>95.300000</ele>
                <time>2018-10-20T10:48:09Z</time>
            </trkpt>
            <trkpt lon="101.204886" lat="14.340435">
                <ele>95.300000</ele>
                <time>2018-10-20T10:48:13Z</time>
            </trkpt>
            <trkpt lon="101.204961" lat="14.340524">
                <ele>95.200000</ele>
                <time>2018-10-20T10:48:18Z</time>
            </trkpt>
            <trkpt lon="101.205062" lat="14.340654">
                <ele>95.300000</ele>
                <time>2018-10-20T10:48:25Z</time>
            </trkpt>
            <trkpt lon="101.205183" lat="14.340786">
                <ele>95.400000</ele>
                <time>2018-10-20T10:48:33Z</time>
            </trkpt>
            <trkpt lon="101.205274" lat="14.340849">
                <ele>95.500000</ele>
                <time>2018-10-20T10:48:37Z</time>
            </trkpt>
            <trkpt lon="101.205384" lat="14.340913">
                <ele>95.600000</ele>
                <time>2018-10-20T10:48:42Z</time>
            </trkpt>
            <trkpt lon="101.205553" lat="14.340981">
                <ele>96.000000</ele>
                <time>2018-10-20T10:48:50Z</time>
            </trkpt>
            <trkpt lon="101.205622" lat="14.341003">
                <ele>96.100000</ele>
                <time>2018-10-20T10:48:56Z</time>
            </trkpt>
            <trkpt lon="101.205622" lat="14.341003">
                <ele>96.100000</ele>
                <time>2018-10-20T10:48:57Z</time>
            </trkpt>
        </trkseg>
    </trk>
</gpx>